<?xml version='1.0' encoding='UTF-8'?><gpx version="1.1" creator="JPX - https://github.com/jenetics/jpx" xmlns="http://www.topografix.com/GPX/1/1"><trk><trkseg><trkpt lat="38.9740414" lon="-2.8868089"><ele>788.0000000000001</ele><time>2026-04-19T06:35:14.946Z</time></trkpt><trkpt lat="38.9741079" lon="-2.8868291"><ele>788.0</ele><time>2026-04-19T06:35:35.946Z</time></trkpt><trkpt lat="38.9741787" lon="-2.8868664"><ele>788.0</ele><time>2026-04-19T06:35:40.946Z</time></trkpt><trkpt lat="38.9742275" lon="-2.8869274"><ele>788.0</ele><time>2026-04-19T06:35:45.946Z</time></trkpt><trkpt lat="38.974303" lon="-2.8869656"><ele>788.0000000000001</ele><time>2026-04-19T06:35:50.945Z</time></trkpt><trkpt lat="38.9743792" lon="-2.8869926"><ele>788.0</ele><time>2026-04-19T06:35:53.946Z</time></trkpt><trkpt lat="38.9744519" lon="-2.8869459"><ele>787.8333333333334</ele><time>2026-04-19T06:35:56.946Z</time></trkpt><trkpt lat="38.974518" lon="-2.8868873"><ele>787.6666666666667</ele><time>2026-04-19T06:35:59.946Z</time></trkpt><trkpt lat="38.9745956" lon="-2.8868164"><ele>787.5</ele><time>2026-04-19T06:36:02.946Z</time></trkpt><trkpt lat="38.9746663" lon="-2.8867741"><ele>787.3333333333333</ele><time>2026-04-19T06:36:04.946Z</time></trkpt><trkpt lat="38.9747568" lon="-2.8867656"><ele>787.1666666666666</ele><time>2026-04-19T06:36:06.946Z</time></trkpt><trkpt lat="38.9748522" lon="-2.886735"><ele>787.0</ele><time>2026-04-19T06:36:08.946Z</time></trkpt><trkpt lat="38.9749522" lon="-2.8866772"><ele>787.4000000000001</ele><time>2026-04-19T06:36:10.946Z</time></trkpt><trkpt lat="38.9750438" lon="-2.8866055"><ele>787.8000000000001</ele><time>2026-04-19T06:36:12.946Z</time></trkpt><trkpt lat="38.9751358" lon="-2.8865232"><ele>788.2</ele><time>2026-04-19T06:36:14.947Z</time></trkpt><trkpt lat="38.9752407" lon="-2.8864695"><ele>788.6</ele><time>2026-04-19T06:36:16.946Z</time></trkpt><trkpt lat="38.9753426" lon="-2.8864242"><ele>789.0</ele><time>2026-04-19T06:36:18.946Z</time></trkpt><trkpt lat="38.975431" lon="-2.8863385"><ele>789.0</ele><time>2026-04-19T06:36:20.946Z</time></trkpt><trkpt lat="38.975504" lon="-2.8862563"><ele>789.0</ele><time>2026-04-19T06:36:22.946Z</time></trkpt><trkpt lat="38.9755943" lon="-2.8861791"><ele>789.0</ele><time>2026-04-19T06:36:24.946Z</time></trkpt><trkpt lat="38.9756815" lon="-2.8861056"><ele>789.0</ele><time>2026-04-19T06:36:26.946Z</time></trkpt><trkpt lat="38.9757554" lon="-2.8860253"><ele>789.0</ele><time>2026-04-19T06:36:28.946Z</time></trkpt><trkpt lat="38.9758071" lon="-2.8859086"><ele>787.4000000000001</ele><time>2026-04-19T06:36:30.946Z</time></trkpt><trkpt lat="38.975857" lon="-2.8857696"><ele>785.8</ele><time>2026-04-19T06:36:32.946Z</time></trkpt><trkpt lat="38.9759247" lon="-2.8856356"><ele>784.2</ele><time>2026-04-19T06:36:34.946Z</time></trkpt><trkpt lat="38.9759935" lon="-2.8854977"><ele>782.5999999999999</ele><time>2026-04-19T06:36:36.946Z</time></trkpt><trkpt lat="38.9760336" lon="-2.8854282"><ele>781.0</ele><time>2026-04-19T06:36:37.946Z</time></trkpt><trkpt lat="38.9760743" lon="-2.8853586"><ele>781.0</ele><time>2026-04-19T06:36:38.946Z</time></trkpt><trkpt lat="38.9761212" lon="-2.8852881"><ele>781.0</ele><time>2026-04-19T06:36:39.946Z</time></trkpt><trkpt lat="38.9761704" lon="-2.8852147"><ele>781.0</ele><time>2026-04-19T06:36:40.946Z</time></trkpt><trkpt lat="38.976219" lon="-2.8851471"><ele>781.0</ele><time>2026-04-19T06:36:41.946Z</time></trkpt><trkpt lat="38.9762799" lon="-2.8850816"><ele>781.0</ele><time>2026-04-19T06:36:42.946Z</time></trkpt><trkpt lat="38.9763317" lon="-2.8850213"><ele>781.0</ele><time>2026-04-19T06:36:43.946Z</time></trkpt><trkpt lat="38.9763841" lon="-2.8849749"><ele>781.0</ele><time>2026-04-19T06:36:44.945Z</time></trkpt><trkpt lat="38.9764488" lon="-2.884924"><ele>780.9999999999999</ele><time>2026-04-19T06:36:46.946Z</time></trkpt><trkpt lat="38.9764092" lon="-2.8849928"><ele>781.0</ele><time>2026-04-19T06:36:52.946Z</time></trkpt><trkpt lat="38.9763257" lon="-2.8850553"><ele>781.0</ele><time>2026-04-19T06:36:55.946Z</time></trkpt><trkpt lat="38.9762664" lon="-2.8851148"><ele>781.0</ele><time>2026-04-19T06:36:57.946Z</time></trkpt><trkpt lat="38.9762183" lon="-2.8851838"><ele>780.9999999999999</ele><time>2026-04-19T06:36:59.945Z</time></trkpt><trkpt lat="38.976172" lon="-2.8852443"><ele>781.0</ele><time>2026-04-19T06:37:01.945Z</time></trkpt><trkpt lat="38.9761076" lon="-2.8853245"><ele>780.9999999999999</ele><time>2026-04-19T06:37:04.946Z</time></trkpt><trkpt lat="38.9760504" lon="-2.8854105"><ele>781.0</ele><time>2026-04-19T06:37:07.946Z</time></trkpt><trkpt lat="38.975994" lon="-2.8854883"><ele>781.0</ele><time>2026-04-19T06:37:10.946Z</time></trkpt><trkpt lat="38.9759391" lon="-2.8855851"><ele>781.0</ele><time>2026-04-19T06:37:13.946Z</time></trkpt><trkpt lat="38.9759062" lon="-2.8856628"><ele>780.9999999999999</ele><time>2026-04-19T06:37:15.946Z</time></trkpt><trkpt lat="38.9758783" lon="-2.8857403"><ele>781.0</ele><time>2026-04-19T06:37:17.946Z</time></trkpt><trkpt lat="38.9758529" lon="-2.8858153"><ele>782.3333333333333</ele><time>2026-04-19T06:37:19.946Z</time></trkpt><trkpt lat="38.9758108" lon="-2.8859076"><ele>783.6666666666666</ele><time>2026-04-19T06:37:22.946Z</time></trkpt><trkpt lat="38.9757629" lon="-2.8859906"><ele>785.0</ele><time>2026-04-19T06:37:25.945Z</time></trkpt><trkpt lat="38.9756897" lon="-2.886053"><ele>786.3333333333333</ele><time>2026-04-19T06:37:28.946Z</time></trkpt><trkpt lat="38.9756173" lon="-2.8861302"><ele>787.6666666666666</ele><time>2026-04-19T06:37:31.946Z</time></trkpt><trkpt lat="38.9755447" lon="-2.8861766"><ele>789.0</ele><time>2026-04-19T06:37:34.946Z</time></trkpt><trkpt lat="38.9754918" lon="-2.8862252"><ele>789.0</ele><time>2026-04-19T06:37:37.946Z</time></trkpt><trkpt lat="38.9754258" lon="-2.8862767"><ele>789.0</ele><time>2026-04-19T06:37:41.946Z</time></trkpt><trkpt lat="38.9753663" lon="-2.8863364"><ele>789.0</ele><time>2026-04-19T06:37:44.947Z</time></trkpt><trkpt lat="38.9753001" lon="-2.8864098"><ele>789.0</ele><time>2026-04-19T06:37:47.946Z</time></trkpt><trkpt lat="38.9752205" lon="-2.886468"><ele>789.0</ele><time>2026-04-19T06:37:50.946Z</time></trkpt><trkpt lat="38.9751534" lon="-2.8865229"><ele>789.0</ele><time>2026-04-19T06:37:53.945Z</time></trkpt><trkpt lat="38.9751203" lon="-2.8865963"><ele>788.9999999999999</ele><time>2026-04-19T06:39:09.946Z</time></trkpt><trkpt lat="38.9750452" lon="-2.8866253"><ele>789.0</ele><time>2026-04-19T06:39:14.945Z</time></trkpt><trkpt lat="38.9749909" lon="-2.8866763"><ele>789.0</ele><time>2026-04-19T06:39:17.946Z</time></trkpt><trkpt lat="38.9749227" lon="-2.8867173"><ele>789.0</ele><time>2026-04-19T06:39:20.946Z</time></trkpt><trkpt lat="38.9748727" lon="-2.8867668"><ele>789.0</ele><time>2026-04-19T06:39:23.946Z</time></trkpt><trkpt lat="38.9748364" lon="-2.8868336"><ele>788.9999999999999</ele><time>2026-04-19T06:39:26.946Z</time></trkpt><trkpt lat="38.974863" lon="-2.8867456"><ele>789.0</ele><time>2026-04-19T06:39:36.945Z</time></trkpt><trkpt lat="38.9749213" lon="-2.8867085"><ele>788.9999999999999</ele><time>2026-04-19T06:39:38.946Z</time></trkpt><trkpt lat="38.9749848" lon="-2.886677"><ele>789.0</ele><time>2026-04-19T06:39:40.946Z</time></trkpt><trkpt lat="38.9750475" lon="-2.8866377"><ele>789.0</ele><time>2026-04-19T06:39:42.946Z</time></trkpt><trkpt lat="38.9751116" lon="-2.8866073"><ele>789.0</ele><time>2026-04-19T06:39:45.946Z</time></trkpt><trkpt lat="38.9751506" lon="-2.8865409"><ele>789.0</ele><time>2026-04-19T06:39:50.946Z</time></trkpt><trkpt lat="38.9750866" lon="-2.8865842"><ele>788.9999999999999</ele><time>2026-04-19T06:44:17.946Z</time></trkpt><trkpt lat="38.9750256" lon="-2.8866183"><ele>789.0</ele><time>2026-04-19T06:44:20.946Z</time></trkpt><trkpt lat="38.9749499" lon="-2.8866793"><ele>788.7142857142857</ele><time>2026-04-19T06:44:23.946Z</time></trkpt><trkpt lat="38.9748915" lon="-2.8867178"><ele>788.4285714285714</ele><time>2026-04-19T06:44:25.946Z</time></trkpt><trkpt lat="38.9748271" lon="-2.886751"><ele>788.1428571428571</ele><time>2026-04-19T06:44:27.946Z</time></trkpt><trkpt lat="38.9747614" lon="-2.8867886"><ele>787.8571428571429</ele><time>2026-04-19T06:44:29.946Z</time></trkpt><trkpt lat="38.9746901" lon="-2.886807"><ele>787.5714285714286</ele><time>2026-04-19T06:44:31.946Z</time></trkpt><trkpt lat="38.9746209" lon="-2.8868137"><ele>787.2857142857142</ele><time>2026-04-19T06:44:33.946Z</time></trkpt><trkpt lat="38.9745543" lon="-2.8867925"><ele>787.0</ele><time>2026-04-19T06:44:35.946Z</time></trkpt><trkpt lat="38.9744906" lon="-2.8867446"><ele>787.6666666666666</ele><time>2026-04-19T06:44:37.946Z</time></trkpt><trkpt lat="38.9744308" lon="-2.8866888"><ele>788.3333333333333</ele><time>2026-04-19T06:44:39.946Z</time></trkpt><trkpt lat="38.9743587" lon="-2.8866412"><ele>789.0</ele><time>2026-04-19T06:44:41.946Z</time></trkpt><trkpt lat="38.9742883" lon="-2.8865898"><ele>789.6666666666667</ele><time>2026-04-19T06:44:43.946Z</time></trkpt><trkpt lat="38.9742143" lon="-2.8865386"><ele>790.3333333333334</ele><time>2026-04-19T06:44:45.946Z</time></trkpt><trkpt lat="38.9741428" lon="-2.8864775"><ele>791.0</ele><time>2026-04-19T06:44:47.946Z</time></trkpt><trkpt lat="38.9740712" lon="-2.8864221"><ele>791.0000000000001</ele><time>2026-04-19T06:44:49.945Z</time></trkpt><trkpt lat="38.9740033" lon="-2.8863672"><ele>791.0</ele><time>2026-04-19T06:44:51.946Z</time></trkpt><trkpt lat="38.9739382" lon="-2.8863118"><ele>791.0</ele><time>2026-04-19T06:44:53.945Z</time></trkpt><trkpt lat="38.9738805" lon="-2.8862574"><ele>791.0</ele><time>2026-04-19T06:44:55.946Z</time></trkpt><trkpt lat="38.9738214" lon="-2.8862051"><ele>791.0000000000001</ele><time>2026-04-19T06:44:57.945Z</time></trkpt><trkpt lat="38.97376" lon="-2.8861511"><ele>791.0</ele><time>2026-04-19T06:44:59.946Z</time></trkpt><trkpt lat="38.9736966" lon="-2.8860875"><ele>791.0000000000001</ele><time>2026-04-19T06:45:01.945Z</time></trkpt><trkpt lat="38.9736293" lon="-2.8860223"><ele>791.0</ele><time>2026-04-19T06:45:03.946Z</time></trkpt><trkpt lat="38.973567" lon="-2.8859496"><ele>791.0</ele><time>2026-04-19T06:45:05.946Z</time></trkpt><trkpt lat="38.9735123" lon="-2.8858629"><ele>791.0</ele><time>2026-04-19T06:45:07.946Z</time></trkpt><trkpt lat="38.9734545" lon="-2.8857794"><ele>791.0000000000001</ele><time>2026-04-19T06:45:09.946Z</time></trkpt><trkpt lat="38.9734018" lon="-2.8856931"><ele>791.0</ele><time>2026-04-19T06:45:11.946Z</time></trkpt><trkpt lat="38.9733518" lon="-2.8856105"><ele>791.0</ele><time>2026-04-19T06:45:13.946Z</time></trkpt><trkpt lat="38.9732978" lon="-2.8855424"><ele>791.0</ele><time>2026-04-19T06:45:15.946Z</time></trkpt><trkpt lat="38.9732522" lon="-2.8854596"><ele>791.0</ele><time>2026-04-19T06:45:17.946Z</time></trkpt><trkpt lat="38.9732239" lon="-2.8853673"><ele>791.0</ele><time>2026-04-19T06:45:19.946Z</time></trkpt><trkpt lat="38.9732301" lon="-2.8852714"><ele>791.0</ele><time>2026-04-19T06:45:21.946Z</time></trkpt><trkpt lat="38.9732415" lon="-2.8851912"><ele>791.0</ele><time>2026-04-19T06:45:23.946Z</time></trkpt><trkpt lat="38.9732546" lon="-2.8850916"><ele>791.0</ele><time>2026-04-19T06:45:26.946Z</time></trkpt><trkpt lat="38.9732812" lon="-2.8849898"><ele>792.2857142857143</ele><time>2026-04-19T06:45:29.946Z</time></trkpt><trkpt lat="38.9733133" lon="-2.8848986"><ele>793.5714285714286</ele><time>2026-04-19T06:45:32.946Z</time></trkpt><trkpt lat="38.9733291" lon="-2.8848121"><ele>794.8571428571429</ele><time>2026-04-19T06:45:35.946Z</time></trkpt><trkpt lat="38.9733564" lon="-2.8847353"><ele>796.1428571428571</ele><time>2026-04-19T06:45:38.946Z</time></trkpt><trkpt lat="38.9733896" lon="-2.8846533"><ele>797.4285714285714</ele><time>2026-04-19T06:45:41.946Z</time></trkpt><trkpt lat="38.9734189" lon="-2.8845695"><ele>798.7142857142858</ele><time>2026-04-19T06:45:44.946Z</time></trkpt><trkpt lat="38.9734503" lon="-2.8844877"><ele>800.0</ele><time>2026-04-19T06:45:47.946Z</time></trkpt><trkpt lat="38.9734609" lon="-2.8843978"><ele>801.6666666666667</ele><time>2026-04-19T06:45:50.946Z</time></trkpt><trkpt lat="38.9734783" lon="-2.8843194"><ele>803.3333333333334</ele><time>2026-04-19T06:45:53.946Z</time></trkpt><trkpt lat="38.9735079" lon="-2.8842204"><ele>805.0</ele><time>2026-04-19T06:45:57.946Z</time></trkpt><trkpt lat="38.9735318" lon="-2.8841198"><ele>806.6666666666667</ele><time>2026-04-19T06:46:01.947Z</time></trkpt><trkpt lat="38.9735617" lon="-2.8840222"><ele>808.3333333333334</ele><time>2026-04-19T06:46:05.946Z</time></trkpt><trkpt lat="38.9735262" lon="-2.8839268"><ele>810.0</ele><time>2026-04-19T06:46:09.946Z</time></trkpt><trkpt lat="38.9734585" lon="-2.8838981"><ele>810.0</ele><time>2026-04-19T06:46:13.945Z</time></trkpt><trkpt lat="38.9733885" lon="-2.8838386"><ele>810.0</ele><time>2026-04-19T06:46:17.945Z</time></trkpt><trkpt lat="38.9733362" lon="-2.8837569"><ele>810.0</ele><time>2026-04-19T06:46:21.946Z</time></trkpt><trkpt lat="38.9733328" lon="-2.8836656"><ele>810.0</ele><time>2026-04-19T06:46:24.946Z</time></trkpt><trkpt lat="38.9733804" lon="-2.88359"><ele>810.0</ele><time>2026-04-19T06:46:28.946Z</time></trkpt><trkpt lat="38.973426" lon="-2.8835111"><ele>810.0</ele><time>2026-04-19T06:46:32.946Z</time></trkpt><trkpt lat="38.9734637" lon="-2.8834301"><ele>810.6666666666666</ele><time>2026-04-19T06:46:36.946Z</time></trkpt><trkpt lat="38.9735077" lon="-2.8833532"><ele>811.3333333333333</ele><time>2026-04-19T06:46:40.946Z</time></trkpt><trkpt lat="38.9735416" lon="-2.8832761"><ele>812.0</ele><time>2026-04-19T06:46:43.946Z</time></trkpt><trkpt lat="38.9735912" lon="-2.883216"><ele>812.6666666666666</ele><time>2026-04-19T06:46:46.946Z</time></trkpt><trkpt lat="38.9736281" lon="-2.8831199"><ele>813.3333333333333</ele><time>2026-04-19T06:46:50.946Z</time></trkpt><trkpt lat="38.9736695" lon="-2.8830322"><ele>814.0</ele><time>2026-04-19T06:46:54.946Z</time></trkpt><trkpt lat="38.9737053" lon="-2.8829413"><ele>814.0000000000001</ele><time>2026-04-19T06:46:58.946Z</time></trkpt><trkpt lat="38.9737489" lon="-2.88285"><ele>814.0</ele><time>2026-04-19T06:47:02.946Z</time></trkpt><trkpt lat="38.9737915" lon="-2.8827589"><ele>814.0</ele><time>2026-04-19T06:47:06.946Z</time></trkpt><trkpt lat="38.9738277" lon="-2.8826862"><ele>814.0</ele><time>2026-04-19T06:47:09.947Z</time></trkpt><trkpt lat="38.9738649" lon="-2.8826177"><ele>814.0</ele><time>2026-04-19T06:47:12.946Z</time></trkpt><trkpt lat="38.9739035" lon="-2.882539"><ele>814.0000000000001</ele><time>2026-04-19T06:47:15.946Z</time></trkpt><trkpt lat="38.9739514" lon="-2.8824712"><ele>814.0</ele><time>2026-04-19T06:47:18.945Z</time></trkpt><trkpt lat="38.9740036" lon="-2.8823818"><ele>814.8333333333333</ele><time>2026-04-19T06:47:21.946Z</time></trkpt><trkpt lat="38.9739981" lon="-2.8822686"><ele>815.6666666666666</ele><time>2026-04-19T06:47:24.946Z</time></trkpt><trkpt lat="38.9739568" lon="-2.8821793"><ele>816.5</ele><time>2026-04-19T06:47:27.946Z</time></trkpt><trkpt lat="38.9738999" lon="-2.8820911"><ele>817.3333333333333</ele><time>2026-04-19T06:47:30.946Z</time></trkpt><trkpt lat="38.9738296" lon="-2.8820151"><ele>818.1666666666666</ele><time>2026-04-19T06:47:33.946Z</time></trkpt><trkpt lat="38.9737624" lon="-2.8819517"><ele>819.0</ele><time>2026-04-19T06:47:36.945Z</time></trkpt><trkpt lat="38.9736955" lon="-2.8818987"><ele>819.0</ele><time>2026-04-19T06:47:39.946Z</time></trkpt><trkpt lat="38.9736282" lon="-2.8818421"><ele>819.0</ele><time>2026-04-19T06:47:42.946Z</time></trkpt><trkpt lat="38.9735557" lon="-2.8817823"><ele>819.0</ele><time>2026-04-19T06:47:45.946Z</time></trkpt><trkpt lat="38.9734936" lon="-2.8817125"><ele>819.0</ele><time>2026-04-19T06:47:48.946Z</time></trkpt><trkpt lat="38.9734336" lon="-2.8816509"><ele>819.0</ele><time>2026-04-19T06:47:51.946Z</time></trkpt><trkpt lat="38.9733769" lon="-2.8815751"><ele>819.0</ele><time>2026-04-19T06:47:54.946Z</time></trkpt><trkpt lat="38.9733215" lon="-2.8815019"><ele>820.1428571428571</ele><time>2026-04-19T06:47:57.946Z</time></trkpt><trkpt lat="38.9732726" lon="-2.8814301"><ele>821.2857142857142</ele><time>2026-04-19T06:48:00.946Z</time></trkpt><trkpt lat="38.9732247" lon="-2.8813702"><ele>822.4285714285714</ele><time>2026-04-19T06:48:03.946Z</time></trkpt><trkpt lat="38.9731762" lon="-2.8813054"><ele>823.5714285714286</ele><time>2026-04-19T06:48:06.946Z</time></trkpt><trkpt lat="38.9731321" lon="-2.8812437"><ele>824.7142857142857</ele><time>2026-04-19T06:48:09.946Z</time></trkpt><trkpt lat="38.9730904" lon="-2.8811744"><ele>825.8571428571429</ele><time>2026-04-19T06:48:12.947Z</time></trkpt><trkpt lat="38.9730552" lon="-2.8811038"><ele>827.0</ele><time>2026-04-19T06:48:15.946Z</time></trkpt><trkpt lat="38.9730175" lon="-2.8810375"><ele>827.0</ele><time>2026-04-19T06:48:18.946Z</time></trkpt><trkpt lat="38.9729731" lon="-2.8809568"><ele>827.0</ele><time>2026-04-19T06:48:22.946Z</time></trkpt><trkpt lat="38.9729207" lon="-2.8808867"><ele>827.0</ele><time>2026-04-19T06:48:26.946Z</time></trkpt><trkpt lat="38.9728614" lon="-2.880833"><ele>827.0</ele><time>2026-04-19T06:48:30.946Z</time></trkpt><trkpt lat="38.972797" lon="-2.8807843"><ele>827.0</ele><time>2026-04-19T06:48:34.946Z</time></trkpt><trkpt lat="38.9727367" lon="-2.8807464"><ele>827.0</ele><time>2026-04-19T06:48:38.947Z</time></trkpt><trkpt lat="38.9726723" lon="-2.8807046"><ele>827.0</ele><time>2026-04-19T06:48:42.946Z</time></trkpt><trkpt lat="38.9726135" lon="-2.880666"><ele>827.8571428571429</ele><time>2026-04-19T06:48:46.946Z</time></trkpt><trkpt lat="38.9725514" lon="-2.8806254"><ele>828.7142857142857</ele><time>2026-04-19T06:48:51.946Z</time></trkpt><trkpt lat="38.9725044" lon="-2.8805703"><ele>829.5714285714286</ele><time>2026-04-19T06:48:55.945Z</time></trkpt><trkpt lat="38.9724706" lon="-2.880489"><ele>830.4285714285714</ele><time>2026-04-19T06:48:59.946Z</time></trkpt><trkpt lat="38.9724516" lon="-2.8804057"><ele>831.2857142857142</ele><time>2026-04-19T06:49:03.946Z</time></trkpt><trkpt lat="38.9724051" lon="-2.8803408"><ele>832.1428571428571</ele><time>2026-04-19T06:49:08.946Z</time></trkpt><trkpt lat="38.9723388" lon="-2.8802966"><ele>833.0</ele><time>2026-04-19T06:49:14.946Z</time></trkpt><trkpt lat="38.9723709" lon="-2.8802219"><ele>833.8333333333334</ele><time>2026-04-19T06:49:18.946Z</time></trkpt><trkpt lat="38.9724418" lon="-2.8801874"><ele>834.6666666666667</ele><time>2026-04-19T06:49:22.945Z</time></trkpt><trkpt lat="38.9724803" lon="-2.880095"><ele>835.5</ele><time>2026-04-19T06:49:26.946Z</time></trkpt><trkpt lat="38.9724453" lon="-2.880014"><ele>836.3333333333333</ele><time>2026-04-19T06:49:28.946Z</time></trkpt><trkpt lat="38.9723875" lon="-2.8799447"><ele>837.1666666666666</ele><time>2026-04-19T06:49:30.946Z</time></trkpt><trkpt lat="38.9723179" lon="-2.8798921"><ele>838.0</ele><time>2026-04-19T06:49:32.946Z</time></trkpt><trkpt lat="38.9722712" lon="-2.8797815"><ele>837.9999999999999</ele><time>2026-04-19T06:49:34.946Z</time></trkpt><trkpt lat="38.9722419" lon="-2.8796485"><ele>838.0</ele><time>2026-04-19T06:49:36.946Z</time></trkpt><trkpt lat="38.972265" lon="-2.8795525"><ele>838.0</ele><time>2026-04-19T06:49:38.946Z</time></trkpt><trkpt lat="38.9723056" lon="-2.8794717"><ele>838.0</ele><time>2026-04-19T06:49:40.946Z</time></trkpt><trkpt lat="38.9723354" lon="-2.8793879"><ele>837.9999999999999</ele><time>2026-04-19T06:49:42.946Z</time></trkpt><trkpt lat="38.9723731" lon="-2.879294"><ele>838.0</ele><time>2026-04-19T06:49:44.946Z</time></trkpt><trkpt lat="38.9723664" lon="-2.879157"><ele>836.9999999999999</ele><time>2026-04-19T06:49:46.946Z</time></trkpt><trkpt lat="38.9723571" lon="-2.8790564"><ele>836.0</ele><time>2026-04-19T06:49:48.946Z</time></trkpt><trkpt lat="38.972295" lon="-2.8789592"><ele>835.0</ele><time>2026-04-19T06:49:50.946Z</time></trkpt><trkpt lat="38.9722622" lon="-2.878851"><ele>834.0</ele><time>2026-04-19T06:49:52.946Z</time></trkpt><trkpt lat="38.9722376" lon="-2.8787375"><ele>832.9999999999999</ele><time>2026-04-19T06:49:54.946Z</time></trkpt><trkpt lat="38.972215" lon="-2.8786607"><ele>832.0</ele><time>2026-04-19T06:49:56.945Z</time></trkpt><trkpt lat="38.972175" lon="-2.8785845"><ele>831.9999999999999</ele><time>2026-04-19T06:49:58.946Z</time></trkpt><trkpt lat="38.9721454" lon="-2.8785063"><ele>832.0</ele><time>2026-04-19T06:50:02.946Z</time></trkpt><trkpt lat="38.9720866" lon="-2.8783958"><ele>832.0</ele><time>2026-04-19T06:50:05.945Z</time></trkpt><trkpt lat="38.9720189" lon="-2.8783242"><ele>832.0</ele><time>2026-04-19T06:50:07.945Z</time></trkpt><trkpt lat="38.9719501" lon="-2.8782569"><ele>831.9999999999999</ele><time>2026-04-19T06:50:09.945Z</time></trkpt><trkpt lat="38.9719029" lon="-2.8781823"><ele>832.0</ele><time>2026-04-19T06:50:12.947Z</time></trkpt><trkpt lat="38.9718995" lon="-2.8780823"><ele>831.2857142857142</ele><time>2026-04-19T06:50:16.946Z</time></trkpt><trkpt lat="38.9719388" lon="-2.8779819"><ele>830.5714285714287</ele><time>2026-04-19T06:50:20.946Z</time></trkpt><trkpt lat="38.9719891" lon="-2.8778982"><ele>829.8571428571429</ele><time>2026-04-19T06:50:23.946Z</time></trkpt><trkpt lat="38.9720369" lon="-2.8778365"><ele>829.1428571428571</ele><time>2026-04-19T06:50:26.947Z</time></trkpt><trkpt lat="38.9720663" lon="-2.8777623"><ele>828.4285714285713</ele><time>2026-04-19T06:50:29.946Z</time></trkpt><trkpt lat="38.9720898" lon="-2.8776799"><ele>827.7142857142858</ele><time>2026-04-19T06:50:32.946Z</time></trkpt><trkpt lat="38.9721111" lon="-2.8775934"><ele>827.0</ele><time>2026-04-19T06:50:35.946Z</time></trkpt><trkpt lat="38.9721505" lon="-2.8775194"><ele>826.5000000000001</ele><time>2026-04-19T06:50:38.946Z</time></trkpt><trkpt lat="38.9721958" lon="-2.8774405"><ele>826.0</ele><time>2026-04-19T06:50:41.946Z</time></trkpt><trkpt lat="38.9722519" lon="-2.8773819"><ele>825.5</ele><time>2026-04-19T06:50:44.946Z</time></trkpt><trkpt lat="38.9723194" lon="-2.8773326"><ele>825.0</ele><time>2026-04-19T06:50:47.945Z</time></trkpt><trkpt lat="38.9723854" lon="-2.8772706"><ele>824.5000000000001</ele><time>2026-04-19T06:50:50.946Z</time></trkpt><trkpt lat="38.9724624" lon="-2.877227"><ele>824.0</ele><time>2026-04-19T06:50:53.946Z</time></trkpt><trkpt lat="38.9725255" lon="-2.8771534"><ele>825.5000000000001</ele><time>2026-04-19T06:50:56.946Z</time></trkpt><trkpt lat="38.9726155" lon="-2.877133"><ele>827.0</ele><time>2026-04-19T06:50:59.946Z</time></trkpt><trkpt lat="38.9726981" lon="-2.8771149"><ele>828.5</ele><time>2026-04-19T06:51:02.946Z</time></trkpt><trkpt lat="38.9727754" lon="-2.8770798"><ele>830.0</ele><time>2026-04-19T06:51:05.946Z</time></trkpt><trkpt lat="38.9728472" lon="-2.8770102"><ele>831.5000000000001</ele><time>2026-04-19T06:51:08.946Z</time></trkpt><trkpt lat="38.9729089" lon="-2.8769215"><ele>833.0</ele><time>2026-04-19T06:51:11.946Z</time></trkpt><trkpt lat="38.9729761" lon="-2.8768355"><ele>833.0000000000001</ele><time>2026-04-19T06:51:14.946Z</time></trkpt><trkpt lat="38.9730239" lon="-2.8767785"><ele>833.0</ele><time>2026-04-19T06:51:16.971Z</time></trkpt><trkpt lat="38.9731041" lon="-2.8767212"><ele>833.0</ele><time>2026-04-19T06:51:19.946Z</time></trkpt><trkpt lat="38.9731826" lon="-2.8766755"><ele>833.0</ele><time>2026-04-19T06:51:22.946Z</time></trkpt><trkpt lat="38.9732602" lon="-2.8766183"><ele>833.0000000000001</ele><time>2026-04-19T06:51:25.946Z</time></trkpt><trkpt lat="38.9733449" lon="-2.8765848"><ele>833.0</ele><time>2026-04-19T06:51:28.946Z</time></trkpt><trkpt lat="38.9734282" lon="-2.8765683"><ele>833.5000000000001</ele><time>2026-04-19T06:51:31.945Z</time></trkpt><trkpt lat="38.973496" lon="-2.8765687"><ele>834.0</ele><time>2026-04-19T06:51:34.946Z</time></trkpt><trkpt lat="38.9735727" lon="-2.8765348"><ele>834.5</ele><time>2026-04-19T06:51:37.946Z</time></trkpt><trkpt lat="38.9736075" lon="-2.8764412"><ele>835.0</ele><time>2026-04-19T06:51:40.946Z</time></trkpt><trkpt lat="38.9736272" lon="-2.8763298"><ele>835.5000000000001</ele><time>2026-04-19T06:51:43.946Z</time></trkpt><trkpt lat="38.9736528" lon="-2.8762298"><ele>836.0</ele><time>2026-04-19T06:51:46.946Z</time></trkpt><trkpt lat="38.9736654" lon="-2.8761287"><ele>836.0000000000001</ele><time>2026-04-19T06:51:49.946Z</time></trkpt><trkpt lat="38.9736538" lon="-2.8760077"><ele>836.0</ele><time>2026-04-19T06:51:52.946Z</time></trkpt><trkpt lat="38.9736443" lon="-2.8758862"><ele>836.0</ele><time>2026-04-19T06:51:55.946Z</time></trkpt><trkpt lat="38.9736766" lon="-2.8757747"><ele>836.0</ele><time>2026-04-19T06:51:58.945Z</time></trkpt><trkpt lat="38.9737201" lon="-2.8757095"><ele>836.0000000000001</ele><time>2026-04-19T06:52:00.946Z</time></trkpt><trkpt lat="38.9737538" lon="-2.8756401"><ele>836.0</ele><time>2026-04-19T06:52:02.946Z</time></trkpt><trkpt lat="38.9737882" lon="-2.8755336"><ele>836.1666666666667</ele><time>2026-04-19T06:52:05.946Z</time></trkpt><trkpt lat="38.9738293" lon="-2.8754421"><ele>836.3333333333334</ele><time>2026-04-19T06:52:08.946Z</time></trkpt><trkpt lat="38.9738788" lon="-2.8753518"><ele>836.5</ele><time>2026-04-19T06:52:11.946Z</time></trkpt><trkpt lat="38.9739228" lon="-2.8752612"><ele>836.6666666666667</ele><time>2026-04-19T06:52:14.946Z</time></trkpt><trkpt lat="38.9739585" lon="-2.875193"><ele>836.8333333333334</ele><time>2026-04-19T06:52:16.946Z</time></trkpt><trkpt lat="38.974025" lon="-2.8751174"><ele>837.0</ele><time>2026-04-19T06:52:19.946Z</time></trkpt><trkpt lat="38.9740817" lon="-2.875023"><ele>837.0</ele><time>2026-04-19T06:52:22.947Z</time></trkpt><trkpt lat="38.9741084" lon="-2.8749036"><ele>837.0</ele><time>2026-04-19T06:52:25.946Z</time></trkpt><trkpt lat="38.9741402" lon="-2.8747964"><ele>837.0</ele><time>2026-04-19T06:52:28.946Z</time></trkpt><trkpt lat="38.9741859" lon="-2.8746959"><ele>837.0</ele><time>2026-04-19T06:52:31.946Z</time></trkpt><trkpt lat="38.9742207" lon="-2.8746262"><ele>837.0</ele><time>2026-04-19T06:52:33.946Z</time></trkpt><trkpt lat="38.9742627" lon="-2.8745282"><ele>837.0</ele><time>2026-04-19T06:52:36.945Z</time></trkpt><trkpt lat="38.9742835" lon="-2.8744191"><ele>838.4285714285714</ele><time>2026-04-19T06:52:39.946Z</time></trkpt><trkpt lat="38.9743009" lon="-2.8743229"><ele>839.8571428571429</ele><time>2026-04-19T06:52:42.946Z</time></trkpt><trkpt lat="38.9742953" lon="-2.874214"><ele>841.2857142857142</ele><time>2026-04-19T06:52:46.946Z</time></trkpt><trkpt lat="38.9742806" lon="-2.8741246"><ele>842.7142857142858</ele><time>2026-04-19T06:52:49.946Z</time></trkpt><trkpt lat="38.97425" lon="-2.8740465"><ele>844.1428571428571</ele><time>2026-04-19T06:52:52.945Z</time></trkpt><trkpt lat="38.9742071" lon="-2.8739738"><ele>845.5714285714286</ele><time>2026-04-19T06:52:55.946Z</time></trkpt><trkpt lat="38.9742207" lon="-2.8738938"><ele>847.0</ele><time>2026-04-19T06:52:58.946Z</time></trkpt><trkpt lat="38.9742539" lon="-2.8737986"><ele>846.9999999999999</ele><time>2026-04-19T06:53:02.946Z</time></trkpt><trkpt lat="38.9743077" lon="-2.8737172"><ele>847.0</ele><time>2026-04-19T06:53:06.946Z</time></trkpt><trkpt lat="38.9743668" lon="-2.8736518"><ele>847.0</ele><time>2026-04-19T06:53:10.946Z</time></trkpt><trkpt lat="38.9744291" lon="-2.8735955"><ele>847.0</ele><time>2026-04-19T06:53:14.946Z</time></trkpt><trkpt lat="38.9744785" lon="-2.8735319"><ele>846.9999999999999</ele><time>2026-04-19T06:53:19.946Z</time></trkpt><trkpt lat="38.9745307" lon="-2.8734596"><ele>847.0</ele><time>2026-04-19T06:53:24.946Z</time></trkpt><trkpt lat="38.97458" lon="-2.8733987"><ele>846.7142857142857</ele><time>2026-04-19T06:53:28.946Z</time></trkpt><trkpt lat="38.9746191" lon="-2.8733326"><ele>846.4285714285714</ele><time>2026-04-19T06:53:32.947Z</time></trkpt><trkpt lat="38.9746666" lon="-2.873261"><ele>846.1428571428571</ele><time>2026-04-19T06:53:37.947Z</time></trkpt><trkpt lat="38.9747032" lon="-2.8731821"><ele>845.8571428571429</ele><time>2026-04-19T06:53:42.946Z</time></trkpt><trkpt lat="38.9747114" lon="-2.8730847"><ele>845.5714285714286</ele><time>2026-04-19T06:53:47.945Z</time></trkpt><trkpt lat="38.974702" lon="-2.8729911"><ele>845.2857142857142</ele><time>2026-04-19T06:53:51.946Z</time></trkpt><trkpt lat="38.9746951" lon="-2.8729055"><ele>845.0</ele><time>2026-04-19T06:53:55.947Z</time></trkpt><trkpt lat="38.9746968" lon="-2.8728157"><ele>845.0000000000001</ele><time>2026-04-19T06:53:59.946Z</time></trkpt><trkpt lat="38.9747245" lon="-2.8727264"><ele>845.0</ele><time>2026-04-19T06:54:03.946Z</time></trkpt><trkpt lat="38.9747443" lon="-2.8726215"><ele>845.0</ele><time>2026-04-19T06:54:07.946Z</time></trkpt><trkpt lat="38.9747541" lon="-2.8725185"><ele>845.0</ele><time>2026-04-19T06:54:11.946Z</time></trkpt><trkpt lat="38.9747594" lon="-2.8724141"><ele>845.0000000000001</ele><time>2026-04-19T06:54:14.946Z</time></trkpt><trkpt lat="38.9747647" lon="-2.872304"><ele>845.0</ele><time>2026-04-19T06:54:17.946Z</time></trkpt><trkpt lat="38.9747656" lon="-2.8722217"><ele>845.9999999999999</ele><time>2026-04-19T06:54:20.946Z</time></trkpt><trkpt lat="38.9747635" lon="-2.8721405"><ele>847.0</ele><time>2026-04-19T06:54:23.946Z</time></trkpt><trkpt lat="38.9747503" lon="-2.8720312"><ele>848.0</ele><time>2026-04-19T06:54:27.946Z</time></trkpt><trkpt lat="38.9747303" lon="-2.8719503"><ele>849.0</ele><time>2026-04-19T06:54:30.943Z</time></trkpt><trkpt lat="38.9747097" lon="-2.8718636"><ele>850.0</ele><time>2026-04-19T06:54:34.946Z</time></trkpt><trkpt lat="38.9746853" lon="-2.8717841"><ele>850.9999999999999</ele><time>2026-04-19T06:54:38.946Z</time></trkpt><trkpt lat="38.9746464" lon="-2.871697"><ele>852.0</ele><time>2026-04-19T06:54:43.946Z</time></trkpt><trkpt lat="38.9746063" lon="-2.8716285"><ele>852.8571428571428</ele><time>2026-04-19T06:54:47.946Z</time></trkpt><trkpt lat="38.9745582" lon="-2.8715609"><ele>853.7142857142857</ele><time>2026-04-19T06:54:51.945Z</time></trkpt><trkpt lat="38.9745231" lon="-2.8714831"><ele>854.5714285714286</ele><time>2026-04-19T06:54:55.946Z</time></trkpt><trkpt lat="38.9744915" lon="-2.8714054"><ele>855.4285714285713</ele><time>2026-04-19T06:54:59.946Z</time></trkpt><trkpt lat="38.9744723" lon="-2.8713105"><ele>856.2857142857143</ele><time>2026-04-19T06:55:03.947Z</time></trkpt><trkpt lat="38.9744197" lon="-2.8712469"><ele>857.1428571428571</ele><time>2026-04-19T06:55:07.946Z</time></trkpt><trkpt lat="38.9743588" lon="-2.8711825"><ele>858.0</ele><time>2026-04-19T06:55:11.945Z</time></trkpt><trkpt lat="38.9743207" lon="-2.8711124"><ele>858.0</ele><time>2026-04-19T06:55:15.946Z</time></trkpt><trkpt lat="38.9742774" lon="-2.8710476"><ele>858.0</ele><time>2026-04-19T06:55:19.946Z</time></trkpt><trkpt lat="38.9742308" lon="-2.870993"><ele>858.0</ele><time>2026-04-19T06:55:23.946Z</time></trkpt><trkpt lat="38.9741842" lon="-2.870937"><ele>858.0</ele><time>2026-04-19T06:55:27.946Z</time></trkpt><trkpt lat="38.9741388" lon="-2.8708631"><ele>858.0</ele><time>2026-04-19T06:55:32.947Z</time></trkpt><trkpt lat="38.9740907" lon="-2.8707834"><ele>858.0</ele><time>2026-04-19T06:55:37.946Z</time></trkpt><trkpt lat="38.9740646" lon="-2.8707038"><ele>858.0</ele><time>2026-04-19T06:55:41.946Z</time></trkpt><trkpt lat="38.9740444" lon="-2.8706181"><ele>859.6666666666666</ele><time>2026-04-19T06:55:45.946Z</time></trkpt><trkpt lat="38.9739876" lon="-2.8705671"><ele>861.3333333333333</ele><time>2026-04-19T06:55:49.946Z</time></trkpt><trkpt lat="38.973956" lon="-2.8704822"><ele>863.0</ele><time>2026-04-19T06:55:53.946Z</time></trkpt><trkpt lat="38.9739725" lon="-2.8703937"><ele>864.6666666666666</ele><time>2026-04-19T06:55:56.946Z</time></trkpt><trkpt lat="38.9740079" lon="-2.8702984"><ele>866.3333333333333</ele><time>2026-04-19T06:56:00.946Z</time></trkpt><trkpt lat="38.9740408" lon="-2.8702061"><ele>868.0</ele><time>2026-04-19T06:56:04.946Z</time></trkpt><trkpt lat="38.9740663" lon="-2.8701124"><ele>868.5714285714286</ele><time>2026-04-19T06:56:08.946Z</time></trkpt><trkpt lat="38.9740858" lon="-2.8700131"><ele>869.1428571428571</ele><time>2026-04-19T06:56:12.946Z</time></trkpt><trkpt lat="38.974081" lon="-2.8699094"><ele>869.7142857142858</ele><time>2026-04-19T06:56:16.946Z</time></trkpt><trkpt lat="38.9740974" lon="-2.8698304"><ele>870.2857142857142</ele><time>2026-04-19T06:56:19.946Z</time></trkpt><trkpt lat="38.9741479" lon="-2.8697511"><ele>870.8571428571429</ele><time>2026-04-19T06:56:23.946Z</time></trkpt><trkpt lat="38.9741912" lon="-2.8696877"><ele>871.4285714285714</ele><time>2026-04-19T06:56:26.946Z</time></trkpt><trkpt lat="38.9742502" lon="-2.8696266"><ele>872.0</ele><time>2026-04-19T06:56:30.946Z</time></trkpt><trkpt lat="38.974306" lon="-2.8695513"><ele>872.4285714285714</ele><time>2026-04-19T06:56:34.946Z</time></trkpt><trkpt lat="38.9743517" lon="-2.86949"><ele>872.8571428571429</ele><time>2026-04-19T06:56:37.946Z</time></trkpt><trkpt lat="38.9744052" lon="-2.8694241"><ele>873.2857142857142</ele><time>2026-04-19T06:56:41.945Z</time></trkpt><trkpt lat="38.9744468" lon="-2.8693458"><ele>873.7142857142858</ele><time>2026-04-19T06:56:44.946Z</time></trkpt><trkpt lat="38.974471" lon="-2.8692595"><ele>874.1428571428571</ele><time>2026-04-19T06:56:47.947Z</time></trkpt><trkpt lat="38.9744778" lon="-2.8691728"><ele>874.5714285714286</ele><time>2026-04-19T06:56:50.947Z</time></trkpt><trkpt lat="38.9744851" lon="-2.8690894"><ele>875.0</ele><time>2026-04-19T06:56:53.947Z</time></trkpt><trkpt lat="38.9745103" lon="-2.8690148"><ele>875.6666666666667</ele><time>2026-04-19T06:56:56.947Z</time></trkpt><trkpt lat="38.9745242" lon="-2.8689133"><ele>876.3333333333334</ele><time>2026-04-19T06:57:00.946Z</time></trkpt><trkpt lat="38.974523" lon="-2.868822"><ele>877.0</ele><time>2026-04-19T06:57:03.947Z</time></trkpt><trkpt lat="38.974512" lon="-2.8687167"><ele>877.6666666666667</ele><time>2026-04-19T06:57:06.947Z</time></trkpt><trkpt lat="38.9744901" lon="-2.8686317"><ele>878.3333333333334</ele><time>2026-04-19T06:57:09.947Z</time></trkpt><trkpt lat="38.9744581" lon="-2.868545"><ele>879.0</ele><time>2026-04-19T06:57:12.947Z</time></trkpt><trkpt lat="38.9744169" lon="-2.8684549"><ele>879.3333333333334</ele><time>2026-04-19T06:57:15.947Z</time></trkpt><trkpt lat="38.9743685" lon="-2.8683657"><ele>879.6666666666667</ele><time>2026-04-19T06:57:18.947Z</time></trkpt><trkpt lat="38.9743084" lon="-2.8682721"><ele>880.0</ele><time>2026-04-19T06:57:21.947Z</time></trkpt><trkpt lat="38.9742333" lon="-2.8682575"><ele>880.3333333333334</ele><time>2026-04-19T06:57:23.947Z</time></trkpt><trkpt lat="38.974148" lon="-2.8682553"><ele>880.6666666666667</ele><time>2026-04-19T06:57:25.947Z</time></trkpt><trkpt lat="38.9740531" lon="-2.8682534"><ele>881.0</ele><time>2026-04-19T06:57:27.947Z</time></trkpt><trkpt lat="38.973963" lon="-2.8682905"><ele>880.0</ele><time>2026-04-19T06:57:29.947Z</time></trkpt><trkpt lat="38.9738937" lon="-2.868369"><ele>878.9999999999999</ele><time>2026-04-19T06:57:31.947Z</time></trkpt><trkpt lat="38.9738091" lon="-2.8684238"><ele>877.9999999999999</ele><time>2026-04-19T06:57:33.947Z</time></trkpt><trkpt lat="38.9737199" lon="-2.8684803"><ele>877.0</ele><time>2026-04-19T06:57:35.947Z</time></trkpt><trkpt lat="38.9736413" lon="-2.8685642"><ele>876.0</ele><time>2026-04-19T06:57:37.946Z</time></trkpt><trkpt lat="38.9735428" lon="-2.8686127"><ele>875.8</ele><time>2026-04-19T06:57:39.947Z</time></trkpt><trkpt lat="38.9734446" lon="-2.8686576"><ele>875.5999999999999</ele><time>2026-04-19T06:57:41.947Z</time></trkpt><trkpt lat="38.9733414" lon="-2.8686984"><ele>875.4</ele><time>2026-04-19T06:57:43.947Z</time></trkpt><trkpt lat="38.9732267" lon="-2.8687248"><ele>875.2</ele><time>2026-04-19T06:57:45.947Z</time></trkpt><trkpt lat="38.9731083" lon="-2.8687508"><ele>875.0</ele><time>2026-04-19T06:57:47.946Z</time></trkpt><trkpt lat="38.9729982" lon="-2.8688168"><ele>874.6</ele><time>2026-04-19T06:57:49.947Z</time></trkpt><trkpt lat="38.9728728" lon="-2.8688393"><ele>874.2</ele><time>2026-04-19T06:57:51.947Z</time></trkpt><trkpt lat="38.9727534" lon="-2.868827"><ele>873.8</ele><time>2026-04-19T06:57:53.947Z</time></trkpt><trkpt lat="38.9727037" lon="-2.8687667"><ele>873.4</ele><time>2026-04-19T06:57:54.947Z</time></trkpt><trkpt lat="38.9725845" lon="-2.8687389"><ele>873.0</ele><time>2026-04-19T06:57:56.947Z</time></trkpt><trkpt lat="38.972463" lon="-2.8687057"><ele>872.0</ele><time>2026-04-19T06:57:58.947Z</time></trkpt><trkpt lat="38.9723597" lon="-2.8687155"><ele>871.0</ele><time>2026-04-19T06:58:00.946Z</time></trkpt><trkpt lat="38.972272" lon="-2.8687854"><ele>870.0</ele><time>2026-04-19T06:58:02.947Z</time></trkpt><trkpt lat="38.9721645" lon="-2.8688275"><ele>869.0</ele><time>2026-04-19T06:58:04.947Z</time></trkpt><trkpt lat="38.9720496" lon="-2.8688482"><ele>868.0</ele><time>2026-04-19T06:58:06.947Z</time></trkpt><trkpt lat="38.9719307" lon="-2.868858"><ele>868.0</ele><time>2026-04-19T06:58:08.947Z</time></trkpt><trkpt lat="38.971811" lon="-2.8688607"><ele>868.0</ele><time>2026-04-19T06:58:10.947Z</time></trkpt><trkpt lat="38.9717122" lon="-2.8689092"><ele>868.0</ele><time>2026-04-19T06:58:12.947Z</time></trkpt><trkpt lat="38.9716316" lon="-2.8689781"><ele>868.0</ele><time>2026-04-19T06:58:14.947Z</time></trkpt><trkpt lat="38.9715482" lon="-2.8690157"><ele>868.0</ele><time>2026-04-19T06:58:16.947Z</time></trkpt><trkpt lat="38.9714785" lon="-2.8690635"><ele>867.4999999999999</ele><time>2026-04-19T06:58:19.947Z</time></trkpt><trkpt lat="38.9714089" lon="-2.8691181"><ele>867.0</ele><time>2026-04-19T06:58:23.947Z</time></trkpt><trkpt lat="38.971358" lon="-2.8691766"><ele>866.5</ele><time>2026-04-19T06:58:27.947Z</time></trkpt><trkpt lat="38.9714067" lon="-2.8691085"><ele>866.0</ele><time>2026-04-19T06:58:32.947Z</time></trkpt><trkpt lat="38.9714812" lon="-2.8690491"><ele>865.4999999999999</ele><time>2026-04-19T06:58:35.947Z</time></trkpt><trkpt lat="38.9715606" lon="-2.8690152"><ele>865.0</ele><time>2026-04-19T06:58:38.947Z</time></trkpt><trkpt lat="38.9716268" lon="-2.8689733"><ele>865.4999999999999</ele><time>2026-04-19T06:58:41.947Z</time></trkpt><trkpt lat="38.9716958" lon="-2.8689075"><ele>866.0</ele><time>2026-04-19T06:58:45.947Z</time></trkpt><trkpt lat="38.971768" lon="-2.8688622"><ele>866.5</ele><time>2026-04-19T06:58:48.947Z</time></trkpt><trkpt lat="38.971842" lon="-2.8688534"><ele>867.0</ele><time>2026-04-19T06:58:51.947Z</time></trkpt><trkpt lat="38.9719133" lon="-2.868853"><ele>867.4999999999999</ele><time>2026-04-19T06:58:54.947Z</time></trkpt><trkpt lat="38.971979" lon="-2.868847"><ele>868.0</ele><time>2026-04-19T06:58:58.947Z</time></trkpt><trkpt lat="38.9720513" lon="-2.868851"><ele>867.9999999999999</ele><time>2026-04-19T06:59:02.947Z</time></trkpt><trkpt lat="38.9721272" lon="-2.8688372"><ele>868.0</ele><time>2026-04-19T06:59:06.946Z</time></trkpt><trkpt lat="38.9721848" lon="-2.8687802"><ele>868.0</ele><time>2026-04-19T06:59:09.947Z</time></trkpt><trkpt lat="38.9721891" lon="-2.8686594"><ele>868.0</ele><time>2026-04-19T06:59:12.947Z</time></trkpt><trkpt lat="38.9721846" lon="-2.8685622"><ele>867.9999999999999</ele><time>2026-04-19T06:59:14.947Z</time></trkpt><trkpt lat="38.9721738" lon="-2.8684536"><ele>868.0</ele><time>2026-04-19T06:59:16.947Z</time></trkpt><trkpt lat="38.9721722" lon="-2.868336"><ele>868.3333333333333</ele><time>2026-04-19T06:59:18.947Z</time></trkpt><trkpt lat="38.9721663" lon="-2.86822"><ele>868.6666666666666</ele><time>2026-04-19T06:59:20.947Z</time></trkpt><trkpt lat="38.9721455" lon="-2.8681059"><ele>869.0</ele><time>2026-04-19T06:59:22.947Z</time></trkpt><trkpt lat="38.9721207" lon="-2.8679962"><ele>869.3333333333333</ele><time>2026-04-19T06:59:24.947Z</time></trkpt><trkpt lat="38.9720979" lon="-2.8678933"><ele>869.6666666666666</ele><time>2026-04-19T06:59:26.947Z</time></trkpt><trkpt lat="38.972082" lon="-2.8677828"><ele>870.0</ele><time>2026-04-19T06:59:28.947Z</time></trkpt><trkpt lat="38.9720773" lon="-2.8676665"><ele>869.8</ele><time>2026-04-19T06:59:30.947Z</time></trkpt><trkpt lat="38.9720631" lon="-2.8675454"><ele>869.6</ele><time>2026-04-19T06:59:32.947Z</time></trkpt><trkpt lat="38.9720075" lon="-2.8674414"><ele>869.4000000000001</ele><time>2026-04-19T06:59:34.947Z</time></trkpt><trkpt lat="38.9719291" lon="-2.8673587"><ele>869.2</ele><time>2026-04-19T06:59:36.947Z</time></trkpt><trkpt lat="38.9718534" lon="-2.867278"><ele>869.0</ele><time>2026-04-19T06:59:38.947Z</time></trkpt><trkpt lat="38.9717692" lon="-2.8672065"><ele>868.3333333333334</ele><time>2026-04-19T06:59:40.947Z</time></trkpt><trkpt lat="38.9716895" lon="-2.8671518"><ele>867.6666666666667</ele><time>2026-04-19T06:59:42.947Z</time></trkpt><trkpt lat="38.9716355" lon="-2.8670902"><ele>867.0</ele><time>2026-04-19T06:59:44.947Z</time></trkpt><trkpt lat="38.971666" lon="-2.8669772"><ele>866.3333333333333</ele><time>2026-04-19T06:59:47.947Z</time></trkpt><trkpt lat="38.9716813" lon="-2.8668686"><ele>865.6666666666666</ele><time>2026-04-19T06:59:49.947Z</time></trkpt><trkpt lat="38.9717365" lon="-2.8667714"><ele>865.0</ele><time>2026-04-19T06:59:51.947Z</time></trkpt><trkpt lat="38.9717978" lon="-2.8666868"><ele>864.8</ele><time>2026-04-19T06:59:53.946Z</time></trkpt><trkpt lat="38.9718593" lon="-2.86658"><ele>864.6</ele><time>2026-04-19T06:59:55.947Z</time></trkpt><trkpt lat="38.9719174" lon="-2.8664549"><ele>864.4000000000001</ele><time>2026-04-19T06:59:57.947Z</time></trkpt><trkpt lat="38.9719734" lon="-2.8663542"><ele>864.2</ele><time>2026-04-19T06:59:59.947Z</time></trkpt><trkpt lat="38.9720098" lon="-2.866256"><ele>864.0</ele><time>2026-04-19T07:00:01.947Z</time></trkpt><trkpt lat="38.9720165" lon="-2.8661549"><ele>864.0</ele><time>2026-04-19T07:00:03.947Z</time></trkpt><trkpt lat="38.9720221" lon="-2.8660618"><ele>864.0</ele><time>2026-04-19T07:00:05.947Z</time></trkpt><trkpt lat="38.9719925" lon="-2.8659682"><ele>864.0</ele><time>2026-04-19T07:00:07.947Z</time></trkpt><trkpt lat="38.971956" lon="-2.8658595"><ele>864.0</ele><time>2026-04-19T07:00:09.947Z</time></trkpt><trkpt lat="38.9719365" lon="-2.8657591"><ele>864.0</ele><time>2026-04-19T07:00:11.947Z</time></trkpt><trkpt lat="38.9719132" lon="-2.8656735"><ele>864.0</ele><time>2026-04-19T07:00:13.947Z</time></trkpt><trkpt lat="38.9718381" lon="-2.8655953"><ele>863.4285714285714</ele><time>2026-04-19T07:00:15.947Z</time></trkpt><trkpt lat="38.9717819" lon="-2.8655537"><ele>862.8571428571429</ele><time>2026-04-19T07:00:16.947Z</time></trkpt><trkpt lat="38.9717233" lon="-2.8655118"><ele>862.2857142857142</ele><time>2026-04-19T07:00:17.947Z</time></trkpt><trkpt lat="38.9716652" lon="-2.8654697"><ele>861.7142857142858</ele><time>2026-04-19T07:00:18.947Z</time></trkpt><trkpt lat="38.9716139" lon="-2.8654179"><ele>861.1428571428572</ele><time>2026-04-19T07:00:19.947Z</time></trkpt><trkpt lat="38.9715634" lon="-2.8653657"><ele>860.5714285714286</ele><time>2026-04-19T07:00:20.947Z</time></trkpt><trkpt lat="38.9714855" lon="-2.8652532"><ele>860.0</ele><time>2026-04-19T07:00:22.947Z</time></trkpt><trkpt lat="38.9714468" lon="-2.8651812"><ele>859.3333333333334</ele><time>2026-04-19T07:00:24.947Z</time></trkpt><trkpt lat="38.9713829" lon="-2.8651497"><ele>858.6666666666667</ele><time>2026-04-19T07:00:30.947Z</time></trkpt><trkpt lat="38.9713319" lon="-2.8652135"><ele>858.0</ele><time>2026-04-19T07:00:32.946Z</time></trkpt><trkpt lat="38.9712809" lon="-2.8652941"><ele>857.3333333333333</ele><time>2026-04-19T07:00:34.947Z</time></trkpt><trkpt lat="38.97123" lon="-2.8653566"><ele>856.6666666666666</ele><time>2026-04-19T07:00:36.947Z</time></trkpt><trkpt lat="38.9711653" lon="-2.865381"><ele>856.0</ele><time>2026-04-19T07:00:38.947Z</time></trkpt><trkpt lat="38.9710751" lon="-2.8654069"><ele>856.0</ele><time>2026-04-19T07:00:40.947Z</time></trkpt><trkpt lat="38.9709865" lon="-2.8654777"><ele>856.0</ele><time>2026-04-19T07:00:42.947Z</time></trkpt><trkpt lat="38.9708994" lon="-2.8655643"><ele>856.0</ele><time>2026-04-19T07:00:44.947Z</time></trkpt><trkpt lat="38.9708089" lon="-2.8656699"><ele>856.0</ele><time>2026-04-19T07:00:46.947Z</time></trkpt><trkpt lat="38.9707105" lon="-2.8657693"><ele>855.8333333333333</ele><time>2026-04-19T07:00:48.947Z</time></trkpt><trkpt lat="38.9706581" lon="-2.8658171"><ele>855.6666666666666</ele><time>2026-04-19T07:00:49.948Z</time></trkpt><trkpt lat="38.9706071" lon="-2.8658689"><ele>855.5</ele><time>2026-04-19T07:00:50.947Z</time></trkpt><trkpt lat="38.9705572" lon="-2.8659215"><ele>855.3333333333333</ele><time>2026-04-19T07:00:51.946Z</time></trkpt><trkpt lat="38.9704632" lon="-2.8660298"><ele>855.1666666666666</ele><time>2026-04-19T07:00:53.947Z</time></trkpt><trkpt lat="38.9704146" lon="-2.8660935"><ele>855.0</ele><time>2026-04-19T07:00:54.946Z</time></trkpt><trkpt lat="38.9703691" lon="-2.8661603"><ele>855.0</ele><time>2026-04-19T07:00:55.947Z</time></trkpt><trkpt lat="38.9703221" lon="-2.8662164"><ele>855.0</ele><time>2026-04-19T07:00:56.947Z</time></trkpt><trkpt lat="38.9702436" lon="-2.8663285"><ele>855.0</ele><time>2026-04-19T07:00:58.947Z</time></trkpt><trkpt lat="38.9702006" lon="-2.8663957"><ele>855.0</ele><time>2026-04-19T07:00:59.948Z</time></trkpt><trkpt lat="38.9701597" lon="-2.8664595"><ele>855.0</ele><time>2026-04-19T07:01:00.947Z</time></trkpt><trkpt lat="38.9701253" lon="-2.8665317"><ele>855.0</ele><time>2026-04-19T07:01:01.947Z</time></trkpt><trkpt lat="38.970052" lon="-2.8666563"><ele>854.0</ele><time>2026-04-19T07:01:03.947Z</time></trkpt><trkpt lat="38.9700157" lon="-2.8667236"><ele>853.0</ele><time>2026-04-19T07:01:04.947Z</time></trkpt><trkpt lat="38.9699271" lon="-2.8668472"><ele>852.0</ele><time>2026-04-19T07:01:06.947Z</time></trkpt><trkpt lat="38.9698812" lon="-2.8669232"><ele>851.0</ele><time>2026-04-19T07:01:07.947Z</time></trkpt><trkpt lat="38.969843" lon="-2.8669962"><ele>850.0</ele><time>2026-04-19T07:01:08.947Z</time></trkpt><trkpt lat="38.9698185" lon="-2.8670874"><ele>849.0</ele><time>2026-04-19T07:01:09.948Z</time></trkpt><trkpt lat="38.9697885" lon="-2.8671716"><ele>849.0</ele><time>2026-04-19T07:01:10.946Z</time></trkpt><trkpt lat="38.9697575" lon="-2.8672546"><ele>849.0</ele><time>2026-04-19T07:01:11.947Z</time></trkpt><trkpt lat="38.969687" lon="-2.8673823"><ele>849.0</ele><time>2026-04-19T07:01:13.947Z</time></trkpt><trkpt lat="38.9696431" lon="-2.8674491"><ele>849.0</ele><time>2026-04-19T07:01:14.948Z</time></trkpt><trkpt lat="38.9696027" lon="-2.8675131"><ele>849.0</ele><time>2026-04-19T07:01:15.947Z</time></trkpt><trkpt lat="38.9695575" lon="-2.8675769"><ele>849.0</ele><time>2026-04-19T07:01:16.946Z</time></trkpt><trkpt lat="38.9694739" lon="-2.867687"><ele>850.5</ele><time>2026-04-19T07:01:18.947Z</time></trkpt><trkpt lat="38.9693842" lon="-2.8677833"><ele>852.0</ele><time>2026-04-19T07:01:20.947Z</time></trkpt><trkpt lat="38.9692947" lon="-2.8678879"><ele>853.5</ele><time>2026-04-19T07:01:22.947Z</time></trkpt><trkpt lat="38.9692104" lon="-2.867984"><ele>855.0</ele><time>2026-04-19T07:01:24.947Z</time></trkpt><trkpt lat="38.9691395" lon="-2.8680828"><ele>852.8</ele><time>2026-04-19T07:01:26.947Z</time></trkpt><trkpt lat="38.9691107" lon="-2.8681807"><ele>850.6</ele><time>2026-04-19T07:01:28.947Z</time></trkpt><trkpt lat="38.9690967" lon="-2.8683049"><ele>848.4000000000001</ele><time>2026-04-19T07:01:30.946Z</time></trkpt><trkpt lat="38.9690946" lon="-2.8684442"><ele>846.2</ele><time>2026-04-19T07:01:32.947Z</time></trkpt><trkpt lat="38.9690811" lon="-2.8685833"><ele>844.0</ele><time>2026-04-19T07:01:34.947Z</time></trkpt><trkpt lat="38.9690405" lon="-2.8687101"><ele>843.9999999999999</ele><time>2026-04-19T07:01:36.948Z</time></trkpt><trkpt lat="38.9690057" lon="-2.8688228"><ele>844.0</ele><time>2026-04-19T07:01:38.947Z</time></trkpt><trkpt lat="38.9689786" lon="-2.8689235"><ele>844.0</ele><time>2026-04-19T07:01:40.947Z</time></trkpt><trkpt lat="38.9689448" lon="-2.8690205"><ele>844.0</ele><time>2026-04-19T07:01:42.947Z</time></trkpt><trkpt lat="38.9689077" lon="-2.8691167"><ele>843.9999999999999</ele><time>2026-04-19T07:01:44.948Z</time></trkpt><trkpt lat="38.9688486" lon="-2.8692156"><ele>844.0</ele><time>2026-04-19T07:01:46.947Z</time></trkpt><trkpt lat="38.9687721" lon="-2.8693068"><ele>845.0</ele><time>2026-04-19T07:01:48.947Z</time></trkpt><trkpt lat="38.9686971" lon="-2.8694018"><ele>846.0</ele><time>2026-04-19T07:01:50.947Z</time></trkpt><trkpt lat="38.9686318" lon="-2.8694999"><ele>847.0</ele><time>2026-04-19T07:01:52.947Z</time></trkpt><trkpt lat="38.9685777" lon="-2.8695883"><ele>848.0</ele><time>2026-04-19T07:01:54.947Z</time></trkpt><trkpt lat="38.9685267" lon="-2.8696598"><ele>849.0</ele><time>2026-04-19T07:01:56.947Z</time></trkpt><trkpt lat="38.9684579" lon="-2.8697252"><ele>849.0</ele><time>2026-04-19T07:01:59.947Z</time></trkpt><trkpt lat="38.9683911" lon="-2.8697712"><ele>849.0</ele><time>2026-04-19T07:02:02.947Z</time></trkpt><trkpt lat="38.9683282" lon="-2.8697772"><ele>849.0</ele><time>2026-04-19T07:02:05.947Z</time></trkpt><trkpt lat="38.9682682" lon="-2.8698541"><ele>849.0</ele><time>2026-04-19T07:02:12.947Z</time></trkpt><trkpt lat="38.968197" lon="-2.869925"><ele>849.0</ele><time>2026-04-19T07:02:15.947Z</time></trkpt><trkpt lat="38.9681251" lon="-2.8699924"><ele>849.0</ele><time>2026-04-19T07:02:18.947Z</time></trkpt><trkpt lat="38.9680705" lon="-2.8700913"><ele>848.3333333333334</ele><time>2026-04-19T07:02:21.947Z</time></trkpt><trkpt lat="38.9680198" lon="-2.8701393"><ele>847.6666666666667</ele><time>2026-04-19T07:02:23.947Z</time></trkpt><trkpt lat="38.9679497" lon="-2.8701901"><ele>847.0</ele><time>2026-04-19T07:02:25.947Z</time></trkpt><trkpt lat="38.9678998" lon="-2.870268"><ele>846.3333333333334</ele><time>2026-04-19T07:02:27.947Z</time></trkpt><trkpt lat="38.9678605" lon="-2.8703618"><ele>845.6666666666667</ele><time>2026-04-19T07:02:29.947Z</time></trkpt><trkpt lat="38.9678175" lon="-2.8704561"><ele>845.0</ele><time>2026-04-19T07:02:31.947Z</time></trkpt><trkpt lat="38.9677606" lon="-2.8705309"><ele>845.0000000000001</ele><time>2026-04-19T07:02:33.947Z</time></trkpt><trkpt lat="38.9677013" lon="-2.8705996"><ele>845.0</ele><time>2026-04-19T07:02:35.947Z</time></trkpt><trkpt lat="38.9676379" lon="-2.8706197"><ele>845.0</ele><time>2026-04-19T07:02:37.947Z</time></trkpt><trkpt lat="38.9675646" lon="-2.8706391"><ele>845.0</ele><time>2026-04-19T07:02:39.947Z</time></trkpt><trkpt lat="38.9674861" lon="-2.8706995"><ele>845.0000000000001</ele><time>2026-04-19T07:02:41.947Z</time></trkpt><trkpt lat="38.9673988" lon="-2.8707845"><ele>845.0</ele><time>2026-04-19T07:02:43.946Z</time></trkpt><trkpt lat="38.9673101" lon="-2.8708713"><ele>843.0</ele><time>2026-04-19T07:02:45.948Z</time></trkpt><trkpt lat="38.9672439" lon="-2.870988"><ele>841.0</ele><time>2026-04-19T07:02:47.947Z</time></trkpt><trkpt lat="38.9671868" lon="-2.871113"><ele>839.0</ele><time>2026-04-19T07:02:49.946Z</time></trkpt><trkpt lat="38.967167" lon="-2.8712248"><ele>837.0</ele><time>2026-04-19T07:02:51.947Z</time></trkpt><trkpt lat="38.967159" lon="-2.8713334"><ele>835.0</ele><time>2026-04-19T07:02:53.947Z</time></trkpt><trkpt lat="38.9671329" lon="-2.8714244"><ele>835.0</ele><time>2026-04-19T07:02:55.946Z</time></trkpt><trkpt lat="38.9671096" lon="-2.8715271"><ele>835.0</ele><time>2026-04-19T07:02:57.947Z</time></trkpt><trkpt lat="38.9670837" lon="-2.8716632"><ele>835.0</ele><time>2026-04-19T07:02:59.947Z</time></trkpt><trkpt lat="38.9670525" lon="-2.8717739"><ele>835.0</ele><time>2026-04-19T07:03:01.947Z</time></trkpt><trkpt lat="38.9670346" lon="-2.8718839"><ele>835.0</ele><time>2026-04-19T07:03:03.947Z</time></trkpt><trkpt lat="38.9669697" lon="-2.8719726"><ele>835.8333333333333</ele><time>2026-04-19T07:03:05.947Z</time></trkpt><trkpt lat="38.9669062" lon="-2.8720814"><ele>836.6666666666666</ele><time>2026-04-19T07:03:07.947Z</time></trkpt><trkpt lat="38.9668494" lon="-2.8721448"><ele>837.5</ele><time>2026-04-19T07:03:09.947Z</time></trkpt><trkpt lat="38.9667832" lon="-2.8722273"><ele>838.3333333333333</ele><time>2026-04-19T07:03:12.947Z</time></trkpt><trkpt lat="38.9668013" lon="-2.8723316"><ele>839.1666666666666</ele><time>2026-04-19T07:03:15.947Z</time></trkpt><trkpt lat="38.9667487" lon="-2.8724093"><ele>840.0</ele><time>2026-04-19T07:03:17.947Z</time></trkpt><trkpt lat="38.9666929" lon="-2.8724931"><ele>838.3333333333334</ele><time>2026-04-19T07:03:19.947Z</time></trkpt><trkpt lat="38.966642" lon="-2.8725769"><ele>836.6666666666667</ele><time>2026-04-19T07:03:21.947Z</time></trkpt><trkpt lat="38.9665815" lon="-2.8726382"><ele>835.0</ele><time>2026-04-19T07:03:23.947Z</time></trkpt><trkpt lat="38.9665171" lon="-2.8727091"><ele>833.3333333333334</ele><time>2026-04-19T07:03:25.947Z</time></trkpt><trkpt lat="38.9664578" lon="-2.872791"><ele>831.6666666666667</ele><time>2026-04-19T07:03:27.947Z</time></trkpt><trkpt lat="38.9663962" lon="-2.8728758"><ele>830.0</ele><time>2026-04-19T07:03:29.947Z</time></trkpt><trkpt lat="38.9663334" lon="-2.8729379"><ele>830.0000000000001</ele><time>2026-04-19T07:03:31.947Z</time></trkpt><trkpt lat="38.9662627" lon="-2.8729873"><ele>830.0</ele><time>2026-04-19T07:03:33.946Z</time></trkpt><trkpt lat="38.966181" lon="-2.873032"><ele>830.0</ele><time>2026-04-19T07:03:35.947Z</time></trkpt><trkpt lat="38.9661022" lon="-2.8730984"><ele>830.0</ele><time>2026-04-19T07:03:37.946Z</time></trkpt><trkpt lat="38.9660337" lon="-2.8731739"><ele>830.0000000000001</ele><time>2026-04-19T07:03:39.948Z</time></trkpt><trkpt lat="38.965972" lon="-2.8732211"><ele>830.0</ele><time>2026-04-19T07:03:41.947Z</time></trkpt><trkpt lat="38.9659102" lon="-2.8732686"><ele>828.5714285714286</ele><time>2026-04-19T07:03:43.947Z</time></trkpt><trkpt lat="38.965849" lon="-2.8733515"><ele>827.1428571428571</ele><time>2026-04-19T07:03:45.947Z</time></trkpt><trkpt lat="38.9657967" lon="-2.8734241"><ele>825.7142857142858</ele><time>2026-04-19T07:03:47.947Z</time></trkpt><trkpt lat="38.9657672" lon="-2.8734979"><ele>824.2857142857142</ele><time>2026-04-19T07:03:49.947Z</time></trkpt><trkpt lat="38.9657518" lon="-2.8735863"><ele>822.8571428571428</ele><time>2026-04-19T07:03:51.947Z</time></trkpt><trkpt lat="38.9657482" lon="-2.8736677"><ele>821.4285714285714</ele><time>2026-04-19T07:03:53.947Z</time></trkpt><trkpt lat="38.9657175" lon="-2.8737471"><ele>820.0</ele><time>2026-04-19T07:03:55.947Z</time></trkpt><trkpt lat="38.9656674" lon="-2.8738202"><ele>819.9999999999999</ele><time>2026-04-19T07:03:57.947Z</time></trkpt><trkpt lat="38.9656171" lon="-2.8738924"><ele>820.0</ele><time>2026-04-19T07:03:59.948Z</time></trkpt><trkpt lat="38.965568" lon="-2.8739456"><ele>820.0</ele><time>2026-04-19T07:04:01.947Z</time></trkpt><trkpt lat="38.9654954" lon="-2.8739677"><ele>820.0</ele><time>2026-04-19T07:04:04.947Z</time></trkpt><trkpt lat="38.9654124" lon="-2.873938"><ele>819.9999999999999</ele><time>2026-04-19T07:04:07.947Z</time></trkpt><trkpt lat="38.965327" lon="-2.8739376"><ele>820.0</ele><time>2026-04-19T07:04:10.947Z</time></trkpt><trkpt lat="38.9652346" lon="-2.8739044"><ele>819.9999999999999</ele><time>2026-04-19T07:04:13.947Z</time></trkpt><trkpt lat="38.9651742" lon="-2.8738695"><ele>820.0</ele><time>2026-04-19T07:04:15.947Z</time></trkpt><trkpt lat="38.9650919" lon="-2.8738672"><ele>820.0</ele><time>2026-04-19T07:04:17.947Z</time></trkpt><trkpt lat="38.9650199" lon="-2.8738867"><ele>820.0</ele><time>2026-04-19T07:04:19.947Z</time></trkpt><trkpt lat="38.964943" lon="-2.8739225"><ele>819.9999999999999</ele><time>2026-04-19T07:04:21.947Z</time></trkpt><trkpt lat="38.9648693" lon="-2.8740062"><ele>820.0</ele><time>2026-04-19T07:04:23.947Z</time></trkpt><trkpt lat="38.9647927" lon="-2.8740932"><ele>820.6</ele><time>2026-04-19T07:04:25.948Z</time></trkpt><trkpt lat="38.9647204" lon="-2.8741911"><ele>821.2</ele><time>2026-04-19T07:04:27.947Z</time></trkpt><trkpt lat="38.9646694" lon="-2.8743197"><ele>821.8</ele><time>2026-04-19T07:04:29.947Z</time></trkpt><trkpt lat="38.9646154" lon="-2.8744081"><ele>822.4</ele><time>2026-04-19T07:04:31.947Z</time></trkpt><trkpt lat="38.9645258" lon="-2.8744438"><ele>823.0</ele><time>2026-04-19T07:04:34.947Z</time></trkpt><trkpt lat="38.9644568" lon="-2.8744739"><ele>822.9999999999999</ele><time>2026-04-19T07:04:36.947Z</time></trkpt><trkpt lat="38.9643801" lon="-2.8745171"><ele>823.0</ele><time>2026-04-19T07:04:38.947Z</time></trkpt><trkpt lat="38.9643006" lon="-2.8745566"><ele>823.0</ele><time>2026-04-19T07:04:40.946Z</time></trkpt><trkpt lat="38.9642325" lon="-2.8746283"><ele>823.0</ele><time>2026-04-19T07:04:42.948Z</time></trkpt><trkpt lat="38.9641865" lon="-2.8747359"><ele>822.9999999999999</ele><time>2026-04-19T07:04:44.947Z</time></trkpt><trkpt lat="38.9641246" lon="-2.8748234"><ele>823.0</ele><time>2026-04-19T07:04:46.947Z</time></trkpt><trkpt lat="38.9640755" lon="-2.8749353"><ele>820.9999999999999</ele><time>2026-04-19T07:04:48.947Z</time></trkpt><trkpt lat="38.9640301" lon="-2.8750266"><ele>819.0</ele><time>2026-04-19T07:04:50.947Z</time></trkpt><trkpt lat="38.9639564" lon="-2.875071"><ele>817.0</ele><time>2026-04-19T07:04:53.947Z</time></trkpt><trkpt lat="38.9638802" lon="-2.8750736"><ele>815.0</ele><time>2026-04-19T07:04:55.947Z</time></trkpt><trkpt lat="38.9638062" lon="-2.8750867"><ele>812.9999999999999</ele><time>2026-04-19T07:04:57.947Z</time></trkpt><trkpt lat="38.963726" lon="-2.8751169"><ele>811.0</ele><time>2026-04-19T07:04:59.947Z</time></trkpt><trkpt lat="38.9636541" lon="-2.8751906"><ele>811.0</ele><time>2026-04-19T07:05:01.947Z</time></trkpt><trkpt lat="38.9635744" lon="-2.8752426"><ele>811.0</ele><time>2026-04-19T07:05:03.947Z</time></trkpt><trkpt lat="38.9634856" lon="-2.8752747"><ele>811.0</ele><time>2026-04-19T07:05:05.947Z</time></trkpt><trkpt lat="38.9633886" lon="-2.8752976"><ele>811.0</ele><time>2026-04-19T07:05:07.947Z</time></trkpt><trkpt lat="38.9632971" lon="-2.8753024"><ele>811.0</ele><time>2026-04-19T07:05:09.947Z</time></trkpt><trkpt lat="38.9631999" lon="-2.8753207"><ele>809.6666666666666</ele><time>2026-04-19T07:05:11.946Z</time></trkpt><trkpt lat="38.9631126" lon="-2.8753184"><ele>808.3333333333333</ele><time>2026-04-19T07:05:13.947Z</time></trkpt><trkpt lat="38.963025" lon="-2.8752932"><ele>807.0</ele><time>2026-04-19T07:05:15.946Z</time></trkpt><trkpt lat="38.9629363" lon="-2.87528"><ele>805.6666666666667</ele><time>2026-04-19T07:05:17.947Z</time></trkpt><trkpt lat="38.9628469" lon="-2.8752768"><ele>804.3333333333334</ele><time>2026-04-19T07:05:19.946Z</time></trkpt><trkpt lat="38.9627629" lon="-2.8752652"><ele>803.0</ele><time>2026-04-19T07:05:21.947Z</time></trkpt><trkpt lat="38.9626834" lon="-2.8752451"><ele>803.0000000000001</ele><time>2026-04-19T07:05:23.947Z</time></trkpt><trkpt lat="38.9626186" lon="-2.8752217"><ele>803.0</ele><time>2026-04-19T07:05:25.947Z</time></trkpt><trkpt lat="38.9625436" lon="-2.8752069"><ele>803.0</ele><time>2026-04-19T07:05:27.948Z</time></trkpt><trkpt lat="38.9624782" lon="-2.875173"><ele>803.0</ele><time>2026-04-19T07:05:29.947Z</time></trkpt><trkpt lat="38.9624113" lon="-2.8750926"><ele>803.0000000000001</ele><time>2026-04-19T07:05:31.947Z</time></trkpt><trkpt lat="38.9623468" lon="-2.8750013"><ele>803.0</ele><time>2026-04-19T07:05:33.947Z</time></trkpt><trkpt lat="38.962289" lon="-2.8749261"><ele>802.8333333333334</ele><time>2026-04-19T07:05:35.947Z</time></trkpt><trkpt lat="38.9622435" lon="-2.8748483"><ele>802.6666666666667</ele><time>2026-04-19T07:05:37.947Z</time></trkpt><trkpt lat="38.9621947" lon="-2.8747605"><ele>802.5</ele><time>2026-04-19T07:05:39.946Z</time></trkpt><trkpt lat="38.9621529" lon="-2.8746694"><ele>802.3333333333333</ele><time>2026-04-19T07:05:41.948Z</time></trkpt><trkpt lat="38.9621173" lon="-2.8745772"><ele>802.1666666666666</ele><time>2026-04-19T07:05:43.947Z</time></trkpt><trkpt lat="38.9620783" lon="-2.8744776"><ele>802.0</ele><time>2026-04-19T07:05:45.947Z</time></trkpt><trkpt lat="38.9620465" lon="-2.8743771"><ele>802.0</ele><time>2026-04-19T07:05:47.947Z</time></trkpt><trkpt lat="38.9620132" lon="-2.8742743"><ele>802.0</ele><time>2026-04-19T07:05:49.947Z</time></trkpt><trkpt lat="38.9619788" lon="-2.8741643"><ele>802.0</ele><time>2026-04-19T07:05:51.946Z</time></trkpt><trkpt lat="38.9619481" lon="-2.8740482"><ele>802.0</ele><time>2026-04-19T07:05:53.947Z</time></trkpt><trkpt lat="38.9619105" lon="-2.8739388"><ele>802.0</ele><time>2026-04-19T07:05:55.947Z</time></trkpt><trkpt lat="38.9618765" lon="-2.8738187"><ele>801.1666666666666</ele><time>2026-04-19T07:05:57.947Z</time></trkpt><trkpt lat="38.9618366" lon="-2.8737066"><ele>800.3333333333333</ele><time>2026-04-19T07:05:59.947Z</time></trkpt><trkpt lat="38.9618113" lon="-2.873615"><ele>799.5</ele><time>2026-04-19T07:06:01.947Z</time></trkpt><trkpt lat="38.9617805" lon="-2.8735307"><ele>798.6666666666667</ele><time>2026-04-19T07:06:03.947Z</time></trkpt><trkpt lat="38.9617493" lon="-2.8734489"><ele>797.8333333333334</ele><time>2026-04-19T07:06:05.947Z</time></trkpt><trkpt lat="38.9617203" lon="-2.8733753"><ele>797.0</ele><time>2026-04-19T07:06:07.947Z</time></trkpt><trkpt lat="38.9616761" lon="-2.8732666"><ele>797.0000000000001</ele><time>2026-04-19T07:06:09.947Z</time></trkpt><trkpt lat="38.9616372" lon="-2.8731996"><ele>797.0</ele><time>2026-04-19T07:06:10.947Z</time></trkpt><trkpt lat="38.9615938" lon="-2.8731389"><ele>797.0</ele><time>2026-04-19T07:06:11.946Z</time></trkpt><trkpt lat="38.9615501" lon="-2.8730801"><ele>797.0</ele><time>2026-04-19T07:06:12.946Z</time></trkpt><trkpt lat="38.9614658" lon="-2.8729651"><ele>797.0000000000001</ele><time>2026-04-19T07:06:14.947Z</time></trkpt><trkpt lat="38.961379" lon="-2.8728669"><ele>797.0</ele><time>2026-04-19T07:06:16.947Z</time></trkpt><trkpt lat="38.9612931" lon="-2.8727841"><ele>797.0</ele><time>2026-04-19T07:06:18.946Z</time></trkpt><trkpt lat="38.9612023" lon="-2.8727283"><ele>797.0</ele><time>2026-04-19T07:06:20.946Z</time></trkpt><trkpt lat="38.9611022" lon="-2.8726778"><ele>797.0</ele><time>2026-04-19T07:06:22.947Z</time></trkpt><trkpt lat="38.9610047" lon="-2.8726247"><ele>797.0</ele><time>2026-04-19T07:06:24.947Z</time></trkpt><trkpt lat="38.9609047" lon="-2.8725748"><ele>797.0</ele><time>2026-04-19T07:06:26.947Z</time></trkpt><trkpt lat="38.9608027" lon="-2.8725279"><ele>797.0</ele><time>2026-04-19T07:06:28.947Z</time></trkpt><trkpt lat="38.9606957" lon="-2.8724776"><ele>797.0</ele><time>2026-04-19T07:06:30.947Z</time></trkpt><trkpt lat="38.9605879" lon="-2.8724282"><ele>797.0</ele><time>2026-04-19T07:06:32.947Z</time></trkpt><trkpt lat="38.9604796" lon="-2.8723887"><ele>797.0</ele><time>2026-04-19T07:06:34.947Z</time></trkpt><trkpt lat="38.9603707" lon="-2.8723574"><ele>797.0</ele><time>2026-04-19T07:06:36.947Z</time></trkpt><trkpt lat="38.9602637" lon="-2.8723313"><ele>797.0</ele><time>2026-04-19T07:06:38.947Z</time></trkpt><trkpt lat="38.9601646" lon="-2.8723125"><ele>797.0</ele><time>2026-04-19T07:06:40.947Z</time></trkpt><trkpt lat="38.9600751" lon="-2.8722817"><ele>797.0</ele><time>2026-04-19T07:06:42.946Z</time></trkpt><trkpt lat="38.959987" lon="-2.8722247"><ele>797.0</ele><time>2026-04-19T07:06:44.947Z</time></trkpt><trkpt lat="38.9599121" lon="-2.8721369"><ele>796.8</ele><time>2026-04-19T07:06:46.947Z</time></trkpt><trkpt lat="38.9598702" lon="-2.8720147"><ele>796.6</ele><time>2026-04-19T07:06:48.947Z</time></trkpt><trkpt lat="38.9598804" lon="-2.8718805"><ele>796.4</ele><time>2026-04-19T07:06:50.947Z</time></trkpt><trkpt lat="38.9599098" lon="-2.8717461"><ele>796.1999999999999</ele><time>2026-04-19T07:06:52.947Z</time></trkpt><trkpt lat="38.9599386" lon="-2.8716155"><ele>796.0</ele><time>2026-04-19T07:06:54.948Z</time></trkpt><trkpt lat="38.9599629" lon="-2.8714843"><ele>796.0</ele><time>2026-04-19T07:06:56.947Z</time></trkpt><trkpt lat="38.9599885" lon="-2.8713603"><ele>796.0</ele><time>2026-04-19T07:06:58.947Z</time></trkpt><trkpt lat="38.9600062" lon="-2.8712415"><ele>796.0</ele><time>2026-04-19T07:07:00.947Z</time></trkpt><trkpt lat="38.9600215" lon="-2.8711238"><ele>796.0</ele><time>2026-04-19T07:07:02.947Z</time></trkpt><trkpt lat="38.9600274" lon="-2.8710159"><ele>796.0</ele><time>2026-04-19T07:07:04.947Z</time></trkpt><trkpt lat="38.9600244" lon="-2.8708988"><ele>795.6666666666666</ele><time>2026-04-19T07:07:06.947Z</time></trkpt><trkpt lat="38.9600178" lon="-2.8707859"><ele>795.3333333333333</ele><time>2026-04-19T07:07:08.947Z</time></trkpt><trkpt lat="38.9600202" lon="-2.8706872"><ele>795.0</ele><time>2026-04-19T07:07:10.947Z</time></trkpt><trkpt lat="38.9600626" lon="-2.8706133"><ele>794.6666666666667</ele><time>2026-04-19T07:07:12.947Z</time></trkpt><trkpt lat="38.9601105" lon="-2.8705591"><ele>794.3333333333334</ele><time>2026-04-19T07:07:14.947Z</time></trkpt><trkpt lat="38.9601686" lon="-2.8704735"><ele>794.0</ele><time>2026-04-19T07:07:17.947Z</time></trkpt><trkpt lat="38.9602224" lon="-2.870419"><ele>796.8333333333334</ele><time>2026-04-19T07:07:20.947Z</time></trkpt><trkpt lat="38.9602595" lon="-2.8703253"><ele>799.6666666666667</ele><time>2026-04-19T07:07:24.947Z</time></trkpt><trkpt lat="38.9603073" lon="-2.8702482"><ele>802.5</ele><time>2026-04-19T07:07:27.947Z</time></trkpt><trkpt lat="38.9603531" lon="-2.8701672"><ele>805.3333333333333</ele><time>2026-04-19T07:07:30.947Z</time></trkpt><trkpt lat="38.9604024" lon="-2.8700815"><ele>808.1666666666666</ele><time>2026-04-19T07:07:34.947Z</time></trkpt><trkpt lat="38.9604142" lon="-2.8699768"><ele>811.0</ele><time>2026-04-19T07:07:38.947Z</time></trkpt><trkpt lat="38.9604216" lon="-2.8698892"><ele>811.0</ele><time>2026-04-19T07:07:41.947Z</time></trkpt><trkpt lat="38.9604845" lon="-2.8698392"><ele>811.0</ele><time>2026-04-19T07:07:45.947Z</time></trkpt><trkpt lat="38.9605433" lon="-2.8698095"><ele>811.0</ele><time>2026-04-19T07:07:48.947Z</time></trkpt><trkpt lat="38.9606164" lon="-2.8697717"><ele>811.0</ele><time>2026-04-19T07:07:52.946Z</time></trkpt><trkpt lat="38.9606754" lon="-2.8697217"><ele>811.0</ele><time>2026-04-19T07:07:56.947Z</time></trkpt><trkpt lat="38.9607284" lon="-2.8696686"><ele>811.0</ele><time>2026-04-19T07:08:00.947Z</time></trkpt><trkpt lat="38.9607895" lon="-2.8696059"><ele>811.0</ele><time>2026-04-19T07:08:05.947Z</time></trkpt><trkpt lat="38.9608501" lon="-2.8695526"><ele>812.7142857142857</ele><time>2026-04-19T07:08:09.947Z</time></trkpt><trkpt lat="38.9609094" lon="-2.8695138"><ele>814.4285714285714</ele><time>2026-04-19T07:08:13.947Z</time></trkpt><trkpt lat="38.9609796" lon="-2.8695012"><ele>816.1428571428571</ele><time>2026-04-19T07:08:18.947Z</time></trkpt><trkpt lat="38.9610467" lon="-2.8694809"><ele>817.8571428571429</ele><time>2026-04-19T07:08:22.947Z</time></trkpt><trkpt lat="38.9611111" lon="-2.8694863"><ele>819.5714285714287</ele><time>2026-04-19T07:08:26.947Z</time></trkpt><trkpt lat="38.9611743" lon="-2.869506"><ele>821.2857142857143</ele><time>2026-04-19T07:08:30.947Z</time></trkpt><trkpt lat="38.9612469" lon="-2.8695343"><ele>823.0</ele><time>2026-04-19T07:08:35.947Z</time></trkpt><trkpt lat="38.9613191" lon="-2.8695495"><ele>823.0</ele><time>2026-04-19T07:08:39.947Z</time></trkpt><trkpt lat="38.9613905" lon="-2.86954"><ele>823.0</ele><time>2026-04-19T07:08:43.947Z</time></trkpt><trkpt lat="38.9614595" lon="-2.8695228"><ele>823.0</ele><time>2026-04-19T07:08:47.947Z</time></trkpt><trkpt lat="38.9615307" lon="-2.869519"><ele>823.0</ele><time>2026-04-19T07:08:51.947Z</time></trkpt><trkpt lat="38.9616068" lon="-2.869543"><ele>823.0</ele><time>2026-04-19T07:08:55.947Z</time></trkpt><trkpt lat="38.9616835" lon="-2.8695257"><ele>823.0</ele><time>2026-04-19T07:08:59.947Z</time></trkpt><trkpt lat="38.9617461" lon="-2.8695133"><ele>823.0</ele><time>2026-04-19T07:09:03.948Z</time></trkpt><trkpt lat="38.9617988" lon="-2.8694666"><ele>823.8333333333333</ele><time>2026-04-19T07:09:07.946Z</time></trkpt><trkpt lat="38.9618577" lon="-2.8694219"><ele>824.6666666666666</ele><time>2026-04-19T07:09:10.947Z</time></trkpt><trkpt lat="38.9619295" lon="-2.869371"><ele>825.5</ele><time>2026-04-19T07:09:13.947Z</time></trkpt><trkpt lat="38.9619917" lon="-2.8693265"><ele>826.3333333333333</ele><time>2026-04-19T07:09:16.947Z</time></trkpt><trkpt lat="38.9620654" lon="-2.8692959"><ele>827.1666666666666</ele><time>2026-04-19T07:09:20.947Z</time></trkpt><trkpt lat="38.9621339" lon="-2.8692611"><ele>828.0</ele><time>2026-04-19T07:09:24.947Z</time></trkpt><trkpt lat="38.9621954" lon="-2.8691972"><ele>828.0000000000001</ele><time>2026-04-19T07:09:28.948Z</time></trkpt><trkpt lat="38.9622634" lon="-2.8691514"><ele>828.0</ele><time>2026-04-19T07:09:32.947Z</time></trkpt><trkpt lat="38.9623261" lon="-2.8691285"><ele>828.0</ele><time>2026-04-19T07:09:35.947Z</time></trkpt><trkpt lat="38.9624071" lon="-2.8691249"><ele>828.0</ele><time>2026-04-19T07:09:39.947Z</time></trkpt><trkpt lat="38.9624724" lon="-2.8691543"><ele>828.0</ele><time>2026-04-19T07:09:42.947Z</time></trkpt><trkpt lat="38.9625366" lon="-2.8691946"><ele>828.0000000000001</ele><time>2026-04-19T07:09:45.947Z</time></trkpt><trkpt lat="38.9626036" lon="-2.8692542"><ele>828.0</ele><time>2026-04-19T07:09:49.948Z</time></trkpt><trkpt lat="38.962678" lon="-2.8693031"><ele>829.0000000000001</ele><time>2026-04-19T07:09:53.946Z</time></trkpt><trkpt lat="38.9627359" lon="-2.86935"><ele>830.0</ele><time>2026-04-19T07:09:56.948Z</time></trkpt><trkpt lat="38.9627975" lon="-2.8693829"><ele>831.0</ele><time>2026-04-19T07:09:59.947Z</time></trkpt><trkpt lat="38.9628752" lon="-2.8694033"><ele>832.0</ele><time>2026-04-19T07:10:03.946Z</time></trkpt><trkpt lat="38.9629563" lon="-2.8694188"><ele>833.0</ele><time>2026-04-19T07:10:07.947Z</time></trkpt><trkpt lat="38.9630207" lon="-2.8694146"><ele>834.0000000000001</ele><time>2026-04-19T07:10:10.947Z</time></trkpt><trkpt lat="38.9630913" lon="-2.869413"><ele>835.0</ele><time>2026-04-19T07:10:13.947Z</time></trkpt><trkpt lat="38.9631572" lon="-2.8694233"><ele>835.0000000000001</ele><time>2026-04-19T07:10:16.948Z</time></trkpt><trkpt lat="38.9632286" lon="-2.8694391"><ele>835.0</ele><time>2026-04-19T07:10:19.948Z</time></trkpt><trkpt lat="38.9632939" lon="-2.8694448"><ele>835.0</ele><time>2026-04-19T07:10:22.947Z</time></trkpt><trkpt lat="38.9633568" lon="-2.8694114"><ele>835.0</ele><time>2026-04-19T07:10:25.947Z</time></trkpt><trkpt lat="38.9634159" lon="-2.869376"><ele>835.0</ele><time>2026-04-19T07:10:28.947Z</time></trkpt><trkpt lat="38.9634898" lon="-2.8693161"><ele>835.0000000000001</ele><time>2026-04-19T07:10:32.948Z</time></trkpt><trkpt lat="38.9635413" lon="-2.8692658"><ele>835.0</ele><time>2026-04-19T07:10:35.947Z</time></trkpt><trkpt lat="38.9636091" lon="-2.8692268"><ele>835.7142857142858</ele><time>2026-04-19T07:10:39.948Z</time></trkpt><trkpt lat="38.9636429" lon="-2.8691512"><ele>836.4285714285714</ele><time>2026-04-19T07:10:42.946Z</time></trkpt><trkpt lat="38.9636945" lon="-2.86908"><ele>837.1428571428571</ele><time>2026-04-19T07:10:46.947Z</time></trkpt><trkpt lat="38.9637526" lon="-2.8690086"><ele>837.8571428571429</ele><time>2026-04-19T07:10:50.947Z</time></trkpt><trkpt lat="38.9637984" lon="-2.86895"><ele>838.5714285714286</ele><time>2026-04-19T07:10:53.947Z</time></trkpt><trkpt lat="38.9638479" lon="-2.8688763"><ele>839.2857142857143</ele><time>2026-04-19T07:10:57.947Z</time></trkpt><trkpt lat="38.9638576" lon="-2.8687741"><ele>840.0</ele><time>2026-04-19T07:11:01.947Z</time></trkpt><trkpt lat="38.9638493" lon="-2.8686764"><ele>840.0</ele><time>2026-04-19T07:11:04.948Z</time></trkpt><trkpt lat="38.9638446" lon="-2.8685883"><ele>840.0</ele><time>2026-04-19T07:11:07.947Z</time></trkpt><trkpt lat="38.9638403" lon="-2.8685032"><ele>840.0</ele><time>2026-04-19T07:11:10.947Z</time></trkpt><trkpt lat="38.9638284" lon="-2.8684036"><ele>840.0</ele><time>2026-04-19T07:11:14.947Z</time></trkpt><trkpt lat="38.9638133" lon="-2.8683224"><ele>840.0</ele><time>2026-04-19T07:11:17.948Z</time></trkpt><trkpt lat="38.9637723" lon="-2.8682571"><ele>840.0</ele><time>2026-04-19T07:11:20.948Z</time></trkpt><trkpt lat="38.9637384" lon="-2.8681707"><ele>840.0</ele><time>2026-04-19T07:11:23.948Z</time></trkpt><trkpt lat="38.9637344" lon="-2.8680702"><ele>840.7142857142857</ele><time>2026-04-19T07:11:28.948Z</time></trkpt><trkpt lat="38.9637024" lon="-2.8679926"><ele>841.4285714285714</ele><time>2026-04-19T07:11:31.948Z</time></trkpt><trkpt lat="38.9636652" lon="-2.8679077"><ele>842.1428571428571</ele><time>2026-04-19T07:11:34.948Z</time></trkpt><trkpt lat="38.9636405" lon="-2.86783"><ele>842.8571428571429</ele><time>2026-04-19T07:11:37.948Z</time></trkpt><trkpt lat="38.9636184" lon="-2.8677264"><ele>843.5714285714286</ele><time>2026-04-19T07:11:41.948Z</time></trkpt><trkpt lat="38.9635859" lon="-2.8676368"><ele>844.2857142857142</ele><time>2026-04-19T07:11:45.948Z</time></trkpt><trkpt lat="38.9635794" lon="-2.8675536"><ele>845.0</ele><time>2026-04-19T07:11:48.948Z</time></trkpt><trkpt lat="38.963603" lon="-2.8674681"><ele>845.8333333333334</ele><time>2026-04-19T07:11:51.948Z</time></trkpt><trkpt lat="38.9636479" lon="-2.8673891"><ele>846.6666666666667</ele><time>2026-04-19T07:11:54.948Z</time></trkpt><trkpt lat="38.963707" lon="-2.8673316"><ele>847.5</ele><time>2026-04-19T07:11:57.949Z</time></trkpt><trkpt lat="38.9637805" lon="-2.8672826"><ele>848.3333333333333</ele><time>2026-04-19T07:12:01.948Z</time></trkpt><trkpt lat="38.9638516" lon="-2.8672403"><ele>849.1666666666666</ele><time>2026-04-19T07:12:04.948Z</time></trkpt><trkpt lat="38.963905" lon="-2.8671721"><ele>850.0</ele><time>2026-04-19T07:12:08.948Z</time></trkpt><trkpt lat="38.9639615" lon="-2.8671311"><ele>850.0</ele><time>2026-04-19T07:12:11.947Z</time></trkpt><trkpt lat="38.964022" lon="-2.8670807"><ele>850.0</ele><time>2026-04-19T07:12:14.948Z</time></trkpt><trkpt lat="38.9640842" lon="-2.8670565"><ele>850.0</ele><time>2026-04-19T07:12:17.948Z</time></trkpt><trkpt lat="38.9641621" lon="-2.8670216"><ele>850.0</ele><time>2026-04-19T07:12:21.948Z</time></trkpt><trkpt lat="38.9642193" lon="-2.8669856"><ele>850.0</ele><time>2026-04-19T07:12:24.948Z</time></trkpt><trkpt lat="38.9642779" lon="-2.8669467"><ele>850.0</ele><time>2026-04-19T07:12:27.948Z</time></trkpt><trkpt lat="38.9643534" lon="-2.8669082"><ele>850.0</ele><time>2026-04-19T07:12:31.948Z</time></trkpt><trkpt lat="38.9644174" lon="-2.8668728"><ele>850.8571428571429</ele><time>2026-04-19T07:12:34.948Z</time></trkpt><trkpt lat="38.9644779" lon="-2.866827"><ele>851.7142857142857</ele><time>2026-04-19T07:12:37.948Z</time></trkpt><trkpt lat="38.9645343" lon="-2.8667765"><ele>852.5714285714287</ele><time>2026-04-19T07:12:40.947Z</time></trkpt><trkpt lat="38.964601" lon="-2.866732"><ele>853.4285714285714</ele><time>2026-04-19T07:12:44.948Z</time></trkpt><trkpt lat="38.964652" lon="-2.8666775"><ele>854.2857142857143</ele><time>2026-04-19T07:12:47.948Z</time></trkpt><trkpt lat="38.964701" lon="-2.8666245"><ele>855.1428571428572</ele><time>2026-04-19T07:12:50.948Z</time></trkpt><trkpt lat="38.9647486" lon="-2.8665511"><ele>856.0</ele><time>2026-04-19T07:12:54.948Z</time></trkpt><trkpt lat="38.9648031" lon="-2.8664969"><ele>856.0000000000001</ele><time>2026-04-19T07:12:58.947Z</time></trkpt><trkpt lat="38.9648533" lon="-2.8664383"><ele>856.0</ele><time>2026-04-19T07:13:01.948Z</time></trkpt><trkpt lat="38.9648933" lon="-2.8663659"><ele>856.0</ele><time>2026-04-19T07:13:04.948Z</time></trkpt><trkpt lat="38.9649395" lon="-2.8663041"><ele>856.0</ele><time>2026-04-19T07:13:07.948Z</time></trkpt><trkpt lat="38.9649867" lon="-2.8662416"><ele>856.0</ele><time>2026-04-19T07:13:11.948Z</time></trkpt><trkpt lat="38.9650245" lon="-2.8661623"><ele>856.0000000000001</ele><time>2026-04-19T07:13:14.948Z</time></trkpt><trkpt lat="38.9650561" lon="-2.8660835"><ele>856.0</ele><time>2026-04-19T07:13:17.948Z</time></trkpt><trkpt lat="38.9650997" lon="-2.8659768"><ele>857.2857142857143</ele><time>2026-04-19T07:13:20.948Z</time></trkpt><trkpt lat="38.9651397" lon="-2.8658973"><ele>858.5714285714286</ele><time>2026-04-19T07:13:22.948Z</time></trkpt><trkpt lat="38.9651712" lon="-2.8658237"><ele>859.8571428571429</ele><time>2026-04-19T07:13:24.948Z</time></trkpt><trkpt lat="38.9651998" lon="-2.8657422"><ele>861.1428571428571</ele><time>2026-04-19T07:13:27.948Z</time></trkpt><trkpt lat="38.9652319" lon="-2.8656532"><ele>862.4285714285714</ele><time>2026-04-19T07:13:31.948Z</time></trkpt><trkpt lat="38.9652741" lon="-2.8655653"><ele>863.7142857142858</ele><time>2026-04-19T07:13:35.948Z</time></trkpt><trkpt lat="38.96531" lon="-2.8654818"><ele>865.0</ele><time>2026-04-19T07:13:39.948Z</time></trkpt><trkpt lat="38.9653433" lon="-2.8654061"><ele>865.0</ele><time>2026-04-19T07:13:44.949Z</time></trkpt><trkpt lat="38.9653815" lon="-2.8653203"><ele>865.0</ele><time>2026-04-19T07:13:49.948Z</time></trkpt><trkpt lat="38.9654165" lon="-2.8652357"><ele>865.0</ele><time>2026-04-19T07:13:53.948Z</time></trkpt><trkpt lat="38.9654482" lon="-2.8651649"><ele>865.0</ele><time>2026-04-19T07:13:56.948Z</time></trkpt><trkpt lat="38.965486" lon="-2.8650678"><ele>865.0</ele><time>2026-04-19T07:14:00.948Z</time></trkpt><trkpt lat="38.9655154" lon="-2.8649961"><ele>865.0</ele><time>2026-04-19T07:14:03.948Z</time></trkpt><trkpt lat="38.9655524" lon="-2.8648993"><ele>865.0</ele><time>2026-04-19T07:14:07.948Z</time></trkpt><trkpt lat="38.9655898" lon="-2.8648149"><ele>865.1666666666666</ele><time>2026-04-19T07:14:11.948Z</time></trkpt><trkpt lat="38.9656197" lon="-2.864718"><ele>865.3333333333333</ele><time>2026-04-19T07:14:15.947Z</time></trkpt><trkpt lat="38.9656342" lon="-2.8646192"><ele>865.5</ele><time>2026-04-19T07:14:19.948Z</time></trkpt><trkpt lat="38.9656484" lon="-2.8645159"><ele>865.6666666666667</ele><time>2026-04-19T07:14:23.948Z</time></trkpt><trkpt lat="38.9656628" lon="-2.8644184"><ele>865.8333333333334</ele><time>2026-04-19T07:14:27.948Z</time></trkpt><trkpt lat="38.9656735" lon="-2.8643214"><ele>866.0</ele><time>2026-04-19T07:14:31.948Z</time></trkpt><trkpt lat="38.9657084" lon="-2.8642317"><ele>866.3333333333334</ele><time>2026-04-19T07:14:35.946Z</time></trkpt><trkpt lat="38.9657615" lon="-2.8641722"><ele>866.6666666666667</ele><time>2026-04-19T07:14:39.948Z</time></trkpt><trkpt lat="38.9658376" lon="-2.8641454"><ele>867.0</ele><time>2026-04-19T07:14:43.947Z</time></trkpt><trkpt lat="38.9658989" lon="-2.8640975"><ele>867.3333333333333</ele><time>2026-04-19T07:14:46.948Z</time></trkpt><trkpt lat="38.9659641" lon="-2.8640405"><ele>867.6666666666666</ele><time>2026-04-19T07:14:49.948Z</time></trkpt><trkpt lat="38.9660412" lon="-2.8640037"><ele>868.0</ele><time>2026-04-19T07:14:52.948Z</time></trkpt><trkpt lat="38.9661216" lon="-2.8639726"><ele>868.9999999999999</ele><time>2026-04-19T07:14:55.949Z</time></trkpt><trkpt lat="38.9661981" lon="-2.8639352"><ele>870.0</ele><time>2026-04-19T07:14:58.948Z</time></trkpt><trkpt lat="38.9662741" lon="-2.8638896"><ele>871.0</ele><time>2026-04-19T07:15:01.948Z</time></trkpt><trkpt lat="38.9663443" lon="-2.8638436"><ele>872.0</ele><time>2026-04-19T07:15:04.947Z</time></trkpt><trkpt lat="38.9664223" lon="-2.8637885"><ele>872.9999999999999</ele><time>2026-04-19T07:15:07.948Z</time></trkpt><trkpt lat="38.966504" lon="-2.8637467"><ele>874.0</ele><time>2026-04-19T07:15:10.948Z</time></trkpt><trkpt lat="38.9665899" lon="-2.8637135"><ele>873.9999999999999</ele><time>2026-04-19T07:15:13.948Z</time></trkpt><trkpt lat="38.9666509" lon="-2.8636931"><ele>874.0</ele><time>2026-04-19T07:15:15.948Z</time></trkpt><trkpt lat="38.9667323" lon="-2.8636561"><ele>874.0</ele><time>2026-04-19T07:15:18.947Z</time></trkpt><trkpt lat="38.9668156" lon="-2.8636255"><ele>874.0</ele><time>2026-04-19T07:15:21.948Z</time></trkpt><trkpt lat="38.9668979" lon="-2.8635934"><ele>873.9999999999999</ele><time>2026-04-19T07:15:24.948Z</time></trkpt><trkpt lat="38.9669813" lon="-2.8635605"><ele>874.0</ele><time>2026-04-19T07:15:27.948Z</time></trkpt><trkpt lat="38.9670637" lon="-2.8635249"><ele>873.9999999999999</ele><time>2026-04-19T07:15:30.948Z</time></trkpt><trkpt lat="38.9671423" lon="-2.8634964"><ele>874.0</ele><time>2026-04-19T07:15:33.948Z</time></trkpt><trkpt lat="38.9672332" lon="-2.8634652"><ele>874.0</ele><time>2026-04-19T07:15:36.948Z</time></trkpt><trkpt lat="38.9672976" lon="-2.8634438"><ele>874.0</ele><time>2026-04-19T07:15:38.948Z</time></trkpt><trkpt lat="38.9673623" lon="-2.8634063"><ele>873.9999999999999</ele><time>2026-04-19T07:15:40.948Z</time></trkpt><trkpt lat="38.9674349" lon="-2.8633716"><ele>874.0</ele><time>2026-04-19T07:15:42.948Z</time></trkpt><trkpt lat="38.9675161" lon="-2.8633568"><ele>873.6</ele><time>2026-04-19T07:15:44.948Z</time></trkpt><trkpt lat="38.9675996" lon="-2.86334"><ele>873.2</ele><time>2026-04-19T07:15:46.948Z</time></trkpt><trkpt lat="38.967685" lon="-2.8633051"><ele>872.8000000000001</ele><time>2026-04-19T07:15:48.948Z</time></trkpt><trkpt lat="38.9677714" lon="-2.8632497"><ele>872.4000000000001</ele><time>2026-04-19T07:15:50.948Z</time></trkpt><trkpt lat="38.9678619" lon="-2.8631862"><ele>872.0</ele><time>2026-04-19T07:15:52.948Z</time></trkpt><trkpt lat="38.9679629" lon="-2.8631485"><ele>872.0</ele><time>2026-04-19T07:15:54.948Z</time></trkpt><trkpt lat="38.9680683" lon="-2.8631172"><ele>872.0</ele><time>2026-04-19T07:15:56.948Z</time></trkpt><trkpt lat="38.9681646" lon="-2.8630734"><ele>872.0</ele><time>2026-04-19T07:15:58.948Z</time></trkpt><trkpt lat="38.9682566" lon="-2.8630366"><ele>872.0</ele><time>2026-04-19T07:16:00.948Z</time></trkpt><trkpt lat="38.968344" lon="-2.8630003"><ele>872.0</ele><time>2026-04-19T07:16:02.948Z</time></trkpt><trkpt lat="38.9684168" lon="-2.86295"><ele>872.0000000000001</ele><time>2026-04-19T07:16:04.948Z</time></trkpt><trkpt lat="38.9684641" lon="-2.8628723"><ele>872.0</ele><time>2026-04-19T07:16:06.947Z</time></trkpt><trkpt lat="38.9685127" lon="-2.8627894"><ele>872.0</ele><time>2026-04-19T07:16:08.948Z</time></trkpt><trkpt lat="38.9685595" lon="-2.8627144"><ele>872.0</ele><time>2026-04-19T07:16:10.948Z</time></trkpt><trkpt lat="38.968608" lon="-2.8626337"><ele>872.0000000000001</ele><time>2026-04-19T07:16:12.948Z</time></trkpt><trkpt lat="38.9686364" lon="-2.8625388"><ele>872.0</ele><time>2026-04-19T07:16:14.949Z</time></trkpt><trkpt lat="38.9686374" lon="-2.8624265"><ele>871.5000000000001</ele><time>2026-04-19T07:16:17.948Z</time></trkpt><trkpt lat="38.968703" lon="-2.8623728"><ele>871.0</ele><time>2026-04-19T07:16:20.948Z</time></trkpt><trkpt lat="38.968764" lon="-2.8623422"><ele>870.5</ele><time>2026-04-19T07:16:22.948Z</time></trkpt><trkpt lat="38.968829" lon="-2.8623098"><ele>870.0</ele><time>2026-04-19T07:16:24.948Z</time></trkpt><trkpt lat="38.9688992" lon="-2.8622686"><ele>869.5000000000001</ele><time>2026-04-19T07:16:26.947Z</time></trkpt><trkpt lat="38.9689748" lon="-2.8622335"><ele>869.0</ele><time>2026-04-19T07:16:28.948Z</time></trkpt><trkpt lat="38.9690577" lon="-2.8621915"><ele>869.0</ele><time>2026-04-19T07:16:30.949Z</time></trkpt><trkpt lat="38.9691515" lon="-2.8621404"><ele>869.0000000000001</ele><time>2026-04-19T07:16:32.948Z</time></trkpt><trkpt lat="38.9692131" lon="-2.8620893"><ele>869.0000000000001</ele><time>2026-04-19T07:16:33.948Z</time></trkpt><trkpt lat="38.9693142" lon="-2.8620293"><ele>869.0</ele><time>2026-04-19T07:16:35.948Z</time></trkpt><trkpt lat="38.9694099" lon="-2.8619944"><ele>869.0</ele><time>2026-04-19T07:16:37.948Z</time></trkpt><trkpt lat="38.9695041" lon="-2.8619423"><ele>869.0</ele><time>2026-04-19T07:16:39.948Z</time></trkpt><trkpt lat="38.9695927" lon="-2.8618809"><ele>869.0000000000001</ele><time>2026-04-19T07:16:41.947Z</time></trkpt><trkpt lat="38.9696875" lon="-2.8618266"><ele>869.0000000000001</ele><time>2026-04-19T07:16:43.948Z</time></trkpt><trkpt lat="38.9697836" lon="-2.8617613"><ele>869.0</ele><time>2026-04-19T07:16:45.948Z</time></trkpt><trkpt lat="38.9698704" lon="-2.8617159"><ele>869.0</ele><time>2026-04-19T07:16:47.948Z</time></trkpt><trkpt lat="38.969943" lon="-2.8616729"><ele>869.1666666666667</ele><time>2026-04-19T07:16:49.948Z</time></trkpt><trkpt lat="38.9700037" lon="-2.861636"><ele>869.3333333333334</ele><time>2026-04-19T07:16:51.948Z</time></trkpt><trkpt lat="38.9700707" lon="-2.8615849"><ele>869.5</ele><time>2026-04-19T07:16:53.948Z</time></trkpt><trkpt lat="38.9701507" lon="-2.8615328"><ele>869.6666666666667</ele><time>2026-04-19T07:16:55.949Z</time></trkpt><trkpt lat="38.9702316" lon="-2.861499"><ele>869.8333333333334</ele><time>2026-04-19T07:16:57.947Z</time></trkpt><trkpt lat="38.9703131" lon="-2.8614541"><ele>870.0</ele><time>2026-04-19T07:16:59.948Z</time></trkpt><trkpt lat="38.9703981" lon="-2.861424"><ele>870.5</ele><time>2026-04-19T07:17:01.948Z</time></trkpt><trkpt lat="38.970479" lon="-2.8613916"><ele>871.0</ele><time>2026-04-19T07:17:03.948Z</time></trkpt><trkpt lat="38.9705542" lon="-2.8613469"><ele>871.5</ele><time>2026-04-19T07:17:05.948Z</time></trkpt><trkpt lat="38.970627" lon="-2.8612865"><ele>872.0</ele><time>2026-04-19T07:17:07.948Z</time></trkpt><trkpt lat="38.9706927" lon="-2.8612152"><ele>872.5</ele><time>2026-04-19T07:17:09.948Z</time></trkpt><trkpt lat="38.9707593" lon="-2.8611435"><ele>873.0</ele><time>2026-04-19T07:17:11.947Z</time></trkpt><trkpt lat="38.9708348" lon="-2.8610868"><ele>873.2</ele><time>2026-04-19T07:17:13.948Z</time></trkpt><trkpt lat="38.9709172" lon="-2.8610386"><ele>873.4</ele><time>2026-04-19T07:17:15.948Z</time></trkpt><trkpt lat="38.9709938" lon="-2.8609826"><ele>873.6000000000001</ele><time>2026-04-19T07:17:17.948Z</time></trkpt><trkpt lat="38.9710762" lon="-2.8609328"><ele>873.8000000000001</ele><time>2026-04-19T07:17:19.948Z</time></trkpt><trkpt lat="38.9711612" lon="-2.8608864"><ele>874.0</ele><time>2026-04-19T07:17:21.948Z</time></trkpt><trkpt lat="38.9712427" lon="-2.8608425"><ele>873.9999999999999</ele><time>2026-04-19T07:17:23.948Z</time></trkpt><trkpt lat="38.9713192" lon="-2.8608036"><ele>874.0</ele><time>2026-04-19T07:17:25.947Z</time></trkpt><trkpt lat="38.9713849" lon="-2.8607614"><ele>874.0</ele><time>2026-04-19T07:17:27.948Z</time></trkpt><trkpt lat="38.9714493" lon="-2.8607121"><ele>874.0</ele><time>2026-04-19T07:17:29.948Z</time></trkpt><trkpt lat="38.9715264" lon="-2.8606691"><ele>873.9999999999999</ele><time>2026-04-19T07:17:31.948Z</time></trkpt><trkpt lat="38.9716082" lon="-2.8606262"><ele>874.0</ele><time>2026-04-19T07:17:33.948Z</time></trkpt><trkpt lat="38.9716884" lon="-2.8605768"><ele>874.4000000000001</ele><time>2026-04-19T07:17:35.949Z</time></trkpt><trkpt lat="38.9717701" lon="-2.8605216"><ele>874.8000000000001</ele><time>2026-04-19T07:17:37.948Z</time></trkpt><trkpt lat="38.9718467" lon="-2.8604648"><ele>875.1999999999999</ele><time>2026-04-19T07:17:39.948Z</time></trkpt><trkpt lat="38.971927" lon="-2.8604237"><ele>875.5999999999999</ele><time>2026-04-19T07:17:41.948Z</time></trkpt><trkpt lat="38.9720064" lon="-2.8603587"><ele>876.0</ele><time>2026-04-19T07:17:43.948Z</time></trkpt><trkpt lat="38.9721107" lon="-2.8603111"><ele>876.0</ele><time>2026-04-19T07:17:45.948Z</time></trkpt><trkpt lat="38.9722235" lon="-2.8602757"><ele>875.9999999999999</ele><time>2026-04-19T07:17:47.948Z</time></trkpt><trkpt lat="38.9723287" lon="-2.8602073"><ele>875.9999999999999</ele><time>2026-04-19T07:17:49.947Z</time></trkpt><trkpt lat="38.9724131" lon="-2.8601676"><ele>876.0</ele><time>2026-04-19T07:17:51.948Z</time></trkpt><trkpt lat="38.9724989" lon="-2.8601313"><ele>876.0</ele><time>2026-04-19T07:17:53.948Z</time></trkpt><trkpt lat="38.9725716" lon="-2.8600729"><ele>876.8333333333334</ele><time>2026-04-19T07:17:55.948Z</time></trkpt><trkpt lat="38.9726487" lon="-2.8600076"><ele>877.6666666666667</ele><time>2026-04-19T07:17:57.948Z</time></trkpt><trkpt lat="38.9727324" lon="-2.8599604"><ele>878.5</ele><time>2026-04-19T07:17:59.949Z</time></trkpt><trkpt lat="38.9728015" lon="-2.8599126"><ele>879.3333333333334</ele><time>2026-04-19T07:18:01.947Z</time></trkpt><trkpt lat="38.9728685" lon="-2.8598406"><ele>880.1666666666667</ele><time>2026-04-19T07:18:03.948Z</time></trkpt><trkpt lat="38.9729287" lon="-2.8597784"><ele>881.0</ele><time>2026-04-19T07:18:05.948Z</time></trkpt><trkpt lat="38.9729902" lon="-2.8597258"><ele>881.0000000000001</ele><time>2026-04-19T07:18:07.948Z</time></trkpt><trkpt lat="38.9730532" lon="-2.8596826"><ele>881.0</ele><time>2026-04-19T07:18:09.948Z</time></trkpt><trkpt lat="38.9731097" lon="-2.8596449"><ele>881.0</ele><time>2026-04-19T07:18:11.948Z</time></trkpt><trkpt lat="38.9731743" lon="-2.8595932"><ele>881.0</ele><time>2026-04-19T07:18:14.948Z</time></trkpt><trkpt lat="38.9732547" lon="-2.8595402"><ele>881.0000000000001</ele><time>2026-04-19T07:18:17.948Z</time></trkpt><trkpt lat="38.9733296" lon="-2.8594834"><ele>881.0</ele><time>2026-04-19T07:18:20.948Z</time></trkpt><trkpt lat="38.973396" lon="-2.8594243"><ele>881.5000000000001</ele><time>2026-04-19T07:18:23.948Z</time></trkpt><trkpt lat="38.9734663" lon="-2.8593645"><ele>882.0</ele><time>2026-04-19T07:18:26.948Z</time></trkpt><trkpt lat="38.9735437" lon="-2.859297"><ele>882.5</ele><time>2026-04-19T07:18:29.948Z</time></trkpt><trkpt lat="38.9736212" lon="-2.8592296"><ele>883.0</ele><time>2026-04-19T07:18:32.948Z</time></trkpt><trkpt lat="38.9736912" lon="-2.8591616"><ele>883.5000000000001</ele><time>2026-04-19T07:18:35.948Z</time></trkpt><trkpt lat="38.9737541" lon="-2.8591033"><ele>884.0</ele><time>2026-04-19T07:18:38.948Z</time></trkpt><trkpt lat="38.9738297" lon="-2.8590279"><ele>884.0000000000001</ele><time>2026-04-19T07:18:41.948Z</time></trkpt><trkpt lat="38.9738847" lon="-2.858973"><ele>884.0</ele><time>2026-04-19T07:18:43.948Z</time></trkpt><trkpt lat="38.9739405" lon="-2.8589178"><ele>884.0</ele><time>2026-04-19T07:18:45.948Z</time></trkpt><trkpt lat="38.9739983" lon="-2.8588638"><ele>884.0</ele><time>2026-04-19T07:18:47.948Z</time></trkpt><trkpt lat="38.9740568" lon="-2.8588096"><ele>884.0</ele><time>2026-04-19T07:18:49.948Z</time></trkpt><trkpt lat="38.9741173" lon="-2.8587558"><ele>884.0000000000001</ele><time>2026-04-19T07:18:51.948Z</time></trkpt><trkpt lat="38.9741855" lon="-2.858698"><ele>884.0</ele><time>2026-04-19T07:18:53.948Z</time></trkpt><trkpt lat="38.9742633" lon="-2.8586523"><ele>884.1666666666667</ele><time>2026-04-19T07:18:55.948Z</time></trkpt><trkpt lat="38.9743418" lon="-2.8586302"><ele>884.3333333333334</ele><time>2026-04-19T07:18:57.948Z</time></trkpt><trkpt lat="38.9744162" lon="-2.8586001"><ele>884.5</ele><time>2026-04-19T07:18:59.948Z</time></trkpt><trkpt lat="38.9744777" lon="-2.8585333"><ele>884.6666666666667</ele><time>2026-04-19T07:19:01.948Z</time></trkpt><trkpt lat="38.9745375" lon="-2.8584626"><ele>884.8333333333334</ele><time>2026-04-19T07:19:03.948Z</time></trkpt><trkpt lat="38.9746104" lon="-2.8584062"><ele>885.0</ele><time>2026-04-19T07:19:05.948Z</time></trkpt><trkpt lat="38.9746919" lon="-2.8583171"><ele>885.0</ele><time>2026-04-19T07:19:07.948Z</time></trkpt><trkpt lat="38.9747394" lon="-2.8582557"><ele>885.0</ele><time>2026-04-19T07:19:08.948Z</time></trkpt><trkpt lat="38.9747849" lon="-2.8581986"><ele>885.0</ele><time>2026-04-19T07:19:09.948Z</time></trkpt><trkpt lat="38.9748638" lon="-2.8580895"><ele>885.0</ele><time>2026-04-19T07:19:11.947Z</time></trkpt><trkpt lat="38.9749342" lon="-2.858008"><ele>885.0</ele><time>2026-04-19T07:19:13.948Z</time></trkpt><trkpt lat="38.9749923" lon="-2.8579493"><ele>885.0</ele><time>2026-04-19T07:19:15.948Z</time></trkpt><trkpt lat="38.9750487" lon="-2.857875"><ele>885.0</ele><time>2026-04-19T07:19:17.948Z</time></trkpt><trkpt lat="38.9751026" lon="-2.8577937"><ele>885.0</ele><time>2026-04-19T07:19:19.948Z</time></trkpt><trkpt lat="38.9751518" lon="-2.8577137"><ele>885.0</ele><time>2026-04-19T07:19:21.948Z</time></trkpt><trkpt lat="38.9752025" lon="-2.8576463"><ele>885.0</ele><time>2026-04-19T07:19:23.948Z</time></trkpt><trkpt lat="38.975271" lon="-2.85761"><ele>885.0</ele><time>2026-04-19T07:19:25.948Z</time></trkpt><trkpt lat="38.9753415" lon="-2.857585"><ele>885.0</ele><time>2026-04-19T07:19:27.948Z</time></trkpt><trkpt lat="38.9754045" lon="-2.8575597"><ele>885.0</ele><time>2026-04-19T07:19:29.948Z</time></trkpt><trkpt lat="38.9754734" lon="-2.8574879"><ele>885.0</ele><time>2026-04-19T07:19:32.948Z</time></trkpt><trkpt lat="38.9754645" lon="-2.8573983"><ele>885.0</ele><time>2026-04-19T07:19:34.947Z</time></trkpt><trkpt lat="38.9754377" lon="-2.8573109"><ele>885.0</ele><time>2026-04-19T07:19:36.948Z</time></trkpt><trkpt lat="38.9754185" lon="-2.8572039"><ele>885.0</ele><time>2026-04-19T07:19:38.948Z</time></trkpt><trkpt lat="38.9754021" lon="-2.8570785"><ele>885.0</ele><time>2026-04-19T07:19:40.948Z</time></trkpt><trkpt lat="38.9753917" lon="-2.8569535"><ele>885.0</ele><time>2026-04-19T07:19:42.948Z</time></trkpt><trkpt lat="38.9753814" lon="-2.8568392"><ele>885.0</ele><time>2026-04-19T07:19:44.948Z</time></trkpt><trkpt lat="38.9753675" lon="-2.8567318"><ele>885.0</ele><time>2026-04-19T07:19:46.949Z</time></trkpt><trkpt lat="38.975351" lon="-2.8566317"><ele>885.0</ele><time>2026-04-19T07:19:48.947Z</time></trkpt><trkpt lat="38.975343" lon="-2.8565267"><ele>885.0</ele><time>2026-04-19T07:19:50.947Z</time></trkpt><trkpt lat="38.9753446" lon="-2.8564252"><ele>885.0</ele><time>2026-04-19T07:19:52.949Z</time></trkpt><trkpt lat="38.9753557" lon="-2.8563281"><ele>885.0</ele><time>2026-04-19T07:19:54.948Z</time></trkpt><trkpt lat="38.9753627" lon="-2.8562352"><ele>885.0</ele><time>2026-04-19T07:19:56.948Z</time></trkpt><trkpt lat="38.9753614" lon="-2.8561436"><ele>885.0</ele><time>2026-04-19T07:19:58.948Z</time></trkpt><trkpt lat="38.9753675" lon="-2.8560416"><ele>885.0</ele><time>2026-04-19T07:20:00.948Z</time></trkpt><trkpt lat="38.9753677" lon="-2.8559237"><ele>885.0</ele><time>2026-04-19T07:20:02.948Z</time></trkpt><trkpt lat="38.9753745" lon="-2.8558027"><ele>885.0</ele><time>2026-04-19T07:20:04.948Z</time></trkpt><trkpt lat="38.9753811" lon="-2.8556804"><ele>885.0</ele><time>2026-04-19T07:20:06.947Z</time></trkpt><trkpt lat="38.9753893" lon="-2.8555576"><ele>885.0</ele><time>2026-04-19T07:20:08.948Z</time></trkpt><trkpt lat="38.9753945" lon="-2.8554454"><ele>885.0</ele><time>2026-04-19T07:20:10.948Z</time></trkpt><trkpt lat="38.9754042" lon="-2.8553385"><ele>885.0</ele><time>2026-04-19T07:20:12.949Z</time></trkpt><trkpt lat="38.9754138" lon="-2.8552245"><ele>885.0</ele><time>2026-04-19T07:20:14.948Z</time></trkpt><trkpt lat="38.9754217" lon="-2.8551031"><ele>885.0</ele><time>2026-04-19T07:20:16.948Z</time></trkpt><trkpt lat="38.9754185" lon="-2.8549813"><ele>885.0</ele><time>2026-04-19T07:20:18.948Z</time></trkpt><trkpt lat="38.9753853" lon="-2.854867"><ele>885.0</ele><time>2026-04-19T07:20:20.948Z</time></trkpt><trkpt lat="38.975361" lon="-2.854743"><ele>885.0</ele><time>2026-04-19T07:20:22.948Z</time></trkpt><trkpt lat="38.9753477" lon="-2.8546116"><ele>885.0</ele><time>2026-04-19T07:20:24.948Z</time></trkpt><trkpt lat="38.9753361" lon="-2.8544843"><ele>885.0</ele><time>2026-04-19T07:20:26.948Z</time></trkpt><trkpt lat="38.9753049" lon="-2.8543631"><ele>885.0</ele><time>2026-04-19T07:20:28.948Z</time></trkpt><trkpt lat="38.9752747" lon="-2.8542441"><ele>885.0</ele><time>2026-04-19T07:20:30.948Z</time></trkpt><trkpt lat="38.9752527" lon="-2.8541222"><ele>885.0</ele><time>2026-04-19T07:20:32.948Z</time></trkpt><trkpt lat="38.9752398" lon="-2.8539955"><ele>885.0</ele><time>2026-04-19T07:20:34.948Z</time></trkpt><trkpt lat="38.9752279" lon="-2.8538626"><ele>885.0</ele><time>2026-04-19T07:20:36.948Z</time></trkpt><trkpt lat="38.9752089" lon="-2.8537315"><ele>885.0</ele><time>2026-04-19T07:20:38.948Z</time></trkpt><trkpt lat="38.9751869" lon="-2.8536034"><ele>885.0</ele><time>2026-04-19T07:20:40.948Z</time></trkpt><trkpt lat="38.9751708" lon="-2.8534761"><ele>885.0</ele><time>2026-04-19T07:20:42.948Z</time></trkpt><trkpt lat="38.9751554" lon="-2.8533528"><ele>885.0</ele><time>2026-04-19T07:20:44.948Z</time></trkpt><trkpt lat="38.9751408" lon="-2.8532305"><ele>885.0</ele><time>2026-04-19T07:20:46.947Z</time></trkpt><trkpt lat="38.9751246" lon="-2.8531021"><ele>885.0</ele><time>2026-04-19T07:20:48.949Z</time></trkpt><trkpt lat="38.9751108" lon="-2.852974"><ele>885.0</ele><time>2026-04-19T07:20:50.948Z</time></trkpt><trkpt lat="38.9751043" lon="-2.8528488"><ele>885.0</ele><time>2026-04-19T07:20:52.948Z</time></trkpt><trkpt lat="38.9751025" lon="-2.8527299"><ele>885.0</ele><time>2026-04-19T07:20:54.947Z</time></trkpt><trkpt lat="38.9751034" lon="-2.8526092"><ele>885.0</ele><time>2026-04-19T07:20:56.948Z</time></trkpt><trkpt lat="38.9751124" lon="-2.8524834"><ele>884.8</ele><time>2026-04-19T07:20:58.948Z</time></trkpt><trkpt lat="38.9751216" lon="-2.8523553"><ele>884.6</ele><time>2026-04-19T07:21:00.948Z</time></trkpt><trkpt lat="38.9751413" lon="-2.8522256"><ele>884.4000000000001</ele><time>2026-04-19T07:21:02.948Z</time></trkpt><trkpt lat="38.9751752" lon="-2.8521013"><ele>884.2</ele><time>2026-04-19T07:21:04.948Z</time></trkpt><trkpt lat="38.9752244" lon="-2.8519752"><ele>884.0</ele><time>2026-04-19T07:21:06.948Z</time></trkpt><trkpt lat="38.9752756" lon="-2.8518585"><ele>883.6</ele><time>2026-04-19T07:21:08.948Z</time></trkpt><trkpt lat="38.9753286" lon="-2.8517502"><ele>883.2</ele><time>2026-04-19T07:21:10.948Z</time></trkpt><trkpt lat="38.9753762" lon="-2.8516481"><ele>882.8000000000001</ele><time>2026-04-19T07:21:12.947Z</time></trkpt><trkpt lat="38.9754227" lon="-2.8515536"><ele>882.4000000000001</ele><time>2026-04-19T07:21:14.948Z</time></trkpt><trkpt lat="38.975467" lon="-2.8514544"><ele>882.0</ele><time>2026-04-19T07:21:16.948Z</time></trkpt><trkpt lat="38.9755114" lon="-2.8513518"><ele>882.0</ele><time>2026-04-19T07:21:18.948Z</time></trkpt><trkpt lat="38.975558" lon="-2.8512394"><ele>882.0</ele><time>2026-04-19T07:21:20.948Z</time></trkpt><trkpt lat="38.9756032" lon="-2.8511208"><ele>882.0</ele><time>2026-04-19T07:21:22.948Z</time></trkpt><trkpt lat="38.9756504" lon="-2.8509988"><ele>882.0</ele><time>2026-04-19T07:21:24.948Z</time></trkpt><trkpt lat="38.9756994" lon="-2.8508844"><ele>882.0</ele><time>2026-04-19T07:21:26.947Z</time></trkpt><trkpt lat="38.9757462" lon="-2.8507743"><ele>881.8</ele><time>2026-04-19T07:21:28.949Z</time></trkpt><trkpt lat="38.9757922" lon="-2.8506758"><ele>881.6</ele><time>2026-04-19T07:21:30.947Z</time></trkpt><trkpt lat="38.9758406" lon="-2.8505721"><ele>881.3999999999999</ele><time>2026-04-19T07:21:32.948Z</time></trkpt><trkpt lat="38.9758941" lon="-2.8504764"><ele>881.1999999999999</ele><time>2026-04-19T07:21:34.948Z</time></trkpt><trkpt lat="38.975947" lon="-2.8503862"><ele>881.0</ele><time>2026-04-19T07:21:36.947Z</time></trkpt><trkpt lat="38.9760058" lon="-2.8503001"><ele>881.0000000000001</ele><time>2026-04-19T07:21:38.948Z</time></trkpt><trkpt lat="38.9760642" lon="-2.8502231"><ele>881.0</ele><time>2026-04-19T07:21:40.949Z</time></trkpt><trkpt lat="38.9761239" lon="-2.8501518"><ele>881.0</ele><time>2026-04-19T07:21:42.948Z</time></trkpt><trkpt lat="38.9761909" lon="-2.8500805"><ele>881.0</ele><time>2026-04-19T07:21:44.948Z</time></trkpt><trkpt lat="38.9762687" lon="-2.8500145"><ele>881.0000000000001</ele><time>2026-04-19T07:21:46.948Z</time></trkpt><trkpt lat="38.9763455" lon="-2.8499577"><ele>881.0</ele><time>2026-04-19T07:21:48.948Z</time></trkpt><trkpt lat="38.9764202" lon="-2.8498954"><ele>880.8</ele><time>2026-04-19T07:21:50.948Z</time></trkpt><trkpt lat="38.9764815" lon="-2.8498247"><ele>880.5999999999999</ele><time>2026-04-19T07:21:52.948Z</time></trkpt><trkpt lat="38.9765049" lon="-2.8497444"><ele>880.4</ele><time>2026-04-19T07:21:53.949Z</time></trkpt><trkpt lat="38.9765501" lon="-2.8496071"><ele>880.2</ele><time>2026-04-19T07:21:55.948Z</time></trkpt><trkpt lat="38.9765573" lon="-2.849451"><ele>880.0</ele><time>2026-04-19T07:21:57.949Z</time></trkpt><trkpt lat="38.9765513" lon="-2.8493696"><ele>879.4</ele><time>2026-04-19T07:21:58.947Z</time></trkpt><trkpt lat="38.9765507" lon="-2.8492252"><ele>878.8</ele><time>2026-04-19T07:22:00.948Z</time></trkpt><trkpt lat="38.9765638" lon="-2.8491"><ele>878.2</ele><time>2026-04-19T07:22:02.948Z</time></trkpt><trkpt lat="38.9765927" lon="-2.8489837"><ele>877.6</ele><time>2026-04-19T07:22:04.947Z</time></trkpt><trkpt lat="38.9766271" lon="-2.8488752"><ele>877.0</ele><time>2026-04-19T07:22:06.948Z</time></trkpt><trkpt lat="38.97665" lon="-2.8487622"><ele>877.0</ele><time>2026-04-19T07:22:08.948Z</time></trkpt><trkpt lat="38.9766514" lon="-2.8486408"><ele>877.0</ele><time>2026-04-19T07:22:10.948Z</time></trkpt><trkpt lat="38.9766271" lon="-2.8485209"><ele>877.0</ele><time>2026-04-19T07:22:12.948Z</time></trkpt><trkpt lat="38.9765868" lon="-2.8483944"><ele>877.0</ele><time>2026-04-19T07:22:14.948Z</time></trkpt><trkpt lat="38.9765237" lon="-2.8482382"><ele>877.0</ele><time>2026-04-19T07:22:16.947Z</time></trkpt><trkpt lat="38.9765083" lon="-2.8480811"><ele>876.8333333333333</ele><time>2026-04-19T07:22:18.948Z</time></trkpt><trkpt lat="38.9764931" lon="-2.8479454"><ele>876.6666666666666</ele><time>2026-04-19T07:22:20.948Z</time></trkpt><trkpt lat="38.9764836" lon="-2.8478549"><ele>876.5</ele><time>2026-04-19T07:22:22.948Z</time></trkpt><trkpt lat="38.9764881" lon="-2.8477728"><ele>876.3333333333333</ele><time>2026-04-19T07:22:24.948Z</time></trkpt><trkpt lat="38.9764873" lon="-2.8476857"><ele>876.1666666666666</ele><time>2026-04-19T07:22:26.948Z</time></trkpt><trkpt lat="38.9764936" lon="-2.8476014"><ele>876.0</ele><time>2026-04-19T07:22:28.948Z</time></trkpt><trkpt lat="38.976492" lon="-2.8474898"><ele>876.2857142857143</ele><time>2026-04-19T07:22:31.949Z</time></trkpt><trkpt lat="38.9764988" lon="-2.8473969"><ele>876.5714285714286</ele><time>2026-04-19T07:22:34.948Z</time></trkpt><trkpt lat="38.9765057" lon="-2.8472766"><ele>876.8571428571429</ele><time>2026-04-19T07:22:37.947Z</time></trkpt><trkpt lat="38.9765105" lon="-2.8471912"><ele>877.1428571428571</ele><time>2026-04-19T07:22:39.948Z</time></trkpt><trkpt lat="38.9765163" lon="-2.8471025"><ele>877.4285714285713</ele><time>2026-04-19T07:22:41.948Z</time></trkpt><trkpt lat="38.9765254" lon="-2.8470145"><ele>877.7142857142857</ele><time>2026-04-19T07:22:43.948Z</time></trkpt><trkpt lat="38.9765304" lon="-2.8469235"><ele>878.0</ele><time>2026-04-19T07:22:45.948Z</time></trkpt><trkpt lat="38.9765302" lon="-2.8468356"><ele>878.1428571428571</ele><time>2026-04-19T07:22:47.948Z</time></trkpt><trkpt lat="38.9765392" lon="-2.8467532"><ele>878.2857142857142</ele><time>2026-04-19T07:22:49.948Z</time></trkpt><trkpt lat="38.9765443" lon="-2.8466693"><ele>878.4285714285714</ele><time>2026-04-19T07:22:51.949Z</time></trkpt><trkpt lat="38.9765485" lon="-2.8465808"><ele>878.5714285714286</ele><time>2026-04-19T07:22:53.948Z</time></trkpt><trkpt lat="38.9765531" lon="-2.8464935"><ele>878.7142857142858</ele><time>2026-04-19T07:22:55.948Z</time></trkpt><trkpt lat="38.9765551" lon="-2.8464047"><ele>878.8571428571429</ele><time>2026-04-19T07:22:57.948Z</time></trkpt><trkpt lat="38.9765621" lon="-2.8463147"><ele>879.0</ele><time>2026-04-19T07:22:59.948Z</time></trkpt><trkpt lat="38.9765668" lon="-2.8462256"><ele>879.0</ele><time>2026-04-19T07:23:01.948Z</time></trkpt><trkpt lat="38.9765729" lon="-2.8461367"><ele>879.0</ele><time>2026-04-19T07:23:03.948Z</time></trkpt><trkpt lat="38.9765785" lon="-2.8460467"><ele>879.0</ele><time>2026-04-19T07:23:05.948Z</time></trkpt><trkpt lat="38.9765825" lon="-2.8459544"><ele>879.0</ele><time>2026-04-19T07:23:07.948Z</time></trkpt><trkpt lat="38.9765831" lon="-2.8458585"><ele>879.0</ele><time>2026-04-19T07:23:09.947Z</time></trkpt><trkpt lat="38.9765846" lon="-2.8457604"><ele>879.0</ele><time>2026-04-19T07:23:11.948Z</time></trkpt><trkpt lat="38.9765885" lon="-2.8456603"><ele>879.0</ele><time>2026-04-19T07:23:13.948Z</time></trkpt><trkpt lat="38.976593" lon="-2.8455512"><ele>879.1666666666666</ele><time>2026-04-19T07:23:15.938Z</time></trkpt><trkpt lat="38.9766019" lon="-2.8454452"><ele>879.3333333333333</ele><time>2026-04-19T07:23:17.948Z</time></trkpt><trkpt lat="38.9766076" lon="-2.8453427"><ele>879.5</ele><time>2026-04-19T07:23:19.948Z</time></trkpt><trkpt lat="38.9766155" lon="-2.8452379"><ele>879.6666666666666</ele><time>2026-04-19T07:23:21.948Z</time></trkpt><trkpt lat="38.976618" lon="-2.8451293"><ele>879.8333333333333</ele><time>2026-04-19T07:23:23.948Z</time></trkpt><trkpt lat="38.9766263" lon="-2.8450261"><ele>880.0</ele><time>2026-04-19T07:23:25.948Z</time></trkpt><trkpt lat="38.9766398" lon="-2.8449156"><ele>880.1666666666666</ele><time>2026-04-19T07:23:27.948Z</time></trkpt><trkpt lat="38.9766551" lon="-2.8448037"><ele>880.3333333333333</ele><time>2026-04-19T07:23:29.948Z</time></trkpt><trkpt lat="38.9766576" lon="-2.8446884"><ele>880.5</ele><time>2026-04-19T07:23:31.949Z</time></trkpt><trkpt lat="38.976668" lon="-2.8445761"><ele>880.6666666666667</ele><time>2026-04-19T07:23:33.949Z</time></trkpt><trkpt lat="38.9766748" lon="-2.8444716"><ele>880.8333333333334</ele><time>2026-04-19T07:23:35.948Z</time></trkpt><trkpt lat="38.9766835" lon="-2.8443731"><ele>881.0</ele><time>2026-04-19T07:23:37.947Z</time></trkpt><trkpt lat="38.9766909" lon="-2.8442821"><ele>881.5000000000001</ele><time>2026-04-19T07:23:39.948Z</time></trkpt><trkpt lat="38.9767121" lon="-2.8441875"><ele>882.0</ele><time>2026-04-19T07:23:41.948Z</time></trkpt><trkpt lat="38.9767329" lon="-2.8440839"><ele>882.5</ele><time>2026-04-19T07:23:43.947Z</time></trkpt><trkpt lat="38.976753" lon="-2.8439751"><ele>883.0</ele><time>2026-04-19T07:23:45.948Z</time></trkpt><trkpt lat="38.9767779" lon="-2.8438631"><ele>883.5000000000001</ele><time>2026-04-19T07:23:47.948Z</time></trkpt><trkpt lat="38.9768025" lon="-2.8437535"><ele>884.0</ele><time>2026-04-19T07:23:49.948Z</time></trkpt><trkpt lat="38.9768236" lon="-2.843646"><ele>884.0</ele><time>2026-04-19T07:23:51.947Z</time></trkpt><trkpt lat="38.9768442" lon="-2.8435371"><ele>884.0000000000001</ele><time>2026-04-19T07:23:53.948Z</time></trkpt><trkpt lat="38.9768721" lon="-2.8434241"><ele>884.0000000000001</ele><time>2026-04-19T07:23:55.948Z</time></trkpt><trkpt lat="38.9769038" lon="-2.8433092"><ele>884.0</ele><time>2026-04-19T07:23:57.948Z</time></trkpt><trkpt lat="38.9769415" lon="-2.8432003"><ele>884.0</ele><time>2026-04-19T07:23:59.948Z</time></trkpt><trkpt lat="38.9769778" lon="-2.8430933"><ele>883.8000000000001</ele><time>2026-04-19T07:24:01.948Z</time></trkpt><trkpt lat="38.977021" lon="-2.8429914"><ele>883.6000000000001</ele><time>2026-04-19T07:24:03.947Z</time></trkpt><trkpt lat="38.977079" lon="-2.8428979"><ele>883.4</ele><time>2026-04-19T07:24:05.948Z</time></trkpt><trkpt lat="38.9771527" lon="-2.8428174"><ele>883.2</ele><time>2026-04-19T07:24:07.948Z</time></trkpt><trkpt lat="38.9772244" lon="-2.8427332"><ele>883.0</ele><time>2026-04-19T07:24:09.948Z</time></trkpt><trkpt lat="38.9772781" lon="-2.8426349"><ele>883.0</ele><time>2026-04-19T07:24:11.948Z</time></trkpt><trkpt lat="38.977273" lon="-2.8425156"><ele>883.0</ele><time>2026-04-19T07:24:13.948Z</time></trkpt><trkpt lat="38.9772591" lon="-2.8423756"><ele>883.0</ele><time>2026-04-19T07:24:15.948Z</time></trkpt><trkpt lat="38.9772795" lon="-2.8422411"><ele>883.0</ele><time>2026-04-19T07:24:17.948Z</time></trkpt><trkpt lat="38.9773049" lon="-2.8421216"><ele>883.0</ele><time>2026-04-19T07:24:19.948Z</time></trkpt><trkpt lat="38.9773259" lon="-2.8420326"><ele>883.0</ele><time>2026-04-19T07:24:21.948Z</time></trkpt><trkpt lat="38.9773354" lon="-2.8419508"><ele>883.0</ele><time>2026-04-19T07:24:24.948Z</time></trkpt><trkpt lat="38.9773708" lon="-2.8420212"><ele>883.0</ele><time>2026-04-19T07:24:29.948Z</time></trkpt><trkpt lat="38.9773188" lon="-2.8421172"><ele>883.0</ele><time>2026-04-19T07:24:32.949Z</time></trkpt><trkpt lat="38.9772879" lon="-2.842204"><ele>883.0</ele><time>2026-04-19T07:24:34.948Z</time></trkpt><trkpt lat="38.9772653" lon="-2.842281"><ele>883.0</ele><time>2026-04-19T07:24:36.948Z</time></trkpt><trkpt lat="38.977248" lon="-2.8423671"><ele>883.0</ele><time>2026-04-19T07:24:39.948Z</time></trkpt><trkpt lat="38.977251" lon="-2.8424501"><ele>883.0</ele><time>2026-04-19T07:24:42.948Z</time></trkpt><trkpt lat="38.977214" lon="-2.8425264"><ele>883.0</ele><time>2026-04-19T07:24:46.947Z</time></trkpt><trkpt lat="38.9771855" lon="-2.8426037"><ele>883.0</ele><time>2026-04-19T07:24:50.948Z</time></trkpt><trkpt lat="38.9771958" lon="-2.842698"><ele>883.0</ele><time>2026-04-19T07:24:54.948Z</time></trkpt><trkpt lat="38.9772018" lon="-2.842784"><ele>883.0</ele><time>2026-04-19T07:24:57.948Z</time></trkpt><trkpt lat="38.9771387" lon="-2.8428727"><ele>883.0</ele><time>2026-04-19T07:25:00.948Z</time></trkpt><trkpt lat="38.9770725" lon="-2.8429232"><ele>883.0</ele><time>2026-04-19T07:25:02.947Z</time></trkpt><trkpt lat="38.9770308" lon="-2.8430014"><ele>882.9999999999999</ele><time>2026-04-19T07:25:04.948Z</time></trkpt><trkpt lat="38.9769892" lon="-2.8430662"><ele>883.0</ele><time>2026-04-19T07:25:06.948Z</time></trkpt><trkpt lat="38.9769332" lon="-2.8430028"><ele>883.0</ele><time>2026-04-19T07:25:10.948Z</time></trkpt><trkpt lat="38.9769709" lon="-2.8429053"><ele>883.0</ele><time>2026-04-19T07:25:12.948Z</time></trkpt><trkpt lat="38.9769637" lon="-2.8427839"><ele>882.9999999999999</ele><time>2026-04-19T07:25:14.949Z</time></trkpt><trkpt lat="38.9769495" lon="-2.8426445"><ele>883.0</ele><time>2026-04-19T07:25:16.947Z</time></trkpt><trkpt lat="38.9769248" lon="-2.8425043"><ele>882.9999999999999</ele><time>2026-04-19T07:25:18.948Z</time></trkpt><trkpt lat="38.976892" lon="-2.8424338"><ele>883.0</ele><time>2026-04-19T07:25:19.948Z</time></trkpt><trkpt lat="38.9768488" lon="-2.84237"><ele>883.0</ele><time>2026-04-19T07:25:20.948Z</time></trkpt><trkpt lat="38.9767974" lon="-2.8423111"><ele>883.0</ele><time>2026-04-19T07:25:21.948Z</time></trkpt><trkpt lat="38.9767446" lon="-2.8422584"><ele>882.9999999999999</ele><time>2026-04-19T07:25:22.948Z</time></trkpt><trkpt lat="38.9766342" lon="-2.8422059"><ele>883.0</ele><time>2026-04-19T07:25:24.948Z</time></trkpt><trkpt lat="38.9765284" lon="-2.8421716"><ele>882.0</ele><time>2026-04-19T07:25:26.948Z</time></trkpt><trkpt lat="38.9764128" lon="-2.8421189"><ele>881.0</ele><time>2026-04-19T07:25:28.948Z</time></trkpt><trkpt lat="38.9763105" lon="-2.8420718"><ele>880.0</ele><time>2026-04-19T07:25:30.949Z</time></trkpt><trkpt lat="38.9762106" lon="-2.842064"><ele>879.0</ele><time>2026-04-19T07:25:32.948Z</time></trkpt><trkpt lat="38.9761044" lon="-2.8420932"><ele>878.0</ele><time>2026-04-19T07:25:34.949Z</time></trkpt><trkpt lat="38.9759893" lon="-2.8421462"><ele>878.0</ele><time>2026-04-19T07:25:36.948Z</time></trkpt><trkpt lat="38.9758809" lon="-2.8422112"><ele>878.0</ele><time>2026-04-19T07:25:38.948Z</time></trkpt><trkpt lat="38.9757927" lon="-2.8423132"><ele>878.0</ele><time>2026-04-19T07:25:40.948Z</time></trkpt><trkpt lat="38.9757236" lon="-2.8424104"><ele>878.0</ele><time>2026-04-19T07:25:42.947Z</time></trkpt><trkpt lat="38.9756271" lon="-2.8424767"><ele>876.8</ele><time>2026-04-19T07:25:44.948Z</time></trkpt><trkpt lat="38.9755255" lon="-2.8425064"><ele>875.5999999999999</ele><time>2026-04-19T07:25:46.948Z</time></trkpt><trkpt lat="38.975437" lon="-2.8425308"><ele>874.4000000000001</ele><time>2026-04-19T07:25:48.948Z</time></trkpt><trkpt lat="38.9753638" lon="-2.8425224"><ele>873.2</ele><time>2026-04-19T07:25:50.948Z</time></trkpt><trkpt lat="38.9752716" lon="-2.8425073"><ele>872.0</ele><time>2026-04-19T07:25:52.948Z</time></trkpt><trkpt lat="38.9751605" lon="-2.8425254"><ele>872.0000000000001</ele><time>2026-04-19T07:25:54.948Z</time></trkpt><trkpt lat="38.9750872" lon="-2.8425538"><ele>872.0</ele><time>2026-04-19T07:25:56.948Z</time></trkpt><trkpt lat="38.9750161" lon="-2.8426144"><ele>872.0</ele><time>2026-04-19T07:25:58.948Z</time></trkpt><trkpt lat="38.9749582" lon="-2.8427044"><ele>872.0</ele><time>2026-04-19T07:26:00.947Z</time></trkpt><trkpt lat="38.9748966" lon="-2.842798"><ele>872.0000000000001</ele><time>2026-04-19T07:26:02.948Z</time></trkpt><trkpt lat="38.9748532" lon="-2.8428793"><ele>872.0</ele><time>2026-04-19T07:26:04.948Z</time></trkpt><trkpt lat="38.9748118" lon="-2.8429487"><ele>871.5000000000001</ele><time>2026-04-19T07:26:06.948Z</time></trkpt><trkpt lat="38.9747627" lon="-2.8430484"><ele>871.0</ele><time>2026-04-19T07:26:08.948Z</time></trkpt><trkpt lat="38.9747091" lon="-2.8431174"><ele>870.5</ele><time>2026-04-19T07:26:10.948Z</time></trkpt><trkpt lat="38.974647" lon="-2.8431601"><ele>870.0</ele><time>2026-04-19T07:26:12.948Z</time></trkpt><trkpt lat="38.9745856" lon="-2.8432346"><ele>869.5000000000001</ele><time>2026-04-19T07:26:14.948Z</time></trkpt><trkpt lat="38.9745271" lon="-2.843314"><ele>869.0</ele><time>2026-04-19T07:26:16.948Z</time></trkpt><trkpt lat="38.9744844" lon="-2.8433848"><ele>869.0000000000001</ele><time>2026-04-19T07:26:18.948Z</time></trkpt><trkpt lat="38.9744343" lon="-2.8434472"><ele>869.0</ele><time>2026-04-19T07:26:20.948Z</time></trkpt><trkpt lat="38.9743859" lon="-2.8435143"><ele>869.0</ele><time>2026-04-19T07:26:22.948Z</time></trkpt><trkpt lat="38.9743515" lon="-2.8435902"><ele>869.0</ele><time>2026-04-19T07:26:24.948Z</time></trkpt><trkpt lat="38.9743207" lon="-2.8436965"><ele>869.0000000000001</ele><time>2026-04-19T07:26:27.948Z</time></trkpt><trkpt lat="38.974275" lon="-2.8437814"><ele>869.0</ele><time>2026-04-19T07:26:30.948Z</time></trkpt><trkpt lat="38.9742523" lon="-2.8438903"><ele>869.3333333333334</ele><time>2026-04-19T07:26:33.948Z</time></trkpt><trkpt lat="38.9742426" lon="-2.8439878"><ele>869.6666666666667</ele><time>2026-04-19T07:26:35.949Z</time></trkpt><trkpt lat="38.9742577" lon="-2.8441023"><ele>870.0</ele><time>2026-04-19T07:26:37.948Z</time></trkpt><trkpt lat="38.9742715" lon="-2.844195"><ele>870.3333333333333</ele><time>2026-04-19T07:26:39.948Z</time></trkpt><trkpt lat="38.9742818" lon="-2.8442932"><ele>870.6666666666666</ele><time>2026-04-19T07:26:41.948Z</time></trkpt><trkpt lat="38.9742871" lon="-2.8443873"><ele>871.0</ele><time>2026-04-19T07:26:43.948Z</time></trkpt><trkpt lat="38.9742787" lon="-2.8444763"><ele>870.9999999999999</ele><time>2026-04-19T07:26:45.947Z</time></trkpt><trkpt lat="38.9742717" lon="-2.8445609"><ele>871.0</ele><time>2026-04-19T07:26:47.948Z</time></trkpt><trkpt lat="38.9742607" lon="-2.8446457"><ele>871.0</ele><time>2026-04-19T07:26:49.948Z</time></trkpt><trkpt lat="38.9742264" lon="-2.8447582"><ele>871.0</ele><time>2026-04-19T07:26:52.948Z</time></trkpt><trkpt lat="38.9741761" lon="-2.8448568"><ele>870.9999999999999</ele><time>2026-04-19T07:26:55.948Z</time></trkpt><trkpt lat="38.9740941" lon="-2.8449173"><ele>871.0</ele><time>2026-04-19T07:26:58.948Z</time></trkpt><trkpt lat="38.9740039" lon="-2.8449484"><ele>869.6666666666666</ele><time>2026-04-19T07:27:01.948Z</time></trkpt><trkpt lat="38.9739401" lon="-2.8449603"><ele>868.3333333333333</ele><time>2026-04-19T07:27:03.948Z</time></trkpt><trkpt lat="38.9738534" lon="-2.8449636"><ele>867.0</ele><time>2026-04-19T07:27:06.948Z</time></trkpt><trkpt lat="38.9737845" lon="-2.8450407"><ele>865.6666666666667</ele><time>2026-04-19T07:27:09.948Z</time></trkpt><trkpt lat="38.9737753" lon="-2.8451387"><ele>864.3333333333334</ele><time>2026-04-19T07:27:11.948Z</time></trkpt><trkpt lat="38.9737416" lon="-2.845213"><ele>863.0</ele><time>2026-04-19T07:27:13.948Z</time></trkpt><trkpt lat="38.9737222" lon="-2.8453263"><ele>863.0000000000001</ele><time>2026-04-19T07:27:16.947Z</time></trkpt><trkpt lat="38.9737348" lon="-2.8454057"><ele>863.0</ele><time>2026-04-19T07:27:18.948Z</time></trkpt><trkpt lat="38.9737734" lon="-2.8455154"><ele>863.0</ele><time>2026-04-19T07:27:21.947Z</time></trkpt><trkpt lat="38.9738203" lon="-2.8456081"><ele>863.0</ele><time>2026-04-19T07:27:24.948Z</time></trkpt><trkpt lat="38.9738379" lon="-2.845698"><ele>863.0000000000001</ele><time>2026-04-19T07:27:27.948Z</time></trkpt><trkpt lat="38.973774" lon="-2.8457217"><ele>863.0</ele><time>2026-04-19T07:27:30.948Z</time></trkpt><trkpt lat="38.9737028" lon="-2.8456883"><ele>863.0000000000001</ele><time>2026-04-19T07:27:33.948Z</time></trkpt><trkpt lat="38.9736203" lon="-2.8456872"><ele>863.0</ele><time>2026-04-19T07:27:36.948Z</time></trkpt><trkpt lat="38.9735451" lon="-2.8457306"><ele>863.0</ele><time>2026-04-19T07:27:39.948Z</time></trkpt><trkpt lat="38.9734731" lon="-2.8457988"><ele>863.0</ele><time>2026-04-19T07:27:42.948Z</time></trkpt><trkpt lat="38.973388" lon="-2.8458503"><ele>863.0000000000001</ele><time>2026-04-19T07:27:46.947Z</time></trkpt><trkpt lat="38.9733229" lon="-2.8458589"><ele>863.0</ele><time>2026-04-19T07:27:48.948Z</time></trkpt><trkpt lat="38.9732353" lon="-2.8459064"><ele>862.5000000000001</ele><time>2026-04-19T07:27:51.948Z</time></trkpt><trkpt lat="38.9731737" lon="-2.8459476"><ele>862.0</ele><time>2026-04-19T07:27:53.948Z</time></trkpt><trkpt lat="38.9731162" lon="-2.8459927"><ele>861.5</ele><time>2026-04-19T07:27:55.948Z</time></trkpt><trkpt lat="38.9730469" lon="-2.8460643"><ele>861.0</ele><time>2026-04-19T07:27:58.948Z</time></trkpt><trkpt lat="38.9729938" lon="-2.8461134"><ele>860.5000000000001</ele><time>2026-04-19T07:28:00.948Z</time></trkpt><trkpt lat="38.9729045" lon="-2.8461412"><ele>860.0</ele><time>2026-04-19T07:28:03.948Z</time></trkpt><trkpt lat="38.9728276" lon="-2.8460967"><ele>860.0000000000001</ele><time>2026-04-19T07:28:06.948Z</time></trkpt><trkpt lat="38.9727774" lon="-2.8460167"><ele>860.0</ele><time>2026-04-19T07:28:09.948Z</time></trkpt><trkpt lat="38.9727369" lon="-2.8459415"><ele>860.0</ele><time>2026-04-19T07:28:12.948Z</time></trkpt><trkpt lat="38.9726618" lon="-2.8458766"><ele>860.0</ele><time>2026-04-19T07:28:15.948Z</time></trkpt><trkpt lat="38.9725765" lon="-2.8458569"><ele>860.0000000000001</ele><time>2026-04-19T07:28:18.948Z</time></trkpt><trkpt lat="38.9725152" lon="-2.8459126"><ele>860.0</ele><time>2026-04-19T07:28:21.948Z</time></trkpt><trkpt lat="38.9724492" lon="-2.845946"><ele>858.5714285714286</ele><time>2026-04-19T07:28:25.947Z</time></trkpt><trkpt lat="38.9723746" lon="-2.8459491"><ele>857.1428571428572</ele><time>2026-04-19T07:28:52.948Z</time></trkpt><trkpt lat="38.9723282" lon="-2.8458848"><ele>855.7142857142858</ele><time>2026-04-19T07:28:56.947Z</time></trkpt><trkpt lat="38.9723083" lon="-2.8457969"><ele>854.2857142857142</ele><time>2026-04-19T07:29:01.948Z</time></trkpt><trkpt lat="38.9722885" lon="-2.8457166"><ele>852.8571428571429</ele><time>2026-04-19T07:29:12.947Z</time></trkpt><trkpt lat="38.9722391" lon="-2.8456368"><ele>851.4285714285714</ele><time>2026-04-19T07:29:17.947Z</time></trkpt><trkpt lat="38.972157" lon="-2.8456185"><ele>850.0</ele><time>2026-04-19T07:29:21.948Z</time></trkpt><trkpt lat="38.9720865" lon="-2.8456122"><ele>849.9999999999999</ele><time>2026-04-19T07:29:24.948Z</time></trkpt><trkpt lat="38.9720078" lon="-2.8456614"><ele>850.0</ele><time>2026-04-19T07:29:27.948Z</time></trkpt><trkpt lat="38.9719461" lon="-2.8457019"><ele>850.0</ele><time>2026-04-19T07:29:29.948Z</time></trkpt><trkpt lat="38.9718746" lon="-2.8457468"><ele>850.0</ele><time>2026-04-19T07:29:31.948Z</time></trkpt><trkpt lat="38.9718088" lon="-2.8458131"><ele>849.9999999999999</ele><time>2026-04-19T07:29:33.948Z</time></trkpt><trkpt lat="38.9717546" lon="-2.8459097"><ele>850.0</ele><time>2026-04-19T07:29:35.948Z</time></trkpt><trkpt lat="38.9716917" lon="-2.8459901"><ele>849.6666666666666</ele><time>2026-04-19T07:29:37.948Z</time></trkpt><trkpt lat="38.9716143" lon="-2.8460554"><ele>849.3333333333333</ele><time>2026-04-19T07:29:40.949Z</time></trkpt><trkpt lat="38.9715483" lon="-2.8460961"><ele>849.0</ele><time>2026-04-19T07:29:42.948Z</time></trkpt><trkpt lat="38.9714906" lon="-2.8461297"><ele>848.6666666666667</ele><time>2026-04-19T07:29:44.948Z</time></trkpt><trkpt lat="38.9714509" lon="-2.8462323"><ele>848.3333333333334</ele><time>2026-04-19T07:29:47.948Z</time></trkpt><trkpt lat="38.9714454" lon="-2.8463389"><ele>848.0</ele><time>2026-04-19T07:29:49.949Z</time></trkpt><trkpt lat="38.9714411" lon="-2.8464475"><ele>848.0000000000001</ele><time>2026-04-19T07:29:51.948Z</time></trkpt><trkpt lat="38.9714388" lon="-2.8465589"><ele>848.0</ele><time>2026-04-19T07:29:53.948Z</time></trkpt><trkpt lat="38.971431" lon="-2.8466631"><ele>848.0</ele><time>2026-04-19T07:29:56.948Z</time></trkpt><trkpt lat="38.9714051" lon="-2.8467387"><ele>848.0</ele><time>2026-04-19T07:29:59.948Z</time></trkpt><trkpt lat="38.9713586" lon="-2.8468052"><ele>848.0000000000001</ele><time>2026-04-19T07:30:02.948Z</time></trkpt><trkpt lat="38.9713198" lon="-2.8468796"><ele>848.0</ele><time>2026-04-19T07:30:05.948Z</time></trkpt><trkpt lat="38.9712909" lon="-2.8469915"><ele>848.0000000000001</ele><time>2026-04-19T07:30:08.948Z</time></trkpt><trkpt lat="38.971329" lon="-2.8470717"><ele>848.0</ele><time>2026-04-19T07:30:10.948Z</time></trkpt><trkpt lat="38.9712875" lon="-2.8469947"><ele>848.0</ele><time>2026-04-19T07:30:16.948Z</time></trkpt><trkpt lat="38.9713291" lon="-2.8468862"><ele>848.0</ele><time>2026-04-19T07:30:18.948Z</time></trkpt><trkpt lat="38.9713768" lon="-2.8467879"><ele>848.0000000000001</ele><time>2026-04-19T07:30:20.948Z</time></trkpt><trkpt lat="38.9714227" lon="-2.8466983"><ele>848.0</ele><time>2026-04-19T07:30:22.948Z</time></trkpt><trkpt lat="38.9713992" lon="-2.8466072"><ele>848.0</ele><time>2026-04-19T07:30:26.948Z</time></trkpt><trkpt lat="38.9713283" lon="-2.8466398"><ele>848.0</ele><time>2026-04-19T07:30:29.948Z</time></trkpt><trkpt lat="38.9712678" lon="-2.8467554"><ele>848.0</ele><time>2026-04-19T07:30:31.948Z</time></trkpt><trkpt lat="38.9712016" lon="-2.8468627"><ele>848.0</ele><time>2026-04-19T07:30:33.948Z</time></trkpt><trkpt lat="38.9711513" lon="-2.8469615"><ele>848.0</ele><time>2026-04-19T07:30:35.948Z</time></trkpt><trkpt lat="38.9711248" lon="-2.8470745"><ele>847.6666666666667</ele><time>2026-04-19T07:30:37.948Z</time></trkpt><trkpt lat="38.9711596" lon="-2.8471472"><ele>847.3333333333334</ele><time>2026-04-19T07:30:38.948Z</time></trkpt><trkpt lat="38.9711718" lon="-2.847288"><ele>847.0</ele><time>2026-04-19T07:30:40.948Z</time></trkpt><trkpt lat="38.971102" lon="-2.8473597"><ele>846.6666666666667</ele><time>2026-04-19T07:30:42.948Z</time></trkpt><trkpt lat="38.9710197" lon="-2.8473761"><ele>846.3333333333334</ele><time>2026-04-19T07:30:44.948Z</time></trkpt><trkpt lat="38.9709229" lon="-2.8473466"><ele>846.0</ele><time>2026-04-19T07:30:46.948Z</time></trkpt><trkpt lat="38.9708183" lon="-2.8473432"><ele>845.8</ele><time>2026-04-19T07:30:48.948Z</time></trkpt><trkpt lat="38.9707091" lon="-2.8473647"><ele>845.5999999999999</ele><time>2026-04-19T07:30:50.947Z</time></trkpt><trkpt lat="38.9706183" lon="-2.8474268"><ele>845.4</ele><time>2026-04-19T07:30:52.948Z</time></trkpt><trkpt lat="38.9705739" lon="-2.8474957"><ele>845.2</ele><time>2026-04-19T07:30:54.948Z</time></trkpt><trkpt lat="38.9705195" lon="-2.8475767"><ele>845.0</ele><time>2026-04-19T07:30:56.948Z</time></trkpt><trkpt lat="38.9704712" lon="-2.847668"><ele>845.0000000000001</ele><time>2026-04-19T07:30:58.948Z</time></trkpt><trkpt lat="38.9704235" lon="-2.8477485"><ele>845.0</ele><time>2026-04-19T07:31:00.948Z</time></trkpt><trkpt lat="38.9703881" lon="-2.8478404"><ele>845.0</ele><time>2026-04-19T07:31:02.948Z</time></trkpt><trkpt lat="38.9703409" lon="-2.8479341"><ele>845.0</ele><time>2026-04-19T07:31:04.948Z</time></trkpt><trkpt lat="38.9702711" lon="-2.8480221"><ele>845.0000000000001</ele><time>2026-04-19T07:31:06.948Z</time></trkpt><trkpt lat="38.9702114" lon="-2.8481074"><ele>845.0</ele><time>2026-04-19T07:31:08.948Z</time></trkpt><trkpt lat="38.9701739" lon="-2.8481743"><ele>845.0000000000001</ele><time>2026-04-19T07:31:10.948Z</time></trkpt><trkpt lat="38.9701333" lon="-2.8482433"><ele>845.0</ele><time>2026-04-19T07:31:12.948Z</time></trkpt><trkpt lat="38.9700719" lon="-2.8483193"><ele>845.0</ele><time>2026-04-19T07:31:15.948Z</time></trkpt><trkpt lat="38.9700222" lon="-2.848382"><ele>845.0</ele><time>2026-04-19T07:31:17.947Z</time></trkpt><trkpt lat="38.9699635" lon="-2.8484623"><ele>845.0000000000001</ele><time>2026-04-19T07:31:20.948Z</time></trkpt><trkpt lat="38.9699139" lon="-2.8485333"><ele>845.0</ele><time>2026-04-19T07:31:22.948Z</time></trkpt><trkpt lat="38.9698614" lon="-2.848594"><ele>846.5714285714286</ele><time>2026-04-19T07:31:24.948Z</time></trkpt><trkpt lat="38.9698186" lon="-2.8486599"><ele>848.1428571428571</ele><time>2026-04-19T07:31:26.948Z</time></trkpt><trkpt lat="38.9697715" lon="-2.8487326"><ele>849.7142857142858</ele><time>2026-04-19T07:31:28.948Z</time></trkpt><trkpt lat="38.9697276" lon="-2.8487984"><ele>851.2857142857142</ele><time>2026-04-19T07:31:30.948Z</time></trkpt><trkpt lat="38.9696796" lon="-2.8488677"><ele>852.8571428571429</ele><time>2026-04-19T07:31:32.948Z</time></trkpt><trkpt lat="38.969628" lon="-2.8489312"><ele>854.4285714285714</ele><time>2026-04-19T07:31:34.949Z</time></trkpt><trkpt lat="38.9695714" lon="-2.8489808"><ele>856.0</ele><time>2026-04-19T07:31:36.948Z</time></trkpt><trkpt lat="38.9694994" lon="-2.8490198"><ele>855.9999999999999</ele><time>2026-04-19T07:31:38.948Z</time></trkpt><trkpt lat="38.9694372" lon="-2.8490706"><ele>856.0</ele><time>2026-04-19T07:31:40.947Z</time></trkpt><trkpt lat="38.9693814" lon="-2.8491358"><ele>856.0</ele><time>2026-04-19T07:31:42.948Z</time></trkpt><trkpt lat="38.9693334" lon="-2.849208"><ele>856.0</ele><time>2026-04-19T07:31:44.948Z</time></trkpt><trkpt lat="38.9692923" lon="-2.8492808"><ele>855.9999999999999</ele><time>2026-04-19T07:31:46.948Z</time></trkpt><trkpt lat="38.9692453" lon="-2.8493822"><ele>856.0</ele><time>2026-04-19T07:31:49.948Z</time></trkpt><trkpt lat="38.9692055" lon="-2.8494507"><ele>856.3333333333333</ele><time>2026-04-19T07:31:51.947Z</time></trkpt><trkpt lat="38.9691534" lon="-2.8494968"><ele>856.6666666666666</ele><time>2026-04-19T07:31:53.948Z</time></trkpt><trkpt lat="38.9690986" lon="-2.8495453"><ele>857.0</ele><time>2026-04-19T07:31:55.948Z</time></trkpt><trkpt lat="38.9690149" lon="-2.8496019"><ele>857.3333333333333</ele><time>2026-04-19T07:31:58.948Z</time></trkpt><trkpt lat="38.9689618" lon="-2.849653"><ele>857.6666666666666</ele><time>2026-04-19T07:32:00.948Z</time></trkpt><trkpt lat="38.9689103" lon="-2.8497076"><ele>858.0</ele><time>2026-04-19T07:32:02.948Z</time></trkpt><trkpt lat="38.9688358" lon="-2.8497797"><ele>858.0</ele><time>2026-04-19T07:32:05.948Z</time></trkpt><trkpt lat="38.9687543" lon="-2.8498272"><ele>858.0</ele><time>2026-04-19T07:32:08.948Z</time></trkpt><trkpt lat="38.9686699" lon="-2.8498691"><ele>858.0</ele><time>2026-04-19T07:32:11.948Z</time></trkpt><trkpt lat="38.9686076" lon="-2.8498982"><ele>858.0</ele><time>2026-04-19T07:32:13.948Z</time></trkpt><trkpt lat="38.9685193" lon="-2.8499414"><ele>858.0</ele><time>2026-04-19T07:32:16.948Z</time></trkpt><trkpt lat="38.9684288" lon="-2.84995"><ele>858.0</ele><time>2026-04-19T07:32:19.948Z</time></trkpt><trkpt lat="38.9683561" lon="-2.8499416"><ele>857.7142857142858</ele><time>2026-04-19T07:32:22.948Z</time></trkpt><trkpt lat="38.9682876" lon="-2.849938"><ele>857.4285714285714</ele><time>2026-04-19T07:32:25.948Z</time></trkpt><trkpt lat="38.9682251" lon="-2.8499279"><ele>857.1428571428571</ele><time>2026-04-19T07:32:28.948Z</time></trkpt><trkpt lat="38.9681546" lon="-2.849908"><ele>856.8571428571429</ele><time>2026-04-19T07:32:31.948Z</time></trkpt><trkpt lat="38.9680827" lon="-2.8498704"><ele>856.5714285714286</ele><time>2026-04-19T07:32:34.947Z</time></trkpt><trkpt lat="38.9680221" lon="-2.8498096"><ele>856.2857142857143</ele><time>2026-04-19T07:32:37.948Z</time></trkpt><trkpt lat="38.9680016" lon="-2.8497052"><ele>856.0</ele><time>2026-04-19T07:32:40.948Z</time></trkpt><trkpt lat="38.9680103" lon="-2.8495993"><ele>855.9999999999999</ele><time>2026-04-19T07:32:43.948Z</time></trkpt><trkpt lat="38.9680209" lon="-2.8495083"><ele>856.0</ele><time>2026-04-19T07:32:46.948Z</time></trkpt><trkpt lat="38.9680187" lon="-2.8494079"><ele>856.0</ele><time>2026-04-19T07:32:49.948Z</time></trkpt><trkpt lat="38.9680028" lon="-2.8493041"><ele>856.0</ele><time>2026-04-19T07:32:52.948Z</time></trkpt><trkpt lat="38.9679723" lon="-2.8492025"><ele>855.9999999999999</ele><time>2026-04-19T07:32:55.948Z</time></trkpt><trkpt lat="38.9679645" lon="-2.8490976"><ele>856.0</ele><time>2026-04-19T07:32:58.948Z</time></trkpt><trkpt lat="38.9679694" lon="-2.8489904"><ele>856.5714285714287</ele><time>2026-04-19T07:33:01.948Z</time></trkpt><trkpt lat="38.9679414" lon="-2.848897"><ele>857.1428571428571</ele><time>2026-04-19T07:33:04.949Z</time></trkpt><trkpt lat="38.9678757" lon="-2.8488437"><ele>857.7142857142858</ele><time>2026-04-19T07:33:07.948Z</time></trkpt><trkpt lat="38.967812" lon="-2.8488466"><ele>858.2857142857143</ele><time>2026-04-19T07:33:10.948Z</time></trkpt><trkpt lat="38.9677431" lon="-2.8488891"><ele>858.8571428571429</ele><time>2026-04-19T07:33:13.948Z</time></trkpt><trkpt lat="38.9676719" lon="-2.8489175"><ele>859.4285714285714</ele><time>2026-04-19T07:33:16.948Z</time></trkpt><trkpt lat="38.9676051" lon="-2.8489185"><ele>860.0</ele><time>2026-04-19T07:33:19.948Z</time></trkpt><trkpt lat="38.9675346" lon="-2.8488795"><ele>860.5000000000001</ele><time>2026-04-19T07:33:23.948Z</time></trkpt><trkpt lat="38.9674666" lon="-2.848821"><ele>861.0</ele><time>2026-04-19T07:33:27.948Z</time></trkpt><trkpt lat="38.9674211" lon="-2.8487416"><ele>861.5</ele><time>2026-04-19T07:33:30.948Z</time></trkpt><trkpt lat="38.9674282" lon="-2.8486364"><ele>862.0</ele><time>2026-04-19T07:33:33.948Z</time></trkpt><trkpt lat="38.9674286" lon="-2.848538"><ele>862.5000000000001</ele><time>2026-04-19T07:33:36.948Z</time></trkpt><trkpt lat="38.9674229" lon="-2.8484379"><ele>863.0</ele><time>2026-04-19T07:33:39.948Z</time></trkpt><trkpt lat="38.9674037" lon="-2.8483381"><ele>863.1428571428572</ele><time>2026-04-19T07:33:42.948Z</time></trkpt><trkpt lat="38.9673822" lon="-2.8482497"><ele>863.2857142857143</ele><time>2026-04-19T07:33:45.948Z</time></trkpt><trkpt lat="38.9673446" lon="-2.8481806"><ele>863.4285714285714</ele><time>2026-04-19T07:33:48.948Z</time></trkpt><trkpt lat="38.9672832" lon="-2.8481144"><ele>863.5714285714287</ele><time>2026-04-19T07:33:52.948Z</time></trkpt><trkpt lat="38.9672151" lon="-2.8480771"><ele>863.7142857142857</ele><time>2026-04-19T07:33:55.949Z</time></trkpt><trkpt lat="38.967144" lon="-2.8480958"><ele>863.8571428571429</ele><time>2026-04-19T07:33:58.948Z</time></trkpt><trkpt lat="38.9670796" lon="-2.8481095"><ele>864.0</ele><time>2026-04-19T07:34:01.948Z</time></trkpt><trkpt lat="38.9670166" lon="-2.8481048"><ele>864.0</ele><time>2026-04-19T07:34:04.948Z</time></trkpt><trkpt lat="38.9669517" lon="-2.8480872"><ele>864.0</ele><time>2026-04-19T07:34:07.948Z</time></trkpt><trkpt lat="38.966891" lon="-2.8480603"><ele>864.0</ele><time>2026-04-19T07:34:10.948Z</time></trkpt><trkpt lat="38.966811" lon="-2.848046"><ele>864.0</ele><time>2026-04-19T07:34:14.947Z</time></trkpt><trkpt lat="38.966744" lon="-2.8480456"><ele>864.0</ele><time>2026-04-19T07:34:18.947Z</time></trkpt><trkpt lat="38.9666675" lon="-2.8480588"><ele>864.0</ele><time>2026-04-19T07:34:29.948Z</time></trkpt><trkpt lat="38.9666006" lon="-2.8480756"><ele>864.0</ele><time>2026-04-19T07:34:32.948Z</time></trkpt><trkpt lat="38.9665363" lon="-2.8480919"><ele>864.4285714285714</ele><time>2026-04-19T07:34:35.948Z</time></trkpt><trkpt lat="38.9664701" lon="-2.848117"><ele>864.8571428571429</ele><time>2026-04-19T07:34:38.948Z</time></trkpt><trkpt lat="38.9664036" lon="-2.8481328"><ele>865.2857142857142</ele><time>2026-04-19T07:34:41.948Z</time></trkpt><trkpt lat="38.9663347" lon="-2.8481339"><ele>865.7142857142858</ele><time>2026-04-19T07:34:44.948Z</time></trkpt><trkpt lat="38.966258" lon="-2.8481288"><ele>866.1428571428572</ele><time>2026-04-19T07:34:47.948Z</time></trkpt><trkpt lat="38.9661785" lon="-2.8481089"><ele>866.5714285714286</ele><time>2026-04-19T07:34:50.948Z</time></trkpt><trkpt lat="38.9660974" lon="-2.8480985"><ele>867.0</ele><time>2026-04-19T07:34:53.947Z</time></trkpt><trkpt lat="38.9660286" lon="-2.8481009"><ele>867.0</ele><time>2026-04-19T07:34:55.948Z</time></trkpt><trkpt lat="38.9659513" lon="-2.8480711"><ele>867.0</ele><time>2026-04-19T07:34:58.948Z</time></trkpt><trkpt lat="38.9658736" lon="-2.8480556"><ele>867.0</ele><time>2026-04-19T07:35:01.948Z</time></trkpt><trkpt lat="38.9657927" lon="-2.8480297"><ele>867.0</ele><time>2026-04-19T07:35:04.948Z</time></trkpt><trkpt lat="38.9657094" lon="-2.8479918"><ele>867.0</ele><time>2026-04-19T07:35:07.948Z</time></trkpt><trkpt lat="38.9656425" lon="-2.8479196"><ele>867.0</ele><time>2026-04-19T07:35:10.948Z</time></trkpt><trkpt lat="38.9655909" lon="-2.8478617"><ele>867.5</ele><time>2026-04-19T07:35:12.948Z</time></trkpt><trkpt lat="38.9655314" lon="-2.8478136"><ele>868.0</ele><time>2026-04-19T07:35:14.948Z</time></trkpt><trkpt lat="38.965451" lon="-2.8477756"><ele>868.5</ele><time>2026-04-19T07:35:17.948Z</time></trkpt><trkpt lat="38.9653759" lon="-2.8477515"><ele>869.0</ele><time>2026-04-19T07:35:20.948Z</time></trkpt><trkpt lat="38.9652955" lon="-2.8477344"><ele>869.5</ele><time>2026-04-19T07:35:23.948Z</time></trkpt><trkpt lat="38.9652253" lon="-2.8476959"><ele>870.0</ele><time>2026-04-19T07:35:26.948Z</time></trkpt><trkpt lat="38.9651614" lon="-2.847635"><ele>870.2857142857143</ele><time>2026-04-19T07:35:29.948Z</time></trkpt><trkpt lat="38.9650824" lon="-2.8475677"><ele>870.5714285714286</ele><time>2026-04-19T07:35:32.948Z</time></trkpt><trkpt lat="38.9650268" lon="-2.8475174"><ele>870.8571428571429</ele><time>2026-04-19T07:35:34.948Z</time></trkpt><trkpt lat="38.9649742" lon="-2.8474666"><ele>871.1428571428571</ele><time>2026-04-19T07:35:36.948Z</time></trkpt><trkpt lat="38.9649159" lon="-2.8474248"><ele>871.4285714285714</ele><time>2026-04-19T07:35:38.948Z</time></trkpt><trkpt lat="38.9648544" lon="-2.8473943"><ele>871.7142857142858</ele><time>2026-04-19T07:35:40.948Z</time></trkpt><trkpt lat="38.9647863" lon="-2.8473655"><ele>872.0</ele><time>2026-04-19T07:35:42.948Z</time></trkpt><trkpt lat="38.9647222" lon="-2.8473364"><ele>872.1666666666667</ele><time>2026-04-19T07:35:44.948Z</time></trkpt><trkpt lat="38.9646547" lon="-2.8473158"><ele>872.3333333333334</ele><time>2026-04-19T07:35:46.948Z</time></trkpt><trkpt lat="38.9645894" lon="-2.847282"><ele>872.5</ele><time>2026-04-19T07:35:48.948Z</time></trkpt><trkpt lat="38.9645081" lon="-2.8472361"><ele>872.6666666666667</ele><time>2026-04-19T07:35:51.948Z</time></trkpt><trkpt lat="38.964422" lon="-2.8471908"><ele>872.8333333333334</ele><time>2026-04-19T07:35:54.948Z</time></trkpt><trkpt lat="38.9643409" lon="-2.8471482"><ele>873.0</ele><time>2026-04-19T07:35:57.948Z</time></trkpt><trkpt lat="38.9642768" lon="-2.847124"><ele>872.9999999999999</ele><time>2026-04-19T07:35:59.948Z</time></trkpt><trkpt lat="38.9642147" lon="-2.8470859"><ele>873.0</ele><time>2026-04-19T07:36:01.948Z</time></trkpt><trkpt lat="38.9641577" lon="-2.8470148"><ele>873.0</ele><time>2026-04-19T07:36:03.948Z</time></trkpt><trkpt lat="38.9640952" lon="-2.8469789"><ele>873.0</ele><time>2026-04-19T07:36:05.948Z</time></trkpt><trkpt lat="38.9640249" lon="-2.8469424"><ele>873.0</ele><time>2026-04-19T07:36:08.948Z</time></trkpt><trkpt lat="38.9639464" lon="-2.8468971"><ele>872.9999999999999</ele><time>2026-04-19T07:36:11.948Z</time></trkpt><trkpt lat="38.9638888" lon="-2.8468598"><ele>873.0</ele><time>2026-04-19T07:36:13.948Z</time></trkpt><trkpt lat="38.963833" lon="-2.8468078"><ele>873.5714285714286</ele><time>2026-04-19T07:36:15.948Z</time></trkpt><trkpt lat="38.9637852" lon="-2.8467519"><ele>874.1428571428571</ele><time>2026-04-19T07:36:17.948Z</time></trkpt><trkpt lat="38.9637357" lon="-2.8466845"><ele>874.7142857142858</ele><time>2026-04-19T07:36:19.947Z</time></trkpt><trkpt lat="38.96368" lon="-2.8466395"><ele>875.2857142857142</ele><time>2026-04-19T07:36:21.948Z</time></trkpt><trkpt lat="38.9636209" lon="-2.8466025"><ele>875.8571428571429</ele><time>2026-04-19T07:36:23.949Z</time></trkpt><trkpt lat="38.9635631" lon="-2.8465687"><ele>876.4285714285714</ele><time>2026-04-19T07:36:25.948Z</time></trkpt><trkpt lat="38.9635032" lon="-2.8465297"><ele>877.0</ele><time>2026-04-19T07:36:27.948Z</time></trkpt><trkpt lat="38.9634439" lon="-2.8465005"><ele>876.9999999999999</ele><time>2026-04-19T07:36:29.948Z</time></trkpt><trkpt lat="38.9633815" lon="-2.8464667"><ele>877.0</ele><time>2026-04-19T07:36:31.948Z</time></trkpt><trkpt lat="38.9633096" lon="-2.8463959"><ele>877.0</ele><time>2026-04-19T07:36:34.947Z</time></trkpt><trkpt lat="38.9632463" lon="-2.8463068"><ele>877.0</ele><time>2026-04-19T07:36:37.948Z</time></trkpt><trkpt lat="38.963194" lon="-2.8462336"><ele>876.9999999999999</ele><time>2026-04-19T07:36:40.948Z</time></trkpt><trkpt lat="38.9631472" lon="-2.8461522"><ele>877.0</ele><time>2026-04-19T07:36:44.948Z</time></trkpt><trkpt lat="38.9630871" lon="-2.8461233"><ele>876.9999999999999</ele><time>2026-04-19T07:36:48.948Z</time></trkpt><trkpt lat="38.9630587" lon="-2.8462103"><ele>877.0</ele><time>2026-04-19T07:36:51.948Z</time></trkpt><trkpt lat="38.9630246" lon="-2.8462977"><ele>877.0</ele><time>2026-04-19T07:36:54.948Z</time></trkpt><trkpt lat="38.9629714" lon="-2.8463865"><ele>877.0</ele><time>2026-04-19T07:36:58.947Z</time></trkpt><trkpt lat="38.9629393" lon="-2.8464824"><ele>876.9999999999999</ele><time>2026-04-19T07:37:01.948Z</time></trkpt><trkpt lat="38.962912" lon="-2.8465703"><ele>877.0</ele><time>2026-04-19T07:37:04.948Z</time></trkpt><trkpt lat="38.9628995" lon="-2.8466672"><ele>877.0000000000001</ele><time>2026-04-19T07:37:07.949Z</time></trkpt><trkpt lat="38.9628388" lon="-2.8467178"><ele>877.0</ele><time>2026-04-19T07:37:11.948Z</time></trkpt><trkpt lat="38.9627723" lon="-2.8466681"><ele>877.0</ele><time>2026-04-19T07:37:16.948Z</time></trkpt><trkpt lat="38.96271" lon="-2.8465981"><ele>877.0</ele><time>2026-04-19T07:37:20.948Z</time></trkpt><trkpt lat="38.9626484" lon="-2.8465455"><ele>877.0</ele><time>2026-04-19T07:37:24.948Z</time></trkpt><trkpt lat="38.9625936" lon="-2.8465048"><ele>877.0000000000001</ele><time>2026-04-19T07:37:28.948Z</time></trkpt><trkpt lat="38.9625284" lon="-2.8464943"><ele>877.0</ele><time>2026-04-19T07:37:31.948Z</time></trkpt><trkpt lat="38.9624689" lon="-2.8464435"><ele>877.6666666666666</ele><time>2026-04-19T07:37:34.948Z</time></trkpt><trkpt lat="38.9624087" lon="-2.8463744"><ele>878.3333333333333</ele><time>2026-04-19T07:37:37.948Z</time></trkpt><trkpt lat="38.9623482" lon="-2.84631"><ele>879.0</ele><time>2026-04-19T07:37:40.948Z</time></trkpt><trkpt lat="38.9622916" lon="-2.8462288"><ele>879.6666666666667</ele><time>2026-04-19T07:37:44.947Z</time></trkpt><trkpt lat="38.9622463" lon="-2.8461342"><ele>880.3333333333334</ele><time>2026-04-19T07:37:47.948Z</time></trkpt><trkpt lat="38.9621975" lon="-2.8460465"><ele>881.0</ele><time>2026-04-19T07:37:50.948Z</time></trkpt><trkpt lat="38.9621369" lon="-2.8459676"><ele>880.8333333333334</ele><time>2026-04-19T07:37:53.948Z</time></trkpt><trkpt lat="38.9620706" lon="-2.8458936"><ele>880.6666666666667</ele><time>2026-04-19T07:37:56.948Z</time></trkpt><trkpt lat="38.9619902" lon="-2.8458618"><ele>880.5</ele><time>2026-04-19T07:37:59.948Z</time></trkpt><trkpt lat="38.961904" lon="-2.8458435"><ele>880.3333333333333</ele><time>2026-04-19T07:38:02.948Z</time></trkpt><trkpt lat="38.9618203" lon="-2.8458414"><ele>880.1666666666666</ele><time>2026-04-19T07:38:05.947Z</time></trkpt><trkpt lat="38.9617381" lon="-2.8458344"><ele>880.0</ele><time>2026-04-19T07:38:08.948Z</time></trkpt><trkpt lat="38.9616776" lon="-2.84576"><ele>880.9999999999999</ele><time>2026-04-19T07:38:11.948Z</time></trkpt><trkpt lat="38.9616081" lon="-2.8456913"><ele>882.0</ele><time>2026-04-19T07:38:14.948Z</time></trkpt><trkpt lat="38.9615498" lon="-2.8456576"><ele>883.0</ele><time>2026-04-19T07:38:16.948Z</time></trkpt><trkpt lat="38.9614637" lon="-2.8456283"><ele>884.0</ele><time>2026-04-19T07:38:19.948Z</time></trkpt><trkpt lat="38.9613764" lon="-2.8456286"><ele>884.9999999999999</ele><time>2026-04-19T07:38:22.948Z</time></trkpt><trkpt lat="38.9612882" lon="-2.845629"><ele>886.0</ele><time>2026-04-19T07:38:25.948Z</time></trkpt><trkpt lat="38.9612" lon="-2.8456283"><ele>885.9999999999999</ele><time>2026-04-19T07:38:28.948Z</time></trkpt><trkpt lat="38.9611104" lon="-2.8456306"><ele>886.0</ele><time>2026-04-19T07:38:31.948Z</time></trkpt><trkpt lat="38.9610176" lon="-2.8456363"><ele>886.0</ele><time>2026-04-19T07:38:34.948Z</time></trkpt><trkpt lat="38.9609284" lon="-2.8456514"><ele>886.0</ele><time>2026-04-19T07:38:37.948Z</time></trkpt><trkpt lat="38.960866" lon="-2.8456662"><ele>885.9999999999999</ele><time>2026-04-19T07:38:39.948Z</time></trkpt><trkpt lat="38.9608003" lon="-2.8456798"><ele>886.0</ele><time>2026-04-19T07:38:41.947Z</time></trkpt><trkpt lat="38.9607336" lon="-2.8456823"><ele>886.1428571428571</ele><time>2026-04-19T07:38:43.948Z</time></trkpt><trkpt lat="38.9606678" lon="-2.8456774"><ele>886.2857142857143</ele><time>2026-04-19T07:38:45.948Z</time></trkpt><trkpt lat="38.9605761" lon="-2.8456449"><ele>886.4285714285713</ele><time>2026-04-19T07:38:48.949Z</time></trkpt><trkpt lat="38.9605155" lon="-2.8456099"><ele>886.5714285714286</ele><time>2026-04-19T07:38:50.948Z</time></trkpt><trkpt lat="38.9604535" lon="-2.8455758"><ele>886.7142857142857</ele><time>2026-04-19T07:38:52.948Z</time></trkpt><trkpt lat="38.9603952" lon="-2.8455281"><ele>886.8571428571428</ele><time>2026-04-19T07:38:54.948Z</time></trkpt><trkpt lat="38.9603522" lon="-2.8454628"><ele>887.0</ele><time>2026-04-19T07:38:56.948Z</time></trkpt><trkpt lat="38.9603002" lon="-2.8453715"><ele>887.0000000000001</ele><time>2026-04-19T07:38:59.948Z</time></trkpt><trkpt lat="38.9602498" lon="-2.8453108"><ele>887.0</ele><time>2026-04-19T07:39:02.948Z</time></trkpt><trkpt lat="38.9602043" lon="-2.8452411"><ele>887.0</ele><time>2026-04-19T07:39:05.948Z</time></trkpt><trkpt lat="38.9601624" lon="-2.8451557"><ele>887.0</ele><time>2026-04-19T07:39:09.947Z</time></trkpt><trkpt lat="38.9601259" lon="-2.8450663"><ele>887.0000000000001</ele><time>2026-04-19T07:39:12.948Z</time></trkpt><trkpt lat="38.960101" lon="-2.8449652"><ele>887.0</ele><time>2026-04-19T07:39:15.949Z</time></trkpt><trkpt lat="38.9600708" lon="-2.8448607"><ele>887.1428571428571</ele><time>2026-04-19T07:39:18.948Z</time></trkpt><trkpt lat="38.9600406" lon="-2.844784"><ele>887.2857142857142</ele><time>2026-04-19T07:39:20.948Z</time></trkpt><trkpt lat="38.9599954" lon="-2.8447048"><ele>887.4285714285713</ele><time>2026-04-19T07:39:22.948Z</time></trkpt><trkpt lat="38.959951" lon="-2.8446309"><ele>887.5714285714286</ele><time>2026-04-19T07:39:24.948Z</time></trkpt><trkpt lat="38.9599044" lon="-2.844572"><ele>887.7142857142858</ele><time>2026-04-19T07:39:26.948Z</time></trkpt><trkpt lat="38.9598997" lon="-2.8444672"><ele>887.8571428571428</ele><time>2026-04-19T07:39:29.948Z</time></trkpt><trkpt lat="38.9599572" lon="-2.8443937"><ele>888.0</ele><time>2026-04-19T07:39:31.948Z</time></trkpt><trkpt lat="38.9600092" lon="-2.8442955"><ele>887.8</ele><time>2026-04-19T07:39:33.948Z</time></trkpt><trkpt lat="38.9600282" lon="-2.8441803"><ele>887.5999999999999</ele><time>2026-04-19T07:39:35.948Z</time></trkpt><trkpt lat="38.9600317" lon="-2.8440557"><ele>887.4000000000001</ele><time>2026-04-19T07:39:37.948Z</time></trkpt><trkpt lat="38.9600451" lon="-2.8439192"><ele>887.2</ele><time>2026-04-19T07:39:39.949Z</time></trkpt><trkpt lat="38.9600623" lon="-2.8437822"><ele>887.0</ele><time>2026-04-19T07:39:41.949Z</time></trkpt><trkpt lat="38.9601" lon="-2.8436519"><ele>887.0000000000001</ele><time>2026-04-19T07:39:43.948Z</time></trkpt><trkpt lat="38.960115" lon="-2.8435152"><ele>887.0</ele><time>2026-04-19T07:39:45.948Z</time></trkpt><trkpt lat="38.9601138" lon="-2.8433593"><ele>887.0</ele><time>2026-04-19T07:39:47.948Z</time></trkpt><trkpt lat="38.9601168" lon="-2.8432779"><ele>887.0</ele><time>2026-04-19T07:39:48.948Z</time></trkpt><trkpt lat="38.9601216" lon="-2.8431945"><ele>887.0000000000001</ele><time>2026-04-19T07:39:49.948Z</time></trkpt><trkpt lat="38.9601262" lon="-2.8431058"><ele>887.0</ele><time>2026-04-19T07:39:50.948Z</time></trkpt><trkpt lat="38.9601323" lon="-2.8430168"><ele>887.0</ele><time>2026-04-19T07:39:51.948Z</time></trkpt><trkpt lat="38.9601423" lon="-2.8429278"><ele>887.0</ele><time>2026-04-19T07:39:52.947Z</time></trkpt><trkpt lat="38.9601619" lon="-2.8428489"><ele>887.0</ele><time>2026-04-19T07:39:53.948Z</time></trkpt><trkpt lat="38.9601916" lon="-2.8426994"><ele>887.0</ele><time>2026-04-19T07:39:55.947Z</time></trkpt><trkpt lat="38.9602187" lon="-2.8425626"><ele>887.0</ele><time>2026-04-19T07:39:57.948Z</time></trkpt><trkpt lat="38.9602385" lon="-2.8424152"><ele>887.0</ele><time>2026-04-19T07:39:59.947Z</time></trkpt><trkpt lat="38.9602549" lon="-2.8422674"><ele>887.0</ele><time>2026-04-19T07:40:01.947Z</time></trkpt><trkpt lat="38.9602668" lon="-2.8421244"><ele>887.0</ele><time>2026-04-19T07:40:03.948Z</time></trkpt><trkpt lat="38.9602653" lon="-2.8419851"><ele>887.0</ele><time>2026-04-19T07:40:05.948Z</time></trkpt><trkpt lat="38.9602659" lon="-2.8418539"><ele>887.0</ele><time>2026-04-19T07:40:07.948Z</time></trkpt><trkpt lat="38.9602853" lon="-2.841727"><ele>887.4000000000001</ele><time>2026-04-19T07:40:09.948Z</time></trkpt><trkpt lat="38.9603394" lon="-2.8416174"><ele>887.8000000000001</ele><time>2026-04-19T07:40:11.948Z</time></trkpt><trkpt lat="38.9604164" lon="-2.8415179"><ele>888.2</ele><time>2026-04-19T07:40:13.948Z</time></trkpt><trkpt lat="38.960503" lon="-2.841405"><ele>888.6</ele><time>2026-04-19T07:40:15.948Z</time></trkpt><trkpt lat="38.9605447" lon="-2.8413421"><ele>889.0</ele><time>2026-04-19T07:40:16.948Z</time></trkpt><trkpt lat="38.9606277" lon="-2.8412409"><ele>888.9999999999999</ele><time>2026-04-19T07:40:18.948Z</time></trkpt><trkpt lat="38.9606945" lon="-2.8411454"><ele>889.0</ele><time>2026-04-19T07:40:20.948Z</time></trkpt><trkpt lat="38.9607586" lon="-2.841052"><ele>889.0</ele><time>2026-04-19T07:40:22.948Z</time></trkpt><trkpt lat="38.9608093" lon="-2.8409619"><ele>889.0</ele><time>2026-04-19T07:40:24.948Z</time></trkpt><trkpt lat="38.9608589" lon="-2.8408764"><ele>888.9999999999999</ele><time>2026-04-19T07:40:26.948Z</time></trkpt><trkpt lat="38.9608937" lon="-2.840797"><ele>889.0</ele><time>2026-04-19T07:40:28.948Z</time></trkpt><trkpt lat="38.9609306" lon="-2.840722"><ele>889.6666666666666</ele><time>2026-04-19T07:40:30.948Z</time></trkpt><trkpt lat="38.9609702" lon="-2.8406124"><ele>890.3333333333333</ele><time>2026-04-19T07:40:33.948Z</time></trkpt><trkpt lat="38.9610217" lon="-2.8405231"><ele>891.0</ele><time>2026-04-19T07:40:36.948Z</time></trkpt><trkpt lat="38.9610568" lon="-2.840424"><ele>891.6666666666667</ele><time>2026-04-19T07:40:39.948Z</time></trkpt><trkpt lat="38.9610463" lon="-2.8403135"><ele>892.3333333333334</ele><time>2026-04-19T07:40:42.948Z</time></trkpt><trkpt lat="38.9609938" lon="-2.8402288"><ele>893.0</ele><time>2026-04-19T07:40:45.948Z</time></trkpt><trkpt lat="38.9609441" lon="-2.8401332"><ele>893.0</ele><time>2026-04-19T07:40:48.948Z</time></trkpt><trkpt lat="38.9609105" lon="-2.8400281"><ele>893.0</ele><time>2026-04-19T07:40:51.948Z</time></trkpt><trkpt lat="38.9608967" lon="-2.8399451"><ele>893.0</ele><time>2026-04-19T07:40:53.948Z</time></trkpt><trkpt lat="38.9608884" lon="-2.8398583"><ele>893.0</ele><time>2026-04-19T07:40:55.948Z</time></trkpt><trkpt lat="38.9608944" lon="-2.8397469"><ele>893.0</ele><time>2026-04-19T07:40:58.948Z</time></trkpt><trkpt lat="38.9608861" lon="-2.8396656"><ele>893.0</ele><time>2026-04-19T07:41:00.948Z</time></trkpt><trkpt lat="38.9608681" lon="-2.8395787"><ele>893.0</ele><time>2026-04-19T07:41:02.948Z</time></trkpt><trkpt lat="38.9608486" lon="-2.8394862"><ele>893.0</ele><time>2026-04-19T07:41:04.948Z</time></trkpt><trkpt lat="38.9608322" lon="-2.8393938"><ele>893.0</ele><time>2026-04-19T07:41:06.948Z</time></trkpt><trkpt lat="38.9608204" lon="-2.8392998"><ele>893.0</ele><time>2026-04-19T07:41:08.948Z</time></trkpt><trkpt lat="38.9608199" lon="-2.8392046"><ele>893.0</ele><time>2026-04-19T07:41:10.947Z</time></trkpt><trkpt lat="38.9608417" lon="-2.839111"><ele>893.0</ele><time>2026-04-19T07:41:12.948Z</time></trkpt><trkpt lat="38.9608721" lon="-2.8390238"><ele>893.0</ele><time>2026-04-19T07:41:14.948Z</time></trkpt><trkpt lat="38.96088" lon="-2.838931"><ele>893.0</ele><time>2026-04-19T07:41:16.948Z</time></trkpt><trkpt lat="38.9608709" lon="-2.8388345"><ele>893.1666666666667</ele><time>2026-04-19T07:41:18.948Z</time></trkpt><trkpt lat="38.9608495" lon="-2.8387402"><ele>893.3333333333334</ele><time>2026-04-19T07:41:20.948Z</time></trkpt><trkpt lat="38.960817" lon="-2.8386442"><ele>893.5</ele><time>2026-04-19T07:41:22.948Z</time></trkpt><trkpt lat="38.9607979" lon="-2.8385436"><ele>893.6666666666667</ele><time>2026-04-19T07:41:24.948Z</time></trkpt><trkpt lat="38.9607881" lon="-2.8384457"><ele>893.8333333333334</ele><time>2026-04-19T07:41:26.948Z</time></trkpt><trkpt lat="38.9607741" lon="-2.8383441"><ele>894.0</ele><time>2026-04-19T07:41:28.948Z</time></trkpt><trkpt lat="38.960774" lon="-2.8382408"><ele>894.1666666666666</ele><time>2026-04-19T07:41:30.948Z</time></trkpt><trkpt lat="38.9607801" lon="-2.838139"><ele>894.3333333333333</ele><time>2026-04-19T07:41:32.948Z</time></trkpt><trkpt lat="38.9607966" lon="-2.8380382"><ele>894.5</ele><time>2026-04-19T07:41:34.948Z</time></trkpt><trkpt lat="38.9608095" lon="-2.8379384"><ele>894.6666666666666</ele><time>2026-04-19T07:41:36.948Z</time></trkpt><trkpt lat="38.9608307" lon="-2.8378427"><ele>894.8333333333333</ele><time>2026-04-19T07:41:38.948Z</time></trkpt><trkpt lat="38.9608616" lon="-2.8377474"><ele>895.0</ele><time>2026-04-19T07:41:40.948Z</time></trkpt><trkpt lat="38.9608894" lon="-2.8376566"><ele>894.9999999999999</ele><time>2026-04-19T07:41:42.948Z</time></trkpt><trkpt lat="38.9609309" lon="-2.8375806"><ele>895.0</ele><time>2026-04-19T07:41:44.948Z</time></trkpt><trkpt lat="38.9609782" lon="-2.8374968"><ele>895.0</ele><time>2026-04-19T07:41:46.947Z</time></trkpt><trkpt lat="38.9610118" lon="-2.8373977"><ele>895.0</ele><time>2026-04-19T07:41:48.948Z</time></trkpt><trkpt lat="38.9610359" lon="-2.8372919"><ele>894.9999999999999</ele><time>2026-04-19T07:41:50.948Z</time></trkpt><trkpt lat="38.9610447" lon="-2.8371797"><ele>895.0</ele><time>2026-04-19T07:41:52.948Z</time></trkpt><trkpt lat="38.9610431" lon="-2.8370726"><ele>894.9999999999999</ele><time>2026-04-19T07:41:54.948Z</time></trkpt><trkpt lat="38.9610248" lon="-2.836975"><ele>895.0</ele><time>2026-04-19T07:41:56.948Z</time></trkpt><trkpt lat="38.9610075" lon="-2.836874"><ele>895.0</ele><time>2026-04-19T07:41:58.949Z</time></trkpt><trkpt lat="38.9609955" lon="-2.836767"><ele>895.0</ele><time>2026-04-19T07:42:00.948Z</time></trkpt><trkpt lat="38.9610026" lon="-2.8366638"><ele>894.9999999999999</ele><time>2026-04-19T07:42:02.948Z</time></trkpt><trkpt lat="38.9610161" lon="-2.8365577"><ele>895.0</ele><time>2026-04-19T07:42:04.948Z</time></trkpt><trkpt lat="38.9610364" lon="-2.8364493"><ele>895.0</ele><time>2026-04-19T07:42:06.947Z</time></trkpt><trkpt lat="38.961059" lon="-2.8363367"><ele>895.0</ele><time>2026-04-19T07:42:08.948Z</time></trkpt><trkpt lat="38.9610942" lon="-2.836228"><ele>895.0</ele><time>2026-04-19T07:42:10.947Z</time></trkpt><trkpt lat="38.9611361" lon="-2.8361153"><ele>895.0</ele><time>2026-04-19T07:42:12.948Z</time></trkpt><trkpt lat="38.9611798" lon="-2.8359978"><ele>895.0</ele><time>2026-04-19T07:42:14.948Z</time></trkpt><trkpt lat="38.9612308" lon="-2.8358926"><ele>894.8</ele><time>2026-04-19T07:42:16.948Z</time></trkpt><trkpt lat="38.961289" lon="-2.8357937"><ele>894.6</ele><time>2026-04-19T07:42:18.948Z</time></trkpt><trkpt lat="38.9613372" lon="-2.8356845"><ele>894.4000000000001</ele><time>2026-04-19T07:42:20.948Z</time></trkpt><trkpt lat="38.9613496" lon="-2.8355639"><ele>894.2</ele><time>2026-04-19T07:42:22.948Z</time></trkpt><trkpt lat="38.961339" lon="-2.8354323"><ele>894.0</ele><time>2026-04-19T07:42:24.948Z</time></trkpt><trkpt lat="38.9613321" lon="-2.8352954"><ele>894.0</ele><time>2026-04-19T07:42:26.948Z</time></trkpt><trkpt lat="38.9613241" lon="-2.8351602"><ele>894.0</ele><time>2026-04-19T07:42:28.948Z</time></trkpt><trkpt lat="38.9613092" lon="-2.8350462"><ele>894.0</ele><time>2026-04-19T07:42:30.948Z</time></trkpt><trkpt lat="38.9612532" lon="-2.8350848"><ele>894.0</ele><time>2026-04-19T07:42:36.948Z</time></trkpt><trkpt lat="38.9612244" lon="-2.8351574"><ele>894.0</ele><time>2026-04-19T07:42:38.948Z</time></trkpt><trkpt lat="38.9611893" lon="-2.8352312"><ele>894.0</ele><time>2026-04-19T07:42:40.948Z</time></trkpt><trkpt lat="38.9611423" lon="-2.8353131"><ele>893.9999999999999</ele><time>2026-04-19T07:42:42.948Z</time></trkpt><trkpt lat="38.9610881" lon="-2.8353718"><ele>894.0</ele><time>2026-04-19T07:42:44.948Z</time></trkpt><trkpt lat="38.9610266" lon="-2.835412"><ele>894.0</ele><time>2026-04-19T07:42:46.948Z</time></trkpt><trkpt lat="38.9609693" lon="-2.8354479"><ele>894.0</ele><time>2026-04-19T07:42:48.948Z</time></trkpt><trkpt lat="38.9609063" lon="-2.835487"><ele>894.0</ele><time>2026-04-19T07:42:50.948Z</time></trkpt><trkpt lat="38.9608448" lon="-2.8355313"><ele>893.9999999999999</ele><time>2026-04-19T07:42:52.948Z</time></trkpt><trkpt lat="38.9607833" lon="-2.8355714"><ele>894.0</ele><time>2026-04-19T07:42:54.948Z</time></trkpt><trkpt lat="38.9607166" lon="-2.835598"><ele>893.9999999999999</ele><time>2026-04-19T07:42:56.948Z</time></trkpt><trkpt lat="38.9606456" lon="-2.8356046"><ele>894.0</ele><time>2026-04-19T07:42:58.948Z</time></trkpt><trkpt lat="38.960575" lon="-2.8355932"><ele>894.0</ele><time>2026-04-19T07:43:00.948Z</time></trkpt><trkpt lat="38.9605044" lon="-2.8355788"><ele>894.0</ele><time>2026-04-19T07:43:02.948Z</time></trkpt><trkpt lat="38.960436" lon="-2.8355639"><ele>894.0</ele><time>2026-04-19T07:43:04.948Z</time></trkpt><trkpt lat="38.9603677" lon="-2.8355438"><ele>893.9999999999999</ele><time>2026-04-19T07:43:06.948Z</time></trkpt><trkpt lat="38.9603005" lon="-2.8355178"><ele>894.0</ele><time>2026-04-19T07:43:08.948Z</time></trkpt><trkpt lat="38.9602373" lon="-2.8354692"><ele>894.0</ele><time>2026-04-19T07:43:10.948Z</time></trkpt><trkpt lat="38.9601702" lon="-2.8354228"><ele>894.0</ele><time>2026-04-19T07:43:12.949Z</time></trkpt><trkpt lat="38.9601008" lon="-2.8353766"><ele>894.0</ele><time>2026-04-19T07:43:14.948Z</time></trkpt><trkpt lat="38.9600352" lon="-2.8353432"><ele>894.0</ele><time>2026-04-19T07:43:16.948Z</time></trkpt><trkpt lat="38.9599634" lon="-2.835303"><ele>894.0</ele><time>2026-04-19T07:43:18.947Z</time></trkpt><trkpt lat="38.9598935" lon="-2.8352432"><ele>894.0</ele><time>2026-04-19T07:43:20.948Z</time></trkpt><trkpt lat="38.9598313" lon="-2.8351715"><ele>894.1666666666666</ele><time>2026-04-19T07:43:22.947Z</time></trkpt><trkpt lat="38.9597663" lon="-2.8351126"><ele>894.3333333333333</ele><time>2026-04-19T07:43:24.948Z</time></trkpt><trkpt lat="38.9596952" lon="-2.8350639"><ele>894.5</ele><time>2026-04-19T07:43:26.949Z</time></trkpt><trkpt lat="38.9596205" lon="-2.8350128"><ele>894.6666666666666</ele><time>2026-04-19T07:43:28.948Z</time></trkpt><trkpt lat="38.9595489" lon="-2.8349552"><ele>894.8333333333333</ele><time>2026-04-19T07:43:30.948Z</time></trkpt><trkpt lat="38.9594886" lon="-2.8348715"><ele>895.0</ele><time>2026-04-19T07:43:32.948Z</time></trkpt><trkpt lat="38.9594376" lon="-2.8347927"><ele>894.9999999999999</ele><time>2026-04-19T07:43:34.947Z</time></trkpt><trkpt lat="38.9593813" lon="-2.8347211"><ele>895.0</ele><time>2026-04-19T07:43:36.948Z</time></trkpt><trkpt lat="38.9593127" lon="-2.8346633"><ele>895.0</ele><time>2026-04-19T07:43:38.948Z</time></trkpt><trkpt lat="38.9592371" lon="-2.8346199"><ele>895.0</ele><time>2026-04-19T07:43:40.947Z</time></trkpt><trkpt lat="38.9591591" lon="-2.8346043"><ele>894.9999999999999</ele><time>2026-04-19T07:43:42.947Z</time></trkpt><trkpt lat="38.9590788" lon="-2.8346055"><ele>895.0</ele><time>2026-04-19T07:43:44.948Z</time></trkpt><trkpt lat="38.9590073" lon="-2.8345557"><ele>895.1666666666666</ele><time>2026-04-19T07:43:46.947Z</time></trkpt><trkpt lat="38.9589478" lon="-2.8344815"><ele>895.3333333333333</ele><time>2026-04-19T07:43:48.948Z</time></trkpt><trkpt lat="38.9588766" lon="-2.8344183"><ele>895.5</ele><time>2026-04-19T07:43:50.948Z</time></trkpt><trkpt lat="38.9588069" lon="-2.8343468"><ele>895.6666666666667</ele><time>2026-04-19T07:43:52.948Z</time></trkpt><trkpt lat="38.9587404" lon="-2.8342716"><ele>895.8333333333334</ele><time>2026-04-19T07:43:54.948Z</time></trkpt><trkpt lat="38.9586714" lon="-2.8342033"><ele>896.0</ele><time>2026-04-19T07:43:56.947Z</time></trkpt><trkpt lat="38.9585963" lon="-2.8341352"><ele>896.1999999999999</ele><time>2026-04-19T07:43:58.948Z</time></trkpt><trkpt lat="38.9585189" lon="-2.8340699"><ele>896.3999999999999</ele><time>2026-04-19T07:44:00.948Z</time></trkpt><trkpt lat="38.9584414" lon="-2.8339966"><ele>896.6</ele><time>2026-04-19T07:44:02.948Z</time></trkpt><trkpt lat="38.9583679" lon="-2.8339158"><ele>896.8</ele><time>2026-04-19T07:44:04.948Z</time></trkpt><trkpt lat="38.9583024" lon="-2.8338261"><ele>897.0</ele><time>2026-04-19T07:44:06.948Z</time></trkpt><trkpt lat="38.9582401" lon="-2.8337332"><ele>897.1666666666666</ele><time>2026-04-19T07:44:08.948Z</time></trkpt><trkpt lat="38.9581669" lon="-2.8336476"><ele>897.3333333333333</ele><time>2026-04-19T07:44:10.948Z</time></trkpt><trkpt lat="38.9580873" lon="-2.8335814"><ele>897.5</ele><time>2026-04-19T07:44:12.948Z</time></trkpt><trkpt lat="38.9580116" lon="-2.8335149"><ele>897.6666666666666</ele><time>2026-04-19T07:44:14.948Z</time></trkpt><trkpt lat="38.9579472" lon="-2.8334333"><ele>897.8333333333333</ele><time>2026-04-19T07:44:16.948Z</time></trkpt><trkpt lat="38.9578957" lon="-2.8333783"><ele>898.0</ele><time>2026-04-19T07:44:18.948Z</time></trkpt><trkpt lat="38.9578325" lon="-2.8333825"><ele>898.0</ele><time>2026-04-19T07:44:20.948Z</time></trkpt><trkpt lat="38.9577878" lon="-2.8334451"><ele>897.9999999999999</ele><time>2026-04-19T07:44:22.948Z</time></trkpt><trkpt lat="38.9577614" lon="-2.8335305"><ele>898.0</ele><time>2026-04-19T07:44:24.948Z</time></trkpt><trkpt lat="38.9577274" lon="-2.8336138"><ele>898.0</ele><time>2026-04-19T07:44:26.948Z</time></trkpt><trkpt lat="38.9576784" lon="-2.8336848"><ele>897.9999999999999</ele><time>2026-04-19T07:44:28.948Z</time></trkpt><trkpt lat="38.9576188" lon="-2.833739"><ele>898.0</ele><time>2026-04-19T07:44:30.947Z</time></trkpt><trkpt lat="38.9575598" lon="-2.8337925"><ele>898.0</ele><time>2026-04-19T07:44:32.948Z</time></trkpt><trkpt lat="38.957499" lon="-2.833834"><ele>898.2857142857142</ele><time>2026-04-19T07:44:34.948Z</time></trkpt><trkpt lat="38.9574393" lon="-2.8338697"><ele>898.5714285714284</ele><time>2026-04-19T07:44:36.948Z</time></trkpt><trkpt lat="38.9573902" lon="-2.8339348"><ele>898.8571428571429</ele><time>2026-04-19T07:44:38.948Z</time></trkpt><trkpt lat="38.9573324" lon="-2.8339919"><ele>899.1428571428571</ele><time>2026-04-19T07:44:40.949Z</time></trkpt><trkpt lat="38.9572737" lon="-2.8340443"><ele>899.4285714285714</ele><time>2026-04-19T07:44:42.948Z</time></trkpt><trkpt lat="38.9572301" lon="-2.8341168"><ele>899.7142857142858</ele><time>2026-04-19T07:44:44.949Z</time></trkpt><trkpt lat="38.9571959" lon="-2.8341979"><ele>900.0000000000001</ele><time>2026-04-19T07:44:46.948Z</time></trkpt><trkpt lat="38.957146" lon="-2.8342638"><ele>900.1428571428573</ele><time>2026-04-19T07:44:48.948Z</time></trkpt><trkpt lat="38.9570961" lon="-2.8343374"><ele>900.2857142857143</ele><time>2026-04-19T07:44:50.948Z</time></trkpt><trkpt lat="38.9570568" lon="-2.8344204"><ele>900.4285714285716</ele><time>2026-04-19T07:44:52.948Z</time></trkpt><trkpt lat="38.9570141" lon="-2.8344972"><ele>900.5714285714287</ele><time>2026-04-19T07:44:54.948Z</time></trkpt><trkpt lat="38.9569596" lon="-2.8345596"><ele>900.7142857142858</ele><time>2026-04-19T07:44:56.948Z</time></trkpt><trkpt lat="38.956904" lon="-2.8346143"><ele>900.8571428571429</ele><time>2026-04-19T07:44:58.948Z</time></trkpt><trkpt lat="38.9568503" lon="-2.8346678"><ele>901.0</ele><time>2026-04-19T07:45:00.948Z</time></trkpt><trkpt lat="38.9567928" lon="-2.8347117"><ele>901.0</ele><time>2026-04-19T07:45:02.948Z</time></trkpt><trkpt lat="38.9567303" lon="-2.8347442"><ele>901.0000000000001</ele><time>2026-04-19T07:45:04.948Z</time></trkpt><trkpt lat="38.9566622" lon="-2.8347513"><ele>901.0</ele><time>2026-04-19T07:45:06.948Z</time></trkpt><trkpt lat="38.9566063" lon="-2.8347933"><ele>901.0</ele><time>2026-04-19T07:45:08.948Z</time></trkpt><trkpt lat="38.9565592" lon="-2.8348556"><ele>901.0000000000001</ele><time>2026-04-19T07:45:10.948Z</time></trkpt><trkpt lat="38.9565167" lon="-2.8349272"><ele>901.0</ele><time>2026-04-19T07:45:12.948Z</time></trkpt><trkpt lat="38.956479" lon="-2.8350077"><ele>901.0</ele><time>2026-04-19T07:45:14.948Z</time></trkpt><trkpt lat="38.9564373" lon="-2.835091"><ele>901.4999999999999</ele><time>2026-04-19T07:45:16.947Z</time></trkpt><trkpt lat="38.9563992" lon="-2.8351744"><ele>902.0</ele><time>2026-04-19T07:45:18.948Z</time></trkpt><trkpt lat="38.956363" lon="-2.8352464"><ele>902.5</ele><time>2026-04-19T07:45:20.948Z</time></trkpt><trkpt lat="38.9562945" lon="-2.8353384"><ele>903.0</ele><time>2026-04-19T07:45:23.948Z</time></trkpt><trkpt lat="38.9562369" lon="-2.8353943"><ele>903.4999999999999</ele><time>2026-04-19T07:45:25.948Z</time></trkpt><trkpt lat="38.9561773" lon="-2.8354546"><ele>904.0</ele><time>2026-04-19T07:45:27.948Z</time></trkpt><trkpt lat="38.9561233" lon="-2.8355291"><ele>903.9999999999999</ele><time>2026-04-19T07:45:29.948Z</time></trkpt><trkpt lat="38.9560735" lon="-2.8356109"><ele>904.0</ele><time>2026-04-19T07:45:31.949Z</time></trkpt><trkpt lat="38.956021" lon="-2.8356949"><ele>904.0</ele><time>2026-04-19T07:45:33.948Z</time></trkpt><trkpt lat="38.9559666" lon="-2.8357862"><ele>904.0</ele><time>2026-04-19T07:45:35.949Z</time></trkpt><trkpt lat="38.9559012" lon="-2.8358754"><ele>903.9999999999999</ele><time>2026-04-19T07:45:37.948Z</time></trkpt><trkpt lat="38.9558098" lon="-2.8359194"><ele>904.0</ele><time>2026-04-19T07:45:39.948Z</time></trkpt><trkpt lat="38.9557359" lon="-2.8359904"><ele>904.6</ele><time>2026-04-19T07:45:41.948Z</time></trkpt><trkpt lat="38.9557201" lon="-2.836092"><ele>905.2</ele><time>2026-04-19T07:45:43.948Z</time></trkpt><trkpt lat="38.9556647" lon="-2.8361929"><ele>905.8000000000001</ele><time>2026-04-19T07:45:45.948Z</time></trkpt><trkpt lat="38.9556048" lon="-2.8362926"><ele>906.4000000000001</ele><time>2026-04-19T07:45:47.949Z</time></trkpt><trkpt lat="38.955532" lon="-2.836372"><ele>907.0</ele><time>2026-04-19T07:45:49.948Z</time></trkpt><trkpt lat="38.9554363" lon="-2.8364119"><ele>906.9999999999999</ele><time>2026-04-19T07:45:51.948Z</time></trkpt><trkpt lat="38.9553557" lon="-2.8364735"><ele>907.0</ele><time>2026-04-19T07:45:53.948Z</time></trkpt><trkpt lat="38.9552999" lon="-2.8365684"><ele>907.0</ele><time>2026-04-19T07:45:55.948Z</time></trkpt><trkpt lat="38.955284" lon="-2.8366896"><ele>907.0</ele><time>2026-04-19T07:45:57.948Z</time></trkpt><trkpt lat="38.9552411" lon="-2.8367919"><ele>906.9999999999999</ele><time>2026-04-19T07:45:59.948Z</time></trkpt><trkpt lat="38.9551819" lon="-2.8368507"><ele>907.0</ele><time>2026-04-19T07:46:01.948Z</time></trkpt><trkpt lat="38.9551059" lon="-2.8369218"><ele>907.1666666666666</ele><time>2026-04-19T07:46:04.948Z</time></trkpt><trkpt lat="38.9550638" lon="-2.8369857"><ele>907.3333333333333</ele><time>2026-04-19T07:46:06.948Z</time></trkpt><trkpt lat="38.9550054" lon="-2.8370706"><ele>907.5</ele><time>2026-04-19T07:46:09.948Z</time></trkpt><trkpt lat="38.9549457" lon="-2.8371505"><ele>907.6666666666667</ele><time>2026-04-19T07:46:12.948Z</time></trkpt><trkpt lat="38.9548835" lon="-2.8372379"><ele>907.8333333333334</ele><time>2026-04-19T07:46:15.948Z</time></trkpt><trkpt lat="38.9548313" lon="-2.8373424"><ele>908.0</ele><time>2026-04-19T07:46:18.948Z</time></trkpt><trkpt lat="38.9547903" lon="-2.8374224"><ele>908.5000000000001</ele><time>2026-04-19T07:46:20.948Z</time></trkpt><trkpt lat="38.9547452" lon="-2.8374988"><ele>909.0</ele><time>2026-04-19T07:46:22.948Z</time></trkpt><trkpt lat="38.9547103" lon="-2.8375821"><ele>909.5</ele><time>2026-04-19T07:46:24.948Z</time></trkpt><trkpt lat="38.9546843" lon="-2.8376735"><ele>910.0</ele><time>2026-04-19T07:46:26.947Z</time></trkpt><trkpt lat="38.9546579" lon="-2.8377728"><ele>910.5000000000001</ele><time>2026-04-19T07:46:28.948Z</time></trkpt><trkpt lat="38.954631" lon="-2.8378689"><ele>911.0</ele><time>2026-04-19T07:46:30.949Z</time></trkpt><trkpt lat="38.9546267" lon="-2.8379673"><ele>911.0000000000001</ele><time>2026-04-19T07:46:32.948Z</time></trkpt><trkpt lat="38.9546085" lon="-2.8380699"><ele>911.0</ele><time>2026-04-19T07:46:34.948Z</time></trkpt><trkpt lat="38.9545884" lon="-2.8381727"><ele>911.0</ele><time>2026-04-19T07:46:36.947Z</time></trkpt><trkpt lat="38.9546234" lon="-2.8382743"><ele>911.0</ele><time>2026-04-19T07:46:38.948Z</time></trkpt><trkpt lat="38.9546262" lon="-2.8383887"><ele>911.0000000000001</ele><time>2026-04-19T07:46:40.948Z</time></trkpt><trkpt lat="38.9545849" lon="-2.838485"><ele>911.0</ele><time>2026-04-19T07:46:42.948Z</time></trkpt><trkpt lat="38.9545532" lon="-2.8385897"><ele>910.8333333333334</ele><time>2026-04-19T07:46:44.947Z</time></trkpt><trkpt lat="38.9545087" lon="-2.8386871"><ele>910.6666666666667</ele><time>2026-04-19T07:46:46.948Z</time></trkpt><trkpt lat="38.9544557" lon="-2.8387727"><ele>910.5</ele><time>2026-04-19T07:46:48.948Z</time></trkpt><trkpt lat="38.9543949" lon="-2.8388509"><ele>910.3333333333333</ele><time>2026-04-19T07:46:50.948Z</time></trkpt><trkpt lat="38.9543303" lon="-2.8389355"><ele>910.1666666666666</ele><time>2026-04-19T07:46:52.948Z</time></trkpt><trkpt lat="38.9542683" lon="-2.8390166"><ele>910.0</ele><time>2026-04-19T07:46:54.947Z</time></trkpt><trkpt lat="38.9541975" lon="-2.8390952"><ele>910.4999999999999</ele><time>2026-04-19T07:46:56.947Z</time></trkpt><trkpt lat="38.9541362" lon="-2.839163"><ele>911.0</ele><time>2026-04-19T07:46:58.948Z</time></trkpt><trkpt lat="38.95407" lon="-2.8392279"><ele>911.5</ele><time>2026-04-19T07:47:00.948Z</time></trkpt><trkpt lat="38.9539957" lon="-2.8392837"><ele>912.0</ele><time>2026-04-19T07:47:02.949Z</time></trkpt><trkpt lat="38.9539285" lon="-2.8393496"><ele>912.4999999999999</ele><time>2026-04-19T07:47:04.948Z</time></trkpt><trkpt lat="38.9538604" lon="-2.8393998"><ele>913.0</ele><time>2026-04-19T07:47:06.948Z</time></trkpt><trkpt lat="38.9537863" lon="-2.8394419"><ele>912.9999999999999</ele><time>2026-04-19T07:47:08.948Z</time></trkpt><trkpt lat="38.9537071" lon="-2.8394642"><ele>913.0</ele><time>2026-04-19T07:47:10.948Z</time></trkpt><trkpt lat="38.9536334" lon="-2.839501"><ele>913.0</ele><time>2026-04-19T07:47:12.948Z</time></trkpt><trkpt lat="38.9535752" lon="-2.8395782"><ele>913.0</ele><time>2026-04-19T07:47:14.948Z</time></trkpt><trkpt lat="38.9535068" lon="-2.8396317"><ele>912.9999999999999</ele><time>2026-04-19T07:47:16.948Z</time></trkpt><trkpt lat="38.953431" lon="-2.8396475"><ele>913.0</ele><time>2026-04-19T07:47:18.948Z</time></trkpt><trkpt lat="38.9533549" lon="-2.8396602"><ele>913.3333333333333</ele><time>2026-04-19T07:47:20.948Z</time></trkpt><trkpt lat="38.953286" lon="-2.8396871"><ele>913.6666666666666</ele><time>2026-04-19T07:47:22.948Z</time></trkpt><trkpt lat="38.9532421" lon="-2.8397621"><ele>914.0</ele><time>2026-04-19T07:47:24.948Z</time></trkpt><trkpt lat="38.9532507" lon="-2.8398709"><ele>914.3333333333333</ele><time>2026-04-19T07:47:26.948Z</time></trkpt><trkpt lat="38.9532438" lon="-2.8399757"><ele>914.6666666666666</ele><time>2026-04-19T07:47:28.948Z</time></trkpt><trkpt lat="38.9532124" lon="-2.840072"><ele>915.0</ele><time>2026-04-19T07:47:30.948Z</time></trkpt><trkpt lat="38.9531673" lon="-2.8401623"><ele>915.1666666666666</ele><time>2026-04-19T07:47:32.948Z</time></trkpt><trkpt lat="38.9531194" lon="-2.8402481"><ele>915.3333333333333</ele><time>2026-04-19T07:47:34.948Z</time></trkpt><trkpt lat="38.9530768" lon="-2.8403395"><ele>915.5</ele><time>2026-04-19T07:47:36.948Z</time></trkpt><trkpt lat="38.9530374" lon="-2.8404394"><ele>915.6666666666666</ele><time>2026-04-19T07:47:38.948Z</time></trkpt><trkpt lat="38.952987" lon="-2.8405272"><ele>915.8333333333333</ele><time>2026-04-19T07:47:40.948Z</time></trkpt><trkpt lat="38.9529292" lon="-2.8406091"><ele>916.0</ele><time>2026-04-19T07:47:42.948Z</time></trkpt><trkpt lat="38.9528717" lon="-2.8406891"><ele>915.9999999999999</ele><time>2026-04-19T07:47:44.948Z</time></trkpt><trkpt lat="38.952805" lon="-2.8407455"><ele>916.0</ele><time>2026-04-19T07:47:46.948Z</time></trkpt><trkpt lat="38.952732" lon="-2.8407875"><ele>916.0</ele><time>2026-04-19T07:47:48.948Z</time></trkpt><trkpt lat="38.9526573" lon="-2.8408139"><ele>916.0</ele><time>2026-04-19T07:47:50.948Z</time></trkpt><trkpt lat="38.9525837" lon="-2.8408358"><ele>915.9999999999999</ele><time>2026-04-19T07:47:52.948Z</time></trkpt><trkpt lat="38.952524" lon="-2.8408944"><ele>916.0</ele><time>2026-04-19T07:47:54.948Z</time></trkpt><trkpt lat="38.9524825" lon="-2.8409783"><ele>916.8333333333333</ele><time>2026-04-19T07:47:56.947Z</time></trkpt><trkpt lat="38.9524326" lon="-2.8410519"><ele>917.6666666666666</ele><time>2026-04-19T07:47:58.948Z</time></trkpt><trkpt lat="38.9523702" lon="-2.8411203"><ele>918.5</ele><time>2026-04-19T07:48:00.947Z</time></trkpt><trkpt lat="38.9523019" lon="-2.841181"><ele>919.3333333333333</ele><time>2026-04-19T07:48:02.948Z</time></trkpt><trkpt lat="38.9522362" lon="-2.8412271"><ele>920.1666666666666</ele><time>2026-04-19T07:48:04.948Z</time></trkpt><trkpt lat="38.9521732" lon="-2.8412951"><ele>921.0</ele><time>2026-04-19T07:48:06.948Z</time></trkpt><trkpt lat="38.9521141" lon="-2.8413568"><ele>921.0</ele><time>2026-04-19T07:48:08.948Z</time></trkpt><trkpt lat="38.9520401" lon="-2.8413966"><ele>921.0</ele><time>2026-04-19T07:48:10.948Z</time></trkpt><trkpt lat="38.9519581" lon="-2.841412"><ele>921.0</ele><time>2026-04-19T07:48:12.948Z</time></trkpt><trkpt lat="38.9518833" lon="-2.8414183"><ele>921.0</ele><time>2026-04-19T07:48:14.948Z</time></trkpt><trkpt lat="38.9518137" lon="-2.8414245"><ele>921.0</ele><time>2026-04-19T07:48:16.947Z</time></trkpt><trkpt lat="38.9517445" lon="-2.841445"><ele>921.0</ele><time>2026-04-19T07:48:18.948Z</time></trkpt><trkpt lat="38.9516848" lon="-2.8414973"><ele>921.0</ele><time>2026-04-19T07:48:20.948Z</time></trkpt><trkpt lat="38.951635" lon="-2.8415868"><ele>920.9999999999999</ele><time>2026-04-19T07:48:22.948Z</time></trkpt><trkpt lat="38.9515683" lon="-2.8416684"><ele>920.9999999999999</ele><time>2026-04-19T07:48:24.948Z</time></trkpt><trkpt lat="38.9514627" lon="-2.8417135"><ele>921.0</ele><time>2026-04-19T07:48:26.948Z</time></trkpt><trkpt lat="38.9513439" lon="-2.8417635"><ele>921.0</ele><time>2026-04-19T07:48:28.948Z</time></trkpt><trkpt lat="38.9512236" lon="-2.8418086"><ele>921.0000000000001</ele><time>2026-04-19T07:48:30.948Z</time></trkpt><trkpt lat="38.9511594" lon="-2.8418331"><ele>921.0</ele><time>2026-04-19T07:48:31.949Z</time></trkpt><trkpt lat="38.9511036" lon="-2.8418724"><ele>921.0000000000001</ele><time>2026-04-19T07:48:32.948Z</time></trkpt><trkpt lat="38.9510531" lon="-2.8419288"><ele>921.0000000000001</ele><time>2026-04-19T07:48:33.948Z</time></trkpt><trkpt lat="38.9510091" lon="-2.8419909"><ele>921.0</ele><time>2026-04-19T07:48:34.949Z</time></trkpt><trkpt lat="38.9509722" lon="-2.842064"><ele>921.0000000000001</ele><time>2026-04-19T07:48:35.948Z</time></trkpt><trkpt lat="38.9509348" lon="-2.8421412"><ele>921.0000000000001</ele><time>2026-04-19T07:48:36.949Z</time></trkpt><trkpt lat="38.9508917" lon="-2.8422121"><ele>919.8333333333334</ele><time>2026-04-19T07:48:37.949Z</time></trkpt><trkpt lat="38.9508465" lon="-2.8422807"><ele>918.6666666666667</ele><time>2026-04-19T07:48:38.948Z</time></trkpt><trkpt lat="38.9507891" lon="-2.8423422"><ele>917.5</ele><time>2026-04-19T07:48:39.948Z</time></trkpt><trkpt lat="38.9507331" lon="-2.8424157"><ele>916.3333333333334</ele><time>2026-04-19T07:48:40.948Z</time></trkpt><trkpt lat="38.9506767" lon="-2.8424863"><ele>915.1666666666667</ele><time>2026-04-19T07:48:41.947Z</time></trkpt><trkpt lat="38.9505673" lon="-2.8425704"><ele>914.0</ele><time>2026-04-19T07:48:43.948Z</time></trkpt><trkpt lat="38.9505246" lon="-2.8426304"><ele>913.6</ele><time>2026-04-19T07:48:44.948Z</time></trkpt><trkpt lat="38.9504475" lon="-2.8427363"><ele>913.2</ele><time>2026-04-19T07:48:46.948Z</time></trkpt><trkpt lat="38.9503674" lon="-2.8428404"><ele>912.8000000000001</ele><time>2026-04-19T07:48:48.948Z</time></trkpt><trkpt lat="38.9502816" lon="-2.8429318"><ele>912.4000000000001</ele><time>2026-04-19T07:48:50.948Z</time></trkpt><trkpt lat="38.9502136" lon="-2.8430163"><ele>912.0</ele><time>2026-04-19T07:48:52.948Z</time></trkpt><trkpt lat="38.9501682" lon="-2.8430811"><ele>912.0</ele><time>2026-04-19T07:48:54.948Z</time></trkpt><trkpt lat="38.9501052" lon="-2.8431596"><ele>911.9999999999999</ele><time>2026-04-19T07:48:57.947Z</time></trkpt><trkpt lat="38.950059" lon="-2.8432343"><ele>912.0</ele><time>2026-04-19T07:49:00.948Z</time></trkpt><trkpt lat="38.9501151" lon="-2.843283"><ele>912.0</ele><time>2026-04-19T07:49:08.948Z</time></trkpt><trkpt lat="38.9501791" lon="-2.8432617"><ele>911.9999999999999</ele><time>2026-04-19T07:49:11.948Z</time></trkpt><trkpt lat="38.9502444" lon="-2.8432991"><ele>912.0</ele><time>2026-04-19T07:49:14.948Z</time></trkpt><trkpt lat="38.9502694" lon="-2.8433923"><ele>912.0</ele><time>2026-04-19T07:49:17.948Z</time></trkpt><trkpt lat="38.9502366" lon="-2.8434703"><ele>911.5714285714286</ele><time>2026-04-19T07:49:20.949Z</time></trkpt><trkpt lat="38.9501944" lon="-2.8435364"><ele>911.1428571428571</ele><time>2026-04-19T07:49:23.948Z</time></trkpt><trkpt lat="38.9501773" lon="-2.8436187"><ele>910.7142857142857</ele><time>2026-04-19T07:49:27.948Z</time></trkpt><trkpt lat="38.9501415" lon="-2.843703"><ele>910.2857142857142</ele><time>2026-04-19T07:49:31.948Z</time></trkpt><trkpt lat="38.9501178" lon="-2.84378"><ele>909.8571428571429</ele><time>2026-04-19T07:49:34.948Z</time></trkpt><trkpt lat="38.9500948" lon="-2.8438699"><ele>909.4285714285713</ele><time>2026-04-19T07:49:38.948Z</time></trkpt><trkpt lat="38.950079" lon="-2.8439516"><ele>909.0</ele><time>2026-04-19T07:49:41.948Z</time></trkpt><trkpt lat="38.9500483" lon="-2.8440388"><ele>907.8333333333334</ele><time>2026-04-19T07:49:45.948Z</time></trkpt><trkpt lat="38.9500142" lon="-2.8441348"><ele>906.6666666666667</ele><time>2026-04-19T07:49:59.948Z</time></trkpt><trkpt lat="38.9500291" lon="-2.8442136"><ele>905.5</ele><time>2026-04-19T07:50:01.948Z</time></trkpt><trkpt lat="38.950038" lon="-2.8443189"><ele>904.3333333333334</ele><time>2026-04-19T07:50:03.948Z</time></trkpt><trkpt lat="38.9500284" lon="-2.8444195"><ele>903.1666666666667</ele><time>2026-04-19T07:50:05.947Z</time></trkpt><trkpt lat="38.9499948" lon="-2.8445138"><ele>902.0</ele><time>2026-04-19T07:50:07.948Z</time></trkpt><trkpt lat="38.9499915" lon="-2.8446068"><ele>901.3333333333334</ele><time>2026-04-19T07:50:09.947Z</time></trkpt><trkpt lat="38.9500055" lon="-2.8447147"><ele>900.6666666666667</ele><time>2026-04-19T07:50:12.948Z</time></trkpt><trkpt lat="38.9499767" lon="-2.844832"><ele>900.0</ele><time>2026-04-19T07:50:14.948Z</time></trkpt><trkpt lat="38.9499276" lon="-2.8449434"><ele>899.3333333333333</ele><time>2026-04-19T07:50:17.948Z</time></trkpt><trkpt lat="38.9499358" lon="-2.8450379"><ele>898.6666666666666</ele><time>2026-04-19T07:50:20.948Z</time></trkpt><trkpt lat="38.9499328" lon="-2.845122"><ele>898.0</ele><time>2026-04-19T07:50:23.948Z</time></trkpt><trkpt lat="38.9498569" lon="-2.8451554"><ele>897.9999999999999</ele><time>2026-04-19T07:50:26.948Z</time></trkpt><trkpt lat="38.9497949" lon="-2.8451405"><ele>898.0</ele><time>2026-04-19T07:50:29.948Z</time></trkpt><trkpt lat="38.9497623" lon="-2.8452215"><ele>898.0</ele><time>2026-04-19T07:50:58.948Z</time></trkpt><trkpt lat="38.9497241" lon="-2.8453037"><ele>898.0</ele><time>2026-04-19T07:51:01.948Z</time></trkpt><trkpt lat="38.9497007" lon="-2.845407"><ele>897.9999999999999</ele><time>2026-04-19T07:51:08.948Z</time></trkpt><trkpt lat="38.949676" lon="-2.8455138"><ele>898.0</ele><time>2026-04-19T07:51:11.948Z</time></trkpt><trkpt lat="38.9496557" lon="-2.8456292"><ele>897.9999999999999</ele><time>2026-04-19T07:51:14.948Z</time></trkpt><trkpt lat="38.9496487" lon="-2.8457155"><ele>898.0</ele><time>2026-04-19T07:51:16.948Z</time></trkpt><trkpt lat="38.949633" lon="-2.8458077"><ele>898.0</ele><time>2026-04-19T07:51:18.948Z</time></trkpt><trkpt lat="38.9495903" lon="-2.8458962"><ele>898.0</ele><time>2026-04-19T07:51:20.947Z</time></trkpt><trkpt lat="38.9495432" lon="-2.8460018"><ele>897.9999999999999</ele><time>2026-04-19T07:51:22.947Z</time></trkpt><trkpt lat="38.9495005" lon="-2.8461057"><ele>898.0</ele><time>2026-04-19T07:51:24.947Z</time></trkpt><trkpt lat="38.9494295" lon="-2.8461367"><ele>898.4999999999999</ele><time>2026-04-19T07:51:26.948Z</time></trkpt><trkpt lat="38.9493443" lon="-2.8461685"><ele>899.0</ele><time>2026-04-19T07:51:28.948Z</time></trkpt><trkpt lat="38.9492709" lon="-2.8461967"><ele>899.5</ele><time>2026-04-19T07:51:30.947Z</time></trkpt><trkpt lat="38.94922" lon="-2.8462823"><ele>900.0</ele><time>2026-04-19T07:51:32.948Z</time></trkpt><trkpt lat="38.9491597" lon="-2.8463425"><ele>900.4999999999999</ele><time>2026-04-19T07:51:36.948Z</time></trkpt><trkpt lat="38.9491021" lon="-2.8463828"><ele>901.0</ele><time>2026-04-19T07:51:39.947Z</time></trkpt><trkpt lat="38.9490567" lon="-2.8464729"><ele>899.1428571428572</ele><time>2026-04-19T07:51:42.948Z</time></trkpt><trkpt lat="38.9490594" lon="-2.8465577"><ele>897.2857142857144</ele><time>2026-04-19T07:51:45.947Z</time></trkpt><trkpt lat="38.9490217" lon="-2.8466541"><ele>895.4285714285714</ele><time>2026-04-19T07:51:48.948Z</time></trkpt><trkpt lat="38.9489859" lon="-2.8467271"><ele>893.5714285714287</ele><time>2026-04-19T07:51:52.947Z</time></trkpt><trkpt lat="38.9489713" lon="-2.8468143"><ele>891.7142857142858</ele><time>2026-04-19T07:51:57.948Z</time></trkpt><trkpt lat="38.9489347" lon="-2.8468972"><ele>889.8571428571429</ele><time>2026-04-19T07:52:00.948Z</time></trkpt><trkpt lat="38.9488946" lon="-2.8469621"><ele>888.0</ele><time>2026-04-19T07:52:03.948Z</time></trkpt><trkpt lat="38.9488285" lon="-2.8470007"><ele>888.0</ele><time>2026-04-19T07:52:07.948Z</time></trkpt><trkpt lat="38.9487618" lon="-2.847041"><ele>888.0</ele><time>2026-04-19T07:52:10.948Z</time></trkpt><trkpt lat="38.9486817" lon="-2.8470978"><ele>888.0</ele><time>2026-04-19T07:52:12.948Z</time></trkpt><trkpt lat="38.9486119" lon="-2.8471841"><ele>888.0</ele><time>2026-04-19T07:52:14.948Z</time></trkpt><trkpt lat="38.9485552" lon="-2.8472692"><ele>888.0</ele><time>2026-04-19T07:52:16.948Z</time></trkpt><trkpt lat="38.9484969" lon="-2.8473541"><ele>888.0</ele><time>2026-04-19T07:52:18.947Z</time></trkpt><trkpt lat="38.9484261" lon="-2.8473888"><ele>885.4</ele><time>2026-04-19T07:52:20.948Z</time></trkpt><trkpt lat="38.9483407" lon="-2.8474151"><ele>882.8</ele><time>2026-04-19T07:52:22.948Z</time></trkpt><trkpt lat="38.9482668" lon="-2.8474531"><ele>880.2</ele><time>2026-04-19T07:52:24.948Z</time></trkpt><trkpt lat="38.9481844" lon="-2.8475605"><ele>877.6</ele><time>2026-04-19T07:52:27.947Z</time></trkpt><trkpt lat="38.9481585" lon="-2.8476818"><ele>875.0</ele><time>2026-04-19T07:52:29.949Z</time></trkpt><trkpt lat="38.9480631" lon="-2.8477094"><ele>874.5000000000001</ele><time>2026-04-19T07:52:31.948Z</time></trkpt><trkpt lat="38.9479723" lon="-2.8477388"><ele>874.0</ele><time>2026-04-19T07:52:33.948Z</time></trkpt><trkpt lat="38.9478856" lon="-2.8477855"><ele>873.5</ele><time>2026-04-19T07:52:35.948Z</time></trkpt><trkpt lat="38.9478452" lon="-2.8478679"><ele>873.0</ele><time>2026-04-19T07:52:37.948Z</time></trkpt><trkpt lat="38.9478717" lon="-2.8479752"><ele>872.5000000000001</ele><time>2026-04-19T07:52:39.949Z</time></trkpt><trkpt lat="38.9478429" lon="-2.8480689"><ele>872.0</ele><time>2026-04-19T07:52:41.947Z</time></trkpt><trkpt lat="38.9478028" lon="-2.8481503"><ele>872.0000000000001</ele><time>2026-04-19T07:52:43.948Z</time></trkpt><trkpt lat="38.9477764" lon="-2.848226"><ele>872.0</ele><time>2026-04-19T07:52:45.948Z</time></trkpt><trkpt lat="38.9477599" lon="-2.8483104"><ele>872.0</ele><time>2026-04-19T07:52:47.948Z</time></trkpt><trkpt lat="38.9477524" lon="-2.8484156"><ele>872.0</ele><time>2026-04-19T07:52:49.948Z</time></trkpt><trkpt lat="38.9476975" lon="-2.8484971"><ele>872.0000000000001</ele><time>2026-04-19T07:52:51.948Z</time></trkpt><trkpt lat="38.9476468" lon="-2.8485879"><ele>872.0</ele><time>2026-04-19T07:52:53.947Z</time></trkpt><trkpt lat="38.9476288" lon="-2.8487165"><ele>869.6</ele><time>2026-04-19T07:52:55.947Z</time></trkpt><trkpt lat="38.9476744" lon="-2.8488301"><ele>867.2</ele><time>2026-04-19T07:52:57.947Z</time></trkpt><trkpt lat="38.9477477" lon="-2.8489447"><ele>864.8</ele><time>2026-04-19T07:52:59.948Z</time></trkpt><trkpt lat="38.9478159" lon="-2.8490551"><ele>862.4</ele><time>2026-04-19T07:53:01.948Z</time></trkpt><trkpt lat="38.9478665" lon="-2.8491643"><ele>860.0</ele><time>2026-04-19T07:53:03.948Z</time></trkpt><trkpt lat="38.9479149" lon="-2.8492551"><ele>860.2</ele><time>2026-04-19T07:53:05.948Z</time></trkpt><trkpt lat="38.9479861" lon="-2.8493257"><ele>860.4</ele><time>2026-04-19T07:53:07.948Z</time></trkpt><trkpt lat="38.9480461" lon="-2.8494131"><ele>860.5999999999999</ele><time>2026-04-19T07:53:09.948Z</time></trkpt><trkpt lat="38.9481068" lon="-2.8494945"><ele>860.8</ele><time>2026-04-19T07:53:11.948Z</time></trkpt><trkpt lat="38.9481863" lon="-2.8495616"><ele>861.0</ele><time>2026-04-19T07:53:13.948Z</time></trkpt><trkpt lat="38.9482797" lon="-2.8496006"><ele>861.0</ele><time>2026-04-19T07:53:15.948Z</time></trkpt><trkpt lat="38.9483726" lon="-2.849605"><ele>861.0</ele><time>2026-04-19T07:53:17.948Z</time></trkpt><trkpt lat="38.9484427" lon="-2.8495812"><ele>861.0</ele><time>2026-04-19T07:53:19.948Z</time></trkpt><trkpt lat="38.9484981" lon="-2.8495333"><ele>861.0</ele><time>2026-04-19T07:53:21.948Z</time></trkpt><trkpt lat="38.9485382" lon="-2.8494519"><ele>861.0</ele><time>2026-04-19T07:53:23.948Z</time></trkpt><trkpt lat="38.9485816" lon="-2.8493664"><ele>861.0</ele><time>2026-04-19T07:53:25.948Z</time></trkpt><trkpt lat="38.9486175" lon="-2.8492999"><ele>859.1666666666666</ele><time>2026-04-19T07:53:27.948Z</time></trkpt><trkpt lat="38.948707" lon="-2.8492934"><ele>857.3333333333333</ele><time>2026-04-19T07:53:31.948Z</time></trkpt><trkpt lat="38.9487707" lon="-2.8493607"><ele>855.5</ele><time>2026-04-19T07:53:34.948Z</time></trkpt><trkpt lat="38.9487566" lon="-2.849465"><ele>853.6666666666666</ele><time>2026-04-19T07:53:37.948Z</time></trkpt><trkpt lat="38.9487323" lon="-2.8495559"><ele>851.8333333333333</ele><time>2026-04-19T07:53:40.948Z</time></trkpt><trkpt lat="38.9487566" lon="-2.849641"><ele>850.0</ele><time>2026-04-19T07:53:42.948Z</time></trkpt><trkpt lat="38.9487967" lon="-2.8497685"><ele>849.9999999999999</ele><time>2026-04-19T07:53:44.948Z</time></trkpt><trkpt lat="38.9488655" lon="-2.8497844"><ele>850.0</ele><time>2026-04-19T07:53:45.948Z</time></trkpt><trkpt lat="38.9489359" lon="-2.8498438"><ele>850.0</ele><time>2026-04-19T07:53:47.947Z</time></trkpt><trkpt lat="38.9489957" lon="-2.8498808"><ele>850.0</ele><time>2026-04-19T07:53:49.948Z</time></trkpt><trkpt lat="38.94906" lon="-2.8499149"><ele>849.9999999999999</ele><time>2026-04-19T07:53:51.948Z</time></trkpt><trkpt lat="38.9491546" lon="-2.8499238"><ele>850.0</ele><time>2026-04-19T07:53:53.948Z</time></trkpt><trkpt lat="38.9492588" lon="-2.8499285"><ele>849.8571428571429</ele><time>2026-04-19T07:53:55.948Z</time></trkpt><trkpt lat="38.9493264" lon="-2.8499312"><ele>849.7142857142857</ele><time>2026-04-19T07:53:56.947Z</time></trkpt><trkpt lat="38.9494132" lon="-2.8499621"><ele>849.5714285714287</ele><time>2026-04-19T07:53:58.948Z</time></trkpt><trkpt lat="38.9494373" lon="-2.8500482"><ele>849.4285714285714</ele><time>2026-04-19T07:55:14.948Z</time></trkpt><trkpt lat="38.9494513" lon="-2.8501272"><ele>849.2857142857143</ele><time>2026-04-19T07:55:17.948Z</time></trkpt><trkpt lat="38.9494997" lon="-2.8502005"><ele>849.1428571428572</ele><time>2026-04-19T07:55:19.948Z</time></trkpt><trkpt lat="38.9495463" lon="-2.8502792"><ele>849.0</ele><time>2026-04-19T07:55:21.947Z</time></trkpt><trkpt lat="38.9495816" lon="-2.8503871"><ele>847.2857142857143</ele><time>2026-04-19T07:55:24.948Z</time></trkpt><trkpt lat="38.9496028" lon="-2.8504662"><ele>845.5714285714286</ele><time>2026-04-19T07:55:26.948Z</time></trkpt><trkpt lat="38.9496355" lon="-2.8505512"><ele>843.8571428571429</ele><time>2026-04-19T07:55:28.947Z</time></trkpt><trkpt lat="38.9497117" lon="-2.8505769"><ele>842.1428571428571</ele><time>2026-04-19T07:55:30.948Z</time></trkpt><trkpt lat="38.9497776" lon="-2.8505567"><ele>840.4285714285714</ele><time>2026-04-19T07:55:32.948Z</time></trkpt><trkpt lat="38.9498433" lon="-2.8505424"><ele>838.7142857142858</ele><time>2026-04-19T07:55:34.948Z</time></trkpt><trkpt lat="38.9499211" lon="-2.8505902"><ele>837.0</ele><time>2026-04-19T07:55:36.948Z</time></trkpt><trkpt lat="38.950014" lon="-2.850607"><ele>836.0</ele><time>2026-04-19T07:55:38.948Z</time></trkpt><trkpt lat="38.950101" lon="-2.8506631"><ele>835.0</ele><time>2026-04-19T07:55:40.948Z</time></trkpt><trkpt lat="38.9501896" lon="-2.8507547"><ele>834.0</ele><time>2026-04-19T07:55:42.948Z</time></trkpt><trkpt lat="38.9502321" lon="-2.8508189"><ele>833.0</ele><time>2026-04-19T07:55:43.948Z</time></trkpt><trkpt lat="38.9502841" lon="-2.8508851"><ele>832.0</ele><time>2026-04-19T07:55:44.948Z</time></trkpt><trkpt lat="38.950347" lon="-2.8509978"><ele>832.0</ele><time>2026-04-19T07:55:46.947Z</time></trkpt><trkpt lat="38.9503934" lon="-2.8511214"><ele>832.0</ele><time>2026-04-19T07:55:48.948Z</time></trkpt><trkpt lat="38.9504362" lon="-2.8512565"><ele>832.0</ele><time>2026-04-19T07:55:50.948Z</time></trkpt><trkpt lat="38.9505188" lon="-2.8513581"><ele>832.0</ele><time>2026-04-19T07:55:52.948Z</time></trkpt><trkpt lat="38.9506248" lon="-2.8514385"><ele>832.0</ele><time>2026-04-19T07:55:54.948Z</time></trkpt><trkpt lat="38.950718" lon="-2.8515095"><ele>832.0</ele><time>2026-04-19T07:55:56.948Z</time></trkpt><trkpt lat="38.950762" lon="-2.8516284"><ele>832.0</ele><time>2026-04-19T07:55:58.949Z</time></trkpt><trkpt lat="38.9508317" lon="-2.8517397"><ele>832.0</ele><time>2026-04-19T07:56:00.947Z</time></trkpt><trkpt lat="38.9508995" lon="-2.8517938"><ele>832.0</ele><time>2026-04-19T07:56:02.948Z</time></trkpt><trkpt lat="38.9509817" lon="-2.8518606"><ele>833.4000000000001</ele><time>2026-04-19T07:56:04.948Z</time></trkpt><trkpt lat="38.951053" lon="-2.8519613"><ele>834.8000000000001</ele><time>2026-04-19T07:56:06.947Z</time></trkpt><trkpt lat="38.9510496" lon="-2.8520825"><ele>836.2</ele><time>2026-04-19T07:56:08.948Z</time></trkpt><trkpt lat="38.951038" lon="-2.8522123"><ele>837.6</ele><time>2026-04-19T07:56:10.948Z</time></trkpt><trkpt lat="38.9510415" lon="-2.8523226"><ele>839.0</ele><time>2026-04-19T07:56:12.948Z</time></trkpt><trkpt lat="38.9509994" lon="-2.8524382"><ele>839.0000000000001</ele><time>2026-04-19T07:56:14.948Z</time></trkpt><trkpt lat="38.9509904" lon="-2.8525433"><ele>839.0</ele><time>2026-04-19T07:56:16.948Z</time></trkpt><trkpt lat="38.9509833" lon="-2.8526263"><ele>839.0</ele><time>2026-04-19T07:56:18.948Z</time></trkpt><trkpt lat="38.9509786" lon="-2.8527335"><ele>839.0</ele><time>2026-04-19T08:05:19.947Z</time></trkpt><trkpt lat="38.9509482" lon="-2.8528145"><ele>839.0000000000001</ele><time>2026-04-19T08:05:22.947Z</time></trkpt><trkpt lat="38.9509004" lon="-2.8528855"><ele>839.0</ele><time>2026-04-19T08:05:24.947Z</time></trkpt><trkpt lat="38.9508497" lon="-2.852979"><ele>836.5000000000001</ele><time>2026-04-19T08:05:26.947Z</time></trkpt><trkpt lat="38.9507979" lon="-2.8530939"><ele>834.0</ele><time>2026-04-19T08:05:28.947Z</time></trkpt><trkpt lat="38.950754" lon="-2.853233"><ele>831.5</ele><time>2026-04-19T08:05:30.947Z</time></trkpt><trkpt lat="38.9507241" lon="-2.8533067"><ele>829.0</ele><time>2026-04-19T08:05:31.947Z</time></trkpt><trkpt lat="38.9506873" lon="-2.8533813"><ele>826.5000000000001</ele><time>2026-04-19T08:05:32.947Z</time></trkpt><trkpt lat="38.9506527" lon="-2.8534534"><ele>824.0</ele><time>2026-04-19T08:05:33.947Z</time></trkpt><trkpt lat="38.9506126" lon="-2.8535456"><ele>824.0000000000001</ele><time>2026-04-19T08:05:34.947Z</time></trkpt><trkpt lat="38.9505759" lon="-2.8536452"><ele>824.0</ele><time>2026-04-19T08:05:35.947Z</time></trkpt><trkpt lat="38.9505432" lon="-2.8537446"><ele>824.0</ele><time>2026-04-19T08:05:36.947Z</time></trkpt><trkpt lat="38.9504967" lon="-2.8538558"><ele>824.0</ele><time>2026-04-19T08:05:37.947Z</time></trkpt><trkpt lat="38.9504431" lon="-2.8539269"><ele>824.0000000000001</ele><time>2026-04-19T08:05:38.947Z</time></trkpt><trkpt lat="38.9503876" lon="-2.8540026"><ele>824.0</ele><time>2026-04-19T08:05:39.947Z</time></trkpt><trkpt lat="38.9503263" lon="-2.8540616"><ele>823.9999999999999</ele><time>2026-04-19T08:05:40.947Z</time></trkpt><trkpt lat="38.9502585" lon="-2.8541043"><ele>824.0</ele><time>2026-04-19T08:05:41.946Z</time></trkpt><trkpt lat="38.9501912" lon="-2.8541539"><ele>824.0</ele><time>2026-04-19T08:05:42.947Z</time></trkpt><trkpt lat="38.9501308" lon="-2.8542024"><ele>824.0</ele><time>2026-04-19T08:05:43.947Z</time></trkpt><trkpt lat="38.9500806" lon="-2.8542604"><ele>824.0</ele><time>2026-04-19T08:05:44.947Z</time></trkpt><trkpt lat="38.9500356" lon="-2.8543244"><ele>823.9999999999999</ele><time>2026-04-19T08:05:45.947Z</time></trkpt><trkpt lat="38.9500035" lon="-2.8544175"><ele>824.0</ele><time>2026-04-19T08:05:46.947Z</time></trkpt><trkpt lat="38.9499698" lon="-2.8544894"><ele>821.6</ele><time>2026-04-19T08:05:47.947Z</time></trkpt><trkpt lat="38.9499609" lon="-2.8545936"><ele>819.2</ele><time>2026-04-19T08:05:48.947Z</time></trkpt><trkpt lat="38.9499433" lon="-2.8546976"><ele>816.8000000000001</ele><time>2026-04-19T08:05:49.947Z</time></trkpt><trkpt lat="38.9499142" lon="-2.8548562"><ele>814.4000000000001</ele><time>2026-04-19T08:05:51.947Z</time></trkpt><trkpt lat="38.9498488" lon="-2.8549141"><ele>812.0</ele><time>2026-04-19T08:05:53.947Z</time></trkpt><trkpt lat="38.9497709" lon="-2.8549793"><ele>812.0000000000001</ele><time>2026-04-19T08:05:55.947Z</time></trkpt><trkpt lat="38.9497164" lon="-2.8550777"><ele>812.0</ele><time>2026-04-19T08:05:58.947Z</time></trkpt><trkpt lat="38.9496654" lon="-2.8551314"><ele>812.0</ele><time>2026-04-19T08:06:01.947Z</time></trkpt><trkpt lat="38.9496109" lon="-2.8551784"><ele>812.0</ele><time>2026-04-19T08:06:03.947Z</time></trkpt><trkpt lat="38.9495445" lon="-2.8552236"><ele>812.0000000000001</ele><time>2026-04-19T08:06:05.947Z</time></trkpt><trkpt lat="38.9494564" lon="-2.8552403"><ele>812.0</ele><time>2026-04-19T08:06:08.947Z</time></trkpt><trkpt lat="38.9493872" lon="-2.855226"><ele>812.0000000000001</ele><time>2026-04-19T08:06:11.947Z</time></trkpt><trkpt lat="38.9493109" lon="-2.8552354"><ele>812.0</ele><time>2026-04-19T08:06:14.947Z</time></trkpt><trkpt lat="38.9492201" lon="-2.8552432"><ele>812.0</ele><time>2026-04-19T08:06:17.947Z</time></trkpt><trkpt lat="38.9491289" lon="-2.8552505"><ele>812.0</ele><time>2026-04-19T08:06:20.947Z</time></trkpt><trkpt lat="38.9490358" lon="-2.8552657"><ele>812.0000000000001</ele><time>2026-04-19T08:06:23.947Z</time></trkpt><trkpt lat="38.9489725" lon="-2.8552751"><ele>812.0</ele><time>2026-04-19T08:06:25.947Z</time></trkpt><trkpt lat="38.9489063" lon="-2.8552869"><ele>812.0</ele><time>2026-04-19T08:06:27.947Z</time></trkpt><trkpt lat="38.9488338" lon="-2.8552953"><ele>812.0</ele><time>2026-04-19T08:06:29.947Z</time></trkpt><trkpt lat="38.9487674" lon="-2.8553014"><ele>812.0</ele><time>2026-04-19T08:06:31.947Z</time></trkpt><trkpt lat="38.9487001" lon="-2.8553088"><ele>812.0</ele><time>2026-04-19T08:06:33.947Z</time></trkpt><trkpt lat="38.9486312" lon="-2.8553192"><ele>812.0</ele><time>2026-04-19T08:06:35.947Z</time></trkpt><trkpt lat="38.9485635" lon="-2.8553274"><ele>812.0</ele><time>2026-04-19T08:06:37.947Z</time></trkpt><trkpt lat="38.948495" lon="-2.8553373"><ele>812.0</ele><time>2026-04-19T08:06:39.947Z</time></trkpt><trkpt lat="38.9484251" lon="-2.8553477"><ele>812.1428571428571</ele><time>2026-04-19T08:06:41.947Z</time></trkpt><trkpt lat="38.9483529" lon="-2.8553563"><ele>812.2857142857142</ele><time>2026-04-19T08:06:43.947Z</time></trkpt><trkpt lat="38.9482841" lon="-2.8553603"><ele>812.4285714285714</ele><time>2026-04-19T08:06:45.947Z</time></trkpt><trkpt lat="38.9482121" lon="-2.8553674"><ele>812.5714285714286</ele><time>2026-04-19T08:06:47.947Z</time></trkpt><trkpt lat="38.9481335" lon="-2.855379"><ele>812.7142857142857</ele><time>2026-04-19T08:06:49.947Z</time></trkpt><trkpt lat="38.9480563" lon="-2.8553992"><ele>812.8571428571429</ele><time>2026-04-19T08:06:51.947Z</time></trkpt><trkpt lat="38.947991" lon="-2.8554196"><ele>813.0</ele><time>2026-04-19T08:06:53.947Z</time></trkpt><trkpt lat="38.9479196" lon="-2.8554474"><ele>813.0</ele><time>2026-04-19T08:06:55.947Z</time></trkpt><trkpt lat="38.9478379" lon="-2.8554611"><ele>813.0</ele><time>2026-04-19T08:06:57.947Z</time></trkpt><trkpt lat="38.9477675" lon="-2.8554913"><ele>813.0</ele><time>2026-04-19T08:06:59.947Z</time></trkpt><trkpt lat="38.947692" lon="-2.8555149"><ele>813.0</ele><time>2026-04-19T08:07:01.947Z</time></trkpt><trkpt lat="38.9476083" lon="-2.8555521"><ele>813.0</ele><time>2026-04-19T08:07:03.947Z</time></trkpt><trkpt lat="38.9475229" lon="-2.8555855"><ele>813.0</ele><time>2026-04-19T08:07:05.947Z</time></trkpt><trkpt lat="38.9474329" lon="-2.8556193"><ele>813.5999999999999</ele><time>2026-04-19T08:07:07.947Z</time></trkpt><trkpt lat="38.9473392" lon="-2.8556546"><ele>814.1999999999999</ele><time>2026-04-19T08:07:09.947Z</time></trkpt><trkpt lat="38.9472385" lon="-2.8556705"><ele>814.8</ele><time>2026-04-19T08:07:11.947Z</time></trkpt><trkpt lat="38.9471419" lon="-2.8556697"><ele>815.4</ele><time>2026-04-19T08:07:13.947Z</time></trkpt><trkpt lat="38.9470514" lon="-2.8556616"><ele>816.0</ele><time>2026-04-19T08:07:15.947Z</time></trkpt><trkpt lat="38.9469479" lon="-2.8556421"><ele>816.0</ele><time>2026-04-19T08:07:17.946Z</time></trkpt><trkpt lat="38.9468434" lon="-2.8556123"><ele>816.0</ele><time>2026-04-19T08:07:19.947Z</time></trkpt><trkpt lat="38.9467421" lon="-2.8555849"><ele>816.0</ele><time>2026-04-19T08:07:21.947Z</time></trkpt><trkpt lat="38.9466414" lon="-2.8555558"><ele>816.0</ele><time>2026-04-19T08:07:23.947Z</time></trkpt><trkpt lat="38.9465353" lon="-2.8555188"><ele>816.0</ele><time>2026-04-19T08:07:25.947Z</time></trkpt><trkpt lat="38.9464201" lon="-2.8554839"><ele>816.0</ele><time>2026-04-19T08:07:27.947Z</time></trkpt><trkpt lat="38.946309" lon="-2.8554538"><ele>816.0</ele><time>2026-04-19T08:07:29.947Z</time></trkpt><trkpt lat="38.9462042" lon="-2.8554182"><ele>816.0</ele><time>2026-04-19T08:07:31.947Z</time></trkpt><trkpt lat="38.9460999" lon="-2.8553831"><ele>816.0</ele><time>2026-04-19T08:07:33.947Z</time></trkpt><trkpt lat="38.9459907" lon="-2.8553462"><ele>816.0</ele><time>2026-04-19T08:07:35.947Z</time></trkpt><trkpt lat="38.9458926" lon="-2.8553038"><ele>815.1999999999999</ele><time>2026-04-19T08:07:37.947Z</time></trkpt><trkpt lat="38.9457942" lon="-2.8552745"><ele>814.4</ele><time>2026-04-19T08:07:39.947Z</time></trkpt><trkpt lat="38.9456945" lon="-2.855245"><ele>813.6</ele><time>2026-04-19T08:07:41.947Z</time></trkpt><trkpt lat="38.9455752" lon="-2.8551973"><ele>812.8</ele><time>2026-04-19T08:07:43.947Z</time></trkpt><trkpt lat="38.9454611" lon="-2.8551671"><ele>812.0</ele><time>2026-04-19T08:07:45.947Z</time></trkpt><trkpt lat="38.9453509" lon="-2.8551373"><ele>811.8</ele><time>2026-04-19T08:07:47.947Z</time></trkpt><trkpt lat="38.9452499" lon="-2.855119"><ele>811.6</ele><time>2026-04-19T08:07:49.947Z</time></trkpt><trkpt lat="38.9451479" lon="-2.8551057"><ele>811.4</ele><time>2026-04-19T08:07:51.947Z</time></trkpt><trkpt lat="38.9450287" lon="-2.855098"><ele>811.1999999999999</ele><time>2026-04-19T08:07:53.947Z</time></trkpt><trkpt lat="38.9449129" lon="-2.8551138"><ele>811.0</ele><time>2026-04-19T08:07:55.946Z</time></trkpt><trkpt lat="38.9448041" lon="-2.8551388"><ele>811.0</ele><time>2026-04-19T08:07:57.947Z</time></trkpt><trkpt lat="38.9446904" lon="-2.8551664"><ele>811.0</ele><time>2026-04-19T08:07:59.946Z</time></trkpt><trkpt lat="38.9445691" lon="-2.8551895"><ele>811.0</ele><time>2026-04-19T08:08:01.947Z</time></trkpt><trkpt lat="38.9444511" lon="-2.8552063"><ele>811.0</ele><time>2026-04-19T08:08:03.948Z</time></trkpt><trkpt lat="38.9443378" lon="-2.8552063"><ele>811.0</ele><time>2026-04-19T08:08:05.947Z</time></trkpt><trkpt lat="38.9442221" lon="-2.8552099"><ele>811.0</ele><time>2026-04-19T08:08:07.947Z</time></trkpt><trkpt lat="38.9440989" lon="-2.8551962"><ele>811.0</ele><time>2026-04-19T08:08:09.948Z</time></trkpt><trkpt lat="38.9440363" lon="-2.8551842"><ele>811.0</ele><time>2026-04-19T08:08:10.947Z</time></trkpt><trkpt lat="38.9439721" lon="-2.8551787"><ele>811.0</ele><time>2026-04-19T08:08:11.947Z</time></trkpt><trkpt lat="38.9438512" lon="-2.8551614"><ele>813.5</ele><time>2026-04-19T08:08:13.947Z</time></trkpt><trkpt lat="38.9437331" lon="-2.8551191"><ele>816.0</ele><time>2026-04-19T08:08:15.947Z</time></trkpt><trkpt lat="38.9436264" lon="-2.8550455"><ele>818.5</ele><time>2026-04-19T08:08:17.946Z</time></trkpt><trkpt lat="38.94354" lon="-2.8549331"><ele>821.0</ele><time>2026-04-19T08:08:19.946Z</time></trkpt><trkpt lat="38.9434705" lon="-2.8548086"><ele>821.0000000000001</ele><time>2026-04-19T08:08:21.947Z</time></trkpt><trkpt lat="38.9434045" lon="-2.8546764"><ele>821.0</ele><time>2026-04-19T08:08:23.947Z</time></trkpt><trkpt lat="38.9433688" lon="-2.8546065"><ele>821.0</ele><time>2026-04-19T08:08:24.948Z</time></trkpt><trkpt lat="38.9433332" lon="-2.854535"><ele>821.0</ele><time>2026-04-19T08:08:25.947Z</time></trkpt><trkpt lat="38.9432662" lon="-2.8543966"><ele>821.0000000000001</ele><time>2026-04-19T08:08:27.947Z</time></trkpt><trkpt lat="38.9432338" lon="-2.8543263"><ele>821.0</ele><time>2026-04-19T08:08:28.947Z</time></trkpt><trkpt lat="38.9431631" lon="-2.8541924"><ele>822.75</ele><time>2026-04-19T08:08:30.947Z</time></trkpt><trkpt lat="38.9430608" lon="-2.8540945"><ele>824.5</ele><time>2026-04-19T08:08:32.947Z</time></trkpt><trkpt lat="38.9429394" lon="-2.8540821"><ele>826.25</ele><time>2026-04-19T08:08:34.947Z</time></trkpt><trkpt lat="38.9428201" lon="-2.8540993"><ele>828.0</ele><time>2026-04-19T08:08:36.947Z</time></trkpt><trkpt lat="38.9426957" lon="-2.854123"><ele>828.0</ele><time>2026-04-19T08:08:38.947Z</time></trkpt><trkpt lat="38.9425772" lon="-2.8541515"><ele>828.0</ele><time>2026-04-19T08:08:40.947Z</time></trkpt><trkpt lat="38.9425118" lon="-2.8541582"><ele>828.0</ele><time>2026-04-19T08:08:41.948Z</time></trkpt><trkpt lat="38.9423939" lon="-2.8541751"><ele>828.0</ele><time>2026-04-19T08:08:43.947Z</time></trkpt><trkpt lat="38.9423297" lon="-2.8541766"><ele>828.0</ele><time>2026-04-19T08:08:44.948Z</time></trkpt><trkpt lat="38.942205" lon="-2.8541619"><ele>826.8333333333334</ele><time>2026-04-19T08:08:46.947Z</time></trkpt><trkpt lat="38.9420789" lon="-2.8541352"><ele>825.6666666666667</ele><time>2026-04-19T08:08:48.947Z</time></trkpt><trkpt lat="38.9420133" lon="-2.8541185"><ele>824.5</ele><time>2026-04-19T08:08:49.947Z</time></trkpt><trkpt lat="38.941951" lon="-2.8541042"><ele>823.3333333333334</ele><time>2026-04-19T08:08:50.947Z</time></trkpt><trkpt lat="38.941888" lon="-2.8540905"><ele>822.1666666666667</ele><time>2026-04-19T08:08:51.948Z</time></trkpt><trkpt lat="38.9418233" lon="-2.8540707"><ele>821.0</ele><time>2026-04-19T08:08:52.947Z</time></trkpt><trkpt lat="38.9417603" lon="-2.8540567"><ele>819.5999999999999</ele><time>2026-04-19T08:08:53.947Z</time></trkpt><trkpt lat="38.9416936" lon="-2.85404"><ele>818.2</ele><time>2026-04-19T08:08:54.947Z</time></trkpt><trkpt lat="38.9415671" lon="-2.8540044"><ele>816.8</ele><time>2026-04-19T08:08:56.947Z</time></trkpt><trkpt lat="38.9414572" lon="-2.8539323"><ele>815.4000000000001</ele><time>2026-04-19T08:08:58.947Z</time></trkpt><trkpt lat="38.9414044" lon="-2.8538778"><ele>814.0</ele><time>2026-04-19T08:08:59.947Z</time></trkpt><trkpt lat="38.94136" lon="-2.8538151"><ele>814.0000000000001</ele><time>2026-04-19T08:09:00.947Z</time></trkpt><trkpt lat="38.9413135" lon="-2.8537519"><ele>814.0</ele><time>2026-04-19T08:09:01.947Z</time></trkpt><trkpt lat="38.9412687" lon="-2.8536864"><ele>814.0</ele><time>2026-04-19T08:09:02.947Z</time></trkpt><trkpt lat="38.9412222" lon="-2.853623"><ele>814.0</ele><time>2026-04-19T08:09:03.947Z</time></trkpt><trkpt lat="38.9411801" lon="-2.8535547"><ele>814.0</ele><time>2026-04-19T08:09:04.947Z</time></trkpt><trkpt lat="38.9411401" lon="-2.8534848"><ele>814.0000000000001</ele><time>2026-04-19T08:09:05.947Z</time></trkpt><trkpt lat="38.9410987" lon="-2.8534153"><ele>814.0</ele><time>2026-04-19T08:09:06.947Z</time></trkpt><trkpt lat="38.9410641" lon="-2.8533409"><ele>813.7142857142858</ele><time>2026-04-19T08:09:07.947Z</time></trkpt><trkpt lat="38.9410299" lon="-2.8532652"><ele>813.4285714285714</ele><time>2026-04-19T08:09:08.947Z</time></trkpt><trkpt lat="38.9409988" lon="-2.8531875"><ele>813.1428571428571</ele><time>2026-04-19T08:09:09.947Z</time></trkpt><trkpt lat="38.9409735" lon="-2.8531099"><ele>812.8571428571429</ele><time>2026-04-19T08:09:10.947Z</time></trkpt><trkpt lat="38.9409475" lon="-2.8530341"><ele>812.5714285714286</ele><time>2026-04-19T08:09:11.947Z</time></trkpt><trkpt lat="38.9409224" lon="-2.852958"><ele>812.2857142857143</ele><time>2026-04-19T08:09:12.947Z</time></trkpt><trkpt lat="38.9409001" lon="-2.8528807"><ele>812.0</ele><time>2026-04-19T08:09:13.947Z</time></trkpt><trkpt lat="38.9408577" lon="-2.8527349"><ele>813.6</ele><time>2026-04-19T08:09:15.947Z</time></trkpt><trkpt lat="38.9408304" lon="-2.8525794"><ele>815.2</ele><time>2026-04-19T08:09:17.946Z</time></trkpt><trkpt lat="38.9408233" lon="-2.8524205"><ele>816.8</ele><time>2026-04-19T08:09:19.947Z</time></trkpt><trkpt lat="38.9408378" lon="-2.8522618"><ele>818.4</ele><time>2026-04-19T08:09:21.947Z</time></trkpt><trkpt lat="38.9408518" lon="-2.8521825"><ele>820.0</ele><time>2026-04-19T08:09:22.947Z</time></trkpt><trkpt lat="38.9408627" lon="-2.8521022"><ele>820.0</ele><time>2026-04-19T08:09:23.947Z</time></trkpt><trkpt lat="38.9408733" lon="-2.8520175"><ele>820.0</ele><time>2026-04-19T08:09:24.947Z</time></trkpt><trkpt lat="38.940879" lon="-2.8519321"><ele>820.0</ele><time>2026-04-19T08:09:25.948Z</time></trkpt><trkpt lat="38.9408796" lon="-2.8518507"><ele>820.0</ele><time>2026-04-19T08:09:26.947Z</time></trkpt><trkpt lat="38.9408833" lon="-2.851768"><ele>820.0</ele><time>2026-04-19T08:09:27.947Z</time></trkpt><trkpt lat="38.9408864" lon="-2.8516843"><ele>820.0</ele><time>2026-04-19T08:09:28.947Z</time></trkpt><trkpt lat="38.9408898" lon="-2.8516027"><ele>820.0</ele><time>2026-04-19T08:09:29.947Z</time></trkpt><trkpt lat="38.9408885" lon="-2.8515141"><ele>825.2857142857143</ele><time>2026-04-19T08:09:30.947Z</time></trkpt><trkpt lat="38.9408866" lon="-2.8514298"><ele>830.5714285714286</ele><time>2026-04-19T08:09:31.946Z</time></trkpt><trkpt lat="38.9408857" lon="-2.8513433"><ele>835.8571428571429</ele><time>2026-04-19T08:09:32.947Z</time></trkpt><trkpt lat="38.9408851" lon="-2.8512572"><ele>841.1428571428571</ele><time>2026-04-19T08:09:33.947Z</time></trkpt><trkpt lat="38.9408852" lon="-2.8511706"><ele>846.4285714285713</ele><time>2026-04-19T08:09:34.947Z</time></trkpt><trkpt lat="38.9408932" lon="-2.8510852"><ele>851.7142857142857</ele><time>2026-04-19T08:09:35.946Z</time></trkpt><trkpt lat="38.940903" lon="-2.8510048"><ele>857.0</ele><time>2026-04-19T08:09:36.946Z</time></trkpt><trkpt lat="38.9409169" lon="-2.8509247"><ele>857.0000000000001</ele><time>2026-04-19T08:09:37.947Z</time></trkpt><trkpt lat="38.940944" lon="-2.8507687"><ele>857.0</ele><time>2026-04-19T08:09:39.946Z</time></trkpt><trkpt lat="38.9409547" lon="-2.850687"><ele>857.0</ele><time>2026-04-19T08:09:40.946Z</time></trkpt><trkpt lat="38.9409616" lon="-2.8506063"><ele>857.0</ele><time>2026-04-19T08:09:41.947Z</time></trkpt><trkpt lat="38.9409625" lon="-2.8505241"><ele>857.0000000000001</ele><time>2026-04-19T08:09:42.947Z</time></trkpt><trkpt lat="38.9409529" lon="-2.8504436"><ele>857.0</ele><time>2026-04-19T08:09:43.947Z</time></trkpt><trkpt lat="38.9409261" lon="-2.8502873"><ele>857.0</ele><time>2026-04-19T08:09:45.947Z</time></trkpt><trkpt lat="38.9408909" lon="-2.8501362"><ele>857.0</ele><time>2026-04-19T08:09:47.947Z</time></trkpt><trkpt lat="38.9408608" lon="-2.8500009"><ele>857.0</ele><time>2026-04-19T08:09:49.948Z</time></trkpt><trkpt lat="38.9408476" lon="-2.8498742"><ele>857.0</ele><time>2026-04-19T08:09:51.947Z</time></trkpt><trkpt lat="38.9408438" lon="-2.8497432"><ele>857.0</ele><time>2026-04-19T08:09:53.948Z</time></trkpt><trkpt lat="38.9408523" lon="-2.8496227"><ele>850.4000000000001</ele><time>2026-04-19T08:09:55.947Z</time></trkpt><trkpt lat="38.9408523" lon="-2.8495126"><ele>843.8000000000001</ele><time>2026-04-19T08:09:57.947Z</time></trkpt><trkpt lat="38.9408566" lon="-2.8493971"><ele>837.2</ele><time>2026-04-19T08:09:59.948Z</time></trkpt><trkpt lat="38.9408605" lon="-2.8492787"><ele>830.6</ele><time>2026-04-19T08:10:01.947Z</time></trkpt><trkpt lat="38.940863" lon="-2.8491617"><ele>824.0</ele><time>2026-04-19T08:10:03.947Z</time></trkpt><trkpt lat="38.9408444" lon="-2.8490412"><ele>824.0</ele><time>2026-04-19T08:10:05.947Z</time></trkpt><trkpt lat="38.9408213" lon="-2.8489186"><ele>824.0</ele><time>2026-04-19T08:10:07.947Z</time></trkpt><trkpt lat="38.9407963" lon="-2.8488037"><ele>824.0</ele><time>2026-04-19T08:10:09.948Z</time></trkpt><trkpt lat="38.940765" lon="-2.8486812"><ele>824.0</ele><time>2026-04-19T08:10:11.947Z</time></trkpt><trkpt lat="38.9407274" lon="-2.848563"><ele>824.0</ele><time>2026-04-19T08:10:13.948Z</time></trkpt><trkpt lat="38.9406799" lon="-2.8484602"><ele>827.0</ele><time>2026-04-19T08:10:15.947Z</time></trkpt><trkpt lat="38.9406243" lon="-2.8483625"><ele>830.0</ele><time>2026-04-19T08:10:17.947Z</time></trkpt><trkpt lat="38.9405458" lon="-2.8482695"><ele>833.0</ele><time>2026-04-19T08:10:19.947Z</time></trkpt><trkpt lat="38.9404665" lon="-2.8481767"><ele>836.0</ele><time>2026-04-19T08:10:21.947Z</time></trkpt><trkpt lat="38.9403879" lon="-2.8480981"><ele>839.0</ele><time>2026-04-19T08:10:23.946Z</time></trkpt><trkpt lat="38.9403101" lon="-2.8480085"><ele>839.0</ele><time>2026-04-19T08:10:25.947Z</time></trkpt><trkpt lat="38.9402313" lon="-2.8479286"><ele>839.0</ele><time>2026-04-19T08:10:27.947Z</time></trkpt><trkpt lat="38.9401532" lon="-2.8478501"><ele>839.0</ele><time>2026-04-19T08:10:29.947Z</time></trkpt><trkpt lat="38.9400843" lon="-2.8477841"><ele>839.0</ele><time>2026-04-19T08:10:31.947Z</time></trkpt><trkpt lat="38.9400028" lon="-2.8477136"><ele>839.0</ele><time>2026-04-19T08:10:33.948Z</time></trkpt><trkpt lat="38.9399201" lon="-2.8476255"><ele>837.5</ele><time>2026-04-19T08:10:35.947Z</time></trkpt><trkpt lat="38.9398321" lon="-2.8475392"><ele>836.0</ele><time>2026-04-19T08:10:37.947Z</time></trkpt><trkpt lat="38.9397436" lon="-2.8474639"><ele>834.5</ele><time>2026-04-19T08:10:39.947Z</time></trkpt><trkpt lat="38.9396399" lon="-2.847384"><ele>833.0</ele><time>2026-04-19T08:10:41.947Z</time></trkpt><trkpt lat="38.9395484" lon="-2.8472789"><ele>833.0</ele><time>2026-04-19T08:10:43.947Z</time></trkpt><trkpt lat="38.9395183" lon="-2.8471343"><ele>833.0</ele><time>2026-04-19T08:10:45.947Z</time></trkpt><trkpt lat="38.9394893" lon="-2.8469845"><ele>833.0</ele><time>2026-04-19T08:10:47.947Z</time></trkpt><trkpt lat="38.9394764" lon="-2.8468318"><ele>833.0</ele><time>2026-04-19T08:10:49.947Z</time></trkpt><trkpt lat="38.9394654" lon="-2.8466836"><ele>836.25</ele><time>2026-04-19T08:10:51.947Z</time></trkpt><trkpt lat="38.9394615" lon="-2.8465417"><ele>839.5</ele><time>2026-04-19T08:10:53.946Z</time></trkpt><trkpt lat="38.9394571" lon="-2.846391"><ele>842.75</ele><time>2026-04-19T08:10:55.947Z</time></trkpt><trkpt lat="38.9394669" lon="-2.8462472"><ele>846.0</ele><time>2026-04-19T08:10:57.947Z</time></trkpt><trkpt lat="38.9395008" lon="-2.8461081"><ele>846.0</ele><time>2026-04-19T08:10:59.947Z</time></trkpt><trkpt lat="38.9395329" lon="-2.8459702"><ele>846.0</ele><time>2026-04-19T08:11:01.947Z</time></trkpt><trkpt lat="38.9395569" lon="-2.845841"><ele>846.0</ele><time>2026-04-19T08:11:03.947Z</time></trkpt><trkpt lat="38.9395841" lon="-2.8457154"><ele>846.0</ele><time>2026-04-19T08:11:05.947Z</time></trkpt><trkpt lat="38.9396105" lon="-2.8456045"><ele>846.0</ele><time>2026-04-19T08:11:07.947Z</time></trkpt><trkpt lat="38.9396473" lon="-2.8455118"><ele>845.2857142857142</ele><time>2026-04-19T08:11:09.947Z</time></trkpt><trkpt lat="38.9396837" lon="-2.8454312"><ele>844.5714285714287</ele><time>2026-04-19T08:11:11.946Z</time></trkpt><trkpt lat="38.9397223" lon="-2.8453554"><ele>843.8571428571429</ele><time>2026-04-19T08:11:13.947Z</time></trkpt><trkpt lat="38.9397665" lon="-2.8452884"><ele>843.1428571428571</ele><time>2026-04-19T08:11:15.947Z</time></trkpt><trkpt lat="38.9397978" lon="-2.8452106"><ele>842.4285714285713</ele><time>2026-04-19T08:11:19.947Z</time></trkpt><trkpt lat="38.9398235" lon="-2.8451213"><ele>841.7142857142858</ele><time>2026-04-19T08:11:23.947Z</time></trkpt><trkpt lat="38.9398543" lon="-2.8450332"><ele>841.0</ele><time>2026-04-19T08:11:26.947Z</time></trkpt><trkpt lat="38.93982" lon="-2.8449392"><ele>840.7142857142858</ele><time>2026-04-19T08:11:30.947Z</time></trkpt><trkpt lat="38.9397463" lon="-2.8449094"><ele>840.4285714285713</ele><time>2026-04-19T08:11:32.947Z</time></trkpt><trkpt lat="38.939685" lon="-2.8448859"><ele>840.1428571428571</ele><time>2026-04-19T08:11:34.947Z</time></trkpt><trkpt lat="38.9396085" lon="-2.8448571"><ele>839.8571428571429</ele><time>2026-04-19T08:11:37.947Z</time></trkpt><trkpt lat="38.9395356" lon="-2.8448588"><ele>839.5714285714287</ele><time>2026-04-19T08:11:40.947Z</time></trkpt><trkpt lat="38.9394689" lon="-2.8448717"><ele>839.2857142857142</ele><time>2026-04-19T08:11:43.947Z</time></trkpt><trkpt lat="38.9394127" lon="-2.8449195"><ele>839.0</ele><time>2026-04-19T08:11:46.947Z</time></trkpt><trkpt lat="38.9393538" lon="-2.8449671"><ele>839.0</ele><time>2026-04-19T08:11:49.947Z</time></trkpt><trkpt lat="38.9392995" lon="-2.8450139"><ele>839.0</ele><time>2026-04-19T08:11:52.947Z</time></trkpt><trkpt lat="38.9392366" lon="-2.8450608"><ele>839.0</ele><time>2026-04-19T08:11:56.947Z</time></trkpt><trkpt lat="38.9391796" lon="-2.8451105"><ele>839.0</ele><time>2026-04-19T08:12:00.947Z</time></trkpt><trkpt lat="38.9391055" lon="-2.8451545"><ele>839.0</ele><time>2026-04-19T08:12:04.947Z</time></trkpt><trkpt lat="38.9390271" lon="-2.8451885"><ele>839.0</ele><time>2026-04-19T08:12:08.947Z</time></trkpt><trkpt lat="38.9389777" lon="-2.8452398"><ele>839.0</ele><time>2026-04-19T08:12:11.947Z</time></trkpt><trkpt lat="38.9389119" lon="-2.8453021"><ele>837.8571428571428</ele><time>2026-04-19T08:12:15.947Z</time></trkpt><trkpt lat="38.9388573" lon="-2.8453575"><ele>836.7142857142858</ele><time>2026-04-19T08:12:18.947Z</time></trkpt><trkpt lat="38.9387988" lon="-2.8454054"><ele>835.5714285714286</ele><time>2026-04-19T08:12:22.947Z</time></trkpt><trkpt lat="38.9387575" lon="-2.8454669"><ele>834.4285714285713</ele><time>2026-04-19T08:12:25.947Z</time></trkpt><trkpt lat="38.9387018" lon="-2.8455281"><ele>833.2857142857142</ele><time>2026-04-19T08:12:29.947Z</time></trkpt><trkpt lat="38.9386705" lon="-2.8456051"><ele>832.1428571428571</ele><time>2026-04-19T08:12:32.947Z</time></trkpt><trkpt lat="38.938632" lon="-2.8457172"><ele>831.0</ele><time>2026-04-19T08:12:35.947Z</time></trkpt><trkpt lat="38.9386163" lon="-2.8458216"><ele>831.0</ele><time>2026-04-19T08:12:37.947Z</time></trkpt><trkpt lat="38.9386069" lon="-2.8459248"><ele>831.0</ele><time>2026-04-19T08:12:39.947Z</time></trkpt><trkpt lat="38.938608" lon="-2.846056"><ele>831.0</ele><time>2026-04-19T08:12:41.946Z</time></trkpt><trkpt lat="38.9386184" lon="-2.846175"><ele>831.0</ele><time>2026-04-19T08:12:43.947Z</time></trkpt><trkpt lat="38.9386273" lon="-2.8463123"><ele>831.0</ele><time>2026-04-19T08:12:45.947Z</time></trkpt><trkpt lat="38.9385955" lon="-2.8464569"><ele>830.0</ele><time>2026-04-19T08:12:47.947Z</time></trkpt><trkpt lat="38.9385785" lon="-2.8466033"><ele>829.0</ele><time>2026-04-19T08:12:49.947Z</time></trkpt><trkpt lat="38.9385485" lon="-2.8466925"><ele>828.0</ele><time>2026-04-19T08:12:50.947Z</time></trkpt><trkpt lat="38.9384513" lon="-2.8467859"><ele>827.0</ele><time>2026-04-19T08:12:52.947Z</time></trkpt><trkpt lat="38.9383707" lon="-2.8468566"><ele>826.0</ele><time>2026-04-19T08:12:54.947Z</time></trkpt><trkpt lat="38.9382957" lon="-2.8469066"><ele>825.4999999999999</ele><time>2026-04-19T08:12:56.947Z</time></trkpt><trkpt lat="38.9382064" lon="-2.8469284"><ele>825.0</ele><time>2026-04-19T08:12:59.947Z</time></trkpt><trkpt lat="38.9381236" lon="-2.8469237"><ele>824.5</ele><time>2026-04-19T08:13:02.947Z</time></trkpt><trkpt lat="38.9380608" lon="-2.8468971"><ele>824.0</ele><time>2026-04-19T08:13:04.946Z</time></trkpt><trkpt lat="38.9379852" lon="-2.846875"><ele>823.4999999999999</ele><time>2026-04-19T08:13:06.947Z</time></trkpt><trkpt lat="38.9379247" lon="-2.8468253"><ele>823.0</ele><time>2026-04-19T08:13:08.947Z</time></trkpt><trkpt lat="38.9378691" lon="-2.8467752"><ele>825.6666666666666</ele><time>2026-04-19T08:13:10.947Z</time></trkpt><trkpt lat="38.9378156" lon="-2.8467256"><ele>828.3333333333333</ele><time>2026-04-19T08:13:12.947Z</time></trkpt><trkpt lat="38.9377511" lon="-2.8466578"><ele>831.0</ele><time>2026-04-19T08:13:15.947Z</time></trkpt><trkpt lat="38.9376798" lon="-2.8466128"><ele>833.6666666666667</ele><time>2026-04-19T08:13:19.947Z</time></trkpt><trkpt lat="38.9376071" lon="-2.8465698"><ele>836.3333333333334</ele><time>2026-04-19T08:13:22.947Z</time></trkpt><trkpt lat="38.9375473" lon="-2.8465025"><ele>839.0</ele><time>2026-04-19T08:13:26.947Z</time></trkpt><trkpt lat="38.9375625" lon="-2.8464198"><ele>839.1666666666667</ele><time>2026-04-19T08:13:30.947Z</time></trkpt><trkpt lat="38.9376272" lon="-2.846425"><ele>839.3333333333334</ele><time>2026-04-19T08:13:33.947Z</time></trkpt><trkpt lat="38.9377037" lon="-2.8464642"><ele>839.5</ele><time>2026-04-19T08:13:37.946Z</time></trkpt><trkpt lat="38.9377795" lon="-2.846473"><ele>839.6666666666667</ele><time>2026-04-19T08:13:41.947Z</time></trkpt><trkpt lat="38.937859" lon="-2.8464697"><ele>839.8333333333334</ele><time>2026-04-19T08:13:45.947Z</time></trkpt><trkpt lat="38.9379351" lon="-2.846459"><ele>840.0</ele><time>2026-04-19T08:13:49.947Z</time></trkpt><trkpt lat="38.9380156" lon="-2.8464644"><ele>840.0</ele><time>2026-04-19T08:13:53.947Z</time></trkpt><trkpt lat="38.9380838" lon="-2.8464631"><ele>840.0</ele><time>2026-04-19T08:13:56.947Z</time></trkpt><trkpt lat="38.9381458" lon="-2.8464314"><ele>840.0</ele><time>2026-04-19T08:13:59.947Z</time></trkpt><trkpt lat="38.938201" lon="-2.8463857"><ele>840.0</ele><time>2026-04-19T08:14:02.947Z</time></trkpt><trkpt lat="38.9382245" lon="-2.8463001"><ele>840.0</ele><time>2026-04-19T08:14:05.947Z</time></trkpt><trkpt lat="38.9382261" lon="-2.8462144"><ele>840.0</ele><time>2026-04-19T08:14:08.947Z</time></trkpt><trkpt lat="38.9381884" lon="-2.846126"><ele>840.0</ele><time>2026-04-19T08:14:12.947Z</time></trkpt><trkpt lat="38.9381529" lon="-2.8460564"><ele>840.0</ele><time>2026-04-19T08:14:15.947Z</time></trkpt><trkpt lat="38.9381275" lon="-2.8459787"><ele>840.0</ele><time>2026-04-19T08:14:18.947Z</time></trkpt><trkpt lat="38.9381148" lon="-2.8458862"><ele>840.0</ele><time>2026-04-19T08:14:22.947Z</time></trkpt><trkpt lat="38.938084" lon="-2.845793"><ele>840.0</ele><time>2026-04-19T08:14:28.947Z</time></trkpt><trkpt lat="38.9380933" lon="-2.8457013"><ele>840.0</ele><time>2026-04-19T08:14:32.947Z</time></trkpt><trkpt lat="38.9381098" lon="-2.8456194"><ele>840.0</ele><time>2026-04-19T08:14:38.947Z</time></trkpt><trkpt lat="38.9381136" lon="-2.8455318"><ele>840.0</ele><time>2026-04-19T08:14:43.947Z</time></trkpt><trkpt lat="38.9381425" lon="-2.8454586"><ele>842.2857142857143</ele><time>2026-04-19T08:14:48.947Z</time></trkpt><trkpt lat="38.9381473" lon="-2.8453613"><ele>844.5714285714286</ele><time>2026-04-19T08:14:53.948Z</time></trkpt><trkpt lat="38.938169" lon="-2.8452845"><ele>846.8571428571429</ele><time>2026-04-19T08:14:56.947Z</time></trkpt><trkpt lat="38.9381879" lon="-2.8451853"><ele>849.1428571428571</ele><time>2026-04-19T08:15:00.947Z</time></trkpt><trkpt lat="38.9381991" lon="-2.8450991"><ele>851.4285714285714</ele><time>2026-04-19T08:15:03.947Z</time></trkpt><trkpt lat="38.93822" lon="-2.8450179"><ele>853.7142857142858</ele><time>2026-04-19T08:15:06.947Z</time></trkpt><trkpt lat="38.93824" lon="-2.8449409"><ele>856.0</ele><time>2026-04-19T08:15:09.947Z</time></trkpt><trkpt lat="38.9382685" lon="-2.8448655"><ele>856.7142857142858</ele><time>2026-04-19T08:15:12.947Z</time></trkpt><trkpt lat="38.9382997" lon="-2.8447879"><ele>857.4285714285714</ele><time>2026-04-19T08:15:15.947Z</time></trkpt><trkpt lat="38.9383186" lon="-2.8447047"><ele>858.1428571428571</ele><time>2026-04-19T08:15:18.947Z</time></trkpt><trkpt lat="38.9383407" lon="-2.8446176"><ele>858.8571428571429</ele><time>2026-04-19T08:15:21.948Z</time></trkpt><trkpt lat="38.9383597" lon="-2.8445256"><ele>859.5714285714286</ele><time>2026-04-19T08:15:26.947Z</time></trkpt><trkpt lat="38.9383762" lon="-2.8444417"><ele>860.2857142857143</ele><time>2026-04-19T08:15:30.946Z</time></trkpt><trkpt lat="38.9383858" lon="-2.8443474"><ele>861.0</ele><time>2026-04-19T08:15:35.947Z</time></trkpt><trkpt lat="38.938412" lon="-2.8442544"><ele>861.0</ele><time>2026-04-19T08:15:40.947Z</time></trkpt><trkpt lat="38.938425" lon="-2.8441604"><ele>861.0</ele><time>2026-04-19T08:15:46.947Z</time></trkpt><trkpt lat="38.9384693" lon="-2.844095"><ele>861.0</ele><time>2026-04-19T08:15:51.947Z</time></trkpt><trkpt lat="38.9384932" lon="-2.8440139"><ele>861.0</ele><time>2026-04-19T08:15:58.947Z</time></trkpt><trkpt lat="38.9385283" lon="-2.8439245"><ele>861.0</ele><time>2026-04-19T08:16:03.947Z</time></trkpt><trkpt lat="38.9385519" lon="-2.8438491"><ele>861.0</ele><time>2026-04-19T08:16:06.947Z</time></trkpt><trkpt lat="38.9385844" lon="-2.8437554"><ele>861.0</ele><time>2026-04-19T08:16:09.947Z</time></trkpt><trkpt lat="38.93861" lon="-2.8436653"><ele>861.0</ele><time>2026-04-19T08:16:12.947Z</time></trkpt><trkpt lat="38.9386429" lon="-2.8435737"><ele>861.0</ele><time>2026-04-19T08:16:15.947Z</time></trkpt><trkpt lat="38.9386625" lon="-2.8434934"><ele>861.0</ele><time>2026-04-19T08:16:17.948Z</time></trkpt><trkpt lat="38.938682" lon="-2.8434012"><ele>861.0</ele><time>2026-04-19T08:16:19.947Z</time></trkpt><trkpt lat="38.9386889" lon="-2.8432982"><ele>861.0</ele><time>2026-04-19T08:16:21.947Z</time></trkpt><trkpt lat="38.9386878" lon="-2.8431861"><ele>861.0</ele><time>2026-04-19T08:16:23.947Z</time></trkpt><trkpt lat="38.9387079" lon="-2.8430648"><ele>862.4</ele><time>2026-04-19T08:16:25.947Z</time></trkpt><trkpt lat="38.9387182" lon="-2.8429421"><ele>863.8</ele><time>2026-04-19T08:16:27.947Z</time></trkpt><trkpt lat="38.9387275" lon="-2.842799"><ele>865.1999999999999</ele><time>2026-04-19T08:16:29.947Z</time></trkpt><trkpt lat="38.9387197" lon="-2.8426648"><ele>866.5999999999999</ele><time>2026-04-19T08:16:31.947Z</time></trkpt><trkpt lat="38.9387003" lon="-2.8425614"><ele>868.0</ele><time>2026-04-19T08:16:33.947Z</time></trkpt><trkpt lat="38.9386872" lon="-2.8424508"><ele>868.4285714285714</ele><time>2026-04-19T08:16:35.947Z</time></trkpt><trkpt lat="38.9386979" lon="-2.8423648"><ele>868.8571428571429</ele><time>2026-04-19T08:16:37.946Z</time></trkpt><trkpt lat="38.9387101" lon="-2.8422658"><ele>869.2857142857142</ele><time>2026-04-19T08:16:39.947Z</time></trkpt><trkpt lat="38.9387064" lon="-2.8421684"><ele>869.7142857142858</ele><time>2026-04-19T08:16:41.947Z</time></trkpt><trkpt lat="38.9387069" lon="-2.842076"><ele>870.1428571428571</ele><time>2026-04-19T08:16:43.947Z</time></trkpt><trkpt lat="38.9387088" lon="-2.841983"><ele>870.5714285714286</ele><time>2026-04-19T08:16:45.946Z</time></trkpt><trkpt lat="38.9387209" lon="-2.8418871"><ele>871.0</ele><time>2026-04-19T08:16:47.947Z</time></trkpt><trkpt lat="38.9387367" lon="-2.841806"><ele>872.3333333333333</ele><time>2026-04-19T08:16:49.947Z</time></trkpt><trkpt lat="38.9387401" lon="-2.8416938"><ele>873.6666666666666</ele><time>2026-04-19T08:16:52.947Z</time></trkpt><trkpt lat="38.9387281" lon="-2.8415959"><ele>875.0</ele><time>2026-04-19T08:16:55.947Z</time></trkpt><trkpt lat="38.9387292" lon="-2.8414925"><ele>876.3333333333333</ele><time>2026-04-19T08:16:58.947Z</time></trkpt><trkpt lat="38.9387263" lon="-2.8413793"><ele>877.6666666666666</ele><time>2026-04-19T08:17:01.947Z</time></trkpt><trkpt lat="38.9387228" lon="-2.8412946"><ele>879.0</ele><time>2026-04-19T08:17:05.947Z</time></trkpt><trkpt lat="38.938748" lon="-2.8412074"><ele>879.0</ele><time>2026-04-19T08:17:11.947Z</time></trkpt><trkpt lat="38.9387521" lon="-2.8411254"><ele>879.0</ele><time>2026-04-19T08:17:16.947Z</time></trkpt><trkpt lat="38.9387518" lon="-2.8410343"><ele>879.0</ele><time>2026-04-19T08:17:21.947Z</time></trkpt><trkpt lat="38.9387588" lon="-2.8409418"><ele>879.0</ele><time>2026-04-19T08:17:25.947Z</time></trkpt><trkpt lat="38.9387631" lon="-2.840855"><ele>879.0</ele><time>2026-04-19T08:17:29.947Z</time></trkpt><trkpt lat="38.9387675" lon="-2.8407675"><ele>879.0</ele><time>2026-04-19T08:17:33.947Z</time></trkpt><trkpt lat="38.9387815" lon="-2.8406785"><ele>879.0</ele><time>2026-04-19T08:17:37.947Z</time></trkpt><trkpt lat="38.9387955" lon="-2.8405986"><ele>881.0</ele><time>2026-04-19T08:17:40.947Z</time></trkpt><trkpt lat="38.9387794" lon="-2.8405184"><ele>883.0</ele><time>2026-04-19T08:17:43.946Z</time></trkpt><trkpt lat="38.9387815" lon="-2.8404308"><ele>885.0</ele><time>2026-04-19T08:17:47.947Z</time></trkpt><trkpt lat="38.9387974" lon="-2.8403378"><ele>887.0</ele><time>2026-04-19T08:17:51.947Z</time></trkpt><trkpt lat="38.9388019" lon="-2.8402435"><ele>889.0</ele><time>2026-04-19T08:17:55.947Z</time></trkpt><trkpt lat="38.9387859" lon="-2.8401626"><ele>891.0</ele><time>2026-04-19T08:17:59.946Z</time></trkpt><trkpt lat="38.9388009" lon="-2.8400815"><ele>893.0</ele><time>2026-04-19T08:18:03.945Z</time></trkpt><trkpt lat="38.9387989" lon="-2.8399987"><ele>894.2857142857143</ele><time>2026-04-19T08:18:07.946Z</time></trkpt><trkpt lat="38.9387995" lon="-2.8399139"><ele>895.5714285714287</ele><time>2026-04-19T08:18:11.946Z</time></trkpt><trkpt lat="38.9388244" lon="-2.8398297"><ele>896.8571428571429</ele><time>2026-04-19T08:18:41.946Z</time></trkpt><trkpt lat="38.9388271" lon="-2.839739"><ele>898.1428571428571</ele><time>2026-04-19T08:18:47.946Z</time></trkpt><trkpt lat="38.9388221" lon="-2.8396539"><ele>899.4285714285714</ele><time>2026-04-19T08:18:51.946Z</time></trkpt><trkpt lat="38.9388343" lon="-2.8395676"><ele>900.7142857142857</ele><time>2026-04-19T08:18:55.946Z</time></trkpt><trkpt lat="38.9388657" lon="-2.8394971"><ele>902.0</ele><time>2026-04-19T08:18:58.945Z</time></trkpt><trkpt lat="38.9388758" lon="-2.8394043"><ele>902.0000000000001</ele><time>2026-04-19T08:19:01.946Z</time></trkpt><trkpt lat="38.9388421" lon="-2.8393058"><ele>902.0</ele><time>2026-04-19T08:19:04.946Z</time></trkpt><trkpt lat="38.9388342" lon="-2.8392005"><ele>902.0</ele><time>2026-04-19T08:19:07.946Z</time></trkpt><trkpt lat="38.9388402" lon="-2.8391177"><ele>902.0</ele><time>2026-04-19T08:19:09.946Z</time></trkpt><trkpt lat="38.9388366" lon="-2.8390208"><ele>902.0000000000001</ele><time>2026-04-19T08:19:11.946Z</time></trkpt><trkpt lat="38.9388174" lon="-2.838917"><ele>902.0</ele><time>2026-04-19T08:19:13.946Z</time></trkpt><trkpt lat="38.9388068" lon="-2.838807"><ele>902.2</ele><time>2026-04-19T08:19:15.946Z</time></trkpt><trkpt lat="38.9388023" lon="-2.8386799"><ele>902.4000000000001</ele><time>2026-04-19T08:19:17.946Z</time></trkpt><trkpt lat="38.9388012" lon="-2.8385543"><ele>902.5999999999999</ele><time>2026-04-19T08:19:19.946Z</time></trkpt><trkpt lat="38.9388257" lon="-2.8384258"><ele>902.8</ele><time>2026-04-19T08:19:21.946Z</time></trkpt><trkpt lat="38.9388553" lon="-2.8382826"><ele>903.0</ele><time>2026-04-19T08:19:23.946Z</time></trkpt><trkpt lat="38.938895" lon="-2.8381292"><ele>902.4285714285714</ele><time>2026-04-19T08:19:25.946Z</time></trkpt><trkpt lat="38.9389078" lon="-2.8380475"><ele>901.8571428571429</ele><time>2026-04-19T08:19:26.947Z</time></trkpt><trkpt lat="38.9389244" lon="-2.8379675"><ele>901.2857142857142</ele><time>2026-04-19T08:19:27.946Z</time></trkpt><trkpt lat="38.9389544" lon="-2.8378947"><ele>900.7142857142857</ele><time>2026-04-19T08:19:28.946Z</time></trkpt><trkpt lat="38.9389872" lon="-2.8378244"><ele>900.1428571428571</ele><time>2026-04-19T08:19:29.947Z</time></trkpt><trkpt lat="38.9390381" lon="-2.837681"><ele>899.5714285714284</ele><time>2026-04-19T08:19:31.947Z</time></trkpt><trkpt lat="38.9390722" lon="-2.8376126"><ele>898.9999999999999</ele><time>2026-04-19T08:19:32.946Z</time></trkpt><trkpt lat="38.9391319" lon="-2.8374706"><ele>898.6666666666667</ele><time>2026-04-19T08:19:34.946Z</time></trkpt><trkpt lat="38.9391616" lon="-2.8373967"><ele>898.3333333333334</ele><time>2026-04-19T08:19:35.945Z</time></trkpt><trkpt lat="38.9391854" lon="-2.8373207"><ele>898.0</ele><time>2026-04-19T08:19:36.946Z</time></trkpt><trkpt lat="38.9392097" lon="-2.837237"><ele>897.6666666666667</ele><time>2026-04-19T08:19:37.946Z</time></trkpt><trkpt lat="38.9392283" lon="-2.8371554"><ele>897.3333333333334</ele><time>2026-04-19T08:19:38.946Z</time></trkpt><trkpt lat="38.9392526" lon="-2.8370096"><ele>897.0</ele><time>2026-04-19T08:19:40.946Z</time></trkpt><trkpt lat="38.9392933" lon="-2.8368977"><ele>897.0</ele><time>2026-04-19T08:19:42.946Z</time></trkpt><trkpt lat="38.939313" lon="-2.8368048"><ele>897.0</ele><time>2026-04-19T08:19:44.946Z</time></trkpt><trkpt lat="38.9393226" lon="-2.8367062"><ele>897.0</ele><time>2026-04-19T08:19:46.946Z</time></trkpt><trkpt lat="38.9393457" lon="-2.8366137"><ele>897.0</ele><time>2026-04-19T08:19:48.946Z</time></trkpt><trkpt lat="38.9393591" lon="-2.8365147"><ele>897.0</ele><time>2026-04-19T08:19:50.946Z</time></trkpt><trkpt lat="38.9393714" lon="-2.8364162"><ele>897.0</ele><time>2026-04-19T08:19:52.946Z</time></trkpt><trkpt lat="38.9393809" lon="-2.8363243"><ele>897.0</ele><time>2026-04-19T08:19:54.946Z</time></trkpt><trkpt lat="38.9393843" lon="-2.8362346"><ele>897.0</ele><time>2026-04-19T08:19:56.946Z</time></trkpt><trkpt lat="38.9393917" lon="-2.8361439"><ele>897.0</ele><time>2026-04-19T08:19:58.945Z</time></trkpt><trkpt lat="38.9393964" lon="-2.8360561"><ele>897.0</ele><time>2026-04-19T08:20:00.946Z</time></trkpt><trkpt lat="38.9393958" lon="-2.8359664"><ele>897.0</ele><time>2026-04-19T08:20:02.946Z</time></trkpt><trkpt lat="38.9393903" lon="-2.8358636"><ele>897.0</ele><time>2026-04-19T08:20:04.946Z</time></trkpt><trkpt lat="38.9393678" lon="-2.8357834"><ele>897.0</ele><time>2026-04-19T08:20:06.946Z</time></trkpt><trkpt lat="38.9393311" lon="-2.8357155"><ele>896.1666666666666</ele><time>2026-04-19T08:20:09.946Z</time></trkpt><trkpt lat="38.9392801" lon="-2.8356363"><ele>895.3333333333333</ele><time>2026-04-19T08:20:12.946Z</time></trkpt><trkpt lat="38.939247" lon="-2.8355327"><ele>894.5</ele><time>2026-04-19T08:20:15.946Z</time></trkpt><trkpt lat="38.9393229" lon="-2.8355313"><ele>893.6666666666666</ele><time>2026-04-19T08:20:19.946Z</time></trkpt><trkpt lat="38.9393407" lon="-2.8356482"><ele>892.8333333333333</ele><time>2026-04-19T08:20:21.946Z</time></trkpt><trkpt lat="38.9393662" lon="-2.8357565"><ele>892.0</ele><time>2026-04-19T08:20:23.946Z</time></trkpt><trkpt lat="38.9393918" lon="-2.8358733"><ele>892.8333333333333</ele><time>2026-04-19T08:20:25.946Z</time></trkpt><trkpt lat="38.9393995" lon="-2.8359894"><ele>893.6666666666666</ele><time>2026-04-19T08:20:27.946Z</time></trkpt><trkpt lat="38.9393951" lon="-2.8361026"><ele>894.5</ele><time>2026-04-19T08:20:29.946Z</time></trkpt><trkpt lat="38.939377" lon="-2.8362127"><ele>895.3333333333333</ele><time>2026-04-19T08:20:31.945Z</time></trkpt><trkpt lat="38.9393687" lon="-2.8363205"><ele>896.1666666666666</ele><time>2026-04-19T08:20:33.946Z</time></trkpt><trkpt lat="38.9393597" lon="-2.836429"><ele>897.0</ele><time>2026-04-19T08:20:35.946Z</time></trkpt><trkpt lat="38.9393407" lon="-2.8365369"><ele>897.0</ele><time>2026-04-19T08:20:37.946Z</time></trkpt><trkpt lat="38.9393286" lon="-2.8366389"><ele>897.0</ele><time>2026-04-19T08:20:39.946Z</time></trkpt><trkpt lat="38.9393138" lon="-2.8367386"><ele>897.0</ele><time>2026-04-19T08:20:41.946Z</time></trkpt><trkpt lat="38.9392929" lon="-2.8368407"><ele>897.0</ele><time>2026-04-19T08:20:43.946Z</time></trkpt><trkpt lat="38.9392169" lon="-2.8368641"><ele>897.0</ele><time>2026-04-19T08:20:46.946Z</time></trkpt><trkpt lat="38.9391591" lon="-2.8367706"><ele>897.0</ele><time>2026-04-19T08:20:48.946Z</time></trkpt><trkpt lat="38.9390687" lon="-2.8367117"><ele>897.0</ele><time>2026-04-19T08:20:50.946Z</time></trkpt><trkpt lat="38.9389732" lon="-2.8367054"><ele>897.0</ele><time>2026-04-19T08:20:52.946Z</time></trkpt><trkpt lat="38.9388875" lon="-2.8367632"><ele>897.0</ele><time>2026-04-19T08:20:54.946Z</time></trkpt><trkpt lat="38.9388184" lon="-2.8368548"><ele>897.0</ele><time>2026-04-19T08:20:56.946Z</time></trkpt><trkpt lat="38.9387612" lon="-2.8369927"><ele>897.0</ele><time>2026-04-19T08:20:58.946Z</time></trkpt><trkpt lat="38.9387222" lon="-2.8370605"><ele>897.0</ele><time>2026-04-19T08:20:59.946Z</time></trkpt><trkpt lat="38.9386782" lon="-2.8371415"><ele>897.0</ele><time>2026-04-19T08:21:00.946Z</time></trkpt><trkpt lat="38.9385889" lon="-2.8372751"><ele>897.0</ele><time>2026-04-19T08:21:02.946Z</time></trkpt><trkpt lat="38.9385525" lon="-2.8373679"><ele>897.0</ele><time>2026-04-19T08:21:03.946Z</time></trkpt><trkpt lat="38.9384932" lon="-2.8374571"><ele>897.0</ele><time>2026-04-19T08:21:04.945Z</time></trkpt><trkpt lat="38.9384333" lon="-2.83754"><ele>896.7142857142858</ele><time>2026-04-19T08:21:05.946Z</time></trkpt><trkpt lat="38.9383765" lon="-2.8376169"><ele>896.4285714285713</ele><time>2026-04-19T08:21:06.946Z</time></trkpt><trkpt lat="38.9383176" lon="-2.8376875"><ele>896.1428571428571</ele><time>2026-04-19T08:21:07.946Z</time></trkpt><trkpt lat="38.9382548" lon="-2.8377471"><ele>895.8571428571429</ele><time>2026-04-19T08:21:08.946Z</time></trkpt><trkpt lat="38.9382009" lon="-2.8378067"><ele>895.5714285714287</ele><time>2026-04-19T08:21:09.946Z</time></trkpt><trkpt lat="38.9381474" lon="-2.8378591"><ele>895.2857142857142</ele><time>2026-04-19T08:21:10.946Z</time></trkpt><trkpt lat="38.9380881" lon="-2.837905"><ele>895.0</ele><time>2026-04-19T08:21:11.946Z</time></trkpt><trkpt lat="38.937997" lon="-2.8379918"><ele>895.0</ele><time>2026-04-19T08:21:13.946Z</time></trkpt><trkpt lat="38.937918" lon="-2.8380704"><ele>895.0</ele><time>2026-04-19T08:21:15.945Z</time></trkpt><trkpt lat="38.9378549" lon="-2.8381703"><ele>895.0</ele><time>2026-04-19T08:21:17.946Z</time></trkpt><trkpt lat="38.9377939" lon="-2.8383009"><ele>895.0</ele><time>2026-04-19T08:21:19.946Z</time></trkpt><trkpt lat="38.9377554" lon="-2.8383699"><ele>895.0</ele><time>2026-04-19T08:21:20.946Z</time></trkpt><trkpt lat="38.9377202" lon="-2.8384452"><ele>893.6</ele><time>2026-04-19T08:21:21.946Z</time></trkpt><trkpt lat="38.9376766" lon="-2.8385073"><ele>892.2</ele><time>2026-04-19T08:21:22.946Z</time></trkpt><trkpt lat="38.9376003" lon="-2.8386148"><ele>890.8</ele><time>2026-04-19T08:21:24.946Z</time></trkpt><trkpt lat="38.9375296" lon="-2.8387043"><ele>889.4</ele><time>2026-04-19T08:21:26.946Z</time></trkpt><trkpt lat="38.9374597" lon="-2.8388093"><ele>888.0</ele><time>2026-04-19T08:21:28.946Z</time></trkpt><trkpt lat="38.9373847" lon="-2.8388873"><ele>888.0</ele><time>2026-04-19T08:21:30.946Z</time></trkpt><trkpt lat="38.9373041" lon="-2.8389605"><ele>888.0</ele><time>2026-04-19T08:21:32.946Z</time></trkpt><trkpt lat="38.9372338" lon="-2.8390793"><ele>888.0</ele><time>2026-04-19T08:21:34.945Z</time></trkpt><trkpt lat="38.9371528" lon="-2.839199"><ele>888.0</ele><time>2026-04-19T08:21:36.946Z</time></trkpt><trkpt lat="38.9370804" lon="-2.8393"><ele>888.0</ele><time>2026-04-19T08:21:38.946Z</time></trkpt><trkpt lat="38.9370195" lon="-2.8394112"><ele>888.8</ele><time>2026-04-19T08:21:40.946Z</time></trkpt><trkpt lat="38.9369684" lon="-2.8395127"><ele>889.5999999999999</ele><time>2026-04-19T08:21:42.946Z</time></trkpt><trkpt lat="38.9369562" lon="-2.8396087"><ele>890.4000000000001</ele><time>2026-04-19T08:21:44.946Z</time></trkpt><trkpt lat="38.9369487" lon="-2.8397265"><ele>891.2</ele><time>2026-04-19T08:21:46.946Z</time></trkpt><trkpt lat="38.9369089" lon="-2.8398704"><ele>892.0</ele><time>2026-04-19T08:21:48.946Z</time></trkpt><trkpt lat="38.9368757" lon="-2.8400185"><ele>890.2</ele><time>2026-04-19T08:21:50.946Z</time></trkpt><trkpt lat="38.9368376" lon="-2.8401721"><ele>888.4000000000001</ele><time>2026-04-19T08:21:52.945Z</time></trkpt><trkpt lat="38.936803" lon="-2.8403061"><ele>886.5999999999999</ele><time>2026-04-19T08:21:54.946Z</time></trkpt><trkpt lat="38.936781" lon="-2.8404203"><ele>884.8</ele><time>2026-04-19T08:21:56.946Z</time></trkpt><trkpt lat="38.9367738" lon="-2.8405131"><ele>883.0</ele><time>2026-04-19T08:21:58.945Z</time></trkpt><trkpt lat="38.9367932" lon="-2.8406277"><ele>882.9999999999999</ele><time>2026-04-19T08:22:01.946Z</time></trkpt><trkpt lat="38.9368128" lon="-2.8407133"><ele>883.0</ele><time>2026-04-19T08:22:03.946Z</time></trkpt><trkpt lat="38.9368706" lon="-2.8407771"><ele>883.0</ele><time>2026-04-19T08:22:05.946Z</time></trkpt><trkpt lat="38.9369487" lon="-2.8408397"><ele>883.0</ele><time>2026-04-19T08:22:07.946Z</time></trkpt><trkpt lat="38.9370285" lon="-2.8409019"><ele>882.9999999999999</ele><time>2026-04-19T08:22:09.946Z</time></trkpt><trkpt lat="38.9371168" lon="-2.8409869"><ele>883.0</ele><time>2026-04-19T08:22:11.946Z</time></trkpt><trkpt lat="38.9371968" lon="-2.8410858"><ele>884.0</ele><time>2026-04-19T08:22:13.945Z</time></trkpt><trkpt lat="38.9372662" lon="-2.8411745"><ele>885.0</ele><time>2026-04-19T08:22:15.946Z</time></trkpt><trkpt lat="38.9373379" lon="-2.8412526"><ele>886.0</ele><time>2026-04-19T08:22:17.946Z</time></trkpt><trkpt lat="38.9374397" lon="-2.8413374"><ele>887.0</ele><time>2026-04-19T08:22:19.946Z</time></trkpt><trkpt lat="38.9375016" lon="-2.8413825"><ele>888.0</ele><time>2026-04-19T08:22:20.946Z</time></trkpt><trkpt lat="38.9375614" lon="-2.8414313"><ele>888.0</ele><time>2026-04-19T08:22:21.946Z</time></trkpt><trkpt lat="38.9376109" lon="-2.8414944"><ele>888.0</ele><time>2026-04-19T08:22:22.946Z</time></trkpt><trkpt lat="38.9376498" lon="-2.8415708"><ele>888.0</ele><time>2026-04-19T08:22:23.946Z</time></trkpt><trkpt lat="38.9376903" lon="-2.8417154"><ele>888.0</ele><time>2026-04-19T08:22:25.945Z</time></trkpt><trkpt lat="38.9377161" lon="-2.8418354"><ele>888.0</ele><time>2026-04-19T08:22:27.946Z</time></trkpt><trkpt lat="38.9377474" lon="-2.8419601"><ele>886.0</ele><time>2026-04-19T08:22:29.946Z</time></trkpt><trkpt lat="38.937781" lon="-2.8420807"><ele>884.0</ele><time>2026-04-19T08:22:31.946Z</time></trkpt><trkpt lat="38.9378337" lon="-2.8421768"><ele>882.0</ele><time>2026-04-19T08:22:33.946Z</time></trkpt><trkpt lat="38.9378998" lon="-2.8422545"><ele>880.0</ele><time>2026-04-19T08:22:35.946Z</time></trkpt><trkpt lat="38.9379707" lon="-2.8423283"><ele>878.0</ele><time>2026-04-19T08:22:37.946Z</time></trkpt><trkpt lat="38.9380398" lon="-2.8424044"><ele>878.0000000000001</ele><time>2026-04-19T08:22:39.946Z</time></trkpt><trkpt lat="38.9381207" lon="-2.8424702"><ele>878.0</ele><time>2026-04-19T08:22:41.946Z</time></trkpt><trkpt lat="38.9381988" lon="-2.8425293"><ele>878.0</ele><time>2026-04-19T08:22:43.946Z</time></trkpt><trkpt lat="38.9382702" lon="-2.8425868"><ele>878.0</ele><time>2026-04-19T08:22:45.946Z</time></trkpt><trkpt lat="38.9383355" lon="-2.8426371"><ele>878.0000000000001</ele><time>2026-04-19T08:22:47.946Z</time></trkpt><trkpt lat="38.9383991" lon="-2.8426905"><ele>878.0</ele><time>2026-04-19T08:22:49.946Z</time></trkpt><trkpt lat="38.9384521" lon="-2.8427458"><ele>876.3333333333334</ele><time>2026-04-19T08:22:51.946Z</time></trkpt><trkpt lat="38.9385157" lon="-2.8428282"><ele>874.6666666666667</ele><time>2026-04-19T08:22:54.946Z</time></trkpt><trkpt lat="38.9385506" lon="-2.8428967"><ele>873.0</ele><time>2026-04-19T08:22:56.946Z</time></trkpt><trkpt lat="38.9385808" lon="-2.8429738"><ele>871.3333333333333</ele><time>2026-04-19T08:22:58.945Z</time></trkpt><trkpt lat="38.9386399" lon="-2.8430602"><ele>869.6666666666666</ele><time>2026-04-19T08:23:01.946Z</time></trkpt><trkpt lat="38.9387093" lon="-2.8430591"><ele>868.0</ele><time>2026-04-19T08:23:04.946Z</time></trkpt><trkpt lat="38.9387122" lon="-2.8429529"><ele>867.9999999999999</ele><time>2026-04-19T08:23:07.946Z</time></trkpt><trkpt lat="38.9387166" lon="-2.8428517"><ele>868.0</ele><time>2026-04-19T08:23:09.946Z</time></trkpt><trkpt lat="38.9387226" lon="-2.8427524"><ele>868.0</ele><time>2026-04-19T08:23:11.946Z</time></trkpt><trkpt lat="38.9387151" lon="-2.8426568"><ele>868.0</ele><time>2026-04-19T08:23:13.946Z</time></trkpt><trkpt lat="38.9386998" lon="-2.842572"><ele>867.9999999999999</ele><time>2026-04-19T08:23:15.946Z</time></trkpt><trkpt lat="38.9386861" lon="-2.8424661"><ele>868.0</ele><time>2026-04-19T08:23:18.946Z</time></trkpt><trkpt lat="38.9386936" lon="-2.8423675"><ele>868.4285714285714</ele><time>2026-04-19T08:23:21.946Z</time></trkpt><trkpt lat="38.9387011" lon="-2.8422779"><ele>868.8571428571429</ele><time>2026-04-19T08:23:24.946Z</time></trkpt><trkpt lat="38.9386833" lon="-2.842173"><ele>869.2857142857142</ele><time>2026-04-19T08:23:27.945Z</time></trkpt><trkpt lat="38.9386966" lon="-2.8420735"><ele>869.7142857142858</ele><time>2026-04-19T08:23:31.946Z</time></trkpt><trkpt lat="38.9387079" lon="-2.8419875"><ele>870.1428571428571</ele><time>2026-04-19T08:23:35.945Z</time></trkpt><trkpt lat="38.9387144" lon="-2.8418967"><ele>870.5714285714286</ele><time>2026-04-19T08:23:39.946Z</time></trkpt><trkpt lat="38.9387077" lon="-2.8417996"><ele>871.0</ele><time>2026-04-19T08:23:44.946Z</time></trkpt><trkpt lat="38.9387373" lon="-2.8417147"><ele>872.1428571428571</ele><time>2026-04-19T08:23:49.946Z</time></trkpt><trkpt lat="38.9387186" lon="-2.8416315"><ele>873.2857142857142</ele><time>2026-04-19T08:23:54.946Z</time></trkpt><trkpt lat="38.9387222" lon="-2.8415473"><ele>874.4285714285714</ele><time>2026-04-19T08:24:00.946Z</time></trkpt><trkpt lat="38.9387256" lon="-2.8414491"><ele>875.5714285714286</ele><time>2026-04-19T08:24:06.946Z</time></trkpt><trkpt lat="38.9387262" lon="-2.8413618"><ele>876.7142857142858</ele><time>2026-04-19T08:24:10.946Z</time></trkpt><trkpt lat="38.938742" lon="-2.8412682"><ele>877.8571428571429</ele><time>2026-04-19T08:24:14.946Z</time></trkpt><trkpt lat="38.9387583" lon="-2.8411723"><ele>879.0</ele><time>2026-04-19T08:24:19.946Z</time></trkpt><trkpt lat="38.9387632" lon="-2.8410822"><ele>879.0</ele><time>2026-04-19T08:24:23.946Z</time></trkpt><trkpt lat="38.9387725" lon="-2.8410012"><ele>879.0</ele><time>2026-04-19T08:24:27.946Z</time></trkpt><trkpt lat="38.9387763" lon="-2.8409099"><ele>879.0</ele><time>2026-04-19T08:24:31.946Z</time></trkpt><trkpt lat="38.9387793" lon="-2.8408217"><ele>879.0</ele><time>2026-04-19T08:24:35.945Z</time></trkpt><trkpt lat="38.9387877" lon="-2.8407363"><ele>879.0</ele><time>2026-04-19T08:24:40.946Z</time></trkpt><trkpt lat="38.9388052" lon="-2.8406498"><ele>879.0</ele><time>2026-04-19T08:24:45.946Z</time></trkpt><trkpt lat="38.938792" lon="-2.8405524"><ele>879.0</ele><time>2026-04-19T08:24:50.946Z</time></trkpt><trkpt lat="38.938786" lon="-2.840458"><ele>881.0</ele><time>2026-04-19T08:24:55.946Z</time></trkpt><trkpt lat="38.9388144" lon="-2.8403727"><ele>883.0</ele><time>2026-04-19T08:25:01.946Z</time></trkpt><trkpt lat="38.9388119" lon="-2.8402801"><ele>885.0</ele><time>2026-04-19T08:25:06.947Z</time></trkpt><trkpt lat="38.9388115" lon="-2.8401829"><ele>887.0</ele><time>2026-04-19T08:25:10.946Z</time></trkpt><trkpt lat="38.9388126" lon="-2.8400893"><ele>889.0</ele><time>2026-04-19T08:25:15.946Z</time></trkpt><trkpt lat="38.9388189" lon="-2.8400021"><ele>891.0</ele><time>2026-04-19T08:25:19.945Z</time></trkpt><trkpt lat="38.9388181" lon="-2.8399134"><ele>893.0</ele><time>2026-04-19T08:25:23.946Z</time></trkpt><trkpt lat="38.9388281" lon="-2.8398154"><ele>894.5000000000001</ele><time>2026-04-19T08:25:27.946Z</time></trkpt><trkpt lat="38.9388279" lon="-2.8397062"><ele>896.0</ele><time>2026-04-19T08:25:31.947Z</time></trkpt><trkpt lat="38.9388211" lon="-2.8396058"><ele>897.5</ele><time>2026-04-19T08:25:34.946Z</time></trkpt><trkpt lat="38.9388524" lon="-2.8394944"><ele>899.0</ele><time>2026-04-19T08:25:37.946Z</time></trkpt><trkpt lat="38.9388743" lon="-2.8393951"><ele>900.5000000000001</ele><time>2026-04-19T08:25:39.945Z</time></trkpt><trkpt lat="38.9388468" lon="-2.8393108"><ele>902.0</ele><time>2026-04-19T08:25:41.945Z</time></trkpt><trkpt lat="38.9388358" lon="-2.8392185"><ele>902.2</ele><time>2026-04-19T08:25:43.945Z</time></trkpt><trkpt lat="38.9388362" lon="-2.8391146"><ele>902.4000000000001</ele><time>2026-04-19T08:25:45.946Z</time></trkpt><trkpt lat="38.9388363" lon="-2.8390029"><ele>902.5999999999999</ele><time>2026-04-19T08:25:47.946Z</time></trkpt><trkpt lat="38.9388231" lon="-2.8388852"><ele>902.8</ele><time>2026-04-19T08:25:49.946Z</time></trkpt><trkpt lat="38.9388148" lon="-2.8387541"><ele>903.0</ele><time>2026-04-19T08:25:51.946Z</time></trkpt><trkpt lat="38.9388114" lon="-2.8386413"><ele>903.0</ele><time>2026-04-19T08:25:53.946Z</time></trkpt><trkpt lat="38.9388065" lon="-2.8385249"><ele>903.0</ele><time>2026-04-19T08:25:55.946Z</time></trkpt><trkpt lat="38.938833" lon="-2.8384099"><ele>903.0</ele><time>2026-04-19T08:25:57.946Z</time></trkpt><trkpt lat="38.9388569" lon="-2.838273"><ele>903.0</ele><time>2026-04-19T08:25:59.945Z</time></trkpt><trkpt lat="38.9388956" lon="-2.8381345"><ele>903.0</ele><time>2026-04-19T08:26:01.946Z</time></trkpt><trkpt lat="38.9389137" lon="-2.8380569"><ele>902.2</ele><time>2026-04-19T08:26:02.946Z</time></trkpt><trkpt lat="38.938964" lon="-2.8379116"><ele>901.4</ele><time>2026-04-19T08:26:04.946Z</time></trkpt><trkpt lat="38.9389924" lon="-2.8378371"><ele>900.6000000000001</ele><time>2026-04-19T08:26:05.946Z</time></trkpt><trkpt lat="38.9390455" lon="-2.8376958"><ele>899.8000000000001</ele><time>2026-04-19T08:26:07.946Z</time></trkpt><trkpt lat="38.9391043" lon="-2.8375661"><ele>899.0</ele><time>2026-04-19T08:26:09.946Z</time></trkpt><trkpt lat="38.9391604" lon="-2.8374253"><ele>898.6</ele><time>2026-04-19T08:26:11.946Z</time></trkpt><trkpt lat="38.9392028" lon="-2.8372743"><ele>898.2</ele><time>2026-04-19T08:26:13.946Z</time></trkpt><trkpt lat="38.9392337" lon="-2.8371193"><ele>897.8000000000001</ele><time>2026-04-19T08:26:15.945Z</time></trkpt><trkpt lat="38.9392681" lon="-2.8369984"><ele>897.4000000000001</ele><time>2026-04-19T08:26:17.946Z</time></trkpt><trkpt lat="38.9392573" lon="-2.836905"><ele>897.0</ele><time>2026-04-19T08:26:19.946Z</time></trkpt><trkpt lat="38.9391891" lon="-2.8368132"><ele>897.1666666666666</ele><time>2026-04-19T08:26:21.946Z</time></trkpt><trkpt lat="38.9391397" lon="-2.8367624"><ele>897.3333333333333</ele><time>2026-04-19T08:26:22.946Z</time></trkpt><trkpt lat="38.939083" lon="-2.8367224"><ele>897.5</ele><time>2026-04-19T08:26:23.946Z</time></trkpt><trkpt lat="38.9390209" lon="-2.8366779"><ele>897.6666666666666</ele><time>2026-04-19T08:26:24.946Z</time></trkpt><trkpt lat="38.9389707" lon="-2.8366272"><ele>897.8333333333333</ele><time>2026-04-19T08:26:25.946Z</time></trkpt><trkpt lat="38.938893" lon="-2.8365298"><ele>898.0</ele><time>2026-04-19T08:26:27.946Z</time></trkpt><trkpt lat="38.9388397" lon="-2.836405"><ele>897.9999999999999</ele><time>2026-04-19T08:26:29.946Z</time></trkpt><trkpt lat="38.9388021" lon="-2.8363299"><ele>898.0</ele><time>2026-04-19T08:26:30.946Z</time></trkpt><trkpt lat="38.9387559" lon="-2.8362596"><ele>898.0</ele><time>2026-04-19T08:26:31.946Z</time></trkpt><trkpt lat="38.9387003" lon="-2.836196"><ele>898.0</ele><time>2026-04-19T08:26:32.946Z</time></trkpt><trkpt lat="38.9386429" lon="-2.8361225"><ele>897.9999999999999</ele><time>2026-04-19T08:26:33.946Z</time></trkpt><trkpt lat="38.9385808" lon="-2.8360669"><ele>898.0</ele><time>2026-04-19T08:26:34.946Z</time></trkpt><trkpt lat="38.9384827" lon="-2.8360043"><ele>896.0</ele><time>2026-04-19T08:26:36.946Z</time></trkpt><trkpt lat="38.9383804" lon="-2.8360485"><ele>894.0</ele><time>2026-04-19T08:26:38.946Z</time></trkpt><trkpt lat="38.9382694" lon="-2.836026"><ele>892.0</ele><time>2026-04-19T08:26:40.946Z</time></trkpt><trkpt lat="38.9381554" lon="-2.8359821"><ele>890.0</ele><time>2026-04-19T08:26:42.946Z</time></trkpt><trkpt lat="38.938088" lon="-2.8359818"><ele>888.0</ele><time>2026-04-19T08:26:43.946Z</time></trkpt><trkpt lat="38.9380268" lon="-2.836002"><ele>888.0</ele><time>2026-04-19T08:26:44.946Z</time></trkpt><trkpt lat="38.9379736" lon="-2.8360498"><ele>888.0</ele><time>2026-04-19T08:26:45.946Z</time></trkpt><trkpt lat="38.9378893" lon="-2.8361575"><ele>888.0</ele><time>2026-04-19T08:26:47.946Z</time></trkpt><trkpt lat="38.9378209" lon="-2.8362498"><ele>888.0</ele><time>2026-04-19T08:26:49.946Z</time></trkpt><trkpt lat="38.9377623" lon="-2.836343"><ele>888.0</ele><time>2026-04-19T08:26:51.946Z</time></trkpt><trkpt lat="38.937694" lon="-2.8364478"><ele>888.0</ele><time>2026-04-19T08:26:53.945Z</time></trkpt><trkpt lat="38.9376167" lon="-2.8365331"><ele>888.0</ele><time>2026-04-19T08:26:55.946Z</time></trkpt><trkpt lat="38.9375244" lon="-2.8366097"><ele>888.0</ele><time>2026-04-19T08:26:57.946Z</time></trkpt><trkpt lat="38.9374674" lon="-2.8366507"><ele>888.0</ele><time>2026-04-19T08:26:58.946Z</time></trkpt><trkpt lat="38.9374038" lon="-2.8366795"><ele>888.0</ele><time>2026-04-19T08:26:59.945Z</time></trkpt><trkpt lat="38.9373344" lon="-2.8367015"><ele>888.0</ele><time>2026-04-19T08:27:00.946Z</time></trkpt><trkpt lat="38.9372559" lon="-2.8367451"><ele>888.6666666666666</ele><time>2026-04-19T08:27:01.946Z</time></trkpt><trkpt lat="38.9371877" lon="-2.8367948"><ele>889.3333333333333</ele><time>2026-04-19T08:27:02.946Z</time></trkpt><trkpt lat="38.9371185" lon="-2.836851"><ele>890.0</ele><time>2026-04-19T08:27:03.946Z</time></trkpt><trkpt lat="38.9370653" lon="-2.836905"><ele>890.6666666666666</ele><time>2026-04-19T08:27:04.946Z</time></trkpt><trkpt lat="38.9370048" lon="-2.8369497"><ele>891.3333333333333</ele><time>2026-04-19T08:27:05.946Z</time></trkpt><trkpt lat="38.9369411" lon="-2.8370083"><ele>892.0</ele><time>2026-04-19T08:27:06.946Z</time></trkpt><trkpt lat="38.936878" lon="-2.8370616"><ele>890.6666666666666</ele><time>2026-04-19T08:27:07.946Z</time></trkpt><trkpt lat="38.9368034" lon="-2.8371124"><ele>889.3333333333333</ele><time>2026-04-19T08:27:08.946Z</time></trkpt><trkpt lat="38.9367297" lon="-2.8371639"><ele>888.0</ele><time>2026-04-19T08:27:09.946Z</time></trkpt><trkpt lat="38.9366609" lon="-2.8372283"><ele>886.6666666666667</ele><time>2026-04-19T08:27:10.946Z</time></trkpt><trkpt lat="38.9366011" lon="-2.8372954"><ele>885.3333333333334</ele><time>2026-04-19T08:27:11.946Z</time></trkpt><trkpt lat="38.9365464" lon="-2.8373636"><ele>884.0</ele><time>2026-04-19T08:27:12.946Z</time></trkpt><trkpt lat="38.9364734" lon="-2.8374801"><ele>884.0000000000001</ele><time>2026-04-19T08:27:14.946Z</time></trkpt><trkpt lat="38.9364231" lon="-2.8375366"><ele>884.0</ele><time>2026-04-19T08:27:15.946Z</time></trkpt><trkpt lat="38.9363705" lon="-2.837597"><ele>884.0</ele><time>2026-04-19T08:27:16.946Z</time></trkpt><trkpt lat="38.936311" lon="-2.8376513"><ele>884.0</ele><time>2026-04-19T08:27:17.945Z</time></trkpt><trkpt lat="38.9362386" lon="-2.8377067"><ele>884.0000000000001</ele><time>2026-04-19T08:27:18.946Z</time></trkpt><trkpt lat="38.9361594" lon="-2.8377569"><ele>884.0</ele><time>2026-04-19T08:27:19.946Z</time></trkpt><trkpt lat="38.9360709" lon="-2.8377858"><ele>883.2</ele><time>2026-04-19T08:27:20.946Z</time></trkpt><trkpt lat="38.9359802" lon="-2.8378042"><ele>882.4000000000001</ele><time>2026-04-19T08:27:21.946Z</time></trkpt><trkpt lat="38.9359048" lon="-2.8378089"><ele>881.6</ele><time>2026-04-19T08:27:22.946Z</time></trkpt><trkpt lat="38.9358383" lon="-2.8377859"><ele>880.8</ele><time>2026-04-19T08:27:23.946Z</time></trkpt><trkpt lat="38.9357593" lon="-2.8376837"><ele>880.0</ele><time>2026-04-19T08:27:25.946Z</time></trkpt><trkpt lat="38.935747" lon="-2.8375426"><ele>879.9999999999999</ele><time>2026-04-19T08:27:27.946Z</time></trkpt><trkpt lat="38.9357578" lon="-2.837403"><ele>880.0</ele><time>2026-04-19T08:27:29.946Z</time></trkpt><trkpt lat="38.9357704" lon="-2.8372832"><ele>880.0</ele><time>2026-04-19T08:27:31.946Z</time></trkpt><trkpt lat="38.9357874" lon="-2.8371722"><ele>880.0</ele><time>2026-04-19T08:27:33.946Z</time></trkpt><trkpt lat="38.9358074" lon="-2.8370756"><ele>879.9999999999999</ele><time>2026-04-19T08:27:35.945Z</time></trkpt><trkpt lat="38.9358234" lon="-2.8369865"><ele>880.0</ele><time>2026-04-19T08:27:37.946Z</time></trkpt><trkpt lat="38.9358443" lon="-2.8369081"><ele>880.6666666666666</ele><time>2026-04-19T08:27:39.945Z</time></trkpt><trkpt lat="38.9359124" lon="-2.8368391"><ele>881.3333333333333</ele><time>2026-04-19T08:27:42.946Z</time></trkpt><trkpt lat="38.9359613" lon="-2.8367441"><ele>882.0</ele><time>2026-04-19T08:27:45.946Z</time></trkpt><trkpt lat="38.9359905" lon="-2.8366433"><ele>882.6666666666667</ele><time>2026-04-19T08:27:48.946Z</time></trkpt><trkpt lat="38.9360088" lon="-2.8365358"><ele>883.3333333333334</ele><time>2026-04-19T08:27:51.946Z</time></trkpt><trkpt lat="38.936045" lon="-2.8364374"><ele>884.0</ele><time>2026-04-19T08:27:54.946Z</time></trkpt><trkpt lat="38.9360878" lon="-2.8363447"><ele>885.8333333333334</ele><time>2026-04-19T08:27:57.947Z</time></trkpt><trkpt lat="38.9361073" lon="-2.8362461"><ele>887.6666666666667</ele><time>2026-04-19T08:28:00.909Z</time></trkpt><trkpt lat="38.9361672" lon="-2.8361665"><ele>889.5</ele><time>2026-04-19T08:28:02.946Z</time></trkpt><trkpt lat="38.9362176" lon="-2.836078"><ele>891.3333333333333</ele><time>2026-04-19T08:28:04.947Z</time></trkpt><trkpt lat="38.9362618" lon="-2.8359809"><ele>893.1666666666666</ele><time>2026-04-19T08:28:06.946Z</time></trkpt><trkpt lat="38.9363112" lon="-2.8358848"><ele>895.0</ele><time>2026-04-19T08:28:08.946Z</time></trkpt><trkpt lat="38.9363378" lon="-2.8357749"><ele>896.2</ele><time>2026-04-19T08:28:10.946Z</time></trkpt><trkpt lat="38.936318" lon="-2.8356429"><ele>897.4</ele><time>2026-04-19T08:28:12.947Z</time></trkpt><trkpt lat="38.936265" lon="-2.835502"><ele>898.5999999999999</ele><time>2026-04-19T08:28:14.946Z</time></trkpt><trkpt lat="38.9362138" lon="-2.835391"><ele>899.8</ele><time>2026-04-19T08:28:16.946Z</time></trkpt><trkpt lat="38.9361525" lon="-2.8353332"><ele>901.0</ele><time>2026-04-19T08:28:18.946Z</time></trkpt><trkpt lat="38.9360999" lon="-2.8352857"><ele>900.9999999999999</ele><time>2026-04-19T08:28:20.946Z</time></trkpt><trkpt lat="38.936039" lon="-2.8351983"><ele>901.0</ele><time>2026-04-19T08:28:23.946Z</time></trkpt><trkpt lat="38.9359868" lon="-2.8351146"><ele>901.0</ele><time>2026-04-19T08:28:26.946Z</time></trkpt><trkpt lat="38.9359382" lon="-2.8350528"><ele>901.0</ele><time>2026-04-19T08:28:29.945Z</time></trkpt><trkpt lat="38.9358875" lon="-2.8349799"><ele>900.9999999999999</ele><time>2026-04-19T08:28:33.946Z</time></trkpt><trkpt lat="38.935856" lon="-2.8349045"><ele>901.0</ele><time>2026-04-19T08:28:37.946Z</time></trkpt><trkpt lat="38.9358054" lon="-2.8348499"><ele>899.8</ele><time>2026-04-19T08:28:41.946Z</time></trkpt><trkpt lat="38.9357172" lon="-2.8347894"><ele>898.5999999999999</ele><time>2026-04-19T08:28:44.946Z</time></trkpt><trkpt lat="38.9356539" lon="-2.8346762"><ele>897.4</ele><time>2026-04-19T08:28:46.946Z</time></trkpt><trkpt lat="38.9355838" lon="-2.8345778"><ele>896.2</ele><time>2026-04-19T08:28:48.946Z</time></trkpt><trkpt lat="38.9355357" lon="-2.8345064"><ele>895.0</ele><time>2026-04-19T08:28:50.946Z</time></trkpt><trkpt lat="38.935492" lon="-2.8344318"><ele>895.0</ele><time>2026-04-19T08:28:53.946Z</time></trkpt><trkpt lat="38.9354561" lon="-2.8343556"><ele>895.0</ele><time>2026-04-19T08:28:56.946Z</time></trkpt><trkpt lat="38.9354221" lon="-2.8342767"><ele>895.0</ele><time>2026-04-19T08:28:59.946Z</time></trkpt><trkpt lat="38.935387" lon="-2.8342033"><ele>895.0</ele><time>2026-04-19T08:29:02.946Z</time></trkpt><trkpt lat="38.935344" lon="-2.8341302"><ele>895.0</ele><time>2026-04-19T08:29:05.946Z</time></trkpt><trkpt lat="38.9352949" lon="-2.8340679"><ele>895.0</ele><time>2026-04-19T08:29:08.946Z</time></trkpt><trkpt lat="38.9352391" lon="-2.8339865"><ele>895.0</ele><time>2026-04-19T08:29:12.946Z</time></trkpt><trkpt lat="38.9352036" lon="-2.8338921"><ele>895.2857142857142</ele><time>2026-04-19T08:29:16.946Z</time></trkpt><trkpt lat="38.935211" lon="-2.8337878"><ele>895.5714285714287</ele><time>2026-04-19T08:29:20.946Z</time></trkpt><trkpt lat="38.9352308" lon="-2.8336987"><ele>895.8571428571429</ele><time>2026-04-19T08:29:25.946Z</time></trkpt><trkpt lat="38.9352262" lon="-2.833788"><ele>896.1428571428571</ele><time>2026-04-19T08:31:54.945Z</time></trkpt><trkpt lat="38.935216" lon="-2.8338794"><ele>896.4285714285713</ele><time>2026-04-19T08:31:58.945Z</time></trkpt><trkpt lat="38.9352313" lon="-2.8339709"><ele>896.7142857142858</ele><time>2026-04-19T08:32:03.945Z</time></trkpt><trkpt lat="38.9352823" lon="-2.8340258"><ele>897.0</ele><time>2026-04-19T08:32:07.944Z</time></trkpt><trkpt lat="38.9353312" lon="-2.8340794"><ele>897.0</ele><time>2026-04-19T08:32:11.944Z</time></trkpt><trkpt lat="38.9353648" lon="-2.8341685"><ele>897.0</ele><time>2026-04-19T08:32:14.946Z</time></trkpt><trkpt lat="38.9354085" lon="-2.8342337"><ele>897.0</ele><time>2026-04-19T08:32:16.945Z</time></trkpt><trkpt lat="38.9354522" lon="-2.8343191"><ele>897.0</ele><time>2026-04-19T08:32:18.945Z</time></trkpt><trkpt lat="38.9354994" lon="-2.8344132"><ele>897.0</ele><time>2026-04-19T08:32:20.945Z</time></trkpt><trkpt lat="38.9355617" lon="-2.8345063"><ele>897.0</ele><time>2026-04-19T08:32:22.945Z</time></trkpt><trkpt lat="38.9356325" lon="-2.8345899"><ele>896.6666666666666</ele><time>2026-04-19T08:32:24.945Z</time></trkpt><trkpt lat="38.9356921" lon="-2.8347007"><ele>896.3333333333333</ele><time>2026-04-19T08:32:26.945Z</time></trkpt><trkpt lat="38.935731" lon="-2.8347669"><ele>896.0</ele><time>2026-04-19T08:32:28.945Z</time></trkpt><trkpt lat="38.9357955" lon="-2.8348342"><ele>895.6666666666666</ele><time>2026-04-19T08:32:31.945Z</time></trkpt><trkpt lat="38.9358561" lon="-2.8348889"><ele>895.3333333333333</ele><time>2026-04-19T08:32:34.945Z</time></trkpt><trkpt lat="38.9359109" lon="-2.8349898"><ele>895.0</ele><time>2026-04-19T08:32:37.944Z</time></trkpt><trkpt lat="38.9359848" lon="-2.8351084"><ele>895.9999999999999</ele><time>2026-04-19T08:32:39.945Z</time></trkpt><trkpt lat="38.9360261" lon="-2.8351731"><ele>897.0</ele><time>2026-04-19T08:32:40.945Z</time></trkpt><trkpt lat="38.9360722" lon="-2.835235"><ele>898.0</ele><time>2026-04-19T08:32:41.944Z</time></trkpt><trkpt lat="38.9361252" lon="-2.8352899"><ele>899.0</ele><time>2026-04-19T08:32:42.945Z</time></trkpt><trkpt lat="38.9362223" lon="-2.8353906"><ele>899.9999999999999</ele><time>2026-04-19T08:32:44.945Z</time></trkpt><trkpt lat="38.9362591" lon="-2.835458"><ele>901.0</ele><time>2026-04-19T08:32:45.945Z</time></trkpt><trkpt lat="38.9362831" lon="-2.8355505"><ele>900.9999999999999</ele><time>2026-04-19T08:32:46.945Z</time></trkpt><trkpt lat="38.9363218" lon="-2.8356221"><ele>901.0</ele><time>2026-04-19T08:32:47.945Z</time></trkpt><trkpt lat="38.9363411" lon="-2.8357348"><ele>901.0</ele><time>2026-04-19T08:32:49.944Z</time></trkpt><trkpt lat="38.9363305" lon="-2.8358258"><ele>901.0</ele><time>2026-04-19T08:32:51.945Z</time></trkpt><trkpt lat="38.9362865" lon="-2.8359312"><ele>900.9999999999999</ele><time>2026-04-19T08:32:54.945Z</time></trkpt><trkpt lat="38.9362497" lon="-2.8360154"><ele>901.0</ele><time>2026-04-19T08:32:56.945Z</time></trkpt><trkpt lat="38.9362056" lon="-2.8360962"><ele>900.1428571428572</ele><time>2026-04-19T08:32:58.944Z</time></trkpt><trkpt lat="38.9361471" lon="-2.8361891"><ele>899.2857142857144</ele><time>2026-04-19T08:33:01.945Z</time></trkpt><trkpt lat="38.936116" lon="-2.8362706"><ele>898.4285714285714</ele><time>2026-04-19T08:33:03.945Z</time></trkpt><trkpt lat="38.9360879" lon="-2.836345"><ele>897.5714285714287</ele><time>2026-04-19T08:33:05.945Z</time></trkpt><trkpt lat="38.9360598" lon="-2.8364199"><ele>896.7142857142858</ele><time>2026-04-19T08:33:07.945Z</time></trkpt><trkpt lat="38.9360121" lon="-2.8364985"><ele>895.8571428571429</ele><time>2026-04-19T08:33:09.945Z</time></trkpt><trkpt lat="38.9359897" lon="-2.8365921"><ele>895.0</ele><time>2026-04-19T08:33:11.945Z</time></trkpt><trkpt lat="38.9359687" lon="-2.8367085"><ele>892.8</ele><time>2026-04-19T08:33:13.945Z</time></trkpt><trkpt lat="38.9359239" lon="-2.8368275"><ele>890.6</ele><time>2026-04-19T08:33:15.945Z</time></trkpt><trkpt lat="38.9358532" lon="-2.836943"><ele>888.4000000000001</ele><time>2026-04-19T08:33:17.945Z</time></trkpt><trkpt lat="38.9358002" lon="-2.8370524"><ele>886.2</ele><time>2026-04-19T08:33:19.945Z</time></trkpt><trkpt lat="38.9357948" lon="-2.8372118"><ele>884.0</ele><time>2026-04-19T08:33:21.946Z</time></trkpt><trkpt lat="38.9357823" lon="-2.8373031"><ele>883.3333333333334</ele><time>2026-04-19T08:33:22.945Z</time></trkpt><trkpt lat="38.9357736" lon="-2.8373943"><ele>882.6666666666667</ele><time>2026-04-19T08:33:23.944Z</time></trkpt><trkpt lat="38.935758" lon="-2.8374955"><ele>882.0</ele><time>2026-04-19T08:33:24.945Z</time></trkpt><trkpt lat="38.935759" lon="-2.8375884"><ele>881.3333333333333</ele><time>2026-04-19T08:33:25.945Z</time></trkpt><trkpt lat="38.9357957" lon="-2.8377316"><ele>880.6666666666666</ele><time>2026-04-19T08:33:27.945Z</time></trkpt><trkpt lat="38.9358918" lon="-2.8377812"><ele>880.0</ele><time>2026-04-19T08:33:29.945Z</time></trkpt><trkpt lat="38.9359861" lon="-2.8377837"><ele>880.6666666666666</ele><time>2026-04-19T08:33:31.945Z</time></trkpt><trkpt lat="38.9360696" lon="-2.8377578"><ele>881.3333333333333</ele><time>2026-04-19T08:33:33.945Z</time></trkpt><trkpt lat="38.936141" lon="-2.8377331"><ele>882.0</ele><time>2026-04-19T08:33:35.945Z</time></trkpt><trkpt lat="38.9362059" lon="-2.8376962"><ele>882.6666666666667</ele><time>2026-04-19T08:33:37.945Z</time></trkpt><trkpt lat="38.9362768" lon="-2.8376537"><ele>883.3333333333334</ele><time>2026-04-19T08:33:39.945Z</time></trkpt><trkpt lat="38.9363408" lon="-2.8375968"><ele>884.0</ele><time>2026-04-19T08:33:41.945Z</time></trkpt><trkpt lat="38.9363961" lon="-2.8375382"><ele>884.0000000000001</ele><time>2026-04-19T08:33:43.945Z</time></trkpt><trkpt lat="38.9364526" lon="-2.837465"><ele>884.0</ele><time>2026-04-19T08:33:46.945Z</time></trkpt><trkpt lat="38.9365184" lon="-2.8373775"><ele>884.0</ele><time>2026-04-19T08:33:49.945Z</time></trkpt><trkpt lat="38.9365619" lon="-2.8373001"><ele>884.0</ele><time>2026-04-19T08:33:51.945Z</time></trkpt><trkpt lat="38.936627" lon="-2.8372168"><ele>884.0000000000001</ele><time>2026-04-19T08:33:53.945Z</time></trkpt><trkpt lat="38.9367061" lon="-2.8371493"><ele>884.0</ele><time>2026-04-19T08:33:55.945Z</time></trkpt><trkpt lat="38.9367831" lon="-2.8370979"><ele>883.4285714285714</ele><time>2026-04-19T08:33:57.945Z</time></trkpt><trkpt lat="38.9368558" lon="-2.8370622"><ele>882.8571428571429</ele><time>2026-04-19T08:33:59.946Z</time></trkpt><trkpt lat="38.9369144" lon="-2.8370079"><ele>882.2857142857142</ele><time>2026-04-19T08:34:01.945Z</time></trkpt><trkpt lat="38.9369712" lon="-2.8369549"><ele>881.7142857142858</ele><time>2026-04-19T08:34:03.945Z</time></trkpt><trkpt lat="38.937025" lon="-2.8369091"><ele>881.1428571428571</ele><time>2026-04-19T08:34:05.945Z</time></trkpt><trkpt lat="38.937104" lon="-2.836842"><ele>880.5714285714286</ele><time>2026-04-19T08:34:08.944Z</time></trkpt><trkpt lat="38.9371567" lon="-2.8367966"><ele>880.0</ele><time>2026-04-19T08:34:10.945Z</time></trkpt><trkpt lat="38.9372415" lon="-2.8367422"><ele>881.3333333333333</ele><time>2026-04-19T08:34:13.945Z</time></trkpt><trkpt lat="38.9372995" lon="-2.8367103"><ele>882.6666666666666</ele><time>2026-04-19T08:34:15.944Z</time></trkpt><trkpt lat="38.9373911" lon="-2.836678"><ele>884.0</ele><time>2026-04-19T08:34:18.945Z</time></trkpt><trkpt lat="38.9374532" lon="-2.8366474"><ele>885.3333333333333</ele><time>2026-04-19T08:34:20.945Z</time></trkpt><trkpt lat="38.9375338" lon="-2.8365906"><ele>886.6666666666666</ele><time>2026-04-19T08:34:23.945Z</time></trkpt><trkpt lat="38.9376124" lon="-2.8365248"><ele>888.0</ele><time>2026-04-19T08:34:26.944Z</time></trkpt><trkpt lat="38.9376894" lon="-2.8364478"><ele>888.0</ele><time>2026-04-19T08:34:29.945Z</time></trkpt><trkpt lat="38.9377392" lon="-2.836381"><ele>888.0</ele><time>2026-04-19T08:34:31.945Z</time></trkpt><trkpt lat="38.9377872" lon="-2.836299"><ele>888.0</ele><time>2026-04-19T08:34:33.945Z</time></trkpt><trkpt lat="38.9378464" lon="-2.8362096"><ele>888.0</ele><time>2026-04-19T08:34:35.945Z</time></trkpt><trkpt lat="38.9379119" lon="-2.8360951"><ele>888.0</ele><time>2026-04-19T08:34:37.945Z</time></trkpt><trkpt lat="38.9379591" lon="-2.8360363"><ele>888.0</ele><time>2026-04-19T08:34:38.945Z</time></trkpt><trkpt lat="38.9380697" lon="-2.8359703"><ele>888.0</ele><time>2026-04-19T08:34:40.946Z</time></trkpt><trkpt lat="38.9381803" lon="-2.8359781"><ele>888.0</ele><time>2026-04-19T08:34:42.945Z</time></trkpt><trkpt lat="38.9382553" lon="-2.8360062"><ele>888.0</ele><time>2026-04-19T08:34:44.945Z</time></trkpt><trkpt lat="38.938324" lon="-2.8360335"><ele>888.0</ele><time>2026-04-19T08:34:46.945Z</time></trkpt><trkpt lat="38.9383928" lon="-2.8360319"><ele>888.0</ele><time>2026-04-19T08:34:48.945Z</time></trkpt><trkpt lat="38.9384842" lon="-2.8360052"><ele>888.0</ele><time>2026-04-19T08:34:51.945Z</time></trkpt><trkpt lat="38.9385548" lon="-2.8360209"><ele>889.6666666666666</ele><time>2026-04-19T08:34:53.945Z</time></trkpt><trkpt lat="38.9386439" lon="-2.8360924"><ele>891.3333333333333</ele><time>2026-04-19T08:34:55.945Z</time></trkpt><trkpt lat="38.9387253" lon="-2.8361899"><ele>893.0</ele><time>2026-04-19T08:34:57.945Z</time></trkpt><trkpt lat="38.9387864" lon="-2.8362746"><ele>894.6666666666666</ele><time>2026-04-19T08:34:59.945Z</time></trkpt><trkpt lat="38.9388311" lon="-2.8363462"><ele>896.3333333333333</ele><time>2026-04-19T08:35:01.945Z</time></trkpt><trkpt lat="38.9388608" lon="-2.8364216"><ele>898.0</ele><time>2026-04-19T08:35:03.945Z</time></trkpt><trkpt lat="38.9388835" lon="-2.836506"><ele>897.9999999999999</ele><time>2026-04-19T08:35:05.945Z</time></trkpt><trkpt lat="38.9389143" lon="-2.8365952"><ele>898.0</ele><time>2026-04-19T08:35:08.945Z</time></trkpt><trkpt lat="38.9389904" lon="-2.8366615"><ele>898.0</ele><time>2026-04-19T08:35:11.945Z</time></trkpt><trkpt lat="38.9390762" lon="-2.8367059"><ele>898.0</ele><time>2026-04-19T08:35:14.945Z</time></trkpt><trkpt lat="38.939137" lon="-2.8367494"><ele>897.9999999999999</ele><time>2026-04-19T08:35:16.975Z</time></trkpt><trkpt lat="38.9391929" lon="-2.8367953"><ele>898.0</ele><time>2026-04-19T08:35:18.945Z</time></trkpt><trkpt lat="38.939233" lon="-2.836859"><ele>897.8333333333333</ele><time>2026-04-19T08:35:20.945Z</time></trkpt><trkpt lat="38.9392699" lon="-2.8369255"><ele>897.6666666666666</ele><time>2026-04-19T08:35:22.945Z</time></trkpt><trkpt lat="38.939268" lon="-2.8370401"><ele>897.5</ele><time>2026-04-19T08:35:25.945Z</time></trkpt><trkpt lat="38.9392383" lon="-2.837159"><ele>897.3333333333333</ele><time>2026-04-19T08:35:28.945Z</time></trkpt><trkpt lat="38.9392148" lon="-2.8372466"><ele>897.1666666666666</ele><time>2026-04-19T08:35:30.945Z</time></trkpt><trkpt lat="38.9391896" lon="-2.8373259"><ele>897.0</ele><time>2026-04-19T08:35:32.945Z</time></trkpt><trkpt lat="38.939158" lon="-2.837427"><ele>897.0</ele><time>2026-04-19T08:35:35.945Z</time></trkpt><trkpt lat="38.9391197" lon="-2.8375236"><ele>897.0</ele><time>2026-04-19T08:35:38.945Z</time></trkpt><trkpt lat="38.9390827" lon="-2.8376225"><ele>897.0</ele><time>2026-04-19T08:35:41.946Z</time></trkpt><trkpt lat="38.9390285" lon="-2.8377165"><ele>897.0</ele><time>2026-04-19T08:35:44.945Z</time></trkpt><trkpt lat="38.9389921" lon="-2.8378196"><ele>897.0</ele><time>2026-04-19T08:35:47.945Z</time></trkpt><trkpt lat="38.938956" lon="-2.8379112"><ele>897.0</ele><time>2026-04-19T08:35:50.897Z</time></trkpt><trkpt lat="38.9389235" lon="-2.83799"><ele>897.3333333333334</ele><time>2026-04-19T08:35:54.946Z</time></trkpt><trkpt lat="38.9389084" lon="-2.8380915"><ele>897.6666666666667</ele><time>2026-04-19T08:35:57.945Z</time></trkpt><trkpt lat="38.9388759" lon="-2.8382055"><ele>898.0</ele><time>2026-04-19T08:36:00.944Z</time></trkpt><trkpt lat="38.9388493" lon="-2.8383068"><ele>898.3333333333334</ele><time>2026-04-19T08:36:03.945Z</time></trkpt><trkpt lat="38.9388285" lon="-2.8384032"><ele>898.6666666666667</ele><time>2026-04-19T08:36:06.945Z</time></trkpt><trkpt lat="38.9388078" lon="-2.8385023"><ele>899.0</ele><time>2026-04-19T08:36:09.944Z</time></trkpt><trkpt lat="38.9387968" lon="-2.8386081"><ele>899.6666666666667</ele><time>2026-04-19T08:36:12.944Z</time></trkpt><trkpt lat="38.9388056" lon="-2.838703"><ele>900.3333333333334</ele><time>2026-04-19T08:36:15.945Z</time></trkpt><trkpt lat="38.9388116" lon="-2.8387918"><ele>901.0</ele><time>2026-04-19T08:36:18.945Z</time></trkpt><trkpt lat="38.9388172" lon="-2.8388943"><ele>901.6666666666667</ele><time>2026-04-19T08:36:21.945Z</time></trkpt><trkpt lat="38.9388316" lon="-2.8389995"><ele>902.3333333333334</ele><time>2026-04-19T08:36:24.945Z</time></trkpt><trkpt lat="38.9388363" lon="-2.8391006"><ele>903.0</ele><time>2026-04-19T08:36:27.945Z</time></trkpt><trkpt lat="38.9388299" lon="-2.8391961"><ele>903.0</ele><time>2026-04-19T08:36:30.945Z</time></trkpt><trkpt lat="38.9388266" lon="-2.8392911"><ele>903.0</ele><time>2026-04-19T08:36:33.945Z</time></trkpt><trkpt lat="38.938861" lon="-2.8393827"><ele>903.0</ele><time>2026-04-19T08:36:36.945Z</time></trkpt><trkpt lat="38.9388678" lon="-2.8394742"><ele>903.0</ele><time>2026-04-19T08:36:39.944Z</time></trkpt><trkpt lat="38.9388491" lon="-2.8395667"><ele>903.0</ele><time>2026-04-19T08:36:44.945Z</time></trkpt><trkpt lat="38.9389047" lon="-2.8396179"><ele>903.0</ele><time>2026-04-19T08:36:46.945Z</time></trkpt><trkpt lat="38.9389408" lon="-2.8397126"><ele>903.0</ele><time>2026-04-19T08:36:49.945Z</time></trkpt><trkpt lat="38.9389927" lon="-2.8398187"><ele>902.8333333333334</ele><time>2026-04-19T08:36:52.945Z</time></trkpt><trkpt lat="38.9390342" lon="-2.8399256"><ele>902.6666666666667</ele><time>2026-04-19T08:36:54.945Z</time></trkpt><trkpt lat="38.9390287" lon="-2.8400442"><ele>902.5</ele><time>2026-04-19T08:36:56.945Z</time></trkpt><trkpt lat="38.9389893" lon="-2.8401359"><ele>902.3333333333334</ele><time>2026-04-19T08:36:58.945Z</time></trkpt><trkpt lat="38.9390286" lon="-2.840222"><ele>902.1666666666667</ele><time>2026-04-19T08:37:00.945Z</time></trkpt><trkpt lat="38.9390435" lon="-2.8403293"><ele>902.0</ele><time>2026-04-19T08:37:02.944Z</time></trkpt><trkpt lat="38.9390396" lon="-2.840414"><ele>900.5000000000001</ele><time>2026-04-19T08:37:04.945Z</time></trkpt><trkpt lat="38.9390212" lon="-2.8404972"><ele>899.0</ele><time>2026-04-19T08:37:06.946Z</time></trkpt><trkpt lat="38.9390201" lon="-2.8405912"><ele>897.5</ele><time>2026-04-19T08:37:09.945Z</time></trkpt><trkpt lat="38.9389975" lon="-2.8407024"><ele>896.0</ele><time>2026-04-19T08:37:12.945Z</time></trkpt><trkpt lat="38.9389711" lon="-2.8407807"><ele>894.5000000000001</ele><time>2026-04-19T08:37:14.944Z</time></trkpt><trkpt lat="38.9389333" lon="-2.8408555"><ele>893.0</ele><time>2026-04-19T08:37:16.945Z</time></trkpt><trkpt lat="38.9388859" lon="-2.840967"><ele>890.6666666666667</ele><time>2026-04-19T08:37:18.945Z</time></trkpt><trkpt lat="38.9388443" lon="-2.8410618"><ele>888.3333333333334</ele><time>2026-04-19T08:37:20.945Z</time></trkpt><trkpt lat="38.9388226" lon="-2.8411548"><ele>886.0</ele><time>2026-04-19T08:37:22.945Z</time></trkpt><trkpt lat="38.9388246" lon="-2.8412589"><ele>883.6666666666667</ele><time>2026-04-19T08:37:26.945Z</time></trkpt><trkpt lat="38.9388414" lon="-2.8413725"><ele>881.3333333333334</ele><time>2026-04-19T08:37:28.945Z</time></trkpt><trkpt lat="38.938887" lon="-2.84145"><ele>879.0</ele><time>2026-04-19T08:37:30.945Z</time></trkpt><trkpt lat="38.9389123" lon="-2.8415351"><ele>879.0</ele><time>2026-04-19T08:37:32.945Z</time></trkpt><trkpt lat="38.9389369" lon="-2.8416262"><ele>879.0</ele><time>2026-04-19T08:37:34.945Z</time></trkpt><trkpt lat="38.9389157" lon="-2.8417358"><ele>879.0</ele><time>2026-04-19T08:37:37.945Z</time></trkpt><trkpt lat="38.9389562" lon="-2.8418338"><ele>879.0</ele><time>2026-04-19T08:37:40.945Z</time></trkpt><trkpt lat="38.939018" lon="-2.8419327"><ele>879.0</ele><time>2026-04-19T08:37:42.944Z</time></trkpt><trkpt lat="38.9390485" lon="-2.842033"><ele>879.0</ele><time>2026-04-19T08:37:44.945Z</time></trkpt><trkpt lat="38.9390696" lon="-2.8421124"><ele>877.6666666666666</ele><time>2026-04-19T08:37:46.945Z</time></trkpt><trkpt lat="38.939104" lon="-2.8421802"><ele>876.3333333333333</ele><time>2026-04-19T08:37:48.945Z</time></trkpt><trkpt lat="38.9391" lon="-2.8422928"><ele>875.0</ele><time>2026-04-19T08:37:51.945Z</time></trkpt><trkpt lat="38.9390255" lon="-2.8423468"><ele>873.6666666666666</ele><time>2026-04-19T08:37:54.945Z</time></trkpt><trkpt lat="38.9389625" lon="-2.8423944"><ele>872.3333333333333</ele><time>2026-04-19T08:37:56.945Z</time></trkpt><trkpt lat="38.9388975" lon="-2.8424365"><ele>871.0</ele><time>2026-04-19T08:37:58.945Z</time></trkpt><trkpt lat="38.9388526" lon="-2.8425257"><ele>870.9999999999999</ele><time>2026-04-19T08:38:01.945Z</time></trkpt><trkpt lat="38.9388834" lon="-2.8426192"><ele>871.0</ele><time>2026-04-19T08:38:03.945Z</time></trkpt><trkpt lat="38.938912" lon="-2.8427245"><ele>871.0</ele><time>2026-04-19T08:38:05.945Z</time></trkpt><trkpt lat="38.9389173" lon="-2.8428249"><ele>871.0</ele><time>2026-04-19T08:38:07.945Z</time></trkpt><trkpt lat="38.9389423" lon="-2.8429281"><ele>870.9999999999999</ele><time>2026-04-19T08:38:09.945Z</time></trkpt><trkpt lat="38.9389748" lon="-2.8430227"><ele>871.0</ele><time>2026-04-19T08:38:12.945Z</time></trkpt><trkpt lat="38.9390224" lon="-2.8431114"><ele>870.5714285714286</ele><time>2026-04-19T08:38:15.945Z</time></trkpt><trkpt lat="38.9390882" lon="-2.8431245"><ele>870.1428571428571</ele><time>2026-04-19T08:38:18.945Z</time></trkpt><trkpt lat="38.9390924" lon="-2.8430399"><ele>869.7142857142858</ele><time>2026-04-19T08:38:20.945Z</time></trkpt><trkpt lat="38.939094" lon="-2.8429242"><ele>869.2857142857142</ele><time>2026-04-19T08:38:23.945Z</time></trkpt><trkpt lat="38.9390997" lon="-2.8428296"><ele>868.8571428571429</ele><time>2026-04-19T08:38:25.945Z</time></trkpt><trkpt lat="38.9391466" lon="-2.8427456"><ele>868.4285714285714</ele><time>2026-04-19T08:38:28.945Z</time></trkpt><trkpt lat="38.9392109" lon="-2.8427607"><ele>868.0</ele><time>2026-04-19T08:38:30.945Z</time></trkpt><trkpt lat="38.9392023" lon="-2.8428696"><ele>868.0</ele><time>2026-04-19T08:38:33.945Z</time></trkpt><trkpt lat="38.9391749" lon="-2.8429668"><ele>868.0</ele><time>2026-04-19T08:38:35.945Z</time></trkpt><trkpt lat="38.9391575" lon="-2.8430634"><ele>868.0</ele><time>2026-04-19T08:38:37.945Z</time></trkpt><trkpt lat="38.9392845" lon="-2.8431542"><ele>868.0</ele><time>2026-04-19T08:38:39.945Z</time></trkpt><trkpt lat="38.9393557" lon="-2.8432487"><ele>868.0</ele><time>2026-04-19T08:38:41.945Z</time></trkpt><trkpt lat="38.9394082" lon="-2.8433299"><ele>863.8333333333333</ele><time>2026-04-19T08:38:43.944Z</time></trkpt><trkpt lat="38.939499" lon="-2.8433947"><ele>859.6666666666666</ele><time>2026-04-19T08:38:45.944Z</time></trkpt><trkpt lat="38.9395566" lon="-2.8434915"><ele>855.5</ele><time>2026-04-19T08:38:47.945Z</time></trkpt><trkpt lat="38.9396105" lon="-2.843552"><ele>851.3333333333333</ele><time>2026-04-19T08:38:49.945Z</time></trkpt><trkpt lat="38.9396617" lon="-2.843606"><ele>847.1666666666666</ele><time>2026-04-19T08:38:50.945Z</time></trkpt><trkpt lat="38.9397315" lon="-2.8437162"><ele>843.0</ele><time>2026-04-19T08:38:52.945Z</time></trkpt><trkpt lat="38.9397902" lon="-2.843796"><ele>842.8571428571429</ele><time>2026-04-19T08:38:54.945Z</time></trkpt><trkpt lat="38.9398527" lon="-2.843857"><ele>842.7142857142857</ele><time>2026-04-19T08:38:57.945Z</time></trkpt><trkpt lat="38.9398229" lon="-2.8439373"><ele>842.5714285714287</ele><time>2026-04-19T08:39:54.943Z</time></trkpt><trkpt lat="38.9397879" lon="-2.8440217"><ele>842.4285714285714</ele><time>2026-04-19T08:39:57.943Z</time></trkpt><trkpt lat="38.9397879" lon="-2.8441121"><ele>842.2857142857143</ele><time>2026-04-19T08:40:01.945Z</time></trkpt><trkpt lat="38.9398444" lon="-2.8441667"><ele>842.1428571428572</ele><time>2026-04-19T08:40:04.944Z</time></trkpt><trkpt lat="38.9398364" lon="-2.844259"><ele>842.0</ele><time>2026-04-19T08:40:06.944Z</time></trkpt><trkpt lat="38.9398129" lon="-2.8443471"><ele>841.5000000000001</ele><time>2026-04-19T08:40:08.944Z</time></trkpt><trkpt lat="38.9397684" lon="-2.8444333"><ele>841.0</ele><time>2026-04-19T08:40:10.944Z</time></trkpt><trkpt lat="38.9397434" lon="-2.8445217"><ele>840.5</ele><time>2026-04-19T08:40:12.944Z</time></trkpt><trkpt lat="38.939713" lon="-2.8446032"><ele>840.0</ele><time>2026-04-19T08:40:14.944Z</time></trkpt><trkpt lat="38.939667" lon="-2.8446837"><ele>839.5000000000001</ele><time>2026-04-19T08:40:17.944Z</time></trkpt><trkpt lat="38.9396192" lon="-2.8447714"><ele>839.0</ele><time>2026-04-19T08:40:21.943Z</time></trkpt><trkpt lat="38.9395721" lon="-2.844844"><ele>839.0000000000001</ele><time>2026-04-19T08:40:23.944Z</time></trkpt><trkpt lat="38.9395018" lon="-2.8448905"><ele>839.0</ele><time>2026-04-19T08:40:26.944Z</time></trkpt><trkpt lat="38.9394182" lon="-2.8449204"><ele>839.0</ele><time>2026-04-19T08:40:29.944Z</time></trkpt><trkpt lat="38.9393426" lon="-2.8449734"><ele>839.0</ele><time>2026-04-19T08:40:32.944Z</time></trkpt><trkpt lat="38.9392857" lon="-2.8450231"><ele>839.0000000000001</ele><time>2026-04-19T08:40:35.944Z</time></trkpt><trkpt lat="38.9392177" lon="-2.8450683"><ele>839.0</ele><time>2026-04-19T08:40:39.944Z</time></trkpt><trkpt lat="38.9391613" lon="-2.8451083"><ele>839.0000000000001</ele><time>2026-04-19T08:40:42.944Z</time></trkpt><trkpt lat="38.9390985" lon="-2.8451568"><ele>839.0</ele><time>2026-04-19T08:40:46.944Z</time></trkpt><trkpt lat="38.9391709" lon="-2.8451157"><ele>839.0</ele><time>2026-04-19T08:40:53.944Z</time></trkpt><trkpt lat="38.9392704" lon="-2.8450479"><ele>839.0</ele><time>2026-04-19T08:40:55.944Z</time></trkpt><trkpt lat="38.9393265" lon="-2.844989"><ele>839.0000000000001</ele><time>2026-04-19T08:40:56.944Z</time></trkpt><trkpt lat="38.9393931" lon="-2.8449413"><ele>839.0</ele><time>2026-04-19T08:40:57.944Z</time></trkpt><trkpt lat="38.9394681" lon="-2.8448971"><ele>839.0000000000001</ele><time>2026-04-19T08:40:58.944Z</time></trkpt><trkpt lat="38.9395502" lon="-2.8448773"><ele>839.0</ele><time>2026-04-19T08:40:59.944Z</time></trkpt><trkpt lat="38.9396336" lon="-2.8448818"><ele>839.0</ele><time>2026-04-19T08:41:00.944Z</time></trkpt><trkpt lat="38.9397103" lon="-2.8449093"><ele>839.0</ele><time>2026-04-19T08:41:01.943Z</time></trkpt><trkpt lat="38.9397694" lon="-2.8449394"><ele>839.0000000000001</ele><time>2026-04-19T08:41:02.944Z</time></trkpt><trkpt lat="38.9398297" lon="-2.8449756"><ele>839.0</ele><time>2026-04-19T08:41:04.944Z</time></trkpt><trkpt lat="38.9398653" lon="-2.8451058"><ele>839.3333333333334</ele><time>2026-04-19T08:41:09.944Z</time></trkpt><trkpt lat="38.9398515" lon="-2.8452172"><ele>839.6666666666667</ele><time>2026-04-19T08:41:11.944Z</time></trkpt><trkpt lat="38.9397968" lon="-2.8453571"><ele>840.0</ele><time>2026-04-19T08:41:13.944Z</time></trkpt><trkpt lat="38.9397636" lon="-2.8454325"><ele>840.3333333333333</ele><time>2026-04-19T08:41:14.944Z</time></trkpt><trkpt lat="38.9397242" lon="-2.8455092"><ele>840.6666666666666</ele><time>2026-04-19T08:41:15.944Z</time></trkpt><trkpt lat="38.9396843" lon="-2.8455954"><ele>841.0</ele><time>2026-04-19T08:41:16.944Z</time></trkpt><trkpt lat="38.9396463" lon="-2.8456862"><ele>840.9999999999999</ele><time>2026-04-19T08:41:17.944Z</time></trkpt><trkpt lat="38.9396119" lon="-2.8457796"><ele>841.0</ele><time>2026-04-19T08:41:18.944Z</time></trkpt><trkpt lat="38.9395839" lon="-2.845886"><ele>841.0</ele><time>2026-04-19T08:41:19.944Z</time></trkpt><trkpt lat="38.9395644" lon="-2.8459973"><ele>841.0</ele><time>2026-04-19T08:41:20.945Z</time></trkpt><trkpt lat="38.9395413" lon="-2.8461073"><ele>840.9999999999999</ele><time>2026-04-19T08:41:21.944Z</time></trkpt><trkpt lat="38.9395185" lon="-2.8462234"><ele>841.0</ele><time>2026-04-19T08:41:22.944Z</time></trkpt><trkpt lat="38.9395038" lon="-2.8463442"><ele>841.8333333333333</ele><time>2026-04-19T08:41:23.944Z</time></trkpt><trkpt lat="38.9395041" lon="-2.8464688"><ele>842.6666666666666</ele><time>2026-04-19T08:41:24.944Z</time></trkpt><trkpt lat="38.9395101" lon="-2.8465899"><ele>843.5</ele><time>2026-04-19T08:41:25.944Z</time></trkpt><trkpt lat="38.9395206" lon="-2.8467077"><ele>844.3333333333333</ele><time>2026-04-19T08:41:26.945Z</time></trkpt><trkpt lat="38.9395285" lon="-2.84682"><ele>845.1666666666666</ele><time>2026-04-19T08:41:27.944Z</time></trkpt><trkpt lat="38.9395346" lon="-2.8469154"><ele>846.0</ele><time>2026-04-19T08:41:28.944Z</time></trkpt><trkpt lat="38.9395478" lon="-2.8470726"><ele>843.4</ele><time>2026-04-19T08:41:30.945Z</time></trkpt><trkpt lat="38.939546" lon="-2.8472059"><ele>840.8</ele><time>2026-04-19T08:41:32.944Z</time></trkpt><trkpt lat="38.9395089" lon="-2.847279"><ele>838.1999999999999</ele><time>2026-04-19T08:41:34.944Z</time></trkpt><trkpt lat="38.9393881" lon="-2.8472753"><ele>835.5999999999999</ele><time>2026-04-19T08:41:37.944Z</time></trkpt><trkpt lat="38.9392831" lon="-2.8472117"><ele>833.0</ele><time>2026-04-19T08:41:39.944Z</time></trkpt><trkpt lat="38.9392251" lon="-2.8471724"><ele>829.5</ele><time>2026-04-19T08:41:40.944Z</time></trkpt><trkpt lat="38.9391225" lon="-2.8471273"><ele>826.0</ele><time>2026-04-19T08:41:42.944Z</time></trkpt><trkpt lat="38.9390012" lon="-2.8470881"><ele>822.5</ele><time>2026-04-19T08:41:44.945Z</time></trkpt><trkpt lat="38.9388819" lon="-2.8470799"><ele>819.0</ele><time>2026-04-19T08:41:46.944Z</time></trkpt><trkpt lat="38.9387757" lon="-2.8471371"><ele>819.0</ele><time>2026-04-19T08:41:48.944Z</time></trkpt><trkpt lat="38.9387255" lon="-2.8471937"><ele>819.0</ele><time>2026-04-19T08:41:49.943Z</time></trkpt><trkpt lat="38.9386723" lon="-2.8472411"><ele>819.0</ele><time>2026-04-19T08:41:50.944Z</time></trkpt><trkpt lat="38.9386213" lon="-2.8472907"><ele>819.0</ele><time>2026-04-19T08:41:51.944Z</time></trkpt><trkpt lat="38.9385262" lon="-2.8473737"><ele>819.0</ele><time>2026-04-19T08:41:53.944Z</time></trkpt><trkpt lat="38.9384203" lon="-2.8474463"><ele>819.0</ele><time>2026-04-19T08:41:55.944Z</time></trkpt><trkpt lat="38.9383605" lon="-2.8474805"><ele>818.8571428571429</ele><time>2026-04-19T08:41:56.944Z</time></trkpt><trkpt lat="38.9382972" lon="-2.8475107"><ele>818.7142857142858</ele><time>2026-04-19T08:41:57.944Z</time></trkpt><trkpt lat="38.9382361" lon="-2.8475396"><ele>818.5714285714286</ele><time>2026-04-19T08:41:58.944Z</time></trkpt><trkpt lat="38.9381744" lon="-2.8475687"><ele>818.4285714285714</ele><time>2026-04-19T08:41:59.944Z</time></trkpt><trkpt lat="38.9381116" lon="-2.8475924"><ele>818.2857142857143</ele><time>2026-04-19T08:42:00.944Z</time></trkpt><trkpt lat="38.9380509" lon="-2.8476194"><ele>818.1428571428571</ele><time>2026-04-19T08:42:01.944Z</time></trkpt><trkpt lat="38.9379366" lon="-2.847659"><ele>818.0</ele><time>2026-04-19T08:42:03.944Z</time></trkpt><trkpt lat="38.9378214" lon="-2.8477016"><ele>818.0</ele><time>2026-04-19T08:42:05.944Z</time></trkpt><trkpt lat="38.9377" lon="-2.8477435"><ele>818.0</ele><time>2026-04-19T08:42:07.944Z</time></trkpt><trkpt lat="38.9375797" lon="-2.8477479"><ele>818.0</ele><time>2026-04-19T08:42:09.944Z</time></trkpt><trkpt lat="38.9374608" lon="-2.8476985"><ele>818.0</ele><time>2026-04-19T08:42:11.944Z</time></trkpt><trkpt lat="38.9373579" lon="-2.847613"><ele>819.2</ele><time>2026-04-19T08:42:13.944Z</time></trkpt><trkpt lat="38.9373081" lon="-2.8475628"><ele>820.4</ele><time>2026-04-19T08:42:14.944Z</time></trkpt><trkpt lat="38.937208" lon="-2.8474706"><ele>821.6</ele><time>2026-04-19T08:42:16.944Z</time></trkpt><trkpt lat="38.9371149" lon="-2.8473715"><ele>822.8000000000001</ele><time>2026-04-19T08:42:18.944Z</time></trkpt><trkpt lat="38.9370275" lon="-2.8472702"><ele>824.0</ele><time>2026-04-19T08:42:20.944Z</time></trkpt><trkpt lat="38.9369375" lon="-2.8471709"><ele>824.0</ele><time>2026-04-19T08:42:22.944Z</time></trkpt><trkpt lat="38.9368453" lon="-2.8470771"><ele>824.0</ele><time>2026-04-19T08:42:24.944Z</time></trkpt><trkpt lat="38.9367522" lon="-2.8469785"><ele>824.0</ele><time>2026-04-19T08:42:26.944Z</time></trkpt><trkpt lat="38.9366616" lon="-2.8468943"><ele>824.0</ele><time>2026-04-19T08:42:28.944Z</time></trkpt><trkpt lat="38.9365651" lon="-2.8468164"><ele>824.75</ele><time>2026-04-19T08:42:30.944Z</time></trkpt><trkpt lat="38.936462" lon="-2.8467498"><ele>825.5</ele><time>2026-04-19T08:42:32.944Z</time></trkpt><trkpt lat="38.9363547" lon="-2.8467096"><ele>826.25</ele><time>2026-04-19T08:42:34.944Z</time></trkpt><trkpt lat="38.9362426" lon="-2.8466921"><ele>827.0</ele><time>2026-04-19T08:42:36.944Z</time></trkpt><trkpt lat="38.9361249" lon="-2.8466694"><ele>827.0</ele><time>2026-04-19T08:42:38.944Z</time></trkpt><trkpt lat="38.9360086" lon="-2.846647"><ele>827.0</ele><time>2026-04-19T08:42:40.944Z</time></trkpt><trkpt lat="38.9358904" lon="-2.8466358"><ele>827.0</ele><time>2026-04-19T08:42:42.944Z</time></trkpt><trkpt lat="38.9357722" lon="-2.8466161"><ele>827.0</ele><time>2026-04-19T08:42:44.944Z</time></trkpt><trkpt lat="38.9356587" lon="-2.8465913"><ele>827.4000000000001</ele><time>2026-04-19T08:42:46.944Z</time></trkpt><trkpt lat="38.9355467" lon="-2.8465649"><ele>827.8000000000001</ele><time>2026-04-19T08:42:48.944Z</time></trkpt><trkpt lat="38.9354502" lon="-2.8465157"><ele>828.2</ele><time>2026-04-19T08:42:50.943Z</time></trkpt><trkpt lat="38.9353776" lon="-2.846423"><ele>828.6</ele><time>2026-04-19T08:42:52.944Z</time></trkpt><trkpt lat="38.9353393" lon="-2.846298"><ele>829.0</ele><time>2026-04-19T08:42:54.944Z</time></trkpt><trkpt lat="38.9353275" lon="-2.8461568"><ele>829.0</ele><time>2026-04-19T08:42:56.944Z</time></trkpt><trkpt lat="38.9353245" lon="-2.8460143"><ele>829.0</ele><time>2026-04-19T08:42:58.945Z</time></trkpt><trkpt lat="38.9353231" lon="-2.8458758"><ele>829.0</ele><time>2026-04-19T08:43:00.944Z</time></trkpt><trkpt lat="38.9353171" lon="-2.8457377"><ele>829.0</ele><time>2026-04-19T08:43:02.944Z</time></trkpt><trkpt lat="38.9353164" lon="-2.845597"><ele>829.0</ele><time>2026-04-19T08:43:04.944Z</time></trkpt><trkpt lat="38.9353167" lon="-2.8454605"><ele>829.4000000000001</ele><time>2026-04-19T08:43:06.944Z</time></trkpt><trkpt lat="38.9353209" lon="-2.8453219"><ele>829.8</ele><time>2026-04-19T08:43:08.944Z</time></trkpt><trkpt lat="38.9353156" lon="-2.8451878"><ele>830.2</ele><time>2026-04-19T08:43:10.944Z</time></trkpt><trkpt lat="38.9353099" lon="-2.8450608"><ele>830.5999999999999</ele><time>2026-04-19T08:43:12.944Z</time></trkpt><trkpt lat="38.9353078" lon="-2.8449439"><ele>831.0</ele><time>2026-04-19T08:43:14.944Z</time></trkpt><trkpt lat="38.935309" lon="-2.8448326"><ele>831.0</ele><time>2026-04-19T08:43:16.944Z</time></trkpt><trkpt lat="38.9353059" lon="-2.8447345"><ele>831.0</ele><time>2026-04-19T08:43:18.944Z</time></trkpt><trkpt lat="38.9352896" lon="-2.8446378"><ele>831.0</ele><time>2026-04-19T08:43:20.944Z</time></trkpt><trkpt lat="38.9352689" lon="-2.8445446"><ele>831.0</ele><time>2026-04-19T08:43:22.944Z</time></trkpt><trkpt lat="38.9351933" lon="-2.8445253"><ele>831.0</ele><time>2026-04-19T08:43:25.944Z</time></trkpt><trkpt lat="38.93514" lon="-2.8446315"><ele>831.0</ele><time>2026-04-19T08:43:28.944Z</time></trkpt><trkpt lat="38.9351199" lon="-2.8447266"><ele>831.0</ele><time>2026-04-19T08:43:30.944Z</time></trkpt><trkpt lat="38.9351074" lon="-2.84482"><ele>831.0</ele><time>2026-04-19T08:43:32.943Z</time></trkpt><trkpt lat="38.9350905" lon="-2.8449273"><ele>831.0</ele><time>2026-04-19T08:43:34.944Z</time></trkpt><trkpt lat="38.9350858" lon="-2.8450428"><ele>831.0</ele><time>2026-04-19T08:43:36.943Z</time></trkpt><trkpt lat="38.9350842" lon="-2.8451573"><ele>831.0</ele><time>2026-04-19T08:43:38.944Z</time></trkpt><trkpt lat="38.9350823" lon="-2.8452488"><ele>831.0</ele><time>2026-04-19T08:43:40.944Z</time></trkpt><trkpt lat="38.9350675" lon="-2.8453304"><ele>831.5</ele><time>2026-04-19T08:43:42.943Z</time></trkpt><trkpt lat="38.9350332" lon="-2.8454482"><ele>832.0</ele><time>2026-04-19T08:43:44.943Z</time></trkpt><trkpt lat="38.9350001" lon="-2.8455357"><ele>832.5</ele><time>2026-04-19T08:43:46.944Z</time></trkpt><trkpt lat="38.9349622" lon="-2.8456063"><ele>833.0</ele><time>2026-04-19T08:43:48.943Z</time></trkpt><trkpt lat="38.9349149" lon="-2.8456852"><ele>833.5</ele><time>2026-04-19T08:43:50.944Z</time></trkpt><trkpt lat="38.9348504" lon="-2.8457427"><ele>834.0</ele><time>2026-04-19T08:43:52.944Z</time></trkpt><trkpt lat="38.9347899" lon="-2.8458064"><ele>834.0</ele><time>2026-04-19T08:43:54.943Z</time></trkpt><trkpt lat="38.9347264" lon="-2.8458615"><ele>834.0</ele><time>2026-04-19T08:43:56.944Z</time></trkpt><trkpt lat="38.9346627" lon="-2.8459058"><ele>834.0</ele><time>2026-04-19T08:43:58.944Z</time></trkpt><trkpt lat="38.9345932" lon="-2.8459602"><ele>834.0</ele><time>2026-04-19T08:44:00.944Z</time></trkpt><trkpt lat="38.9345253" lon="-2.8460194"><ele>834.0</ele><time>2026-04-19T08:44:02.944Z</time></trkpt><trkpt lat="38.9344609" lon="-2.8460646"><ele>834.0</ele><time>2026-04-19T08:44:04.944Z</time></trkpt><trkpt lat="38.9343857" lon="-2.8460998"><ele>833.5714285714286</ele><time>2026-04-19T08:44:06.944Z</time></trkpt><trkpt lat="38.9343082" lon="-2.8461211"><ele>833.1428571428571</ele><time>2026-04-19T08:44:08.944Z</time></trkpt><trkpt lat="38.9342358" lon="-2.8461419"><ele>832.7142857142857</ele><time>2026-04-19T08:44:10.944Z</time></trkpt><trkpt lat="38.9341642" lon="-2.8461426"><ele>832.2857142857142</ele><time>2026-04-19T08:44:12.944Z</time></trkpt><trkpt lat="38.9340919" lon="-2.8461478"><ele>831.8571428571429</ele><time>2026-04-19T08:44:14.944Z</time></trkpt><trkpt lat="38.9340315" lon="-2.8461809"><ele>831.4285714285713</ele><time>2026-04-19T08:44:16.943Z</time></trkpt><trkpt lat="38.9339712" lon="-2.8462183"><ele>831.0</ele><time>2026-04-19T08:44:18.944Z</time></trkpt><trkpt lat="38.9339115" lon="-2.8462451"><ele>832.3333333333334</ele><time>2026-04-19T08:44:20.943Z</time></trkpt><trkpt lat="38.9338251" lon="-2.8462507"><ele>833.6666666666667</ele><time>2026-04-19T08:44:23.944Z</time></trkpt><trkpt lat="38.9337388" lon="-2.8462583"><ele>835.0</ele><time>2026-04-19T08:44:26.944Z</time></trkpt><trkpt lat="38.9336478" lon="-2.8462294"><ele>836.3333333333334</ele><time>2026-04-19T08:44:29.944Z</time></trkpt><trkpt lat="38.9335637" lon="-2.8462096"><ele>837.6666666666667</ele><time>2026-04-19T08:44:32.944Z</time></trkpt><trkpt lat="38.933486" lon="-2.8461868"><ele>839.0</ele><time>2026-04-19T08:44:35.944Z</time></trkpt><trkpt lat="38.933426" lon="-2.8461603"><ele>841.0000000000001</ele><time>2026-04-19T08:44:38.944Z</time></trkpt><trkpt lat="38.9333615" lon="-2.846152"><ele>843.0</ele><time>2026-04-19T08:45:23.945Z</time></trkpt><trkpt lat="38.9332923" lon="-2.8461684"><ele>845.0</ele><time>2026-04-19T08:45:26.945Z</time></trkpt><trkpt lat="38.9332121" lon="-2.8461928"><ele>847.0</ele><time>2026-04-19T08:45:30.944Z</time></trkpt><trkpt lat="38.9331416" lon="-2.8462242"><ele>849.0000000000001</ele><time>2026-04-19T08:45:33.944Z</time></trkpt><trkpt lat="38.9330624" lon="-2.8462608"><ele>851.0</ele><time>2026-04-19T08:45:36.944Z</time></trkpt><trkpt lat="38.9329743" lon="-2.8462572"><ele>851.0</ele><time>2026-04-19T08:45:39.944Z</time></trkpt><trkpt lat="38.9328971" lon="-2.8462257"><ele>851.0</ele><time>2026-04-19T08:45:42.944Z</time></trkpt><trkpt lat="38.9328811" lon="-2.8461454"><ele>851.0</ele><time>2026-04-19T08:45:44.944Z</time></trkpt><trkpt lat="38.9329124" lon="-2.8460661"><ele>851.0</ele><time>2026-04-19T08:45:46.944Z</time></trkpt><trkpt lat="38.9329651" lon="-2.8460094"><ele>851.0</ele><time>2026-04-19T08:45:48.944Z</time></trkpt><trkpt lat="38.9330427" lon="-2.8459637"><ele>851.0</ele><time>2026-04-19T08:45:51.944Z</time></trkpt><trkpt lat="38.9330987" lon="-2.8459068"><ele>851.0</ele><time>2026-04-19T08:45:54.944Z</time></trkpt><trkpt lat="38.9331631" lon="-2.8458458"><ele>851.0</ele><time>2026-04-19T08:45:59.952Z</time></trkpt><trkpt lat="38.9331887" lon="-2.8457643"><ele>851.0</ele><time>2026-04-19T08:46:02.943Z</time></trkpt><trkpt lat="38.9332452" lon="-2.8457254"><ele>851.0</ele><time>2026-04-19T08:46:05.944Z</time></trkpt><trkpt lat="38.9333141" lon="-2.8457131"><ele>851.0</ele><time>2026-04-19T08:46:08.944Z</time></trkpt><trkpt lat="38.9333957" lon="-2.8457147"><ele>851.0</ele><time>2026-04-19T08:46:12.944Z</time></trkpt><trkpt lat="38.9334733" lon="-2.8457138"><ele>851.0</ele><time>2026-04-19T08:46:16.944Z</time></trkpt><trkpt lat="38.9335325" lon="-2.8456625"><ele>851.0</ele><time>2026-04-19T08:46:20.944Z</time></trkpt><trkpt lat="38.9335789" lon="-2.8455828"><ele>851.0000000000001</ele><time>2026-04-19T08:46:24.944Z</time></trkpt><trkpt lat="38.9336194" lon="-2.8454961"><ele>851.0</ele><time>2026-04-19T08:46:27.944Z</time></trkpt><trkpt lat="38.9336619" lon="-2.8453986"><ele>851.0</ele><time>2026-04-19T08:46:30.944Z</time></trkpt><trkpt lat="38.9336404" lon="-2.8452994"><ele>851.0</ele><time>2026-04-19T08:46:33.944Z</time></trkpt><trkpt lat="38.9335743" lon="-2.8452419"><ele>851.0000000000001</ele><time>2026-04-19T08:46:36.944Z</time></trkpt><trkpt lat="38.9334996" lon="-2.8452161"><ele>851.0</ele><time>2026-04-19T08:46:39.944Z</time></trkpt><trkpt lat="38.9334183" lon="-2.8452486"><ele>852.0000000000001</ele><time>2026-04-19T08:46:42.944Z</time></trkpt><trkpt lat="38.9333617" lon="-2.8453477"><ele>853.0</ele><time>2026-04-19T08:46:45.944Z</time></trkpt><trkpt lat="38.9332918" lon="-2.8453988"><ele>854.0</ele><time>2026-04-19T08:46:47.944Z</time></trkpt><trkpt lat="38.9332118" lon="-2.8454304"><ele>855.0</ele><time>2026-04-19T08:46:49.944Z</time></trkpt><trkpt lat="38.9331343" lon="-2.8454712"><ele>856.0000000000001</ele><time>2026-04-19T08:46:51.944Z</time></trkpt><trkpt lat="38.9330619" lon="-2.8455014"><ele>857.0</ele><time>2026-04-19T08:46:53.943Z</time></trkpt><trkpt lat="38.9330046" lon="-2.8455357"><ele>857.0000000000001</ele><time>2026-04-19T08:46:55.944Z</time></trkpt><trkpt lat="38.9329296" lon="-2.845581"><ele>857.0</ele><time>2026-04-19T08:46:58.943Z</time></trkpt><trkpt lat="38.9328699" lon="-2.8456091"><ele>857.0</ele><time>2026-04-19T08:47:00.944Z</time></trkpt><trkpt lat="38.9327807" lon="-2.8456335"><ele>857.0</ele><time>2026-04-19T08:47:03.944Z</time></trkpt><trkpt lat="38.9326974" lon="-2.8456485"><ele>857.0000000000001</ele><time>2026-04-19T08:47:06.944Z</time></trkpt><trkpt lat="38.9326139" lon="-2.8456672"><ele>857.0</ele><time>2026-04-19T08:47:09.944Z</time></trkpt><trkpt lat="38.9325256" lon="-2.8456975"><ele>858.7142857142857</ele><time>2026-04-19T08:47:12.944Z</time></trkpt><trkpt lat="38.9324548" lon="-2.8457299"><ele>860.4285714285713</ele><time>2026-04-19T08:47:15.944Z</time></trkpt><trkpt lat="38.9323804" lon="-2.8457301"><ele>862.1428571428571</ele><time>2026-04-19T08:47:19.943Z</time></trkpt><trkpt lat="38.9323199" lon="-2.8457063"><ele>863.8571428571429</ele><time>2026-04-19T08:47:50.944Z</time></trkpt><trkpt lat="38.9322424" lon="-2.845741"><ele>865.5714285714286</ele><time>2026-04-19T08:48:18.945Z</time></trkpt><trkpt lat="38.9321769" lon="-2.8457722"><ele>867.2857142857143</ele><time>2026-04-19T08:48:22.944Z</time></trkpt><trkpt lat="38.9321126" lon="-2.8457937"><ele>869.0</ele><time>2026-04-19T08:48:25.943Z</time></trkpt><trkpt lat="38.93205" lon="-2.8458098"><ele>869.0000000000001</ele><time>2026-04-19T08:48:28.943Z</time></trkpt><trkpt lat="38.9319736" lon="-2.8458604"><ele>869.0</ele><time>2026-04-19T08:48:31.942Z</time></trkpt><trkpt lat="38.9318918" lon="-2.8459042"><ele>869.0</ele><time>2026-04-19T08:48:34.943Z</time></trkpt><trkpt lat="38.9318326" lon="-2.8459497"><ele>869.0</ele><time>2026-04-19T08:48:37.943Z</time></trkpt><trkpt lat="38.931793" lon="-2.8460248"><ele>869.0000000000001</ele><time>2026-04-19T08:48:40.943Z</time></trkpt><trkpt lat="38.93176" lon="-2.8460952"><ele>869.0</ele><time>2026-04-19T08:48:43.943Z</time></trkpt><trkpt lat="38.9317878" lon="-2.8461862"><ele>869.1666666666667</ele><time>2026-04-19T08:48:46.942Z</time></trkpt><trkpt lat="38.9317807" lon="-2.8462823"><ele>869.3333333333334</ele><time>2026-04-19T08:48:49.943Z</time></trkpt><trkpt lat="38.9317232" lon="-2.8463519"><ele>869.5</ele><time>2026-04-19T08:48:52.943Z</time></trkpt><trkpt lat="38.9316763" lon="-2.8464356"><ele>869.6666666666667</ele><time>2026-04-19T08:48:55.943Z</time></trkpt><trkpt lat="38.9316988" lon="-2.8465407"><ele>869.8333333333334</ele><time>2026-04-19T08:48:58.943Z</time></trkpt><trkpt lat="38.9317768" lon="-2.8466151"><ele>870.0</ele><time>2026-04-19T08:49:01.942Z</time></trkpt><trkpt lat="38.9318116" lon="-2.8466968"><ele>870.0</ele><time>2026-04-19T08:49:03.943Z</time></trkpt><trkpt lat="38.931789" lon="-2.8467916"><ele>870.0</ele><time>2026-04-19T08:49:05.943Z</time></trkpt><trkpt lat="38.9317175" lon="-2.8468726"><ele>870.0</ele><time>2026-04-19T08:49:07.943Z</time></trkpt><trkpt lat="38.9316357" lon="-2.8469474"><ele>870.0</ele><time>2026-04-19T08:49:09.943Z</time></trkpt><trkpt lat="38.9315443" lon="-2.847019"><ele>870.0</ele><time>2026-04-19T08:49:11.943Z</time></trkpt><trkpt lat="38.9314581" lon="-2.8471004"><ele>871.2</ele><time>2026-04-19T08:49:13.943Z</time></trkpt><trkpt lat="38.9313741" lon="-2.8471772"><ele>872.4</ele><time>2026-04-19T08:49:15.943Z</time></trkpt><trkpt lat="38.9312856" lon="-2.8472502"><ele>873.5999999999999</ele><time>2026-04-19T08:49:17.944Z</time></trkpt><trkpt lat="38.9311988" lon="-2.8472766"><ele>874.8</ele><time>2026-04-19T08:49:19.943Z</time></trkpt><trkpt lat="38.9311558" lon="-2.8473426"><ele>876.0</ele><time>2026-04-19T08:49:21.943Z</time></trkpt><trkpt lat="38.9310957" lon="-2.8474257"><ele>876.0</ele><time>2026-04-19T08:49:23.943Z</time></trkpt><trkpt lat="38.9310519" lon="-2.847521"><ele>876.0</ele><time>2026-04-19T08:49:25.944Z</time></trkpt><trkpt lat="38.9310284" lon="-2.8476411"><ele>876.0</ele><time>2026-04-19T08:49:27.943Z</time></trkpt><trkpt lat="38.9309967" lon="-2.8477357"><ele>876.0</ele><time>2026-04-19T08:49:29.943Z</time></trkpt><trkpt lat="38.9309816" lon="-2.8478571"><ele>876.0</ele><time>2026-04-19T08:49:32.943Z</time></trkpt><trkpt lat="38.93097" lon="-2.8479594"><ele>876.0</ele><time>2026-04-19T08:49:34.943Z</time></trkpt><trkpt lat="38.9309884" lon="-2.8480623"><ele>876.1999999999999</ele><time>2026-04-19T08:49:36.944Z</time></trkpt><trkpt lat="38.9310024" lon="-2.84817"><ele>876.3999999999999</ele><time>2026-04-19T08:49:38.943Z</time></trkpt><trkpt lat="38.9309789" lon="-2.8482826"><ele>876.6</ele><time>2026-04-19T08:49:40.943Z</time></trkpt><trkpt lat="38.9309506" lon="-2.8483984"><ele>876.8</ele><time>2026-04-19T08:49:42.943Z</time></trkpt><trkpt lat="38.9308927" lon="-2.8485033"><ele>877.0</ele><time>2026-04-19T08:49:44.942Z</time></trkpt><trkpt lat="38.930804" lon="-2.8485696"><ele>877.4000000000001</ele><time>2026-04-19T08:49:46.943Z</time></trkpt><trkpt lat="38.9307312" lon="-2.8486788"><ele>877.8000000000001</ele><time>2026-04-19T08:49:48.943Z</time></trkpt><trkpt lat="38.9306534" lon="-2.8487796"><ele>878.2</ele><time>2026-04-19T08:49:50.943Z</time></trkpt><trkpt lat="38.9305777" lon="-2.8488914"><ele>878.6</ele><time>2026-04-19T08:49:52.943Z</time></trkpt><trkpt lat="38.9305201" lon="-2.8490143"><ele>879.0</ele><time>2026-04-19T08:49:54.943Z</time></trkpt><trkpt lat="38.9305039" lon="-2.8491289"><ele>879.0</ele><time>2026-04-19T08:49:56.943Z</time></trkpt><trkpt lat="38.9305497" lon="-2.8492329"><ele>879.0000000000001</ele><time>2026-04-19T08:49:58.942Z</time></trkpt><trkpt lat="38.9306569" lon="-2.849288"><ele>879.0000000000001</ele><time>2026-04-19T08:50:00.943Z</time></trkpt><trkpt lat="38.9307114" lon="-2.849401"><ele>879.0</ele><time>2026-04-19T08:50:02.943Z</time></trkpt><trkpt lat="38.9307499" lon="-2.849502"><ele>879.0</ele><time>2026-04-19T08:50:04.943Z</time></trkpt><trkpt lat="38.9308131" lon="-2.8494949"><ele>878.5</ele><time>2026-04-19T08:50:06.943Z</time></trkpt><trkpt lat="38.9308767" lon="-2.8495163"><ele>878.0</ele><time>2026-04-19T08:50:09.943Z</time></trkpt><trkpt lat="38.9309388" lon="-2.8495629"><ele>877.5</ele><time>2026-04-19T08:50:11.943Z</time></trkpt><trkpt lat="38.9310006" lon="-2.8496542"><ele>877.0</ele><time>2026-04-19T08:50:13.943Z</time></trkpt><trkpt lat="38.9310041" lon="-2.84977"><ele>876.5</ele><time>2026-04-19T08:50:15.943Z</time></trkpt><trkpt lat="38.9310354" lon="-2.8498687"><ele>876.0</ele><time>2026-04-19T08:50:17.943Z</time></trkpt><trkpt lat="38.9311186" lon="-2.8499844"><ele>873.8333333333334</ele><time>2026-04-19T08:50:19.943Z</time></trkpt><trkpt lat="38.9311439" lon="-2.850125"><ele>871.6666666666667</ele><time>2026-04-19T08:50:21.943Z</time></trkpt><trkpt lat="38.931171" lon="-2.8501994"><ele>869.5</ele><time>2026-04-19T08:50:22.943Z</time></trkpt><trkpt lat="38.9311868" lon="-2.8502868"><ele>867.3333333333334</ele><time>2026-04-19T08:50:24.944Z</time></trkpt><trkpt lat="38.9312458" lon="-2.8503507"><ele>865.1666666666667</ele><time>2026-04-19T08:50:26.943Z</time></trkpt><trkpt lat="38.9312767" lon="-2.8504326"><ele>863.0</ele><time>2026-04-19T08:50:28.943Z</time></trkpt><trkpt lat="38.9313171" lon="-2.8505385"><ele>863.0000000000001</ele><time>2026-04-19T08:50:30.943Z</time></trkpt><trkpt lat="38.9313087" lon="-2.8506298"><ele>863.0</ele><time>2026-04-19T08:50:31.943Z</time></trkpt><trkpt lat="38.9313318" lon="-2.8507535"><ele>863.0</ele><time>2026-04-19T08:50:33.943Z</time></trkpt><trkpt lat="38.9313998" lon="-2.8508405"><ele>863.0</ele><time>2026-04-19T08:50:35.942Z</time></trkpt><trkpt lat="38.9314334" lon="-2.8509446"><ele>863.0000000000001</ele><time>2026-04-19T08:50:37.943Z</time></trkpt><trkpt lat="38.931449" lon="-2.8510411"><ele>863.0</ele><time>2026-04-19T08:50:39.943Z</time></trkpt><trkpt lat="38.9314208" lon="-2.8511291"><ele>860.4</ele><time>2026-04-19T08:50:41.943Z</time></trkpt><trkpt lat="38.9314313" lon="-2.8512315"><ele>857.8</ele><time>2026-04-19T08:50:43.943Z</time></trkpt><trkpt lat="38.9314733" lon="-2.851363"><ele>855.2</ele><time>2026-04-19T08:50:45.943Z</time></trkpt><trkpt lat="38.931447" lon="-2.8514789"><ele>852.6</ele><time>2026-04-19T08:50:47.943Z</time></trkpt><trkpt lat="38.9314235" lon="-2.8516282"><ele>850.0</ele><time>2026-04-19T08:50:49.944Z</time></trkpt><trkpt lat="38.9314622" lon="-2.8517245"><ele>849.2</ele><time>2026-04-19T08:50:50.943Z</time></trkpt><trkpt lat="38.9314834" lon="-2.8518699"><ele>848.4</ele><time>2026-04-19T08:50:52.943Z</time></trkpt><trkpt lat="38.9315327" lon="-2.851982"><ele>847.5999999999999</ele><time>2026-04-19T08:50:54.943Z</time></trkpt><trkpt lat="38.9315538" lon="-2.8520626"><ele>846.8</ele><time>2026-04-19T08:50:56.943Z</time></trkpt><trkpt lat="38.9314662" lon="-2.8520437"><ele>846.0</ele><time>2026-04-19T08:52:03.943Z</time></trkpt><trkpt lat="38.9313809" lon="-2.8520853"><ele>846.0</ele><time>2026-04-19T08:52:06.943Z</time></trkpt><trkpt lat="38.9313267" lon="-2.8521551"><ele>846.0</ele><time>2026-04-19T08:52:08.943Z</time></trkpt><trkpt lat="38.9313069" lon="-2.8522535"><ele>846.0</ele><time>2026-04-19T08:52:10.943Z</time></trkpt><trkpt lat="38.9312878" lon="-2.8523397"><ele>846.0</ele><time>2026-04-19T08:52:12.944Z</time></trkpt><trkpt lat="38.9312491" lon="-2.8524107"><ele>846.0</ele><time>2026-04-19T08:52:14.943Z</time></trkpt><trkpt lat="38.9312018" lon="-2.8524726"><ele>846.0</ele><time>2026-04-19T08:52:16.943Z</time></trkpt><trkpt lat="38.9311461" lon="-2.8525293"><ele>846.0</ele><time>2026-04-19T08:52:18.943Z</time></trkpt><trkpt lat="38.9310945" lon="-2.8525909"><ele>848.0</ele><time>2026-04-19T08:52:20.944Z</time></trkpt><trkpt lat="38.9310362" lon="-2.8526555"><ele>850.0</ele><time>2026-04-19T08:52:22.943Z</time></trkpt><trkpt lat="38.930978" lon="-2.8527122"><ele>852.0</ele><time>2026-04-19T08:52:24.944Z</time></trkpt><trkpt lat="38.930914" lon="-2.8527703"><ele>854.0</ele><time>2026-04-19T08:52:26.942Z</time></trkpt><trkpt lat="38.9308392" lon="-2.8528295"><ele>856.0</ele><time>2026-04-19T08:52:28.943Z</time></trkpt><trkpt lat="38.9307569" lon="-2.8528852"><ele>858.0</ele><time>2026-04-19T08:52:30.943Z</time></trkpt><trkpt lat="38.9306675" lon="-2.8529241"><ele>858.5</ele><time>2026-04-19T08:52:32.943Z</time></trkpt><trkpt lat="38.9305818" lon="-2.8529618"><ele>859.0</ele><time>2026-04-19T08:52:34.943Z</time></trkpt><trkpt lat="38.9305032" lon="-2.8529784"><ele>859.5</ele><time>2026-04-19T08:52:36.943Z</time></trkpt><trkpt lat="38.9304398" lon="-2.8530032"><ele>860.0</ele><time>2026-04-19T08:52:38.943Z</time></trkpt><trkpt lat="38.9303468" lon="-2.8530191"><ele>860.5</ele><time>2026-04-19T08:52:41.943Z</time></trkpt><trkpt lat="38.9302564" lon="-2.8530281"><ele>861.0</ele><time>2026-04-19T08:52:43.944Z</time></trkpt><trkpt lat="38.9301701" lon="-2.8530353"><ele>861.0</ele><time>2026-04-19T08:52:45.943Z</time></trkpt><trkpt lat="38.9300888" lon="-2.8530377"><ele>861.0</ele><time>2026-04-19T08:52:47.943Z</time></trkpt><trkpt lat="38.9300085" lon="-2.8530248"><ele>861.0</ele><time>2026-04-19T08:52:49.943Z</time></trkpt><trkpt lat="38.9299287" lon="-2.8529998"><ele>861.0</ele><time>2026-04-19T08:52:51.944Z</time></trkpt><trkpt lat="38.929849" lon="-2.8529656"><ele>861.0</ele><time>2026-04-19T08:52:53.942Z</time></trkpt><trkpt lat="38.9297697" lon="-2.8529269"><ele>861.0</ele><time>2026-04-19T08:52:55.943Z</time></trkpt><trkpt lat="38.9296898" lon="-2.8528907"><ele>859.8333333333334</ele><time>2026-04-19T08:52:57.943Z</time></trkpt><trkpt lat="38.9296233" lon="-2.8528333"><ele>858.6666666666667</ele><time>2026-04-19T08:52:59.942Z</time></trkpt><trkpt lat="38.9295918" lon="-2.8527509"><ele>857.5</ele><time>2026-04-19T08:53:01.943Z</time></trkpt><trkpt lat="38.9295547" lon="-2.852662"><ele>856.3333333333334</ele><time>2026-04-19T08:53:03.943Z</time></trkpt><trkpt lat="38.9295002" lon="-2.8525903"><ele>855.1666666666667</ele><time>2026-04-19T08:53:05.943Z</time></trkpt><trkpt lat="38.9294356" lon="-2.85254"><ele>854.0</ele><time>2026-04-19T08:53:07.943Z</time></trkpt><trkpt lat="38.929368" lon="-2.8525007"><ele>854.0000000000001</ele><time>2026-04-19T08:53:09.943Z</time></trkpt><trkpt lat="38.9293006" lon="-2.8524662"><ele>854.0</ele><time>2026-04-19T08:53:11.943Z</time></trkpt><trkpt lat="38.9292339" lon="-2.852441"><ele>854.0</ele><time>2026-04-19T08:53:13.943Z</time></trkpt><trkpt lat="38.9291692" lon="-2.8524081"><ele>854.0</ele><time>2026-04-19T08:53:15.943Z</time></trkpt><trkpt lat="38.9291064" lon="-2.8523635"><ele>854.0000000000001</ele><time>2026-04-19T08:53:17.943Z</time></trkpt><trkpt lat="38.9290325" lon="-2.8523074"><ele>854.0</ele><time>2026-04-19T08:53:20.943Z</time></trkpt><trkpt lat="38.9289523" lon="-2.8522678"><ele>854.3333333333334</ele><time>2026-04-19T08:53:23.943Z</time></trkpt><trkpt lat="38.9288906" lon="-2.8522304"><ele>854.6666666666667</ele><time>2026-04-19T08:53:25.943Z</time></trkpt><trkpt lat="38.928829" lon="-2.8521874"><ele>855.0</ele><time>2026-04-19T08:53:27.943Z</time></trkpt><trkpt lat="38.9287575" lon="-2.8521439"><ele>855.3333333333333</ele><time>2026-04-19T08:53:29.942Z</time></trkpt><trkpt lat="38.9286795" lon="-2.8521164"><ele>855.6666666666666</ele><time>2026-04-19T08:53:31.943Z</time></trkpt><trkpt lat="38.9286018" lon="-2.8520897"><ele>856.0</ele><time>2026-04-19T08:53:33.943Z</time></trkpt><trkpt lat="38.9285236" lon="-2.8520649"><ele>855.9999999999999</ele><time>2026-04-19T08:53:35.943Z</time></trkpt><trkpt lat="38.9284446" lon="-2.8520453"><ele>856.0</ele><time>2026-04-19T08:53:37.942Z</time></trkpt><trkpt lat="38.9283687" lon="-2.8520304"><ele>856.0</ele><time>2026-04-19T08:53:39.943Z</time></trkpt><trkpt lat="38.9282954" lon="-2.8520111"><ele>856.0</ele><time>2026-04-19T08:53:41.943Z</time></trkpt><trkpt lat="38.9282244" lon="-2.8519903"><ele>855.9999999999999</ele><time>2026-04-19T08:53:43.943Z</time></trkpt><trkpt lat="38.9281537" lon="-2.8519657"><ele>856.0</ele><time>2026-04-19T08:53:45.944Z</time></trkpt><trkpt lat="38.9280795" lon="-2.8519297"><ele>857.3333333333333</ele><time>2026-04-19T08:53:47.943Z</time></trkpt><trkpt lat="38.9280017" lon="-2.8518938"><ele>858.6666666666666</ele><time>2026-04-19T08:53:49.943Z</time></trkpt><trkpt lat="38.9279126" lon="-2.8518662"><ele>860.0</ele><time>2026-04-19T08:53:51.944Z</time></trkpt><trkpt lat="38.927824" lon="-2.8518338"><ele>861.3333333333333</ele><time>2026-04-19T08:53:53.942Z</time></trkpt><trkpt lat="38.9277364" lon="-2.8517968"><ele>862.6666666666666</ele><time>2026-04-19T08:53:55.943Z</time></trkpt><trkpt lat="38.9276559" lon="-2.8517604"><ele>864.0</ele><time>2026-04-19T08:53:57.942Z</time></trkpt><trkpt lat="38.9275773" lon="-2.8517195"><ele>864.6666666666666</ele><time>2026-04-19T08:53:59.943Z</time></trkpt><trkpt lat="38.9275061" lon="-2.8516725"><ele>865.3333333333333</ele><time>2026-04-19T08:54:01.943Z</time></trkpt><trkpt lat="38.9274421" lon="-2.8516102"><ele>866.0</ele><time>2026-04-19T08:54:03.943Z</time></trkpt><trkpt lat="38.9273795" lon="-2.851547"><ele>866.6666666666666</ele><time>2026-04-19T08:54:05.943Z</time></trkpt><trkpt lat="38.9273223" lon="-2.8514809"><ele>867.3333333333333</ele><time>2026-04-19T08:54:07.943Z</time></trkpt><trkpt lat="38.9272738" lon="-2.8514087"><ele>868.0</ele><time>2026-04-19T08:54:09.943Z</time></trkpt><trkpt lat="38.9272235" lon="-2.8513422"><ele>868.0</ele><time>2026-04-19T08:54:11.943Z</time></trkpt><trkpt lat="38.9271749" lon="-2.8512791"><ele>868.0</ele><time>2026-04-19T08:54:13.943Z</time></trkpt><trkpt lat="38.9271239" lon="-2.851223"><ele>868.0</ele><time>2026-04-19T08:54:15.942Z</time></trkpt><trkpt lat="38.9270623" lon="-2.8511843"><ele>868.0</ele><time>2026-04-19T08:54:17.943Z</time></trkpt><trkpt lat="38.9269991" lon="-2.8511609"><ele>868.0</ele><time>2026-04-19T08:54:19.943Z</time></trkpt><trkpt lat="38.926929" lon="-2.851136"><ele>868.0</ele><time>2026-04-19T08:54:22.943Z</time></trkpt><trkpt lat="38.926859" lon="-2.851098"><ele>868.0</ele><time>2026-04-19T08:54:25.943Z</time></trkpt><trkpt lat="38.9267817" lon="-2.8510485"><ele>868.0</ele><time>2026-04-19T08:54:28.943Z</time></trkpt><trkpt lat="38.9267095" lon="-2.851"><ele>868.0</ele><time>2026-04-19T08:54:31.943Z</time></trkpt><trkpt lat="38.9266389" lon="-2.850962"><ele>868.0</ele><time>2026-04-19T08:54:34.943Z</time></trkpt><trkpt lat="38.9265722" lon="-2.8509395"><ele>868.0</ele><time>2026-04-19T08:54:37.943Z</time></trkpt><trkpt lat="38.926504" lon="-2.8509253"><ele>868.0</ele><time>2026-04-19T08:54:40.943Z</time></trkpt><trkpt lat="38.9264411" lon="-2.8509374"><ele>868.0</ele><time>2026-04-19T08:54:42.942Z</time></trkpt><trkpt lat="38.9263843" lon="-2.8509778"><ele>868.0</ele><time>2026-04-19T08:54:44.943Z</time></trkpt><trkpt lat="38.9263356" lon="-2.8510295"><ele>869.8</ele><time>2026-04-19T08:54:46.942Z</time></trkpt><trkpt lat="38.9262666" lon="-2.8510973"><ele>871.5999999999999</ele><time>2026-04-19T08:54:49.942Z</time></trkpt><trkpt lat="38.9261928" lon="-2.8511539"><ele>873.4000000000001</ele><time>2026-04-19T08:54:52.943Z</time></trkpt><trkpt lat="38.926112" lon="-2.8512077"><ele>875.2</ele><time>2026-04-19T08:54:55.943Z</time></trkpt><trkpt lat="38.9260264" lon="-2.8512476"><ele>877.0</ele><time>2026-04-19T08:54:58.943Z</time></trkpt><trkpt lat="38.9259344" lon="-2.8512849"><ele>877.4999999999999</ele><time>2026-04-19T08:55:01.943Z</time></trkpt><trkpt lat="38.9258573" lon="-2.8513176"><ele>878.0</ele><time>2026-04-19T08:55:04.943Z</time></trkpt><trkpt lat="38.9257719" lon="-2.8513458"><ele>878.5</ele><time>2026-04-19T08:55:07.944Z</time></trkpt><trkpt lat="38.9257113" lon="-2.8513737"><ele>879.0</ele><time>2026-04-19T08:55:09.943Z</time></trkpt><trkpt lat="38.925649" lon="-2.8514064"><ele>879.4999999999999</ele><time>2026-04-19T08:55:11.943Z</time></trkpt><trkpt lat="38.9255679" lon="-2.8514597"><ele>880.0</ele><time>2026-04-19T08:55:14.943Z</time></trkpt><trkpt lat="38.9255164" lon="-2.8515073"><ele>879.9999999999999</ele><time>2026-04-19T08:55:16.942Z</time></trkpt><trkpt lat="38.9254471" lon="-2.8515796"><ele>880.0</ele><time>2026-04-19T08:55:19.943Z</time></trkpt><trkpt lat="38.9253708" lon="-2.8516498"><ele>880.0</ele><time>2026-04-19T08:55:22.943Z</time></trkpt><trkpt lat="38.9253188" lon="-2.8516955"><ele>880.0</ele><time>2026-04-19T08:55:24.943Z</time></trkpt><trkpt lat="38.9252457" lon="-2.8517616"><ele>879.9999999999999</ele><time>2026-04-19T08:55:27.943Z</time></trkpt><trkpt lat="38.9251717" lon="-2.8518184"><ele>880.0</ele><time>2026-04-19T08:55:30.943Z</time></trkpt><trkpt lat="38.9250924" lon="-2.8518635"><ele>880.9999999999999</ele><time>2026-04-19T08:55:33.943Z</time></trkpt><trkpt lat="38.9250087" lon="-2.8519033"><ele>882.0</ele><time>2026-04-19T08:55:36.943Z</time></trkpt><trkpt lat="38.9249299" lon="-2.8519481"><ele>883.0</ele><time>2026-04-19T08:55:39.943Z</time></trkpt><trkpt lat="38.9248419" lon="-2.8519919"><ele>884.0</ele><time>2026-04-19T08:55:42.943Z</time></trkpt><trkpt lat="38.9247875" lon="-2.8520372"><ele>884.9999999999999</ele><time>2026-04-19T08:55:44.943Z</time></trkpt><trkpt lat="38.9247082" lon="-2.8520964"><ele>886.0</ele><time>2026-04-19T08:55:47.943Z</time></trkpt><trkpt lat="38.9246395" lon="-2.8521139"><ele>886.0</ele><time>2026-04-19T08:55:49.943Z</time></trkpt><trkpt lat="38.9245648" lon="-2.8521109"><ele>886.0</ele><time>2026-04-19T08:55:51.943Z</time></trkpt><trkpt lat="38.9244965" lon="-2.8521116"><ele>886.0</ele><time>2026-04-19T08:55:53.943Z</time></trkpt><trkpt lat="38.9244299" lon="-2.8521104"><ele>886.0</ele><time>2026-04-19T08:55:55.943Z</time></trkpt><trkpt lat="38.924365" lon="-2.8521184"><ele>886.0</ele><time>2026-04-19T08:55:57.944Z</time></trkpt><trkpt lat="38.9242728" lon="-2.8521318"><ele>886.0</ele><time>2026-04-19T08:56:00.943Z</time></trkpt><trkpt lat="38.9241967" lon="-2.8521485"><ele>886.0</ele><time>2026-04-19T08:56:03.943Z</time></trkpt><trkpt lat="38.9241195" lon="-2.8521568"><ele>886.2857142857143</ele><time>2026-04-19T08:56:06.943Z</time></trkpt><trkpt lat="38.9240444" lon="-2.8521685"><ele>886.5714285714287</ele><time>2026-04-19T08:56:09.942Z</time></trkpt><trkpt lat="38.92397" lon="-2.8521776"><ele>886.8571428571429</ele><time>2026-04-19T08:56:12.942Z</time></trkpt><trkpt lat="38.9239027" lon="-2.8521854"><ele>887.1428571428571</ele><time>2026-04-19T08:56:15.942Z</time></trkpt><trkpt lat="38.9238358" lon="-2.8521774"><ele>887.4285714285714</ele><time>2026-04-19T08:56:18.942Z</time></trkpt><trkpt lat="38.9237682" lon="-2.8521885"><ele>887.7142857142857</ele><time>2026-04-19T08:56:21.942Z</time></trkpt><trkpt lat="38.9237009" lon="-2.8522024"><ele>888.0</ele><time>2026-04-19T08:56:24.942Z</time></trkpt><trkpt lat="38.9236328" lon="-2.8522125"><ele>888.0</ele><time>2026-04-19T08:56:27.942Z</time></trkpt><trkpt lat="38.9235656" lon="-2.8522028"><ele>888.0</ele><time>2026-04-19T08:56:30.943Z</time></trkpt><trkpt lat="38.9235013" lon="-2.8522042"><ele>888.0</ele><time>2026-04-19T08:56:33.942Z</time></trkpt><trkpt lat="38.923434" lon="-2.8522223"><ele>888.0</ele><time>2026-04-19T08:56:37.943Z</time></trkpt><trkpt lat="38.9234048" lon="-2.8523066"><ele>888.0</ele><time>2026-04-19T08:56:42.941Z</time></trkpt><trkpt lat="38.9234522" lon="-2.8523673"><ele>888.0</ele><time>2026-04-19T08:56:45.942Z</time></trkpt><trkpt lat="38.9235062" lon="-2.8524375"><ele>888.0</ele><time>2026-04-19T08:56:48.942Z</time></trkpt><trkpt lat="38.923563" lon="-2.8525161"><ele>888.0</ele><time>2026-04-19T08:56:52.942Z</time></trkpt><trkpt lat="38.9236113" lon="-2.8525903"><ele>888.0</ele><time>2026-04-19T08:56:55.942Z</time></trkpt><trkpt lat="38.9236625" lon="-2.8526892"><ele>888.0</ele><time>2026-04-19T08:56:58.941Z</time></trkpt><trkpt lat="38.9237276" lon="-2.852742"><ele>888.0</ele><time>2026-04-19T08:57:00.942Z</time></trkpt><trkpt lat="38.9238186" lon="-2.8527621"><ele>888.0</ele><time>2026-04-19T08:57:02.942Z</time></trkpt><trkpt lat="38.9239087" lon="-2.8527874"><ele>888.0</ele><time>2026-04-19T08:57:04.942Z</time></trkpt><trkpt lat="38.9239791" lon="-2.8527998"><ele>888.5714285714286</ele><time>2026-04-19T08:57:06.943Z</time></trkpt><trkpt lat="38.924045" lon="-2.8528296"><ele>889.1428571428572</ele><time>2026-04-19T08:57:08.942Z</time></trkpt><trkpt lat="38.9240914" lon="-2.8528857"><ele>889.7142857142858</ele><time>2026-04-19T08:57:10.941Z</time></trkpt><trkpt lat="38.9241306" lon="-2.8529617"><ele>890.2857142857142</ele><time>2026-04-19T08:57:12.941Z</time></trkpt><trkpt lat="38.9241611" lon="-2.8530448"><ele>890.8571428571429</ele><time>2026-04-19T08:57:14.942Z</time></trkpt><trkpt lat="38.924195" lon="-2.8531304"><ele>891.4285714285714</ele><time>2026-04-19T08:57:16.942Z</time></trkpt><trkpt lat="38.9242325" lon="-2.8532175"><ele>892.0</ele><time>2026-04-19T08:57:18.942Z</time></trkpt><trkpt lat="38.9242771" lon="-2.8532921"><ele>892.0</ele><time>2026-04-19T08:57:20.942Z</time></trkpt><trkpt lat="38.9243249" lon="-2.8533661"><ele>892.0</ele><time>2026-04-19T08:57:22.942Z</time></trkpt><trkpt lat="38.9243779" lon="-2.8534304"><ele>892.0</ele><time>2026-04-19T08:57:24.942Z</time></trkpt><trkpt lat="38.9244313" lon="-2.8534874"><ele>892.0</ele><time>2026-04-19T08:57:26.941Z</time></trkpt><trkpt lat="38.9244877" lon="-2.8535436"><ele>892.0</ele><time>2026-04-19T08:57:28.942Z</time></trkpt><trkpt lat="38.924544" lon="-2.8536009"><ele>892.0</ele><time>2026-04-19T08:57:30.942Z</time></trkpt><trkpt lat="38.9246003" lon="-2.8536536"><ele>892.0</ele><time>2026-04-19T08:57:32.942Z</time></trkpt><trkpt lat="38.9246535" lon="-2.8537155"><ele>891.9999999999999</ele><time>2026-04-19T08:57:34.943Z</time></trkpt><trkpt lat="38.9247093" lon="-2.8537863"><ele>892.0</ele><time>2026-04-19T08:57:36.942Z</time></trkpt><trkpt lat="38.924763" lon="-2.8538655"><ele>892.0</ele><time>2026-04-19T08:57:38.942Z</time></trkpt><trkpt lat="38.9248113" lon="-2.8539507"><ele>892.0</ele><time>2026-04-19T08:57:40.942Z</time></trkpt><trkpt lat="38.924851" lon="-2.8540421"><ele>891.9999999999999</ele><time>2026-04-19T08:57:42.942Z</time></trkpt><trkpt lat="38.9248873" lon="-2.8541342"><ele>892.0</ele><time>2026-04-19T08:57:44.942Z</time></trkpt><trkpt lat="38.924924" lon="-2.8542267"><ele>891.8</ele><time>2026-04-19T08:57:46.942Z</time></trkpt><trkpt lat="38.924964" lon="-2.8543246"><ele>891.6</ele><time>2026-04-19T08:57:48.942Z</time></trkpt><trkpt lat="38.9249951" lon="-2.8544364"><ele>891.3999999999999</ele><time>2026-04-19T08:57:50.941Z</time></trkpt><trkpt lat="38.9250317" lon="-2.8545517"><ele>891.1999999999999</ele><time>2026-04-19T08:57:52.941Z</time></trkpt><trkpt lat="38.9250622" lon="-2.8546751"><ele>891.0</ele><time>2026-04-19T08:57:54.942Z</time></trkpt><trkpt lat="38.9250898" lon="-2.8548042"><ele>890.5999999999999</ele><time>2026-04-19T08:57:56.942Z</time></trkpt><trkpt lat="38.9251099" lon="-2.8549385"><ele>890.1999999999999</ele><time>2026-04-19T08:57:58.942Z</time></trkpt><trkpt lat="38.9251281" lon="-2.8550723"><ele>889.8000000000001</ele><time>2026-04-19T08:58:00.942Z</time></trkpt><trkpt lat="38.9251403" lon="-2.8552033"><ele>889.4000000000001</ele><time>2026-04-19T08:58:02.942Z</time></trkpt><trkpt lat="38.9251433" lon="-2.8553282"><ele>889.0</ele><time>2026-04-19T08:58:04.942Z</time></trkpt><trkpt lat="38.9251512" lon="-2.8554531"><ele>888.6</ele><time>2026-04-19T08:58:06.942Z</time></trkpt><trkpt lat="38.9252015" lon="-2.8555657"><ele>888.2</ele><time>2026-04-19T08:58:08.942Z</time></trkpt><trkpt lat="38.9252931" lon="-2.8556471"><ele>887.8000000000001</ele><time>2026-04-19T08:58:10.942Z</time></trkpt><trkpt lat="38.9254041" lon="-2.8557198"><ele>887.4000000000001</ele><time>2026-04-19T08:58:12.943Z</time></trkpt><trkpt lat="38.9254636" lon="-2.8557653"><ele>887.0</ele><time>2026-04-19T08:58:13.942Z</time></trkpt><trkpt lat="38.9255293" lon="-2.8558095"><ele>887.0000000000001</ele><time>2026-04-19T08:58:14.942Z</time></trkpt><trkpt lat="38.9255976" lon="-2.8558529"><ele>887.0</ele><time>2026-04-19T08:58:15.942Z</time></trkpt><trkpt lat="38.9256687" lon="-2.8558995"><ele>887.0</ele><time>2026-04-19T08:58:16.942Z</time></trkpt><trkpt lat="38.925745" lon="-2.8559428"><ele>887.0</ele><time>2026-04-19T08:58:17.942Z</time></trkpt><trkpt lat="38.9258234" lon="-2.8559768"><ele>887.0000000000001</ele><time>2026-04-19T08:58:18.942Z</time></trkpt><trkpt lat="38.9258987" lon="-2.8560156"><ele>887.0</ele><time>2026-04-19T08:58:19.942Z</time></trkpt><trkpt lat="38.9259691" lon="-2.8560481"><ele>887.0</ele><time>2026-04-19T08:58:20.942Z</time></trkpt><trkpt lat="38.9260313" lon="-2.856086"><ele>887.0</ele><time>2026-04-19T08:58:21.941Z</time></trkpt><trkpt lat="38.9260899" lon="-2.8561309"><ele>887.0</ele><time>2026-04-19T08:58:22.942Z</time></trkpt><trkpt lat="38.9261849" lon="-2.8562281"><ele>887.0</ele><time>2026-04-19T08:58:24.942Z</time></trkpt><trkpt lat="38.9262888" lon="-2.8563048"><ele>887.0</ele><time>2026-04-19T08:58:26.942Z</time></trkpt><trkpt lat="38.9263916" lon="-2.8563574"><ele>887.0</ele><time>2026-04-19T08:58:28.942Z</time></trkpt><trkpt lat="38.9264868" lon="-2.8564119"><ele>887.0</ele><time>2026-04-19T08:58:30.942Z</time></trkpt><trkpt lat="38.9265695" lon="-2.8564833"><ele>887.0</ele><time>2026-04-19T08:58:32.942Z</time></trkpt><trkpt lat="38.9266579" lon="-2.8565525"><ele>887.0</ele><time>2026-04-19T08:58:34.942Z</time></trkpt><trkpt lat="38.9267448" lon="-2.856622"><ele>887.0</ele><time>2026-04-19T08:58:36.942Z</time></trkpt><trkpt lat="38.9268292" lon="-2.8566784"><ele>887.0000000000001</ele><time>2026-04-19T08:58:38.942Z</time></trkpt><trkpt lat="38.9269072" lon="-2.8567288"><ele>887.0</ele><time>2026-04-19T08:58:40.942Z</time></trkpt><trkpt lat="38.9269938" lon="-2.8567551"><ele>887.0</ele><time>2026-04-19T08:58:42.942Z</time></trkpt><trkpt lat="38.9270676" lon="-2.8567815"><ele>887.0</ele><time>2026-04-19T08:58:44.942Z</time></trkpt><trkpt lat="38.9271398" lon="-2.856809"><ele>887.0000000000001</ele><time>2026-04-19T08:58:46.942Z</time></trkpt><trkpt lat="38.9272077" lon="-2.8568457"><ele>887.0</ele><time>2026-04-19T08:58:48.942Z</time></trkpt><trkpt lat="38.9272745" lon="-2.8568809"><ele>887.0000000000001</ele><time>2026-04-19T08:58:50.942Z</time></trkpt><trkpt lat="38.9273417" lon="-2.8569131"><ele>887.0</ele><time>2026-04-19T08:58:52.942Z</time></trkpt><trkpt lat="38.9274112" lon="-2.8569466"><ele>887.0</ele><time>2026-04-19T08:58:54.942Z</time></trkpt><trkpt lat="38.9274801" lon="-2.8569915"><ele>887.0</ele><time>2026-04-19T08:58:56.942Z</time></trkpt><trkpt lat="38.9275471" lon="-2.8570417"><ele>887.0000000000001</ele><time>2026-04-19T08:58:58.942Z</time></trkpt><trkpt lat="38.9276131" lon="-2.8570944"><ele>887.0</ele><time>2026-04-19T08:59:00.942Z</time></trkpt><trkpt lat="38.9276791" lon="-2.8571479"><ele>888.1666666666667</ele><time>2026-04-19T08:59:02.942Z</time></trkpt><trkpt lat="38.927742" lon="-2.8572104"><ele>889.3333333333334</ele><time>2026-04-19T08:59:04.942Z</time></trkpt><trkpt lat="38.9278119" lon="-2.8572727"><ele>890.5</ele><time>2026-04-19T08:59:06.942Z</time></trkpt><trkpt lat="38.9278929" lon="-2.8573233"><ele>891.6666666666667</ele><time>2026-04-19T08:59:08.942Z</time></trkpt><trkpt lat="38.9279754" lon="-2.8573677"><ele>892.8333333333334</ele><time>2026-04-19T08:59:10.942Z</time></trkpt><trkpt lat="38.9280651" lon="-2.8574"><ele>894.0</ele><time>2026-04-19T08:59:12.942Z</time></trkpt><trkpt lat="38.9281476" lon="-2.8574438"><ele>894.0</ele><time>2026-04-19T08:59:14.942Z</time></trkpt><trkpt lat="38.9282287" lon="-2.857504"><ele>894.0</ele><time>2026-04-19T08:59:16.942Z</time></trkpt><trkpt lat="38.9283103" lon="-2.857569"><ele>894.0</ele><time>2026-04-19T08:59:18.942Z</time></trkpt><trkpt lat="38.9283896" lon="-2.8576259"><ele>894.0</ele><time>2026-04-19T08:59:20.942Z</time></trkpt><trkpt lat="38.9284637" lon="-2.8576724"><ele>894.0</ele><time>2026-04-19T08:59:22.942Z</time></trkpt><trkpt lat="38.9285437" lon="-2.8576894"><ele>894.0</ele><time>2026-04-19T08:59:24.942Z</time></trkpt><trkpt lat="38.9286314" lon="-2.8577067"><ele>894.0</ele><time>2026-04-19T08:59:26.942Z</time></trkpt><trkpt lat="38.92872" lon="-2.857745"><ele>894.0000000000001</ele><time>2026-04-19T08:59:28.942Z</time></trkpt><trkpt lat="38.928806" lon="-2.8578143"><ele>894.0000000000001</ele><time>2026-04-19T08:59:30.942Z</time></trkpt><trkpt lat="38.9288853" lon="-2.8578824"><ele>894.0</ele><time>2026-04-19T08:59:32.942Z</time></trkpt><trkpt lat="38.9289586" lon="-2.8579473"><ele>894.0</ele><time>2026-04-19T08:59:34.942Z</time></trkpt><trkpt lat="38.929032" lon="-2.858003"><ele>894.0</ele><time>2026-04-19T08:59:36.942Z</time></trkpt><trkpt lat="38.9291097" lon="-2.8580569"><ele>894.0</ele><time>2026-04-19T08:59:38.942Z</time></trkpt><trkpt lat="38.9291769" lon="-2.8581178"><ele>894.0</ele><time>2026-04-19T08:59:40.942Z</time></trkpt><trkpt lat="38.9292451" lon="-2.8581679"><ele>894.0</ele><time>2026-04-19T08:59:42.942Z</time></trkpt><trkpt lat="38.9293078" lon="-2.8582178"><ele>894.0</ele><time>2026-04-19T08:59:44.942Z</time></trkpt><trkpt lat="38.9293778" lon="-2.8582718"><ele>894.0</ele><time>2026-04-19T08:59:46.942Z</time></trkpt><trkpt lat="38.9294676" lon="-2.8583431"><ele>894.75</ele><time>2026-04-19T08:59:48.942Z</time></trkpt><trkpt lat="38.9295665" lon="-2.8584203"><ele>895.5</ele><time>2026-04-19T08:59:50.942Z</time></trkpt><trkpt lat="38.9296677" lon="-2.8585028"><ele>896.25</ele><time>2026-04-19T08:59:52.942Z</time></trkpt><trkpt lat="38.9297618" lon="-2.8585875"><ele>897.0</ele><time>2026-04-19T08:59:54.942Z</time></trkpt><trkpt lat="38.9298677" lon="-2.8586581"><ele>895.8333333333334</ele><time>2026-04-19T08:59:56.942Z</time></trkpt><trkpt lat="38.929988" lon="-2.8586795"><ele>894.6666666666667</ele><time>2026-04-19T08:59:58.942Z</time></trkpt><trkpt lat="38.930051" lon="-2.8586867"><ele>893.5</ele><time>2026-04-19T08:59:59.942Z</time></trkpt><trkpt lat="38.9301153" lon="-2.8586854"><ele>892.3333333333334</ele><time>2026-04-19T09:00:00.942Z</time></trkpt><trkpt lat="38.9302383" lon="-2.8586638"><ele>891.1666666666667</ele><time>2026-04-19T09:00:02.942Z</time></trkpt><trkpt lat="38.9303022" lon="-2.8586565"><ele>890.0</ele><time>2026-04-19T09:00:03.942Z</time></trkpt><trkpt lat="38.9303663" lon="-2.8586341"><ele>890.1428571428572</ele><time>2026-04-19T09:00:04.942Z</time></trkpt><trkpt lat="38.9304288" lon="-2.8586095"><ele>890.2857142857142</ele><time>2026-04-19T09:00:05.942Z</time></trkpt><trkpt lat="38.9304919" lon="-2.8585759"><ele>890.4285714285714</ele><time>2026-04-19T09:00:06.942Z</time></trkpt><trkpt lat="38.930552" lon="-2.8585439"><ele>890.5714285714287</ele><time>2026-04-19T09:00:07.942Z</time></trkpt><trkpt lat="38.930615" lon="-2.8585135"><ele>890.7142857142858</ele><time>2026-04-19T09:00:08.942Z</time></trkpt><trkpt lat="38.9306831" lon="-2.8584915"><ele>890.8571428571429</ele><time>2026-04-19T09:00:09.943Z</time></trkpt><trkpt lat="38.930754" lon="-2.8584718"><ele>891.0</ele><time>2026-04-19T09:00:10.942Z</time></trkpt><trkpt lat="38.9308242" lon="-2.8584493"><ele>890.0000000000001</ele><time>2026-04-19T09:00:11.942Z</time></trkpt><trkpt lat="38.9308945" lon="-2.8584243"><ele>889.0</ele><time>2026-04-19T09:00:12.942Z</time></trkpt><trkpt lat="38.9309655" lon="-2.8583858"><ele>888.0</ele><time>2026-04-19T09:00:13.942Z</time></trkpt><trkpt lat="38.9310281" lon="-2.8583564"><ele>887.0</ele><time>2026-04-19T09:00:14.942Z</time></trkpt><trkpt lat="38.9310901" lon="-2.8583151"><ele>886.0</ele><time>2026-04-19T09:00:15.942Z</time></trkpt><trkpt lat="38.9311567" lon="-2.858266"><ele>885.0000000000001</ele><time>2026-04-19T09:00:16.942Z</time></trkpt><trkpt lat="38.9312235" lon="-2.8582219"><ele>884.0</ele><time>2026-04-19T09:00:17.942Z</time></trkpt><trkpt lat="38.9312886" lon="-2.8581787"><ele>884.0000000000001</ele><time>2026-04-19T09:00:18.942Z</time></trkpt><trkpt lat="38.9313514" lon="-2.8581537"><ele>884.0</ele><time>2026-04-19T09:00:19.942Z</time></trkpt><trkpt lat="38.9314184" lon="-2.8581481"><ele>884.0</ele><time>2026-04-19T09:00:20.942Z</time></trkpt><trkpt lat="38.9314859" lon="-2.8581586"><ele>884.0</ele><time>2026-04-19T09:00:21.942Z</time></trkpt><trkpt lat="38.9315489" lon="-2.858191"><ele>884.0</ele><time>2026-04-19T09:00:22.942Z</time></trkpt><trkpt lat="38.9316117" lon="-2.8582425"><ele>884.0000000000001</ele><time>2026-04-19T09:00:23.941Z</time></trkpt><trkpt lat="38.9316727" lon="-2.8583044"><ele>884.0</ele><time>2026-04-19T09:00:24.942Z</time></trkpt><trkpt lat="38.9317344" lon="-2.8583638"><ele>884.0000000000001</ele><time>2026-04-19T09:00:25.942Z</time></trkpt><trkpt lat="38.9318054" lon="-2.8584152"><ele>884.0</ele><time>2026-04-19T09:00:26.942Z</time></trkpt><trkpt lat="38.9318751" lon="-2.8584706"><ele>884.0</ele><time>2026-04-19T09:00:27.942Z</time></trkpt><trkpt lat="38.931947" lon="-2.8585264"><ele>884.0</ele><time>2026-04-19T09:00:28.942Z</time></trkpt><trkpt lat="38.932016" lon="-2.858585"><ele>884.0000000000001</ele><time>2026-04-19T09:00:29.942Z</time></trkpt><trkpt lat="38.9320854" lon="-2.8586397"><ele>884.0</ele><time>2026-04-19T09:00:30.942Z</time></trkpt><trkpt lat="38.9321528" lon="-2.8586989"><ele>884.0000000000001</ele><time>2026-04-19T09:00:31.943Z</time></trkpt><trkpt lat="38.9322193" lon="-2.858754"><ele>884.0</ele><time>2026-04-19T09:00:32.942Z</time></trkpt><trkpt lat="38.9322772" lon="-2.8588119"><ele>884.0</ele><time>2026-04-19T09:00:33.942Z</time></trkpt><trkpt lat="38.9323334" lon="-2.8588711"><ele>884.0</ele><time>2026-04-19T09:00:34.941Z</time></trkpt><trkpt lat="38.9323888" lon="-2.8589299"><ele>884.0</ele><time>2026-04-19T09:00:35.942Z</time></trkpt><trkpt lat="38.9324426" lon="-2.858987"><ele>884.0000000000001</ele><time>2026-04-19T09:00:36.942Z</time></trkpt><trkpt lat="38.9324937" lon="-2.8590356"><ele>884.0</ele><time>2026-04-19T09:00:37.942Z</time></trkpt><trkpt lat="38.9325896" lon="-2.8591163"><ele>885.0000000000001</ele><time>2026-04-19T09:00:39.942Z</time></trkpt><trkpt lat="38.9326665" lon="-2.8591716"><ele>886.0</ele><time>2026-04-19T09:00:41.942Z</time></trkpt><trkpt lat="38.932746" lon="-2.8592171"><ele>887.0</ele><time>2026-04-19T09:00:43.942Z</time></trkpt><trkpt lat="38.9328135" lon="-2.8592581"><ele>888.0</ele><time>2026-04-19T09:00:45.942Z</time></trkpt><trkpt lat="38.9328755" lon="-2.8592993"><ele>889.0000000000001</ele><time>2026-04-19T09:00:47.942Z</time></trkpt><trkpt lat="38.9329362" lon="-2.8593395"><ele>890.0</ele><time>2026-04-19T09:00:49.942Z</time></trkpt><trkpt lat="38.9329952" lon="-2.8593832"><ele>890.8333333333334</ele><time>2026-04-19T09:00:51.942Z</time></trkpt><trkpt lat="38.9330541" lon="-2.8594531"><ele>891.6666666666667</ele><time>2026-04-19T09:00:53.942Z</time></trkpt><trkpt lat="38.9331088" lon="-2.8595414"><ele>892.5</ele><time>2026-04-19T09:00:55.942Z</time></trkpt><trkpt lat="38.9331649" lon="-2.8596272"><ele>893.3333333333333</ele><time>2026-04-19T09:00:57.942Z</time></trkpt><trkpt lat="38.9332292" lon="-2.8596854"><ele>894.1666666666666</ele><time>2026-04-19T09:00:59.942Z</time></trkpt><trkpt lat="38.9332899" lon="-2.8597349"><ele>895.0</ele><time>2026-04-19T09:01:01.942Z</time></trkpt><trkpt lat="38.9333463" lon="-2.8597749"><ele>895.9999999999999</ele><time>2026-04-19T09:01:03.942Z</time></trkpt><trkpt lat="38.9334231" lon="-2.8598335"><ele>897.0</ele><time>2026-04-19T09:01:06.942Z</time></trkpt><trkpt lat="38.9334838" lon="-2.8599048"><ele>898.0</ele><time>2026-04-19T09:01:09.942Z</time></trkpt><trkpt lat="38.9335178" lon="-2.8599942"><ele>899.0</ele><time>2026-04-19T09:01:12.941Z</time></trkpt><trkpt lat="38.9335434" lon="-2.8600768"><ele>899.9999999999999</ele><time>2026-04-19T09:01:15.942Z</time></trkpt><trkpt lat="38.9335623" lon="-2.8601786"><ele>901.0</ele><time>2026-04-19T09:01:19.942Z</time></trkpt><trkpt lat="38.9335924" lon="-2.8602773"><ele>901.5714285714287</ele><time>2026-04-19T09:01:23.942Z</time></trkpt><trkpt lat="38.9336352" lon="-2.8603414"><ele>902.1428571428572</ele><time>2026-04-19T09:01:26.942Z</time></trkpt><trkpt lat="38.9336884" lon="-2.8604003"><ele>902.7142857142858</ele><time>2026-04-19T09:01:29.942Z</time></trkpt><trkpt lat="38.9337518" lon="-2.8604453"><ele>903.2857142857142</ele><time>2026-04-19T09:01:32.942Z</time></trkpt><trkpt lat="38.9338159" lon="-2.8605068"><ele>903.8571428571428</ele><time>2026-04-19T09:01:35.942Z</time></trkpt><trkpt lat="38.9338755" lon="-2.8605675"><ele>904.4285714285713</ele><time>2026-04-19T09:01:38.942Z</time></trkpt><trkpt lat="38.9339321" lon="-2.8606446"><ele>905.0</ele><time>2026-04-19T09:01:41.942Z</time></trkpt><trkpt lat="38.9339962" lon="-2.8607076"><ele>905.0</ele><time>2026-04-19T09:01:44.942Z</time></trkpt><trkpt lat="38.9340691" lon="-2.8607542"><ele>904.9999999999999</ele><time>2026-04-19T09:01:47.942Z</time></trkpt><trkpt lat="38.9341525" lon="-2.8608089"><ele>905.0</ele><time>2026-04-19T09:01:50.942Z</time></trkpt><trkpt lat="38.9342088" lon="-2.8608464"><ele>905.0</ele><time>2026-04-19T09:01:52.942Z</time></trkpt><trkpt lat="38.9342626" lon="-2.8608906"><ele>904.9999999999999</ele><time>2026-04-19T09:01:54.942Z</time></trkpt><trkpt lat="38.9343256" lon="-2.8609182"><ele>905.0</ele><time>2026-04-19T09:01:56.942Z</time></trkpt><trkpt lat="38.9343917" lon="-2.8609431"><ele>905.0</ele><time>2026-04-19T09:01:58.942Z</time></trkpt><trkpt lat="38.9344596" lon="-2.8609572"><ele>905.0000000000001</ele><time>2026-04-19T09:02:00.942Z</time></trkpt><trkpt lat="38.9345274" lon="-2.8609673"><ele>905.0</ele><time>2026-04-19T09:02:02.942Z</time></trkpt><trkpt lat="38.9346009" lon="-2.8609758"><ele>905.0</ele><time>2026-04-19T09:02:04.942Z</time></trkpt><trkpt lat="38.9346769" lon="-2.8609937"><ele>905.0</ele><time>2026-04-19T09:02:06.942Z</time></trkpt><trkpt lat="38.934753" lon="-2.8610252"><ele>905.0000000000001</ele><time>2026-04-19T09:02:08.942Z</time></trkpt><trkpt lat="38.93483" lon="-2.8610688"><ele>905.0</ele><time>2026-04-19T09:02:10.942Z</time></trkpt><trkpt lat="38.9349064" lon="-2.8611194"><ele>905.0</ele><time>2026-04-19T09:02:12.942Z</time></trkpt><trkpt lat="38.9349817" lon="-2.8611817"><ele>905.0</ele><time>2026-04-19T09:02:14.942Z</time></trkpt><trkpt lat="38.9350585" lon="-2.8612486"><ele>905.0</ele><time>2026-04-19T09:02:16.941Z</time></trkpt><trkpt lat="38.9351337" lon="-2.861326"><ele>905.0</ele><time>2026-04-19T09:02:18.942Z</time></trkpt><trkpt lat="38.9352057" lon="-2.8614116"><ele>905.0</ele><time>2026-04-19T09:02:20.942Z</time></trkpt><trkpt lat="38.9352799" lon="-2.8614988"><ele>905.4</ele><time>2026-04-19T09:02:22.941Z</time></trkpt><trkpt lat="38.9353591" lon="-2.8615799"><ele>905.8</ele><time>2026-04-19T09:02:24.942Z</time></trkpt><trkpt lat="38.9354408" lon="-2.8616486"><ele>906.2</ele><time>2026-04-19T09:02:26.942Z</time></trkpt><trkpt lat="38.9355245" lon="-2.8616967"><ele>906.6</ele><time>2026-04-19T09:02:28.941Z</time></trkpt><trkpt lat="38.9356128" lon="-2.8617436"><ele>907.0</ele><time>2026-04-19T09:02:30.942Z</time></trkpt><trkpt lat="38.9357092" lon="-2.8617829"><ele>907.0</ele><time>2026-04-19T09:02:32.941Z</time></trkpt><trkpt lat="38.9357862" lon="-2.8618281"><ele>907.0</ele><time>2026-04-19T09:02:34.942Z</time></trkpt><trkpt lat="38.935861" lon="-2.8618722"><ele>907.0</ele><time>2026-04-19T09:02:36.942Z</time></trkpt><trkpt lat="38.9359502" lon="-2.8619339"><ele>907.0</ele><time>2026-04-19T09:02:38.942Z</time></trkpt><trkpt lat="38.936036" lon="-2.8619874"><ele>907.0</ele><time>2026-04-19T09:02:40.941Z</time></trkpt><trkpt lat="38.9361199" lon="-2.8620381"><ele>906.6</ele><time>2026-04-19T09:02:42.942Z</time></trkpt><trkpt lat="38.9361927" lon="-2.8621042"><ele>906.2</ele><time>2026-04-19T09:02:44.942Z</time></trkpt><trkpt lat="38.9362769" lon="-2.8621314"><ele>905.8</ele><time>2026-04-19T09:02:46.942Z</time></trkpt><trkpt lat="38.9363767" lon="-2.8621424"><ele>905.4</ele><time>2026-04-19T09:02:48.943Z</time></trkpt><trkpt lat="38.9364856" lon="-2.8621592"><ele>905.0</ele><time>2026-04-19T09:02:50.941Z</time></trkpt><trkpt lat="38.9365873" lon="-2.8621802"><ele>905.0</ele><time>2026-04-19T09:02:52.941Z</time></trkpt><trkpt lat="38.9366862" lon="-2.8622152"><ele>905.0</ele><time>2026-04-19T09:02:54.942Z</time></trkpt><trkpt lat="38.9367822" lon="-2.8622445"><ele>905.0</ele><time>2026-04-19T09:02:56.942Z</time></trkpt><trkpt lat="38.9368756" lon="-2.8622584"><ele>905.0</ele><time>2026-04-19T09:02:58.942Z</time></trkpt><trkpt lat="38.936972" lon="-2.862256"><ele>905.0</ele><time>2026-04-19T09:03:00.942Z</time></trkpt><trkpt lat="38.9370592" lon="-2.8622555"><ele>905.4</ele><time>2026-04-19T09:03:02.942Z</time></trkpt><trkpt lat="38.9371416" lon="-2.8622522"><ele>905.8</ele><time>2026-04-19T09:03:04.941Z</time></trkpt><trkpt lat="38.9372345" lon="-2.8622555"><ele>906.2</ele><time>2026-04-19T09:03:06.942Z</time></trkpt><trkpt lat="38.9373329" lon="-2.8622657"><ele>906.6</ele><time>2026-04-19T09:03:08.942Z</time></trkpt><trkpt lat="38.9374346" lon="-2.8623039"><ele>907.0</ele><time>2026-04-19T09:03:10.942Z</time></trkpt><trkpt lat="38.9375249" lon="-2.862353"><ele>906.8</ele><time>2026-04-19T09:03:12.942Z</time></trkpt><trkpt lat="38.9376057" lon="-2.8624065"><ele>906.6</ele><time>2026-04-19T09:03:14.942Z</time></trkpt><trkpt lat="38.9376851" lon="-2.8624637"><ele>906.3999999999999</ele><time>2026-04-19T09:03:16.942Z</time></trkpt><trkpt lat="38.9377774" lon="-2.8625232"><ele>906.1999999999999</ele><time>2026-04-19T09:03:18.942Z</time></trkpt><trkpt lat="38.9378704" lon="-2.8625798"><ele>906.0</ele><time>2026-04-19T09:03:20.941Z</time></trkpt><trkpt lat="38.9379697" lon="-2.8626326"><ele>906.0</ele><time>2026-04-19T09:03:22.941Z</time></trkpt><trkpt lat="38.93807" lon="-2.8626955"><ele>906.0</ele><time>2026-04-19T09:03:24.941Z</time></trkpt><trkpt lat="38.9381687" lon="-2.8627793"><ele>906.0</ele><time>2026-04-19T09:03:26.941Z</time></trkpt><trkpt lat="38.9382639" lon="-2.8628802"><ele>906.0</ele><time>2026-04-19T09:03:28.941Z</time></trkpt><trkpt lat="38.9383657" lon="-2.8629756"><ele>905.4</ele><time>2026-04-19T09:03:30.941Z</time></trkpt><trkpt lat="38.9384206" lon="-2.863019"><ele>904.8</ele><time>2026-04-19T09:03:31.941Z</time></trkpt><trkpt lat="38.9385326" lon="-2.8630806"><ele>904.1999999999999</ele><time>2026-04-19T09:03:33.941Z</time></trkpt><trkpt lat="38.938653" lon="-2.8631261"><ele>903.5999999999999</ele><time>2026-04-19T09:03:35.941Z</time></trkpt><trkpt lat="38.9387746" lon="-2.8631794"><ele>903.0</ele><time>2026-04-19T09:03:37.94Z</time></trkpt><trkpt lat="38.9388389" lon="-2.8632104"><ele>903.0</ele><time>2026-04-19T09:03:38.941Z</time></trkpt><trkpt lat="38.9389017" lon="-2.8632384"><ele>903.0</ele><time>2026-04-19T09:03:39.941Z</time></trkpt><trkpt lat="38.9389663" lon="-2.8632603"><ele>903.0</ele><time>2026-04-19T09:03:40.941Z</time></trkpt><trkpt lat="38.9390328" lon="-2.8632786"><ele>903.0</ele><time>2026-04-19T09:03:41.94Z</time></trkpt><trkpt lat="38.9391003" lon="-2.8632898"><ele>903.0</ele><time>2026-04-19T09:03:42.941Z</time></trkpt><trkpt lat="38.9391672" lon="-2.8632921"><ele>903.0</ele><time>2026-04-19T09:03:43.941Z</time></trkpt><trkpt lat="38.9392347" lon="-2.8632857"><ele>903.0</ele><time>2026-04-19T09:03:44.941Z</time></trkpt><trkpt lat="38.9393013" lon="-2.863285"><ele>902.8333333333334</ele><time>2026-04-19T09:03:45.941Z</time></trkpt><trkpt lat="38.9393675" lon="-2.8632797"><ele>902.6666666666667</ele><time>2026-04-19T09:03:46.941Z</time></trkpt><trkpt lat="38.9394338" lon="-2.8632768"><ele>902.5</ele><time>2026-04-19T09:03:47.941Z</time></trkpt><trkpt lat="38.9395547" lon="-2.8632734"><ele>902.3333333333334</ele><time>2026-04-19T09:03:49.941Z</time></trkpt><trkpt lat="38.939674" lon="-2.8632784"><ele>902.1666666666667</ele><time>2026-04-19T09:03:51.941Z</time></trkpt><trkpt lat="38.9397361" lon="-2.8632922"><ele>902.0</ele><time>2026-04-19T09:03:52.941Z</time></trkpt><trkpt lat="38.9397961" lon="-2.8633211"><ele>902.0</ele><time>2026-04-19T09:03:53.941Z</time></trkpt><trkpt lat="38.9398519" lon="-2.8633588"><ele>902.0</ele><time>2026-04-19T09:03:54.94Z</time></trkpt><trkpt lat="38.9399577" lon="-2.8634446"><ele>902.0</ele><time>2026-04-19T09:03:56.94Z</time></trkpt><trkpt lat="38.9400112" lon="-2.8634878"><ele>902.0</ele><time>2026-04-19T09:03:57.941Z</time></trkpt><trkpt lat="38.9400653" lon="-2.8635314"><ele>902.0</ele><time>2026-04-19T09:03:58.941Z</time></trkpt><trkpt lat="38.9401171" lon="-2.8635812"><ele>902.0</ele><time>2026-04-19T09:03:59.941Z</time></trkpt><trkpt lat="38.940169" lon="-2.8636324"><ele>902.0</ele><time>2026-04-19T09:04:00.941Z</time></trkpt><trkpt lat="38.9402193" lon="-2.8636899"><ele>901.7142857142857</ele><time>2026-04-19T09:04:01.941Z</time></trkpt><trkpt lat="38.9402714" lon="-2.8637472"><ele>901.4285714285716</ele><time>2026-04-19T09:04:02.941Z</time></trkpt><trkpt lat="38.9403272" lon="-2.8638051"><ele>901.1428571428572</ele><time>2026-04-19T09:04:03.941Z</time></trkpt><trkpt lat="38.9403815" lon="-2.8638583"><ele>900.8571428571429</ele><time>2026-04-19T09:04:04.941Z</time></trkpt><trkpt lat="38.940442" lon="-2.8639031"><ele>900.5714285714287</ele><time>2026-04-19T09:04:05.941Z</time></trkpt><trkpt lat="38.9404996" lon="-2.8639615"><ele>900.2857142857144</ele><time>2026-04-19T09:04:06.941Z</time></trkpt><trkpt lat="38.9405598" lon="-2.8640158"><ele>900.0000000000001</ele><time>2026-04-19T09:04:07.941Z</time></trkpt><trkpt lat="38.9406218" lon="-2.864069"><ele>900.0</ele><time>2026-04-19T09:04:08.941Z</time></trkpt><trkpt lat="38.9406828" lon="-2.8641247"><ele>900.0</ele><time>2026-04-19T09:04:09.941Z</time></trkpt><trkpt lat="38.9407498" lon="-2.8641701"><ele>900.0</ele><time>2026-04-19T09:04:10.94Z</time></trkpt><trkpt lat="38.9408182" lon="-2.8642203"><ele>900.0</ele><time>2026-04-19T09:04:11.941Z</time></trkpt><trkpt lat="38.9408832" lon="-2.8642733"><ele>900.0</ele><time>2026-04-19T09:04:12.941Z</time></trkpt><trkpt lat="38.9409463" lon="-2.8643277"><ele>900.0</ele><time>2026-04-19T09:04:13.941Z</time></trkpt><trkpt lat="38.9410085" lon="-2.8643834"><ele>898.1666666666666</ele><time>2026-04-19T09:04:14.941Z</time></trkpt><trkpt lat="38.9410728" lon="-2.8644387"><ele>896.3333333333333</ele><time>2026-04-19T09:04:15.941Z</time></trkpt><trkpt lat="38.9411354" lon="-2.8644923"><ele>894.5</ele><time>2026-04-19T09:04:16.941Z</time></trkpt><trkpt lat="38.9411979" lon="-2.8645519"><ele>892.6666666666666</ele><time>2026-04-19T09:04:17.941Z</time></trkpt><trkpt lat="38.9412595" lon="-2.8646082"><ele>890.8333333333333</ele><time>2026-04-19T09:04:18.941Z</time></trkpt><trkpt lat="38.9413202" lon="-2.8646668"><ele>889.0</ele><time>2026-04-19T09:04:19.941Z</time></trkpt><trkpt lat="38.9413803" lon="-2.8647274"><ele>888.9999999999999</ele><time>2026-04-19T09:04:20.941Z</time></trkpt><trkpt lat="38.9414431" lon="-2.8647864"><ele>889.0</ele><time>2026-04-19T09:04:21.941Z</time></trkpt><trkpt lat="38.9415065" lon="-2.8648417"><ele>889.0</ele><time>2026-04-19T09:04:22.94Z</time></trkpt><trkpt lat="38.9415726" lon="-2.8648898"><ele>889.0</ele><time>2026-04-19T09:04:23.941Z</time></trkpt><trkpt lat="38.9416442" lon="-2.8649301"><ele>888.9999999999999</ele><time>2026-04-19T09:04:24.941Z</time></trkpt><trkpt lat="38.9417168" lon="-2.8649677"><ele>889.0</ele><time>2026-04-19T09:04:25.94Z</time></trkpt><trkpt lat="38.9417853" lon="-2.8650125"><ele>888.6666666666666</ele><time>2026-04-19T09:04:26.941Z</time></trkpt><trkpt lat="38.9418527" lon="-2.8650604"><ele>888.3333333333333</ele><time>2026-04-19T09:04:27.941Z</time></trkpt><trkpt lat="38.9419212" lon="-2.8651119"><ele>888.0</ele><time>2026-04-19T09:04:28.94Z</time></trkpt><trkpt lat="38.9419931" lon="-2.8651582"><ele>887.6666666666667</ele><time>2026-04-19T09:04:29.941Z</time></trkpt><trkpt lat="38.9420632" lon="-2.8652111"><ele>887.3333333333334</ele><time>2026-04-19T09:04:30.941Z</time></trkpt><trkpt lat="38.9421317" lon="-2.8652706"><ele>887.0</ele><time>2026-04-19T09:04:31.94Z</time></trkpt><trkpt lat="38.9421998" lon="-2.8653269"><ele>886.6666666666667</ele><time>2026-04-19T09:04:32.941Z</time></trkpt><trkpt lat="38.9422698" lon="-2.8653782"><ele>886.3333333333334</ele><time>2026-04-19T09:04:33.941Z</time></trkpt><trkpt lat="38.9423457" lon="-2.8654205"><ele>886.0</ele><time>2026-04-19T09:04:34.941Z</time></trkpt><trkpt lat="38.9424233" lon="-2.8654659"><ele>885.6666666666667</ele><time>2026-04-19T09:04:35.941Z</time></trkpt><trkpt lat="38.942497" lon="-2.8655122"><ele>885.3333333333334</ele><time>2026-04-19T09:04:36.941Z</time></trkpt><trkpt lat="38.9425678" lon="-2.8655643"><ele>885.0</ele><time>2026-04-19T09:04:37.941Z</time></trkpt><trkpt lat="38.942639" lon="-2.8656153"><ele>884.3333333333334</ele><time>2026-04-19T09:04:38.941Z</time></trkpt><trkpt lat="38.9427088" lon="-2.8656689"><ele>883.6666666666667</ele><time>2026-04-19T09:04:39.941Z</time></trkpt><trkpt lat="38.9427787" lon="-2.8657157"><ele>883.0</ele><time>2026-04-19T09:04:40.941Z</time></trkpt><trkpt lat="38.9428504" lon="-2.8657689"><ele>882.3333333333334</ele><time>2026-04-19T09:04:41.941Z</time></trkpt><trkpt lat="38.9429227" lon="-2.8658141"><ele>881.6666666666667</ele><time>2026-04-19T09:04:42.941Z</time></trkpt><trkpt lat="38.9429964" lon="-2.8658538"><ele>881.0</ele><time>2026-04-19T09:04:43.941Z</time></trkpt><trkpt lat="38.9430702" lon="-2.8658968"><ele>881.0000000000001</ele><time>2026-04-19T09:04:44.941Z</time></trkpt><trkpt lat="38.9431456" lon="-2.8659415"><ele>881.0</ele><time>2026-04-19T09:04:45.941Z</time></trkpt><trkpt lat="38.9432173" lon="-2.8659841"><ele>881.0</ele><time>2026-04-19T09:04:46.941Z</time></trkpt><trkpt lat="38.9432877" lon="-2.8660272"><ele>881.0</ele><time>2026-04-19T09:04:47.941Z</time></trkpt><trkpt lat="38.943359" lon="-2.8660622"><ele>881.0000000000001</ele><time>2026-04-19T09:04:48.941Z</time></trkpt><trkpt lat="38.94343" lon="-2.8660952"><ele>881.0</ele><time>2026-04-19T09:04:49.941Z</time></trkpt><trkpt lat="38.9434975" lon="-2.8661305"><ele>880.4285714285714</ele><time>2026-04-19T09:04:50.941Z</time></trkpt><trkpt lat="38.9435663" lon="-2.8661723"><ele>879.8571428571429</ele><time>2026-04-19T09:04:51.941Z</time></trkpt><trkpt lat="38.9436323" lon="-2.8662203"><ele>879.2857142857143</ele><time>2026-04-19T09:04:52.941Z</time></trkpt><trkpt lat="38.9436951" lon="-2.8662678"><ele>878.7142857142858</ele><time>2026-04-19T09:04:53.941Z</time></trkpt><trkpt lat="38.9437593" lon="-2.8663173"><ele>878.1428571428571</ele><time>2026-04-19T09:04:54.941Z</time></trkpt><trkpt lat="38.9438223" lon="-2.8663662"><ele>877.5714285714287</ele><time>2026-04-19T09:04:55.941Z</time></trkpt><trkpt lat="38.9438887" lon="-2.8664117"><ele>877.0</ele><time>2026-04-19T09:04:56.941Z</time></trkpt><trkpt lat="38.9439552" lon="-2.8664545"><ele>877.0000000000001</ele><time>2026-04-19T09:04:57.94Z</time></trkpt><trkpt lat="38.9440214" lon="-2.8664964"><ele>877.0</ele><time>2026-04-19T09:04:58.941Z</time></trkpt><trkpt lat="38.9440878" lon="-2.8665314"><ele>877.0</ele><time>2026-04-19T09:04:59.941Z</time></trkpt><trkpt lat="38.9441599" lon="-2.8665477"><ele>877.0</ele><time>2026-04-19T09:05:00.941Z</time></trkpt><trkpt lat="38.9442327" lon="-2.8665534"><ele>877.0</ele><time>2026-04-19T09:05:01.941Z</time></trkpt><trkpt lat="38.9443049" lon="-2.8665697"><ele>877.0000000000001</ele><time>2026-04-19T09:05:02.941Z</time></trkpt><trkpt lat="38.944368" lon="-2.8666086"><ele>877.0</ele><time>2026-04-19T09:05:03.941Z</time></trkpt><trkpt lat="38.9444232" lon="-2.8666687"><ele>876.0000000000001</ele><time>2026-04-19T09:05:04.941Z</time></trkpt><trkpt lat="38.9444732" lon="-2.8667335"><ele>875.0</ele><time>2026-04-19T09:05:05.941Z</time></trkpt><trkpt lat="38.9445226" lon="-2.866801"><ele>874.0</ele><time>2026-04-19T09:05:06.941Z</time></trkpt><trkpt lat="38.9445759" lon="-2.8668625"><ele>873.0</ele><time>2026-04-19T09:05:07.942Z</time></trkpt><trkpt lat="38.9446386" lon="-2.8669067"><ele>872.0</ele><time>2026-04-19T09:05:08.941Z</time></trkpt><trkpt lat="38.9447046" lon="-2.8669216"><ele>871.0000000000001</ele><time>2026-04-19T09:05:09.942Z</time></trkpt><trkpt lat="38.9447736" lon="-2.8669191"><ele>870.0</ele><time>2026-04-19T09:05:10.941Z</time></trkpt><trkpt lat="38.9448439" lon="-2.8669402"><ele>869.5</ele><time>2026-04-19T09:05:11.941Z</time></trkpt><trkpt lat="38.9449085" lon="-2.8669804"><ele>869.0</ele><time>2026-04-19T09:05:12.941Z</time></trkpt><trkpt lat="38.9449612" lon="-2.8670316"><ele>868.5</ele><time>2026-04-19T09:05:13.941Z</time></trkpt><trkpt lat="38.9450192" lon="-2.8670798"><ele>868.0</ele><time>2026-04-19T09:05:14.941Z</time></trkpt><trkpt lat="38.9450777" lon="-2.8671287"><ele>867.5</ele><time>2026-04-19T09:05:15.941Z</time></trkpt><trkpt lat="38.9451326" lon="-2.867182"><ele>867.0</ele><time>2026-04-19T09:05:16.941Z</time></trkpt><trkpt lat="38.9452343" lon="-2.867268"><ele>868.8</ele><time>2026-04-19T09:05:18.941Z</time></trkpt><trkpt lat="38.9452897" lon="-2.8673109"><ele>870.6</ele><time>2026-04-19T09:05:19.941Z</time></trkpt><trkpt lat="38.9453894" lon="-2.8673805"><ele>872.3999999999999</ele><time>2026-04-19T09:05:21.942Z</time></trkpt><trkpt lat="38.9454844" lon="-2.8674011"><ele>874.1999999999999</ele><time>2026-04-19T09:05:23.94Z</time></trkpt><trkpt lat="38.9455836" lon="-2.8673886"><ele>876.0</ele><time>2026-04-19T09:05:25.941Z</time></trkpt><trkpt lat="38.9456871" lon="-2.8673632"><ele>876.0</ele><time>2026-04-19T09:05:27.941Z</time></trkpt><trkpt lat="38.9457979" lon="-2.8673485"><ele>875.9999999999999</ele><time>2026-04-19T09:05:29.941Z</time></trkpt><trkpt lat="38.9459119" lon="-2.8673422"><ele>875.9999999999999</ele><time>2026-04-19T09:05:31.941Z</time></trkpt><trkpt lat="38.9460222" lon="-2.8673396"><ele>876.0</ele><time>2026-04-19T09:05:33.94Z</time></trkpt><trkpt lat="38.9461285" lon="-2.867338"><ele>876.0</ele><time>2026-04-19T09:05:35.941Z</time></trkpt><trkpt lat="38.9462341" lon="-2.8673316"><ele>875.4</ele><time>2026-04-19T09:05:37.941Z</time></trkpt><trkpt lat="38.9463454" lon="-2.8673206"><ele>874.8</ele><time>2026-04-19T09:05:39.941Z</time></trkpt><trkpt lat="38.9464693" lon="-2.867291"><ele>874.1999999999999</ele><time>2026-04-19T09:05:41.941Z</time></trkpt><trkpt lat="38.9465344" lon="-2.8672736"><ele>873.5999999999999</ele><time>2026-04-19T09:05:42.941Z</time></trkpt><trkpt lat="38.9466077" lon="-2.8672511"><ele>873.0</ele><time>2026-04-19T09:05:43.94Z</time></trkpt><trkpt lat="38.9466881" lon="-2.8672356"><ele>871.2</ele><time>2026-04-19T09:05:44.941Z</time></trkpt><trkpt lat="38.9467751" lon="-2.8672251"><ele>869.4</ele><time>2026-04-19T09:05:45.941Z</time></trkpt><trkpt lat="38.9468691" lon="-2.8672205"><ele>867.6000000000001</ele><time>2026-04-19T09:05:46.941Z</time></trkpt><trkpt lat="38.9469648" lon="-2.8672209"><ele>865.8000000000001</ele><time>2026-04-19T09:05:47.941Z</time></trkpt><trkpt lat="38.9470585" lon="-2.8672171"><ele>864.0</ele><time>2026-04-19T09:05:48.941Z</time></trkpt><trkpt lat="38.9471467" lon="-2.8672109"><ele>864.0</ele><time>2026-04-19T09:05:49.941Z</time></trkpt><trkpt lat="38.9472276" lon="-2.8671993"><ele>864.0</ele><time>2026-04-19T09:05:50.941Z</time></trkpt><trkpt lat="38.9473009" lon="-2.8671943"><ele>864.0</ele><time>2026-04-19T09:05:51.941Z</time></trkpt><trkpt lat="38.9473814" lon="-2.8672028"><ele>864.0</ele><time>2026-04-19T09:05:52.941Z</time></trkpt><trkpt lat="38.9474644" lon="-2.8672154"><ele>864.0</ele><time>2026-04-19T09:05:53.941Z</time></trkpt><trkpt lat="38.9475527" lon="-2.867197"><ele>864.0</ele><time>2026-04-19T09:05:54.941Z</time></trkpt><trkpt lat="38.9476347" lon="-2.8671711"><ele>863.8000000000001</ele><time>2026-04-19T09:05:55.941Z</time></trkpt><trkpt lat="38.94771" lon="-2.8671318"><ele>863.6000000000001</ele><time>2026-04-19T09:05:56.941Z</time></trkpt><trkpt lat="38.9477792" lon="-2.8671015"><ele>863.4</ele><time>2026-04-19T09:05:57.941Z</time></trkpt><trkpt lat="38.9478895" lon="-2.8670491"><ele>863.2</ele><time>2026-04-19T09:05:59.941Z</time></trkpt><trkpt lat="38.9479926" lon="-2.8670077"><ele>863.0</ele><time>2026-04-19T09:06:01.941Z</time></trkpt><trkpt lat="38.9480986" lon="-2.8669786"><ele>863.0</ele><time>2026-04-19T09:06:03.941Z</time></trkpt><trkpt lat="38.9482049" lon="-2.8669552"><ele>863.0</ele><time>2026-04-19T09:06:05.941Z</time></trkpt><trkpt lat="38.9483186" lon="-2.8669325"><ele>863.0</ele><time>2026-04-19T09:06:07.941Z</time></trkpt><trkpt lat="38.9484319" lon="-2.8669132"><ele>863.0</ele><time>2026-04-19T09:06:09.94Z</time></trkpt><trkpt lat="38.9485469" lon="-2.8669241"><ele>863.0000000000001</ele><time>2026-04-19T09:06:11.941Z</time></trkpt><trkpt lat="38.9486109" lon="-2.8669457"><ele>863.0</ele><time>2026-04-19T09:06:12.941Z</time></trkpt><trkpt lat="38.9486613" lon="-2.8670094"><ele>863.0</ele><time>2026-04-19T09:06:13.94Z</time></trkpt><trkpt lat="38.9487165" lon="-2.8670639"><ele>863.0</ele><time>2026-04-19T09:06:14.941Z</time></trkpt><trkpt lat="38.948774" lon="-2.8671307"><ele>863.0000000000001</ele><time>2026-04-19T09:06:15.941Z</time></trkpt><trkpt lat="38.9488313" lon="-2.8672013"><ele>863.0</ele><time>2026-04-19T09:06:16.941Z</time></trkpt><trkpt lat="38.9488931" lon="-2.8672797"><ele>863.0000000000001</ele><time>2026-04-19T09:06:17.941Z</time></trkpt><trkpt lat="38.9489563" lon="-2.8673624"><ele>863.0</ele><time>2026-04-19T09:06:18.942Z</time></trkpt><trkpt lat="38.9490191" lon="-2.8674445"><ele>863.0</ele><time>2026-04-19T09:06:19.941Z</time></trkpt><trkpt lat="38.9490791" lon="-2.8675297"><ele>863.0</ele><time>2026-04-19T09:06:20.941Z</time></trkpt><trkpt lat="38.9491425" lon="-2.8676067"><ele>863.0000000000001</ele><time>2026-04-19T09:06:21.941Z</time></trkpt><trkpt lat="38.949205" lon="-2.8676835"><ele>863.0</ele><time>2026-04-19T09:06:22.941Z</time></trkpt><trkpt lat="38.9492709" lon="-2.8677463"><ele>863.1428571428572</ele><time>2026-04-19T09:06:23.941Z</time></trkpt><trkpt lat="38.9493393" lon="-2.8677959"><ele>863.2857142857143</ele><time>2026-04-19T09:06:24.941Z</time></trkpt><trkpt lat="38.9494065" lon="-2.8678393"><ele>863.4285714285714</ele><time>2026-04-19T09:06:25.941Z</time></trkpt><trkpt lat="38.9494725" lon="-2.8678841"><ele>863.5714285714287</ele><time>2026-04-19T09:06:26.941Z</time></trkpt><trkpt lat="38.9495374" lon="-2.8679253"><ele>863.7142857142857</ele><time>2026-04-19T09:06:27.941Z</time></trkpt><trkpt lat="38.9496002" lon="-2.8679675"><ele>863.8571428571429</ele><time>2026-04-19T09:06:28.941Z</time></trkpt><trkpt lat="38.9496602" lon="-2.8680085"><ele>864.0</ele><time>2026-04-19T09:06:29.941Z</time></trkpt><trkpt lat="38.9497184" lon="-2.8680514"><ele>864.0</ele><time>2026-04-19T09:06:30.941Z</time></trkpt><trkpt lat="38.9497764" lon="-2.8680922"><ele>864.0</ele><time>2026-04-19T09:06:31.941Z</time></trkpt><trkpt lat="38.9498305" lon="-2.8681375"><ele>864.0</ele><time>2026-04-19T09:06:32.941Z</time></trkpt><trkpt lat="38.9498834" lon="-2.8681854"><ele>864.0</ele><time>2026-04-19T09:06:33.941Z</time></trkpt><trkpt lat="38.9499415" lon="-2.8682196"><ele>864.0</ele><time>2026-04-19T09:06:34.941Z</time></trkpt><trkpt lat="38.9500476" lon="-2.8682948"><ele>864.0</ele><time>2026-04-19T09:06:36.941Z</time></trkpt><trkpt lat="38.950164" lon="-2.868337"><ele>862.6666666666666</ele><time>2026-04-19T09:06:38.941Z</time></trkpt><trkpt lat="38.9502888" lon="-2.8683268"><ele>861.3333333333333</ele><time>2026-04-19T09:06:40.94Z</time></trkpt><trkpt lat="38.9503564" lon="-2.868316"><ele>860.0</ele><time>2026-04-19T09:06:41.941Z</time></trkpt><trkpt lat="38.9504263" lon="-2.868307"><ele>858.6666666666666</ele><time>2026-04-19T09:06:42.941Z</time></trkpt><trkpt lat="38.9504967" lon="-2.8682956"><ele>857.3333333333333</ele><time>2026-04-19T09:06:43.941Z</time></trkpt><trkpt lat="38.9505693" lon="-2.8682846"><ele>856.0</ele><time>2026-04-19T09:06:44.941Z</time></trkpt><trkpt lat="38.9506425" lon="-2.8682759"><ele>856.0000000000001</ele><time>2026-04-19T09:06:45.941Z</time></trkpt><trkpt lat="38.9507131" lon="-2.868266"><ele>856.0</ele><time>2026-04-19T09:06:46.941Z</time></trkpt><trkpt lat="38.9507852" lon="-2.8682547"><ele>856.0</ele><time>2026-04-19T09:06:47.941Z</time></trkpt><trkpt lat="38.9508575" lon="-2.8682428"><ele>856.0</ele><time>2026-04-19T09:06:48.941Z</time></trkpt><trkpt lat="38.9509305" lon="-2.8682302"><ele>856.0</ele><time>2026-04-19T09:06:49.941Z</time></trkpt><trkpt lat="38.9510027" lon="-2.8682143"><ele>856.0000000000001</ele><time>2026-04-19T09:06:50.941Z</time></trkpt><trkpt lat="38.9510745" lon="-2.8682007"><ele>856.0</ele><time>2026-04-19T09:06:51.941Z</time></trkpt><trkpt lat="38.9511451" lon="-2.8681851"><ele>855.4999999999999</ele><time>2026-04-19T09:06:52.941Z</time></trkpt><trkpt lat="38.9512157" lon="-2.8681691"><ele>855.0</ele><time>2026-04-19T09:06:53.941Z</time></trkpt><trkpt lat="38.9512879" lon="-2.8681586"><ele>854.5</ele><time>2026-04-19T09:06:54.941Z</time></trkpt><trkpt lat="38.9513634" lon="-2.8681528"><ele>854.0</ele><time>2026-04-19T09:06:55.941Z</time></trkpt><trkpt lat="38.9514448" lon="-2.868155"><ele>853.4999999999999</ele><time>2026-04-19T09:06:56.941Z</time></trkpt><trkpt lat="38.9515292" lon="-2.8681476"><ele>853.0</ele><time>2026-04-19T09:06:57.941Z</time></trkpt><trkpt lat="38.9516111" lon="-2.8681352"><ele>852.9999999999999</ele><time>2026-04-19T09:06:58.941Z</time></trkpt><trkpt lat="38.9516935" lon="-2.8681365"><ele>853.0</ele><time>2026-04-19T09:06:59.941Z</time></trkpt><trkpt lat="38.9517758" lon="-2.8681393"><ele>853.0</ele><time>2026-04-19T09:07:00.941Z</time></trkpt><trkpt lat="38.9518546" lon="-2.8681407"><ele>853.0</ele><time>2026-04-19T09:07:01.941Z</time></trkpt><trkpt lat="38.9519291" lon="-2.8681599"><ele>852.9999999999999</ele><time>2026-04-19T09:07:02.941Z</time></trkpt><trkpt lat="38.9520014" lon="-2.8681894"><ele>853.0</ele><time>2026-04-19T09:07:03.94Z</time></trkpt><trkpt lat="38.9520684" lon="-2.8682267"><ele>853.2857142857142</ele><time>2026-04-19T09:07:04.941Z</time></trkpt><trkpt lat="38.9521358" lon="-2.8682611"><ele>853.5714285714287</ele><time>2026-04-19T09:07:05.941Z</time></trkpt><trkpt lat="38.9522019" lon="-2.8683023"><ele>853.8571428571429</ele><time>2026-04-19T09:07:06.941Z</time></trkpt><trkpt lat="38.9522683" lon="-2.8683462"><ele>854.1428571428571</ele><time>2026-04-19T09:07:07.941Z</time></trkpt><trkpt lat="38.9523384" lon="-2.8683854"><ele>854.4285714285713</ele><time>2026-04-19T09:07:08.941Z</time></trkpt><trkpt lat="38.9524058" lon="-2.8684247"><ele>854.7142857142858</ele><time>2026-04-19T09:07:09.941Z</time></trkpt><trkpt lat="38.9524698" lon="-2.8684687"><ele>855.0</ele><time>2026-04-19T09:07:10.94Z</time></trkpt><trkpt lat="38.9525277" lon="-2.8685141"><ele>854.6</ele><time>2026-04-19T09:07:11.941Z</time></trkpt><trkpt lat="38.9525819" lon="-2.868563"><ele>854.2</ele><time>2026-04-19T09:07:12.941Z</time></trkpt><trkpt lat="38.9526763" lon="-2.8686614"><ele>853.8</ele><time>2026-04-19T09:07:14.941Z</time></trkpt><trkpt lat="38.9527715" lon="-2.8687556"><ele>853.4</ele><time>2026-04-19T09:07:16.941Z</time></trkpt><trkpt lat="38.952874" lon="-2.8688274"><ele>853.0</ele><time>2026-04-19T09:07:18.94Z</time></trkpt><trkpt lat="38.952976" lon="-2.8688899"><ele>852.9999999999999</ele><time>2026-04-19T09:07:20.941Z</time></trkpt><trkpt lat="38.9530859" lon="-2.8689216"><ele>853.0</ele><time>2026-04-19T09:07:22.941Z</time></trkpt><trkpt lat="38.9532051" lon="-2.8689308"><ele>853.0</ele><time>2026-04-19T09:07:24.941Z</time></trkpt><trkpt lat="38.9532724" lon="-2.868948"><ele>853.0</ele><time>2026-04-19T09:07:25.941Z</time></trkpt><trkpt lat="38.9533381" lon="-2.868966"><ele>852.9999999999999</ele><time>2026-04-19T09:07:26.941Z</time></trkpt><trkpt lat="38.9534082" lon="-2.8689865"><ele>853.0</ele><time>2026-04-19T09:07:27.941Z</time></trkpt><trkpt lat="38.9534827" lon="-2.8690204"><ele>852.6666666666666</ele><time>2026-04-19T09:07:28.941Z</time></trkpt><trkpt lat="38.9535592" lon="-2.8690682"><ele>852.3333333333333</ele><time>2026-04-19T09:07:29.941Z</time></trkpt><trkpt lat="38.9536398" lon="-2.8691219"><ele>852.0</ele><time>2026-04-19T09:07:30.941Z</time></trkpt><trkpt lat="38.9537106" lon="-2.869182"><ele>851.6666666666667</ele><time>2026-04-19T09:07:31.941Z</time></trkpt><trkpt lat="38.9537763" lon="-2.8692389"><ele>851.3333333333334</ele><time>2026-04-19T09:07:32.941Z</time></trkpt><trkpt lat="38.953841" lon="-2.8692867"><ele>851.0</ele><time>2026-04-19T09:07:33.941Z</time></trkpt><trkpt lat="38.9539015" lon="-2.8693202"><ele>851.0</ele><time>2026-04-19T09:07:34.941Z</time></trkpt><trkpt lat="38.9539671" lon="-2.8693403"><ele>851.0</ele><time>2026-04-19T09:07:35.94Z</time></trkpt><trkpt lat="38.9540307" lon="-2.8693714"><ele>851.0</ele><time>2026-04-19T09:07:36.941Z</time></trkpt><trkpt lat="38.9540915" lon="-2.8694106"><ele>851.0</ele><time>2026-04-19T09:07:37.941Z</time></trkpt><trkpt lat="38.9541469" lon="-2.86946"><ele>851.0</ele><time>2026-04-19T09:07:38.941Z</time></trkpt><trkpt lat="38.9542009" lon="-2.8695187"><ele>851.0</ele><time>2026-04-19T09:07:39.941Z</time></trkpt><trkpt lat="38.954248" lon="-2.8695882"><ele>851.0</ele><time>2026-04-19T09:07:40.941Z</time></trkpt><trkpt lat="38.9542853" lon="-2.8696637"><ele>848.5999999999999</ele><time>2026-04-19T09:07:41.941Z</time></trkpt><trkpt lat="38.9543137" lon="-2.8697388"><ele>846.2</ele><time>2026-04-19T09:07:42.941Z</time></trkpt><trkpt lat="38.9543775" lon="-2.8698695"><ele>843.8</ele><time>2026-04-19T09:07:44.941Z</time></trkpt><trkpt lat="38.9544747" lon="-2.8699668"><ele>841.4000000000001</ele><time>2026-04-19T09:07:46.941Z</time></trkpt><trkpt lat="38.9545856" lon="-2.8700156"><ele>839.0</ele><time>2026-04-19T09:07:48.941Z</time></trkpt><trkpt lat="38.9546869" lon="-2.8699702"><ele>839.0</ele><time>2026-04-19T09:07:50.941Z</time></trkpt><trkpt lat="38.9547221" lon="-2.8699018"><ele>839.0</ele><time>2026-04-19T09:07:51.941Z</time></trkpt><trkpt lat="38.9547509" lon="-2.8698269"><ele>839.0</ele><time>2026-04-19T09:07:52.94Z</time></trkpt><trkpt lat="38.9547708" lon="-2.869733"><ele>839.0</ele><time>2026-04-19T09:07:53.941Z</time></trkpt><trkpt lat="38.9547874" lon="-2.869644"><ele>839.0</ele><time>2026-04-19T09:07:54.941Z</time></trkpt><trkpt lat="38.9548088" lon="-2.8695501"><ele>839.0</ele><time>2026-04-19T09:07:55.941Z</time></trkpt><trkpt lat="38.9548462" lon="-2.8694536"><ele>839.0</ele><time>2026-04-19T09:07:56.941Z</time></trkpt><trkpt lat="38.9548796" lon="-2.8693607"><ele>839.0</ele><time>2026-04-19T09:07:57.941Z</time></trkpt><trkpt lat="38.9549055" lon="-2.8692783"><ele>839.0</ele><time>2026-04-19T09:07:58.941Z</time></trkpt><trkpt lat="38.9549265" lon="-2.869201"><ele>839.0</ele><time>2026-04-19T09:07:59.941Z</time></trkpt><trkpt lat="38.9549589" lon="-2.8690587"><ele>839.0</ele><time>2026-04-19T09:08:01.941Z</time></trkpt><trkpt lat="38.9549369" lon="-2.8689112"><ele>839.0</ele><time>2026-04-19T09:08:03.941Z</time></trkpt><trkpt lat="38.9549429" lon="-2.868776"><ele>837.6666666666667</ele><time>2026-04-19T09:08:05.941Z</time></trkpt><trkpt lat="38.9549977" lon="-2.8687347"><ele>836.3333333333334</ele><time>2026-04-19T09:08:07.941Z</time></trkpt><trkpt lat="38.9550879" lon="-2.8687663"><ele>835.0</ele><time>2026-04-19T09:08:09.941Z</time></trkpt><trkpt lat="38.9551898" lon="-2.8687816"><ele>833.6666666666667</ele><time>2026-04-19T09:08:11.941Z</time></trkpt><trkpt lat="38.9552645" lon="-2.8687996"><ele>832.3333333333334</ele><time>2026-04-19T09:08:12.941Z</time></trkpt><trkpt lat="38.9553418" lon="-2.8687829"><ele>831.0</ele><time>2026-04-19T09:08:13.942Z</time></trkpt><trkpt lat="38.9554079" lon="-2.8687626"><ele>829.0</ele><time>2026-04-19T09:08:14.941Z</time></trkpt><trkpt lat="38.9554691" lon="-2.8687325"><ele>827.0</ele><time>2026-04-19T09:08:15.94Z</time></trkpt><trkpt lat="38.9555362" lon="-2.868703"><ele>825.0</ele><time>2026-04-19T09:08:16.942Z</time></trkpt><trkpt lat="38.9556126" lon="-2.8686065"><ele>823.0</ele><time>2026-04-19T09:08:18.941Z</time></trkpt><trkpt lat="38.9557132" lon="-2.8685472"><ele>821.0</ele><time>2026-04-19T09:08:20.941Z</time></trkpt><trkpt lat="38.9558142" lon="-2.8684833"><ele>821.4285714285714</ele><time>2026-04-19T09:08:22.941Z</time></trkpt><trkpt lat="38.9558578" lon="-2.8684235"><ele>821.8571428571429</ele><time>2026-04-19T09:08:23.941Z</time></trkpt><trkpt lat="38.9559083" lon="-2.8683634"><ele>822.2857142857142</ele><time>2026-04-19T09:08:24.941Z</time></trkpt><trkpt lat="38.955951" lon="-2.8682834"><ele>822.7142857142858</ele><time>2026-04-19T09:08:25.942Z</time></trkpt><trkpt lat="38.9560034" lon="-2.8682121"><ele>823.1428571428571</ele><time>2026-04-19T09:08:26.94Z</time></trkpt><trkpt lat="38.956036" lon="-2.8681278"><ele>823.5714285714286</ele><time>2026-04-19T09:08:27.941Z</time></trkpt><trkpt lat="38.9560757" lon="-2.8680632"><ele>824.0</ele><time>2026-04-19T09:08:28.941Z</time></trkpt><trkpt lat="38.9561172" lon="-2.8679964"><ele>820.6</ele><time>2026-04-19T09:08:29.941Z</time></trkpt><trkpt lat="38.9561518" lon="-2.8679255"><ele>817.2</ele><time>2026-04-19T09:08:30.94Z</time></trkpt><trkpt lat="38.9562018" lon="-2.867789"><ele>813.8000000000001</ele><time>2026-04-19T09:08:32.941Z</time></trkpt><trkpt lat="38.956208" lon="-2.867638"><ele>810.4000000000001</ele><time>2026-04-19T09:08:34.941Z</time></trkpt><trkpt lat="38.9561894" lon="-2.8674874"><ele>807.0</ele><time>2026-04-19T09:08:36.941Z</time></trkpt><trkpt lat="38.9561643" lon="-2.8673346"><ele>806.1428571428572</ele><time>2026-04-19T09:08:38.941Z</time></trkpt><trkpt lat="38.9561465" lon="-2.8672467"><ele>805.2857142857143</ele><time>2026-04-19T09:08:39.941Z</time></trkpt><trkpt lat="38.9561214" lon="-2.8671713"><ele>804.4285714285714</ele><time>2026-04-19T09:08:40.941Z</time></trkpt><trkpt lat="38.9560964" lon="-2.8670932"><ele>803.5714285714287</ele><time>2026-04-19T09:08:41.941Z</time></trkpt><trkpt lat="38.9560695" lon="-2.8670155"><ele>802.7142857142857</ele><time>2026-04-19T09:08:42.941Z</time></trkpt><trkpt lat="38.9560162" lon="-2.8669198"><ele>801.8571428571429</ele><time>2026-04-19T09:08:43.941Z</time></trkpt><trkpt lat="38.9560007" lon="-2.8668288"><ele>801.0</ele><time>2026-04-19T09:08:44.94Z</time></trkpt><trkpt lat="38.9559823" lon="-2.8667129"><ele>800.6666666666666</ele><time>2026-04-19T09:08:45.94Z</time></trkpt><trkpt lat="38.9559929" lon="-2.8666261"><ele>800.3333333333333</ele><time>2026-04-19T09:08:46.94Z</time></trkpt><trkpt lat="38.9559995" lon="-2.8665211"><ele>800.0</ele><time>2026-04-19T09:08:47.941Z</time></trkpt><trkpt lat="38.9560174" lon="-2.8664188"><ele>799.6666666666666</ele><time>2026-04-19T09:08:48.941Z</time></trkpt><trkpt lat="38.9560341" lon="-2.8663274"><ele>799.3333333333333</ele><time>2026-04-19T09:08:49.941Z</time></trkpt><trkpt lat="38.9560446" lon="-2.8662184"><ele>799.0</ele><time>2026-04-19T09:08:50.941Z</time></trkpt><trkpt lat="38.9560475" lon="-2.8661076"><ele>798.9999999999999</ele><time>2026-04-19T09:08:51.941Z</time></trkpt><trkpt lat="38.9560281" lon="-2.8660153"><ele>799.0</ele><time>2026-04-19T09:08:52.941Z</time></trkpt><trkpt lat="38.9560109" lon="-2.8659171"><ele>799.0</ele><time>2026-04-19T09:08:53.941Z</time></trkpt><trkpt lat="38.9559995" lon="-2.8658223"><ele>799.0</ele><time>2026-04-19T09:08:54.941Z</time></trkpt><trkpt lat="38.9559859" lon="-2.8657056"><ele>798.9999999999999</ele><time>2026-04-19T09:08:55.941Z</time></trkpt><trkpt lat="38.9559828" lon="-2.8655958"><ele>799.0</ele><time>2026-04-19T09:08:56.94Z</time></trkpt><trkpt lat="38.9559563" lon="-2.8654815"><ele>798.4000000000001</ele><time>2026-04-19T09:08:57.941Z</time></trkpt><trkpt lat="38.955932" lon="-2.8653737"><ele>797.8</ele><time>2026-04-19T09:08:58.941Z</time></trkpt><trkpt lat="38.9559081" lon="-2.8652642"><ele>797.2</ele><time>2026-04-19T09:08:59.941Z</time></trkpt><trkpt lat="38.9558859" lon="-2.8651667"><ele>796.5999999999999</ele><time>2026-04-19T09:09:00.94Z</time></trkpt><trkpt lat="38.9558665" lon="-2.8650166"><ele>796.0</ele><time>2026-04-19T09:09:01.941Z</time></trkpt><trkpt lat="38.9558557" lon="-2.8648908"><ele>797.8</ele><time>2026-04-19T09:09:02.941Z</time></trkpt><trkpt lat="38.9558534" lon="-2.8647458"><ele>799.5999999999999</ele><time>2026-04-19T09:09:03.941Z</time></trkpt><trkpt lat="38.9558267" lon="-2.8646203"><ele>801.4</ele><time>2026-04-19T09:09:04.941Z</time></trkpt><trkpt lat="38.955801" lon="-2.8644976"><ele>803.2</ele><time>2026-04-19T09:09:05.941Z</time></trkpt><trkpt lat="38.9557685" lon="-2.8643777"><ele>805.0</ele><time>2026-04-19T09:09:06.941Z</time></trkpt><trkpt lat="38.9557334" lon="-2.8642528"><ele>804.9999999999999</ele><time>2026-04-19T09:09:07.942Z</time></trkpt><trkpt lat="38.9557041" lon="-2.8641247"><ele>805.0</ele><time>2026-04-19T09:09:08.941Z</time></trkpt><trkpt lat="38.9556892" lon="-2.8640115"><ele>805.0</ele><time>2026-04-19T09:09:09.941Z</time></trkpt><trkpt lat="38.9556791" lon="-2.8639163"><ele>805.0</ele><time>2026-04-19T09:09:10.941Z</time></trkpt><trkpt lat="38.9556804" lon="-2.8638275"><ele>804.9999999999999</ele><time>2026-04-19T09:09:11.941Z</time></trkpt><trkpt lat="38.9557063" lon="-2.8637499"><ele>805.0</ele><time>2026-04-19T09:09:12.941Z</time></trkpt><trkpt lat="38.9557449" lon="-2.8636692"><ele>805.0</ele><time>2026-04-19T09:09:13.941Z</time></trkpt><trkpt lat="38.9557897" lon="-2.8635937"><ele>805.0</ele><time>2026-04-19T09:09:14.94Z</time></trkpt><trkpt lat="38.955833" lon="-2.8635291"><ele>805.0</ele><time>2026-04-19T09:09:15.941Z</time></trkpt><trkpt lat="38.9559124" lon="-2.8634239"><ele>805.0</ele><time>2026-04-19T09:09:17.941Z</time></trkpt><trkpt lat="38.9559802" lon="-2.8633162"><ele>805.0</ele><time>2026-04-19T09:09:19.941Z</time></trkpt><trkpt lat="38.9560609" lon="-2.8632299"><ele>802.8</ele><time>2026-04-19T09:09:21.941Z</time></trkpt><trkpt lat="38.9561544" lon="-2.8632196"><ele>800.6</ele><time>2026-04-19T09:09:23.94Z</time></trkpt><trkpt lat="38.9562012" lon="-2.8632883"><ele>798.4000000000001</ele><time>2026-04-19T09:09:25.941Z</time></trkpt><trkpt lat="38.9562491" lon="-2.8633924"><ele>796.2</ele><time>2026-04-19T09:09:27.941Z</time></trkpt><trkpt lat="38.9563027" lon="-2.8635251"><ele>794.0</ele><time>2026-04-19T09:09:29.941Z</time></trkpt><trkpt lat="38.9563548" lon="-2.863657"><ele>794.0</ele><time>2026-04-19T09:09:31.941Z</time></trkpt><trkpt lat="38.9564071" lon="-2.8638016"><ele>794.0</ele><time>2026-04-19T09:09:33.941Z</time></trkpt><trkpt lat="38.9564122" lon="-2.8639631"><ele>794.0</ele><time>2026-04-19T09:09:35.941Z</time></trkpt><trkpt lat="38.9563896" lon="-2.8641166"><ele>794.0</ele><time>2026-04-19T09:09:37.941Z</time></trkpt><trkpt lat="38.9564063" lon="-2.8642892"><ele>793.8333333333334</ele><time>2026-04-19T09:09:39.94Z</time></trkpt><trkpt lat="38.9564136" lon="-2.8643837"><ele>793.6666666666667</ele><time>2026-04-19T09:09:40.941Z</time></trkpt><trkpt lat="38.9564162" lon="-2.8644713"><ele>793.5</ele><time>2026-04-19T09:09:41.941Z</time></trkpt><trkpt lat="38.9563911" lon="-2.8645664"><ele>793.3333333333333</ele><time>2026-04-19T09:09:42.941Z</time></trkpt><trkpt lat="38.9563811" lon="-2.8646768"><ele>793.1666666666666</ele><time>2026-04-19T09:09:43.941Z</time></trkpt><trkpt lat="38.9563407" lon="-2.864828"><ele>793.0</ele><time>2026-04-19T09:09:45.94Z</time></trkpt><trkpt lat="38.9563071" lon="-2.864947"><ele>792.9999999999999</ele><time>2026-04-19T09:09:47.941Z</time></trkpt><trkpt lat="38.9562971" lon="-2.8650492"><ele>793.0</ele><time>2026-04-19T09:09:48.941Z</time></trkpt><trkpt lat="38.9563382" lon="-2.8651441"><ele>793.0</ele><time>2026-04-19T09:09:49.941Z</time></trkpt><trkpt lat="38.9563413" lon="-2.8652445"><ele>793.0</ele><time>2026-04-19T09:09:50.94Z</time></trkpt><trkpt lat="38.9563436" lon="-2.8653262"><ele>792.9999999999999</ele><time>2026-04-19T09:09:51.941Z</time></trkpt><trkpt lat="38.9563264" lon="-2.8654203"><ele>793.0</ele><time>2026-04-19T09:09:52.941Z</time></trkpt><trkpt lat="38.9563265" lon="-2.8655113"><ele>793.4999999999999</ele><time>2026-04-19T09:09:53.942Z</time></trkpt><trkpt lat="38.9563317" lon="-2.8656013"><ele>794.0</ele><time>2026-04-19T09:09:54.941Z</time></trkpt><trkpt lat="38.9563332" lon="-2.8656836"><ele>794.5</ele><time>2026-04-19T09:09:55.941Z</time></trkpt><trkpt lat="38.9563425" lon="-2.8657762"><ele>795.0</ele><time>2026-04-19T09:09:56.94Z</time></trkpt><trkpt lat="38.9563478" lon="-2.8658577"><ele>795.4999999999999</ele><time>2026-04-19T09:09:57.941Z</time></trkpt><trkpt lat="38.956339" lon="-2.865946"><ele>796.0</ele><time>2026-04-19T09:09:58.94Z</time></trkpt><trkpt lat="38.9563588" lon="-2.866096"><ele>796.5999999999999</ele><time>2026-04-19T09:10:00.94Z</time></trkpt><trkpt lat="38.9564046" lon="-2.8662745"><ele>797.2</ele><time>2026-04-19T09:10:02.941Z</time></trkpt><trkpt lat="38.9564355" lon="-2.8663819"><ele>797.8</ele><time>2026-04-19T09:10:03.941Z</time></trkpt><trkpt lat="38.9564516" lon="-2.8664675"><ele>798.4000000000001</ele><time>2026-04-19T09:10:04.941Z</time></trkpt><trkpt lat="38.9564883" lon="-2.8666362"><ele>799.0</ele><time>2026-04-19T09:10:06.941Z</time></trkpt><trkpt lat="38.9564972" lon="-2.8667211"><ele>799.4000000000001</ele><time>2026-04-19T09:10:07.941Z</time></trkpt><trkpt lat="38.9565224" lon="-2.8668118"><ele>799.8</ele><time>2026-04-19T09:10:08.941Z</time></trkpt><trkpt lat="38.9565933" lon="-2.8669878"><ele>800.2</ele><time>2026-04-19T09:10:10.941Z</time></trkpt><trkpt lat="38.956629" lon="-2.8670801"><ele>800.5999999999999</ele><time>2026-04-19T09:10:11.941Z</time></trkpt><trkpt lat="38.9566603" lon="-2.8671561"><ele>801.0</ele><time>2026-04-19T09:10:12.941Z</time></trkpt><trkpt lat="38.9566951" lon="-2.8673052"><ele>798.25</ele><time>2026-04-19T09:10:14.941Z</time></trkpt><trkpt lat="38.9567205" lon="-2.8673939"><ele>795.5</ele><time>2026-04-19T09:10:15.941Z</time></trkpt><trkpt lat="38.9567669" lon="-2.8675436"><ele>792.75</ele><time>2026-04-19T09:10:17.941Z</time></trkpt><trkpt lat="38.9568145" lon="-2.8676948"><ele>790.0</ele><time>2026-04-19T09:10:19.941Z</time></trkpt><trkpt lat="38.9568589" lon="-2.8678619"><ele>789.9999999999999</ele><time>2026-04-19T09:10:21.941Z</time></trkpt><trkpt lat="38.9568919" lon="-2.8679709"><ele>790.0</ele><time>2026-04-19T09:10:22.941Z</time></trkpt><trkpt lat="38.956944" lon="-2.8680619"><ele>790.0</ele><time>2026-04-19T09:10:23.941Z</time></trkpt><trkpt lat="38.9569737" lon="-2.8681405"><ele>790.0</ele><time>2026-04-19T09:10:24.941Z</time></trkpt><trkpt lat="38.9570069" lon="-2.8682166"><ele>789.9999999999999</ele><time>2026-04-19T09:10:25.941Z</time></trkpt><trkpt lat="38.9570572" lon="-2.8682877"><ele>790.0</ele><time>2026-04-19T09:10:26.941Z</time></trkpt><trkpt lat="38.9570755" lon="-2.8683841"><ele>790.6</ele><time>2026-04-19T09:10:27.941Z</time></trkpt><trkpt lat="38.9571121" lon="-2.8685525"><ele>791.2</ele><time>2026-04-19T09:10:29.94Z</time></trkpt><trkpt lat="38.9571453" lon="-2.8687172"><ele>791.8</ele><time>2026-04-19T09:10:31.941Z</time></trkpt><trkpt lat="38.9571654" lon="-2.8687992"><ele>792.4</ele><time>2026-04-19T09:10:32.941Z</time></trkpt><trkpt lat="38.9571978" lon="-2.8688912"><ele>793.0</ele><time>2026-04-19T09:10:33.942Z</time></trkpt><trkpt lat="38.9572518" lon="-2.8690451"><ele>792.9999999999999</ele><time>2026-04-19T09:10:35.941Z</time></trkpt><trkpt lat="38.9572811" lon="-2.8691315"><ele>793.0</ele><time>2026-04-19T09:10:36.941Z</time></trkpt><trkpt lat="38.9573171" lon="-2.8692023"><ele>793.0</ele><time>2026-04-19T09:10:37.941Z</time></trkpt><trkpt lat="38.9573496" lon="-2.8692799"><ele>793.0</ele><time>2026-04-19T09:10:38.941Z</time></trkpt><trkpt lat="38.9573789" lon="-2.8693549"><ele>792.9999999999999</ele><time>2026-04-19T09:10:39.941Z</time></trkpt><trkpt lat="38.9574129" lon="-2.8694444"><ele>793.0</ele><time>2026-04-19T09:10:40.941Z</time></trkpt><trkpt lat="38.9574768" lon="-2.8695742"><ele>792.2</ele><time>2026-04-19T09:10:42.941Z</time></trkpt><trkpt lat="38.9575375" lon="-2.8697152"><ele>791.4</ele><time>2026-04-19T09:10:44.941Z</time></trkpt><trkpt lat="38.9575755" lon="-2.8697981"><ele>790.6</ele><time>2026-04-19T09:10:45.941Z</time></trkpt><trkpt lat="38.9576018" lon="-2.8698733"><ele>789.8000000000001</ele><time>2026-04-19T09:10:46.941Z</time></trkpt><trkpt lat="38.9576107" lon="-2.8699583"><ele>789.0</ele><time>2026-04-19T09:10:47.941Z</time></trkpt><trkpt lat="38.957595" lon="-2.8701157"><ele>789.0</ele><time>2026-04-19T09:10:49.941Z</time></trkpt><trkpt lat="38.9575713" lon="-2.8701964"><ele>789.0</ele><time>2026-04-19T09:10:50.941Z</time></trkpt><trkpt lat="38.9575025" lon="-2.8703274"><ele>789.0</ele><time>2026-04-19T09:10:52.941Z</time></trkpt><trkpt lat="38.9574439" lon="-2.8704566"><ele>789.0</ele><time>2026-04-19T09:10:54.941Z</time></trkpt><trkpt lat="38.9573952" lon="-2.8705241"><ele>789.0</ele><time>2026-04-19T09:10:55.941Z</time></trkpt><trkpt lat="38.9573137" lon="-2.8706499"><ele>789.0</ele><time>2026-04-19T09:10:57.942Z</time></trkpt><trkpt lat="38.957246" lon="-2.8707571"><ele>789.0</ele><time>2026-04-19T09:10:59.94Z</time></trkpt><trkpt lat="38.9571765" lon="-2.8708739"><ele>789.0</ele><time>2026-04-19T09:11:01.941Z</time></trkpt><trkpt lat="38.9571016" lon="-2.8709902"><ele>789.0</ele><time>2026-04-19T09:11:03.941Z</time></trkpt><trkpt lat="38.9570516" lon="-2.8710414"><ele>789.0</ele><time>2026-04-19T09:11:04.941Z</time></trkpt><trkpt lat="38.9569559" lon="-2.8711422"><ele>789.0</ele><time>2026-04-19T09:11:06.941Z</time></trkpt><trkpt lat="38.9568698" lon="-2.8712428"><ele>789.0</ele><time>2026-04-19T09:11:08.941Z</time></trkpt><trkpt lat="38.9567715" lon="-2.8713303"><ele>789.0</ele><time>2026-04-19T09:11:10.941Z</time></trkpt><trkpt lat="38.9566725" lon="-2.8714304"><ele>789.0</ele><time>2026-04-19T09:11:12.941Z</time></trkpt><trkpt lat="38.9566208" lon="-2.8714769"><ele>789.0</ele><time>2026-04-19T09:11:13.941Z</time></trkpt><trkpt lat="38.9565272" lon="-2.8715529"><ele>789.0</ele><time>2026-04-19T09:11:15.941Z</time></trkpt><trkpt lat="38.9564338" lon="-2.871626"><ele>789.0</ele><time>2026-04-19T09:11:17.94Z</time></trkpt><trkpt lat="38.9563106" lon="-2.8716707"><ele>789.0</ele><time>2026-04-19T09:11:19.941Z</time></trkpt><trkpt lat="38.9561936" lon="-2.871726"><ele>789.0</ele><time>2026-04-19T09:11:21.94Z</time></trkpt><trkpt lat="38.9561317" lon="-2.871755"><ele>789.0</ele><time>2026-04-19T09:11:22.941Z</time></trkpt><trkpt lat="38.9560605" lon="-2.8717755"><ele>789.0</ele><time>2026-04-19T09:11:23.941Z</time></trkpt><trkpt lat="38.9559956" lon="-2.8718086"><ele>789.0</ele><time>2026-04-19T09:11:24.941Z</time></trkpt><trkpt lat="38.9559361" lon="-2.8718593"><ele>789.0</ele><time>2026-04-19T09:11:25.941Z</time></trkpt><trkpt lat="38.955823" lon="-2.8719681"><ele>789.0</ele><time>2026-04-19T09:11:27.94Z</time></trkpt><trkpt lat="38.9557677" lon="-2.8720147"><ele>789.0</ele><time>2026-04-19T09:11:28.941Z</time></trkpt><trkpt lat="38.9557118" lon="-2.8720766"><ele>789.0</ele><time>2026-04-19T09:11:29.941Z</time></trkpt><trkpt lat="38.9556611" lon="-2.8721412"><ele>789.1666666666666</ele><time>2026-04-19T09:11:30.941Z</time></trkpt><trkpt lat="38.955601" lon="-2.8721852"><ele>789.3333333333333</ele><time>2026-04-19T09:11:31.941Z</time></trkpt><trkpt lat="38.9555484" lon="-2.8722404"><ele>789.5</ele><time>2026-04-19T09:11:32.941Z</time></trkpt><trkpt lat="38.9554905" lon="-2.8722813"><ele>789.6666666666666</ele><time>2026-04-19T09:11:33.941Z</time></trkpt><trkpt lat="38.9554363" lon="-2.8723296"><ele>789.8333333333333</ele><time>2026-04-19T09:11:34.941Z</time></trkpt><trkpt lat="38.955373" lon="-2.8723574"><ele>790.0</ele><time>2026-04-19T09:11:35.941Z</time></trkpt><trkpt lat="38.9552508" lon="-2.8724032"><ele>790.0</ele><time>2026-04-19T09:11:37.941Z</time></trkpt><trkpt lat="38.9551315" lon="-2.872434"><ele>790.0</ele><time>2026-04-19T09:11:39.941Z</time></trkpt><trkpt lat="38.9550682" lon="-2.8724515"><ele>790.0</ele><time>2026-04-19T09:11:40.941Z</time></trkpt><trkpt lat="38.9549487" lon="-2.872477"><ele>790.0</ele><time>2026-04-19T09:11:42.941Z</time></trkpt><trkpt lat="38.954824" lon="-2.8725193"><ele>790.0</ele><time>2026-04-19T09:11:44.941Z</time></trkpt><trkpt lat="38.954704" lon="-2.8725586"><ele>789.8333333333333</ele><time>2026-04-19T09:11:46.941Z</time></trkpt><trkpt lat="38.9545768" lon="-2.8726042"><ele>789.6666666666666</ele><time>2026-04-19T09:11:48.941Z</time></trkpt><trkpt lat="38.95451" lon="-2.8726358"><ele>789.5</ele><time>2026-04-19T09:11:49.941Z</time></trkpt><trkpt lat="38.9544526" lon="-2.8726867"><ele>789.3333333333333</ele><time>2026-04-19T09:11:50.941Z</time></trkpt><trkpt lat="38.9543895" lon="-2.8727209"><ele>789.1666666666666</ele><time>2026-04-19T09:11:51.941Z</time></trkpt><trkpt lat="38.9543086" lon="-2.8726974"><ele>789.0</ele><time>2026-04-19T09:11:52.941Z</time></trkpt><trkpt lat="38.954246" lon="-2.8727295"><ele>789.0</ele><time>2026-04-19T09:11:53.941Z</time></trkpt><trkpt lat="38.9541276" lon="-2.8727344"><ele>789.0</ele><time>2026-04-19T09:11:55.941Z</time></trkpt><trkpt lat="38.954058" lon="-2.872734"><ele>789.0</ele><time>2026-04-19T09:11:56.941Z</time></trkpt><trkpt lat="38.9539926" lon="-2.872739"><ele>789.0</ele><time>2026-04-19T09:11:57.941Z</time></trkpt><trkpt lat="38.9539304" lon="-2.8727748"><ele>789.0</ele><time>2026-04-19T09:11:58.94Z</time></trkpt><trkpt lat="38.9538221" lon="-2.8728264"><ele>789.0</ele><time>2026-04-19T09:12:00.941Z</time></trkpt><trkpt lat="38.9537179" lon="-2.8728707"><ele>789.0</ele><time>2026-04-19T09:12:02.941Z</time></trkpt><trkpt lat="38.9536108" lon="-2.8729013"><ele>789.0</ele><time>2026-04-19T09:12:04.941Z</time></trkpt><trkpt lat="38.9535371" lon="-2.8728125"><ele>789.0</ele><time>2026-04-19T09:12:06.94Z</time></trkpt><trkpt lat="38.9534791" lon="-2.8726879"><ele>789.0</ele><time>2026-04-19T09:12:08.941Z</time></trkpt><trkpt lat="38.9533891" lon="-2.8725758"><ele>789.0</ele><time>2026-04-19T09:12:10.941Z</time></trkpt><trkpt lat="38.9533485" lon="-2.8725065"><ele>789.8571428571428</ele><time>2026-04-19T09:12:11.941Z</time></trkpt><trkpt lat="38.9532995" lon="-2.8724435"><ele>790.7142857142857</ele><time>2026-04-19T09:12:12.941Z</time></trkpt><trkpt lat="38.9532425" lon="-2.872385"><ele>791.5714285714286</ele><time>2026-04-19T09:12:13.94Z</time></trkpt><trkpt lat="38.9531822" lon="-2.8723188"><ele>792.4285714285713</ele><time>2026-04-19T09:12:14.941Z</time></trkpt><trkpt lat="38.9531261" lon="-2.872264"><ele>793.2857142857143</ele><time>2026-04-19T09:12:15.941Z</time></trkpt><trkpt lat="38.9530704" lon="-2.8722088"><ele>794.1428571428571</ele><time>2026-04-19T09:12:16.941Z</time></trkpt><trkpt lat="38.9530167" lon="-2.8721504"><ele>795.0</ele><time>2026-04-19T09:12:17.941Z</time></trkpt><trkpt lat="38.9529734" lon="-2.8720904"><ele>795.0</ele><time>2026-04-19T09:12:18.94Z</time></trkpt><trkpt lat="38.9528783" lon="-2.8719828"><ele>795.0</ele><time>2026-04-19T09:12:20.941Z</time></trkpt><trkpt lat="38.9528284" lon="-2.8719318"><ele>795.0</ele><time>2026-04-19T09:12:21.941Z</time></trkpt><trkpt lat="38.9527263" lon="-2.8718432"><ele>795.0</ele><time>2026-04-19T09:12:23.94Z</time></trkpt><trkpt lat="38.9526708" lon="-2.8717992"><ele>795.0</ele><time>2026-04-19T09:12:24.941Z</time></trkpt><trkpt lat="38.9525501" lon="-2.8717442"><ele>795.4</ele><time>2026-04-19T09:12:26.941Z</time></trkpt><trkpt lat="38.9524374" lon="-2.871682"><ele>795.8</ele><time>2026-04-19T09:12:28.941Z</time></trkpt><trkpt lat="38.9523816" lon="-2.8716345"><ele>796.2</ele><time>2026-04-19T09:12:29.941Z</time></trkpt><trkpt lat="38.9522928" lon="-2.8715254"><ele>796.6</ele><time>2026-04-19T09:12:31.94Z</time></trkpt><trkpt lat="38.952251" lon="-2.8714599"><ele>797.0</ele><time>2026-04-19T09:12:32.941Z</time></trkpt><trkpt lat="38.9521478" lon="-2.8713741"><ele>797.0000000000001</ele><time>2026-04-19T09:12:34.941Z</time></trkpt><trkpt lat="38.9520243" lon="-2.871374"><ele>797.0</ele><time>2026-04-19T09:12:36.941Z</time></trkpt><trkpt lat="38.9519582" lon="-2.8713938"><ele>797.0</ele><time>2026-04-19T09:12:37.942Z</time></trkpt><trkpt lat="38.9518976" lon="-2.8714227"><ele>797.0</ele><time>2026-04-19T09:12:38.94Z</time></trkpt><trkpt lat="38.9518334" lon="-2.8714537"><ele>797.0000000000001</ele><time>2026-04-19T09:12:39.941Z</time></trkpt><trkpt lat="38.9517679" lon="-2.8714828"><ele>797.0</ele><time>2026-04-19T09:12:40.941Z</time></trkpt><trkpt lat="38.9517051" lon="-2.8714987"><ele>797.5000000000001</ele><time>2026-04-19T09:12:41.94Z</time></trkpt><trkpt lat="38.9516408" lon="-2.8715043"><ele>798.0</ele><time>2026-04-19T09:12:42.941Z</time></trkpt><trkpt lat="38.9515167" lon="-2.8715134"><ele>798.5</ele><time>2026-04-19T09:12:44.941Z</time></trkpt><trkpt lat="38.9514512" lon="-2.8715289"><ele>799.0</ele><time>2026-04-19T09:12:45.941Z</time></trkpt><trkpt lat="38.9513878" lon="-2.8715431"><ele>799.5000000000001</ele><time>2026-04-19T09:12:46.941Z</time></trkpt><trkpt lat="38.9512755" lon="-2.8715883"><ele>800.0</ele><time>2026-04-19T09:12:48.941Z</time></trkpt><trkpt lat="38.9511938" lon="-2.8716577"><ele>800.0000000000001</ele><time>2026-04-19T09:12:50.941Z</time></trkpt><trkpt lat="38.9511505" lon="-2.871725"><ele>800.0</ele><time>2026-04-19T09:12:51.942Z</time></trkpt><trkpt lat="38.9511027" lon="-2.8717779"><ele>800.0</ele><time>2026-04-19T09:12:52.941Z</time></trkpt><trkpt lat="38.9510171" lon="-2.8719164"><ele>800.0</ele><time>2026-04-19T09:12:54.941Z</time></trkpt><trkpt lat="38.9509417" lon="-2.8720217"><ele>800.0000000000001</ele><time>2026-04-19T09:12:56.94Z</time></trkpt><trkpt lat="38.9509063" lon="-2.8720887"><ele>800.0</ele><time>2026-04-19T09:12:57.941Z</time></trkpt><trkpt lat="38.9508347" lon="-2.8720913"><ele>797.25</ele><time>2026-04-19T09:12:59.941Z</time></trkpt><trkpt lat="38.9507251" lon="-2.8721124"><ele>794.5</ele><time>2026-04-19T09:13:01.941Z</time></trkpt><trkpt lat="38.9506151" lon="-2.8720636"><ele>791.75</ele><time>2026-04-19T09:13:03.941Z</time></trkpt><trkpt lat="38.950498" lon="-2.8719926"><ele>789.0</ele><time>2026-04-19T09:13:05.941Z</time></trkpt><trkpt lat="38.9503877" lon="-2.8719259"><ele>788.9999999999999</ele><time>2026-04-19T09:13:07.941Z</time></trkpt><trkpt lat="38.9502774" lon="-2.8718632"><ele>789.0</ele><time>2026-04-19T09:13:09.941Z</time></trkpt><trkpt lat="38.9502174" lon="-2.8718308"><ele>789.0</ele><time>2026-04-19T09:13:10.941Z</time></trkpt><trkpt lat="38.9501607" lon="-2.8717905"><ele>789.0</ele><time>2026-04-19T09:13:11.941Z</time></trkpt><trkpt lat="38.9501" lon="-2.871763"><ele>789.0</ele><time>2026-04-19T09:13:12.941Z</time></trkpt><trkpt lat="38.9500395" lon="-2.8717275"><ele>788.9999999999999</ele><time>2026-04-19T09:13:13.941Z</time></trkpt><trkpt lat="38.9499823" lon="-2.8716913"><ele>789.0</ele><time>2026-04-19T09:13:14.94Z</time></trkpt><trkpt lat="38.9499246" lon="-2.871652"><ele>790.5</ele><time>2026-04-19T09:13:15.941Z</time></trkpt><trkpt lat="38.9498126" lon="-2.8715756"><ele>792.0</ele><time>2026-04-19T09:13:17.941Z</time></trkpt><trkpt lat="38.949754" lon="-2.8715408"><ele>793.5</ele><time>2026-04-19T09:13:18.941Z</time></trkpt><trkpt lat="38.9496954" lon="-2.8715037"><ele>795.0</ele><time>2026-04-19T09:13:19.941Z</time></trkpt><trkpt lat="38.9496365" lon="-2.8714676"><ele>796.5</ele><time>2026-04-19T09:13:20.94Z</time></trkpt><trkpt lat="38.9495749" lon="-2.8714358"><ele>798.0</ele><time>2026-04-19T09:13:21.941Z</time></trkpt><trkpt lat="38.9494697" lon="-2.8713718"><ele>798.0</ele><time>2026-04-19T09:13:23.94Z</time></trkpt><trkpt lat="38.9493595" lon="-2.8712928"><ele>798.0</ele><time>2026-04-19T09:13:25.941Z</time></trkpt><trkpt lat="38.9493044" lon="-2.8712516"><ele>798.0</ele><time>2026-04-19T09:13:26.941Z</time></trkpt><trkpt lat="38.9492396" lon="-2.8712275"><ele>798.0</ele><time>2026-04-19T09:13:27.941Z</time></trkpt><trkpt lat="38.9491678" lon="-2.871215"><ele>798.0</ele><time>2026-04-19T09:13:28.941Z</time></trkpt><trkpt lat="38.9491013" lon="-2.8712019"><ele>798.0</ele><time>2026-04-19T09:13:29.94Z</time></trkpt><trkpt lat="38.9489817" lon="-2.871194"><ele>797.5</ele><time>2026-04-19T09:13:31.941Z</time></trkpt><trkpt lat="38.9489184" lon="-2.8711905"><ele>797.0</ele><time>2026-04-19T09:13:32.941Z</time></trkpt><trkpt lat="38.9488534" lon="-2.8711892"><ele>796.5</ele><time>2026-04-19T09:13:33.941Z</time></trkpt><trkpt lat="38.9487796" lon="-2.8711928"><ele>796.0</ele><time>2026-04-19T09:13:34.941Z</time></trkpt><trkpt lat="38.9486575" lon="-2.8711914"><ele>795.5</ele><time>2026-04-19T09:13:36.941Z</time></trkpt><trkpt lat="38.9485491" lon="-2.8712145"><ele>795.0</ele><time>2026-04-19T09:13:38.941Z</time></trkpt><trkpt lat="38.9484429" lon="-2.8712571"><ele>796.1666666666666</ele><time>2026-04-19T09:13:40.94Z</time></trkpt><trkpt lat="38.9483293" lon="-2.8712904"><ele>797.3333333333333</ele><time>2026-04-19T09:13:42.94Z</time></trkpt><trkpt lat="38.9482656" lon="-2.8712904"><ele>798.5</ele><time>2026-04-19T09:13:43.94Z</time></trkpt><trkpt lat="38.9481985" lon="-2.8713019"><ele>799.6666666666666</ele><time>2026-04-19T09:13:44.94Z</time></trkpt><trkpt lat="38.9481311" lon="-2.8713195"><ele>800.8333333333333</ele><time>2026-04-19T09:13:45.94Z</time></trkpt><trkpt lat="38.9480612" lon="-2.8713403"><ele>802.0</ele><time>2026-04-19T09:13:46.94Z</time></trkpt><trkpt lat="38.9479928" lon="-2.8713689"><ele>802.0</ele><time>2026-04-19T09:13:47.94Z</time></trkpt><trkpt lat="38.947927" lon="-2.8713988"><ele>802.0</ele><time>2026-04-19T09:13:48.94Z</time></trkpt><trkpt lat="38.947859" lon="-2.8714268"><ele>802.0</ele><time>2026-04-19T09:13:49.94Z</time></trkpt><trkpt lat="38.947747" lon="-2.8714751"><ele>802.0</ele><time>2026-04-19T09:13:51.94Z</time></trkpt><trkpt lat="38.9476344" lon="-2.8715154"><ele>802.0</ele><time>2026-04-19T09:13:53.94Z</time></trkpt><trkpt lat="38.9475162" lon="-2.8715414"><ele>801.6</ele><time>2026-04-19T09:13:55.94Z</time></trkpt><trkpt lat="38.9474186" lon="-2.8715638"><ele>801.2</ele><time>2026-04-19T09:13:57.941Z</time></trkpt><trkpt lat="38.9473288" lon="-2.8715868"><ele>800.8</ele><time>2026-04-19T09:13:59.94Z</time></trkpt><trkpt lat="38.9472322" lon="-2.8716137"><ele>800.4</ele><time>2026-04-19T09:14:01.94Z</time></trkpt><trkpt lat="38.9471441" lon="-2.8716355"><ele>800.0</ele><time>2026-04-19T09:14:03.94Z</time></trkpt><trkpt lat="38.9470222" lon="-2.8716802"><ele>800.0000000000001</ele><time>2026-04-19T09:14:05.94Z</time></trkpt><trkpt lat="38.9469682" lon="-2.8717294"><ele>800.0</ele><time>2026-04-19T09:14:06.939Z</time></trkpt><trkpt lat="38.9469172" lon="-2.871789"><ele>800.0</ele><time>2026-04-19T09:14:07.94Z</time></trkpt><trkpt lat="38.9468689" lon="-2.8718452"><ele>800.0</ele><time>2026-04-19T09:14:08.94Z</time></trkpt><trkpt lat="38.9468153" lon="-2.8719071"><ele>800.0</ele><time>2026-04-19T09:14:09.94Z</time></trkpt><trkpt lat="38.9467734" lon="-2.8719814"><ele>800.0000000000001</ele><time>2026-04-19T09:14:10.94Z</time></trkpt><trkpt lat="38.9467199" lon="-2.8720849"><ele>800.0</ele><time>2026-04-19T09:14:12.94Z</time></trkpt><trkpt lat="38.9466385" lon="-2.8721976"><ele>798.8</ele><time>2026-04-19T09:14:14.94Z</time></trkpt><trkpt lat="38.9465631" lon="-2.8723125"><ele>797.6</ele><time>2026-04-19T09:14:16.94Z</time></trkpt><trkpt lat="38.9464916" lon="-2.8724118"><ele>796.4000000000001</ele><time>2026-04-19T09:14:18.94Z</time></trkpt><trkpt lat="38.9464221" lon="-2.8725147"><ele>795.2</ele><time>2026-04-19T09:14:20.94Z</time></trkpt><trkpt lat="38.9463688" lon="-2.8725881"><ele>794.0</ele><time>2026-04-19T09:14:22.94Z</time></trkpt><trkpt lat="38.9462995" lon="-2.8726463"><ele>794.0</ele><time>2026-04-19T09:14:25.94Z</time></trkpt><trkpt lat="38.9462316" lon="-2.8726964"><ele>794.0</ele><time>2026-04-19T09:14:27.94Z</time></trkpt><trkpt lat="38.946156" lon="-2.8727001"><ele>794.0</ele><time>2026-04-19T09:14:30.94Z</time></trkpt><trkpt lat="38.9460905" lon="-2.8726977"><ele>794.0</ele><time>2026-04-19T09:14:33.94Z</time></trkpt><trkpt lat="38.9460418" lon="-2.8727653"><ele>794.0</ele><time>2026-04-19T09:14:37.94Z</time></trkpt><trkpt lat="38.9460216" lon="-2.8728523"><ele>794.0</ele><time>2026-04-19T09:14:41.94Z</time></trkpt><trkpt lat="38.9459816" lon="-2.8729167"><ele>794.0</ele><time>2026-04-19T09:14:46.939Z</time></trkpt><trkpt lat="38.9459452" lon="-2.8728498"><ele>794.8333333333334</ele><time>2026-04-19T09:14:48.94Z</time></trkpt><trkpt lat="38.9458671" lon="-2.8727601"><ele>795.6666666666667</ele><time>2026-04-19T09:14:50.94Z</time></trkpt><trkpt lat="38.9458125" lon="-2.872704"><ele>796.5</ele><time>2026-04-19T09:14:52.94Z</time></trkpt><trkpt lat="38.9457467" lon="-2.8726114"><ele>797.3333333333333</ele><time>2026-04-19T09:14:54.94Z</time></trkpt><trkpt lat="38.9457088" lon="-2.8725099"><ele>798.1666666666666</ele><time>2026-04-19T09:14:56.94Z</time></trkpt><trkpt lat="38.9456571" lon="-2.8724306"><ele>799.0</ele><time>2026-04-19T09:14:59.939Z</time></trkpt><trkpt lat="38.945607" lon="-2.8723608"><ele>799.0</ele><time>2026-04-19T09:15:02.94Z</time></trkpt><trkpt lat="38.9455413" lon="-2.8723052"><ele>799.0</ele><time>2026-04-19T09:15:05.94Z</time></trkpt><trkpt lat="38.945488" lon="-2.8722544"><ele>799.0</ele><time>2026-04-19T09:15:08.94Z</time></trkpt><trkpt lat="38.9454301" lon="-2.872215"><ele>799.0</ele><time>2026-04-19T09:15:12.94Z</time></trkpt><trkpt lat="38.9453696" lon="-2.8721887"><ele>799.0</ele><time>2026-04-19T09:15:16.94Z</time></trkpt><trkpt lat="38.9452976" lon="-2.8721871"><ele>799.0</ele><time>2026-04-19T09:15:20.94Z</time></trkpt><trkpt lat="38.9452344" lon="-2.8721922"><ele>799.0</ele><time>2026-04-19T09:15:23.94Z</time></trkpt><trkpt lat="38.9451703" lon="-2.8722108"><ele>799.0</ele><time>2026-04-19T09:15:27.94Z</time></trkpt><trkpt lat="38.9451037" lon="-2.8722525"><ele>799.0</ele><time>2026-04-19T09:15:32.94Z</time></trkpt><trkpt lat="38.9450481" lon="-2.8723094"><ele>799.0</ele><time>2026-04-19T09:15:37.94Z</time></trkpt><trkpt lat="38.9450114" lon="-2.8723881"><ele>799.0</ele><time>2026-04-19T09:15:42.94Z</time></trkpt><trkpt lat="38.9449846" lon="-2.8724678"><ele>799.0</ele><time>2026-04-19T09:15:46.94Z</time></trkpt><trkpt lat="38.9449474" lon="-2.8725506"><ele>799.0</ele><time>2026-04-19T09:15:50.94Z</time></trkpt><trkpt lat="38.9449083" lon="-2.8726251"><ele>799.0</ele><time>2026-04-19T09:15:54.94Z</time></trkpt><trkpt lat="38.9448944" lon="-2.8727163"><ele>799.2</ele><time>2026-04-19T09:15:57.94Z</time></trkpt><trkpt lat="38.9449264" lon="-2.8728011"><ele>799.4000000000001</ele><time>2026-04-19T09:15:59.939Z</time></trkpt><trkpt lat="38.9449837" lon="-2.8729082"><ele>799.6</ele><time>2026-04-19T09:16:01.939Z</time></trkpt><trkpt lat="38.9450536" lon="-2.8730001"><ele>799.8</ele><time>2026-04-19T09:16:03.94Z</time></trkpt><trkpt lat="38.945112" lon="-2.873108"><ele>800.0</ele><time>2026-04-19T09:16:05.94Z</time></trkpt><trkpt lat="38.945187" lon="-2.8732"><ele>800.0</ele><time>2026-04-19T09:16:07.94Z</time></trkpt><trkpt lat="38.9452493" lon="-2.8733067"><ele>800.0</ele><time>2026-04-19T09:16:09.94Z</time></trkpt><trkpt lat="38.9453117" lon="-2.873426"><ele>800.0</ele><time>2026-04-19T09:16:11.939Z</time></trkpt><trkpt lat="38.9453657" lon="-2.8735502"><ele>800.0</ele><time>2026-04-19T09:16:13.94Z</time></trkpt><trkpt lat="38.945406" lon="-2.8736337"><ele>800.0</ele><time>2026-04-19T09:16:15.94Z</time></trkpt><trkpt lat="38.9454754" lon="-2.8737188"><ele>801.4</ele><time>2026-04-19T09:16:17.94Z</time></trkpt><trkpt lat="38.9455625" lon="-2.8737975"><ele>802.8</ele><time>2026-04-19T09:16:19.94Z</time></trkpt><trkpt lat="38.9456473" lon="-2.873875"><ele>804.2</ele><time>2026-04-19T09:16:21.939Z</time></trkpt><trkpt lat="38.9457363" lon="-2.8739353"><ele>805.6</ele><time>2026-04-19T09:16:23.94Z</time></trkpt><trkpt lat="38.9458304" lon="-2.8739998"><ele>807.0</ele><time>2026-04-19T09:16:25.94Z</time></trkpt><trkpt lat="38.9459263" lon="-2.8740664"><ele>807.0</ele><time>2026-04-19T09:16:27.94Z</time></trkpt><trkpt lat="38.9460221" lon="-2.8741254"><ele>807.0</ele><time>2026-04-19T09:16:29.94Z</time></trkpt><trkpt lat="38.9461222" lon="-2.8741672"><ele>807.0</ele><time>2026-04-19T09:16:31.941Z</time></trkpt><trkpt lat="38.9462278" lon="-2.8741806"><ele>807.0</ele><time>2026-04-19T09:16:33.94Z</time></trkpt><trkpt lat="38.9463428" lon="-2.8741524"><ele>807.0</ele><time>2026-04-19T09:16:35.94Z</time></trkpt><trkpt lat="38.9464463" lon="-2.8741025"><ele>807.0</ele><time>2026-04-19T09:16:37.94Z</time></trkpt><trkpt lat="38.946548" lon="-2.8740453"><ele>807.0</ele><time>2026-04-19T09:16:39.94Z</time></trkpt><trkpt lat="38.9466354" lon="-2.8739706"><ele>807.0</ele><time>2026-04-19T09:16:41.94Z</time></trkpt><trkpt lat="38.9467224" lon="-2.8738756"><ele>807.0</ele><time>2026-04-19T09:16:43.94Z</time></trkpt><trkpt lat="38.9468052" lon="-2.873763"><ele>805.8</ele><time>2026-04-19T09:16:45.94Z</time></trkpt><trkpt lat="38.9468677" lon="-2.8736371"><ele>804.6</ele><time>2026-04-19T09:16:47.94Z</time></trkpt><trkpt lat="38.9469357" lon="-2.8735101"><ele>803.4</ele><time>2026-04-19T09:16:49.94Z</time></trkpt><trkpt lat="38.9470272" lon="-2.8733844"><ele>802.1999999999999</ele><time>2026-04-19T09:16:51.94Z</time></trkpt><trkpt lat="38.9470764" lon="-2.8733246"><ele>801.0</ele><time>2026-04-19T09:16:52.94Z</time></trkpt><trkpt lat="38.9471206" lon="-2.8732621"><ele>801.0</ele><time>2026-04-19T09:16:53.94Z</time></trkpt><trkpt lat="38.9471589" lon="-2.8731907"><ele>801.0</ele><time>2026-04-19T09:16:54.939Z</time></trkpt><trkpt lat="38.947256" lon="-2.8731007"><ele>801.0</ele><time>2026-04-19T09:16:56.94Z</time></trkpt><trkpt lat="38.9473504" lon="-2.8730431"><ele>801.0</ele><time>2026-04-19T09:16:58.94Z</time></trkpt><trkpt lat="38.9474476" lon="-2.8729929"><ele>801.0</ele><time>2026-04-19T09:17:00.94Z</time></trkpt><trkpt lat="38.9475454" lon="-2.872926"><ele>801.4</ele><time>2026-04-19T09:17:02.94Z</time></trkpt><trkpt lat="38.9476512" lon="-2.8728771"><ele>801.8</ele><time>2026-04-19T09:17:04.94Z</time></trkpt><trkpt lat="38.947755" lon="-2.8728257"><ele>802.1999999999999</ele><time>2026-04-19T09:17:06.94Z</time></trkpt><trkpt lat="38.9478106" lon="-2.8727837"><ele>802.5999999999999</ele><time>2026-04-19T09:17:07.94Z</time></trkpt><trkpt lat="38.9479195" lon="-2.8727284"><ele>803.0</ele><time>2026-04-19T09:17:09.94Z</time></trkpt><trkpt lat="38.9480395" lon="-2.8726841"><ele>802.9999999999999</ele><time>2026-04-19T09:17:11.94Z</time></trkpt><trkpt lat="38.9481018" lon="-2.8726707"><ele>803.0</ele><time>2026-04-19T09:17:12.94Z</time></trkpt><trkpt lat="38.9481659" lon="-2.8726565"><ele>803.0</ele><time>2026-04-19T09:17:13.94Z</time></trkpt><trkpt lat="38.9482318" lon="-2.8726376"><ele>803.0</ele><time>2026-04-19T09:17:14.939Z</time></trkpt><trkpt lat="38.9482983" lon="-2.8726212"><ele>803.0</ele><time>2026-04-19T09:17:15.94Z</time></trkpt><trkpt lat="38.9483623" lon="-2.8726003"><ele>802.9999999999999</ele><time>2026-04-19T09:17:16.94Z</time></trkpt><trkpt lat="38.9484336" lon="-2.8725784"><ele>803.0</ele><time>2026-04-19T09:17:17.94Z</time></trkpt><trkpt lat="38.9484977" lon="-2.8725538"><ele>801.5000000000001</ele><time>2026-04-19T09:17:18.939Z</time></trkpt><trkpt lat="38.9485608" lon="-2.8725325"><ele>800.0</ele><time>2026-04-19T09:17:19.94Z</time></trkpt><trkpt lat="38.9486217" lon="-2.8725102"><ele>798.5</ele><time>2026-04-19T09:17:20.94Z</time></trkpt><trkpt lat="38.9486843" lon="-2.8724942"><ele>797.0</ele><time>2026-04-19T09:17:21.94Z</time></trkpt><trkpt lat="38.9487536" lon="-2.8724915"><ele>795.5000000000001</ele><time>2026-04-19T09:17:22.94Z</time></trkpt><trkpt lat="38.9488752" lon="-2.8725167"><ele>794.0</ele><time>2026-04-19T09:17:24.939Z</time></trkpt><trkpt lat="38.9489867" lon="-2.8725823"><ele>795.4000000000001</ele><time>2026-04-19T09:17:26.94Z</time></trkpt><trkpt lat="38.9490576" lon="-2.8726991"><ele>796.8</ele><time>2026-04-19T09:17:28.94Z</time></trkpt><trkpt lat="38.9491129" lon="-2.872824"><ele>798.2</ele><time>2026-04-19T09:17:30.94Z</time></trkpt><trkpt lat="38.9491386" lon="-2.872901"><ele>799.5999999999999</ele><time>2026-04-19T09:17:31.94Z</time></trkpt><trkpt lat="38.9491833" lon="-2.8730327"><ele>801.0</ele><time>2026-04-19T09:17:33.94Z</time></trkpt><trkpt lat="38.9492203" lon="-2.8731588"><ele>801.0</ele><time>2026-04-19T09:17:35.94Z</time></trkpt><trkpt lat="38.9492587" lon="-2.8732963"><ele>801.0</ele><time>2026-04-19T09:17:37.939Z</time></trkpt><trkpt lat="38.9493145" lon="-2.8734218"><ele>801.0</ele><time>2026-04-19T09:17:39.94Z</time></trkpt><trkpt lat="38.9493742" lon="-2.873539"><ele>801.0</ele><time>2026-04-19T09:17:41.94Z</time></trkpt><trkpt lat="38.9494549" lon="-2.8736273"><ele>801.0</ele><time>2026-04-19T09:17:43.94Z</time></trkpt><trkpt lat="38.9495497" lon="-2.8737096"><ele>801.0</ele><time>2026-04-19T09:17:45.94Z</time></trkpt><trkpt lat="38.9496543" lon="-2.8737582"><ele>801.0</ele><time>2026-04-19T09:17:47.94Z</time></trkpt><trkpt lat="38.9497686" lon="-2.8738119"><ele>801.0</ele><time>2026-04-19T09:17:49.94Z</time></trkpt><trkpt lat="38.9498273" lon="-2.8738435"><ele>801.0</ele><time>2026-04-19T09:17:50.94Z</time></trkpt><trkpt lat="38.9498899" lon="-2.873871"><ele>801.0</ele><time>2026-04-19T09:17:51.94Z</time></trkpt><trkpt lat="38.9500056" lon="-2.8739234"><ele>801.3333333333334</ele><time>2026-04-19T09:17:53.94Z</time></trkpt><trkpt lat="38.9500675" lon="-2.8739486"><ele>801.6666666666667</ele><time>2026-04-19T09:17:54.94Z</time></trkpt><trkpt lat="38.9501901" lon="-2.8739934"><ele>802.0</ele><time>2026-04-19T09:17:56.939Z</time></trkpt><trkpt lat="38.9502531" lon="-2.8740118"><ele>802.3333333333334</ele><time>2026-04-19T09:17:57.939Z</time></trkpt><trkpt lat="38.950317" lon="-2.8740247"><ele>802.6666666666667</ele><time>2026-04-19T09:17:58.94Z</time></trkpt><trkpt lat="38.950439" lon="-2.8740279"><ele>803.0</ele><time>2026-04-19T09:18:00.94Z</time></trkpt><trkpt lat="38.9505018" lon="-2.874017"><ele>803.0000000000001</ele><time>2026-04-19T09:18:01.94Z</time></trkpt><trkpt lat="38.9506259" lon="-2.8739808"><ele>803.0</ele><time>2026-04-19T09:18:03.94Z</time></trkpt><trkpt lat="38.9506905" lon="-2.8739693"><ele>803.0</ele><time>2026-04-19T09:18:04.94Z</time></trkpt><trkpt lat="38.9507549" lon="-2.8739576"><ele>803.0</ele><time>2026-04-19T09:18:05.94Z</time></trkpt><trkpt lat="38.9508181" lon="-2.873949"><ele>803.0000000000001</ele><time>2026-04-19T09:18:06.94Z</time></trkpt><trkpt lat="38.9508812" lon="-2.8739388"><ele>803.0</ele><time>2026-04-19T09:18:07.94Z</time></trkpt><trkpt lat="38.9510019" lon="-2.8739083"><ele>801.8333333333334</ele><time>2026-04-19T09:18:09.94Z</time></trkpt><trkpt lat="38.9510632" lon="-2.8738862"><ele>800.6666666666667</ele><time>2026-04-19T09:18:10.94Z</time></trkpt><trkpt lat="38.9511248" lon="-2.8738689"><ele>799.5</ele><time>2026-04-19T09:18:11.94Z</time></trkpt><trkpt lat="38.9512371" lon="-2.8738112"><ele>798.3333333333333</ele><time>2026-04-19T09:18:13.94Z</time></trkpt><trkpt lat="38.9513517" lon="-2.8737551"><ele>797.1666666666666</ele><time>2026-04-19T09:18:15.94Z</time></trkpt><trkpt lat="38.9514108" lon="-2.8737255"><ele>796.0</ele><time>2026-04-19T09:18:16.94Z</time></trkpt><trkpt lat="38.9515338" lon="-2.873684"><ele>796.0</ele><time>2026-04-19T09:18:18.94Z</time></trkpt><trkpt lat="38.9516546" lon="-2.8736668"><ele>796.0</ele><time>2026-04-19T09:18:20.939Z</time></trkpt><trkpt lat="38.9517759" lon="-2.8736589"><ele>796.0</ele><time>2026-04-19T09:18:22.94Z</time></trkpt><trkpt lat="38.9518737" lon="-2.8737254"><ele>796.0</ele><time>2026-04-19T09:18:24.94Z</time></trkpt><trkpt lat="38.9518936" lon="-2.8738605"><ele>795.0</ele><time>2026-04-19T09:18:26.94Z</time></trkpt><trkpt lat="38.9518712" lon="-2.8740232"><ele>794.0</ele><time>2026-04-19T09:18:28.94Z</time></trkpt><trkpt lat="38.9518541" lon="-2.8741038"><ele>793.0</ele><time>2026-04-19T09:18:29.94Z</time></trkpt><trkpt lat="38.9518296" lon="-2.8742614"><ele>792.0</ele><time>2026-04-19T09:18:31.939Z</time></trkpt><trkpt lat="38.9518224" lon="-2.874344"><ele>791.0</ele><time>2026-04-19T09:18:32.94Z</time></trkpt><trkpt lat="38.9518337" lon="-2.8744986"><ele>791.0000000000001</ele><time>2026-04-19T09:18:34.94Z</time></trkpt><trkpt lat="38.9518445" lon="-2.8745799"><ele>791.0</ele><time>2026-04-19T09:18:35.94Z</time></trkpt><trkpt lat="38.9518861" lon="-2.8747286"><ele>791.0</ele><time>2026-04-19T09:18:37.94Z</time></trkpt><trkpt lat="38.9519405" lon="-2.8748711"><ele>791.0</ele><time>2026-04-19T09:18:39.94Z</time></trkpt><trkpt lat="38.9519766" lon="-2.8749429"><ele>791.0000000000001</ele><time>2026-04-19T09:18:40.94Z</time></trkpt><trkpt lat="38.9520115" lon="-2.8750103"><ele>791.0</ele><time>2026-04-19T09:18:41.939Z</time></trkpt><trkpt lat="38.9520773" lon="-2.8751419"><ele>792.5000000000001</ele><time>2026-04-19T09:18:43.94Z</time></trkpt><trkpt lat="38.9521332" lon="-2.8752737"><ele>794.0</ele><time>2026-04-19T09:18:45.94Z</time></trkpt><trkpt lat="38.9522003" lon="-2.8754096"><ele>795.5</ele><time>2026-04-19T09:18:47.94Z</time></trkpt><trkpt lat="38.9522426" lon="-2.8754782"><ele>797.0</ele><time>2026-04-19T09:18:48.94Z</time></trkpt><trkpt lat="38.9522822" lon="-2.8755445"><ele>798.5000000000001</ele><time>2026-04-19T09:18:49.939Z</time></trkpt><trkpt lat="38.9523303" lon="-2.8756046"><ele>800.0</ele><time>2026-04-19T09:18:50.94Z</time></trkpt><trkpt lat="38.9523899" lon="-2.8756451"><ele>800.0000000000001</ele><time>2026-04-19T09:18:51.94Z</time></trkpt><trkpt lat="38.9524503" lon="-2.8756874"><ele>800.0</ele><time>2026-04-19T09:18:52.94Z</time></trkpt><trkpt lat="38.9525078" lon="-2.8757257"><ele>800.0</ele><time>2026-04-19T09:18:53.94Z</time></trkpt><trkpt lat="38.9525634" lon="-2.8757662"><ele>800.0</ele><time>2026-04-19T09:18:54.94Z</time></trkpt><trkpt lat="38.9526213" lon="-2.8758031"><ele>800.0</ele><time>2026-04-19T09:18:55.94Z</time></trkpt><trkpt lat="38.9526799" lon="-2.8758432"><ele>800.0000000000001</ele><time>2026-04-19T09:18:56.94Z</time></trkpt><trkpt lat="38.9527382" lon="-2.8758772"><ele>800.0</ele><time>2026-04-19T09:18:57.94Z</time></trkpt><trkpt lat="38.9528623" lon="-2.8758928"><ele>800.0</ele><time>2026-04-19T09:18:59.94Z</time></trkpt><trkpt lat="38.9529802" lon="-2.8758587"><ele>800.0</ele><time>2026-04-19T09:19:01.94Z</time></trkpt><trkpt lat="38.9530936" lon="-2.8757987"><ele>800.0</ele><time>2026-04-19T09:19:03.94Z</time></trkpt><trkpt lat="38.953205" lon="-2.8757434"><ele>800.0</ele><time>2026-04-19T09:19:05.94Z</time></trkpt><trkpt lat="38.9533374" lon="-2.8757106"><ele>799.3333333333334</ele><time>2026-04-19T09:19:07.94Z</time></trkpt><trkpt lat="38.9534015" lon="-2.8756999"><ele>798.6666666666667</ele><time>2026-04-19T09:19:08.939Z</time></trkpt><trkpt lat="38.953524" lon="-2.8756956"><ele>798.0</ele><time>2026-04-19T09:19:10.94Z</time></trkpt><trkpt lat="38.9535887" lon="-2.8756943"><ele>797.3333333333333</ele><time>2026-04-19T09:19:11.94Z</time></trkpt><trkpt lat="38.9537149" lon="-2.8756882"><ele>796.6666666666666</ele><time>2026-04-19T09:19:13.94Z</time></trkpt><trkpt lat="38.9537784" lon="-2.8756989"><ele>796.0</ele><time>2026-04-19T09:19:14.94Z</time></trkpt><trkpt lat="38.9538416" lon="-2.8757095"><ele>796.0</ele><time>2026-04-19T09:19:15.939Z</time></trkpt><trkpt lat="38.9539612" lon="-2.8757571"><ele>796.0</ele><time>2026-04-19T09:19:17.94Z</time></trkpt><trkpt lat="38.9540243" lon="-2.8757796"><ele>796.0</ele><time>2026-04-19T09:19:18.939Z</time></trkpt><trkpt lat="38.9541347" lon="-2.8758599"><ele>796.0</ele><time>2026-04-19T09:19:20.94Z</time></trkpt><trkpt lat="38.9542522" lon="-2.8759263"><ele>796.0</ele><time>2026-04-19T09:19:22.941Z</time></trkpt><trkpt lat="38.9543144" lon="-2.8759547"><ele>796.8333333333333</ele><time>2026-04-19T09:19:23.939Z</time></trkpt><trkpt lat="38.9543747" lon="-2.8759872"><ele>797.6666666666666</ele><time>2026-04-19T09:19:24.94Z</time></trkpt><trkpt lat="38.954482" lon="-2.876064"><ele>798.5</ele><time>2026-04-19T09:19:26.94Z</time></trkpt><trkpt lat="38.9545326" lon="-2.876113"><ele>799.3333333333333</ele><time>2026-04-19T09:19:27.94Z</time></trkpt><trkpt lat="38.9545882" lon="-2.8761549"><ele>800.1666666666666</ele><time>2026-04-19T09:19:28.94Z</time></trkpt><trkpt lat="38.9546882" lon="-2.8762423"><ele>801.0</ele><time>2026-04-19T09:19:30.94Z</time></trkpt><trkpt lat="38.9547854" lon="-2.8763148"><ele>801.0</ele><time>2026-04-19T09:19:32.94Z</time></trkpt><trkpt lat="38.95488" lon="-2.8763753"><ele>801.0</ele><time>2026-04-19T09:19:34.94Z</time></trkpt><trkpt lat="38.9549763" lon="-2.8764132"><ele>801.0</ele><time>2026-04-19T09:19:36.94Z</time></trkpt><trkpt lat="38.9550746" lon="-2.8764837"><ele>801.0</ele><time>2026-04-19T09:19:38.94Z</time></trkpt><trkpt lat="38.9551876" lon="-2.8765462"><ele>801.0</ele><time>2026-04-19T09:19:40.94Z</time></trkpt><trkpt lat="38.955246" lon="-2.8765771"><ele>801.4</ele><time>2026-04-19T09:19:41.94Z</time></trkpt><trkpt lat="38.9553581" lon="-2.8766229"><ele>801.8</ele><time>2026-04-19T09:19:43.94Z</time></trkpt><trkpt lat="38.9554717" lon="-2.876663"><ele>802.1999999999999</ele><time>2026-04-19T09:19:45.94Z</time></trkpt><trkpt lat="38.9555732" lon="-2.8767068"><ele>802.5999999999999</ele><time>2026-04-19T09:19:47.94Z</time></trkpt><trkpt lat="38.9556641" lon="-2.8767554"><ele>803.0</ele><time>2026-04-19T09:19:49.94Z</time></trkpt><trkpt lat="38.9557598" lon="-2.8767921"><ele>803.0000000000001</ele><time>2026-04-19T09:19:51.94Z</time></trkpt><trkpt lat="38.9558541" lon="-2.8768216"><ele>803.0</ele><time>2026-04-19T09:19:53.94Z</time></trkpt><trkpt lat="38.9559422" lon="-2.8768412"><ele>803.0</ele><time>2026-04-19T09:19:55.94Z</time></trkpt><trkpt lat="38.9560008" lon="-2.8768873"><ele>803.0</ele><time>2026-04-19T09:19:57.939Z</time></trkpt><trkpt lat="38.9560635" lon="-2.8769424"><ele>803.0000000000001</ele><time>2026-04-19T09:19:59.939Z</time></trkpt><trkpt lat="38.9561243" lon="-2.8770198"><ele>803.0</ele><time>2026-04-19T09:20:01.94Z</time></trkpt><trkpt lat="38.9561961" lon="-2.8771001"><ele>801.75</ele><time>2026-04-19T09:20:03.94Z</time></trkpt><trkpt lat="38.9562809" lon="-2.8771738"><ele>800.5</ele><time>2026-04-19T09:20:05.939Z</time></trkpt><trkpt lat="38.956377" lon="-2.8772383"><ele>799.25</ele><time>2026-04-19T09:20:07.94Z</time></trkpt><trkpt lat="38.9564956" lon="-2.8772653"><ele>798.0</ele><time>2026-04-19T09:20:09.939Z</time></trkpt><trkpt lat="38.9566189" lon="-2.8772568"><ele>797.8</ele><time>2026-04-19T09:20:11.94Z</time></trkpt><trkpt lat="38.9567377" lon="-2.8772223"><ele>797.5999999999999</ele><time>2026-04-19T09:20:13.94Z</time></trkpt><trkpt lat="38.9568" lon="-2.8772097"><ele>797.4000000000001</ele><time>2026-04-19T09:20:14.94Z</time></trkpt><trkpt lat="38.9569172" lon="-2.8771789"><ele>797.2</ele><time>2026-04-19T09:20:16.94Z</time></trkpt><trkpt lat="38.957043" lon="-2.8771772"><ele>797.0</ele><time>2026-04-19T09:20:18.94Z</time></trkpt><trkpt lat="38.9571662" lon="-2.8771914"><ele>797.0</ele><time>2026-04-19T09:20:20.94Z</time></trkpt><trkpt lat="38.9572886" lon="-2.8772108"><ele>797.0</ele><time>2026-04-19T09:20:22.94Z</time></trkpt><trkpt lat="38.9574184" lon="-2.8772273"><ele>797.0</ele><time>2026-04-19T09:20:24.94Z</time></trkpt><trkpt lat="38.9575402" lon="-2.8772305"><ele>797.0</ele><time>2026-04-19T09:20:26.94Z</time></trkpt><trkpt lat="38.9576033" lon="-2.8772369"><ele>797.0</ele><time>2026-04-19T09:20:27.94Z</time></trkpt><trkpt lat="38.9576677" lon="-2.8772406"><ele>796.25</ele><time>2026-04-19T09:20:28.94Z</time></trkpt><trkpt lat="38.9577893" lon="-2.8772567"><ele>795.5</ele><time>2026-04-19T09:20:30.94Z</time></trkpt><trkpt lat="38.9579061" lon="-2.8772615"><ele>794.75</ele><time>2026-04-19T09:20:32.94Z</time></trkpt><trkpt lat="38.9580203" lon="-2.8772641"><ele>794.0</ele><time>2026-04-19T09:20:34.94Z</time></trkpt><trkpt lat="38.9581216" lon="-2.8773048"><ele>794.0</ele><time>2026-04-19T09:20:36.94Z</time></trkpt><trkpt lat="38.9582161" lon="-2.8773501"><ele>794.0</ele><time>2026-04-19T09:20:38.941Z</time></trkpt><trkpt lat="38.958302" lon="-2.8773914"><ele>794.0</ele><time>2026-04-19T09:20:40.94Z</time></trkpt><trkpt lat="38.9583894" lon="-2.8774209"><ele>794.0</ele><time>2026-04-19T09:20:42.94Z</time></trkpt><trkpt lat="38.9584927" lon="-2.8774469"><ele>794.0</ele><time>2026-04-19T09:20:44.94Z</time></trkpt><trkpt lat="38.9586061" lon="-2.8775075"><ele>794.4285714285714</ele><time>2026-04-19T09:20:46.94Z</time></trkpt><trkpt lat="38.9586635" lon="-2.8775429"><ele>794.8571428571429</ele><time>2026-04-19T09:20:47.939Z</time></trkpt><trkpt lat="38.9587195" lon="-2.8775844"><ele>795.2857142857142</ele><time>2026-04-19T09:20:48.94Z</time></trkpt><trkpt lat="38.9587748" lon="-2.8776236"><ele>795.7142857142858</ele><time>2026-04-19T09:20:49.94Z</time></trkpt><trkpt lat="38.9588306" lon="-2.8776667"><ele>796.1428571428572</ele><time>2026-04-19T09:20:50.94Z</time></trkpt><trkpt lat="38.95889" lon="-2.8777015"><ele>796.5714285714286</ele><time>2026-04-19T09:20:51.94Z</time></trkpt><trkpt lat="38.9590076" lon="-2.8777636"><ele>797.0</ele><time>2026-04-19T09:20:53.94Z</time></trkpt><trkpt lat="38.9590692" lon="-2.8777927"><ele>797.0000000000001</ele><time>2026-04-19T09:20:54.94Z</time></trkpt><trkpt lat="38.9591256" lon="-2.8778334"><ele>797.0</ele><time>2026-04-19T09:20:55.939Z</time></trkpt><trkpt lat="38.9591969" lon="-2.8778728"><ele>797.0</ele><time>2026-04-19T09:20:56.94Z</time></trkpt><trkpt lat="38.9592533" lon="-2.8779111"><ele>797.0</ele><time>2026-04-19T09:20:57.94Z</time></trkpt><trkpt lat="38.9593566" lon="-2.8779951"><ele>797.0000000000001</ele><time>2026-04-19T09:20:59.94Z</time></trkpt><trkpt lat="38.9594326" lon="-2.8781153"><ele>797.0</ele><time>2026-04-19T09:21:01.94Z</time></trkpt><trkpt lat="38.9594608" lon="-2.8781895"><ele>795.4000000000001</ele><time>2026-04-19T09:21:02.94Z</time></trkpt><trkpt lat="38.9594859" lon="-2.8782695"><ele>793.8000000000001</ele><time>2026-04-19T09:21:03.94Z</time></trkpt><trkpt lat="38.9594627" lon="-2.8784259"><ele>792.2</ele><time>2026-04-19T09:21:05.94Z</time></trkpt><trkpt lat="38.9594375" lon="-2.8785768"><ele>790.6</ele><time>2026-04-19T09:21:07.94Z</time></trkpt><trkpt lat="38.9594203" lon="-2.8787109"><ele>789.0</ele><time>2026-04-19T09:21:09.94Z</time></trkpt><trkpt lat="38.9593961" lon="-2.8788311"><ele>789.0</ele><time>2026-04-19T09:21:11.94Z</time></trkpt><trkpt lat="38.9593688" lon="-2.8789677"><ele>789.0</ele><time>2026-04-19T09:21:13.939Z</time></trkpt><trkpt lat="38.9593506" lon="-2.8790467"><ele>789.0</ele><time>2026-04-19T09:21:14.94Z</time></trkpt><trkpt lat="38.9593471" lon="-2.8791346"><ele>789.0</ele><time>2026-04-19T09:21:15.94Z</time></trkpt><trkpt lat="38.9593497" lon="-2.8792178"><ele>789.0</ele><time>2026-04-19T09:21:16.94Z</time></trkpt><trkpt lat="38.959337" lon="-2.8793548"><ele>789.0</ele><time>2026-04-19T09:21:18.94Z</time></trkpt><trkpt lat="38.9593386" lon="-2.8794816"><ele>789.0</ele><time>2026-04-19T09:21:20.94Z</time></trkpt><trkpt lat="38.9593173" lon="-2.8796328"><ele>789.0</ele><time>2026-04-19T09:21:22.94Z</time></trkpt><trkpt lat="38.9592907" lon="-2.8797095"><ele>789.0</ele><time>2026-04-19T09:21:23.94Z</time></trkpt><trkpt lat="38.9592775" lon="-2.8797913"><ele>789.0</ele><time>2026-04-19T09:21:24.939Z</time></trkpt><trkpt lat="38.9592601" lon="-2.879933"><ele>789.0</ele><time>2026-04-19T09:21:26.941Z</time></trkpt><trkpt lat="38.9592429" lon="-2.8800594"><ele>789.0</ele><time>2026-04-19T09:21:28.94Z</time></trkpt><trkpt lat="38.9592608" lon="-2.8802159"><ele>789.0</ele><time>2026-04-19T09:21:30.94Z</time></trkpt><trkpt lat="38.9593075" lon="-2.8803657"><ele>789.0</ele><time>2026-04-19T09:21:32.939Z</time></trkpt><trkpt lat="38.9593413" lon="-2.8804977"><ele>789.0</ele><time>2026-04-19T09:21:34.94Z</time></trkpt><trkpt lat="38.95939" lon="-2.8806317"><ele>789.0</ele><time>2026-04-19T09:21:36.94Z</time></trkpt><trkpt lat="38.9593829" lon="-2.8807143"><ele>789.0</ele><time>2026-04-19T09:21:37.94Z</time></trkpt><trkpt lat="38.9593733" lon="-2.8808593"><ele>789.0</ele><time>2026-04-19T09:21:39.94Z</time></trkpt><trkpt lat="38.959339" lon="-2.8809863"><ele>789.0</ele><time>2026-04-19T09:21:41.94Z</time></trkpt><trkpt lat="38.9593194" lon="-2.8811288"><ele>789.0</ele><time>2026-04-19T09:21:43.94Z</time></trkpt><trkpt lat="38.9592681" lon="-2.8812806"><ele>788.9999999999999</ele><time>2026-04-19T09:21:45.94Z</time></trkpt><trkpt lat="38.959229" lon="-2.881354"><ele>789.0</ele><time>2026-04-19T09:21:46.94Z</time></trkpt><trkpt lat="38.9591742" lon="-2.8814244"><ele>789.0</ele><time>2026-04-19T09:21:47.94Z</time></trkpt><trkpt lat="38.9591477" lon="-2.8815186"><ele>789.0</ele><time>2026-04-19T09:21:48.94Z</time></trkpt><trkpt lat="38.9591406" lon="-2.8816102"><ele>789.0</ele><time>2026-04-19T09:21:49.94Z</time></trkpt><trkpt lat="38.9591429" lon="-2.8816951"><ele>788.9999999999999</ele><time>2026-04-19T09:21:50.94Z</time></trkpt><trkpt lat="38.9591463" lon="-2.8817882"><ele>789.0</ele><time>2026-04-19T09:21:51.94Z</time></trkpt><trkpt lat="38.9591481" lon="-2.8818736"><ele>789.0</ele><time>2026-04-19T09:21:52.94Z</time></trkpt><trkpt lat="38.9591537" lon="-2.8820243"><ele>789.0</ele><time>2026-04-19T09:21:54.94Z</time></trkpt><trkpt lat="38.9591596" lon="-2.8821641"><ele>789.0</ele><time>2026-04-19T09:21:56.94Z</time></trkpt><trkpt lat="38.9591677" lon="-2.882285"><ele>789.0</ele><time>2026-04-19T09:21:58.94Z</time></trkpt><trkpt lat="38.9591912" lon="-2.8824026"><ele>789.0</ele><time>2026-04-19T09:22:00.94Z</time></trkpt><trkpt lat="38.9592512" lon="-2.8825265"><ele>789.0</ele><time>2026-04-19T09:22:02.94Z</time></trkpt><trkpt lat="38.9593077" lon="-2.8826613"><ele>789.0</ele><time>2026-04-19T09:22:04.94Z</time></trkpt><trkpt lat="38.9593458" lon="-2.8828104"><ele>789.0</ele><time>2026-04-19T09:22:06.94Z</time></trkpt><trkpt lat="38.9593639" lon="-2.8829674"><ele>789.0</ele><time>2026-04-19T09:22:08.939Z</time></trkpt><trkpt lat="38.9593627" lon="-2.8831263"><ele>789.0</ele><time>2026-04-19T09:22:10.94Z</time></trkpt><trkpt lat="38.9593357" lon="-2.8832752"><ele>789.0</ele><time>2026-04-19T09:22:12.939Z</time></trkpt><trkpt lat="38.9592976" lon="-2.8834212"><ele>789.0</ele><time>2026-04-19T09:22:14.94Z</time></trkpt><trkpt lat="38.9592623" lon="-2.8835767"><ele>789.0</ele><time>2026-04-19T09:22:16.94Z</time></trkpt><trkpt lat="38.9592305" lon="-2.883731"><ele>789.0</ele><time>2026-04-19T09:22:18.94Z</time></trkpt><trkpt lat="38.9592195" lon="-2.8838646"><ele>789.0</ele><time>2026-04-19T09:22:20.94Z</time></trkpt><trkpt lat="38.9592252" lon="-2.8839758"><ele>789.0</ele><time>2026-04-19T09:22:22.94Z</time></trkpt><trkpt lat="38.959258" lon="-2.8841071"><ele>789.0</ele><time>2026-04-19T09:22:24.94Z</time></trkpt><trkpt lat="38.9593143" lon="-2.8842543"><ele>789.0</ele><time>2026-04-19T09:22:26.939Z</time></trkpt><trkpt lat="38.95937" lon="-2.8843971"><ele>789.2</ele><time>2026-04-19T09:22:28.94Z</time></trkpt><trkpt lat="38.9594092" lon="-2.8844651"><ele>789.4000000000001</ele><time>2026-04-19T09:22:29.94Z</time></trkpt><trkpt lat="38.9594919" lon="-2.8845917"><ele>789.6</ele><time>2026-04-19T09:22:31.94Z</time></trkpt><trkpt lat="38.9595883" lon="-2.8846829"><ele>789.8</ele><time>2026-04-19T09:22:33.94Z</time></trkpt><trkpt lat="38.9596886" lon="-2.8847679"><ele>790.0</ele><time>2026-04-19T09:22:35.94Z</time></trkpt><trkpt lat="38.9597764" lon="-2.8848708"><ele>790.0</ele><time>2026-04-19T09:22:37.94Z</time></trkpt><trkpt lat="38.9598638" lon="-2.8849833"><ele>790.0</ele><time>2026-04-19T09:22:39.94Z</time></trkpt><trkpt lat="38.9599455" lon="-2.8851031"><ele>790.0</ele><time>2026-04-19T09:22:41.94Z</time></trkpt><trkpt lat="38.959983" lon="-2.8851693"><ele>790.0</ele><time>2026-04-19T09:22:42.94Z</time></trkpt><trkpt lat="38.9600167" lon="-2.8852389"><ele>790.0</ele><time>2026-04-19T09:22:43.94Z</time></trkpt><trkpt lat="38.9600876" lon="-2.8853798"><ele>790.8</ele><time>2026-04-19T09:22:45.939Z</time></trkpt><trkpt lat="38.9601268" lon="-2.8854463"><ele>791.6</ele><time>2026-04-19T09:22:46.94Z</time></trkpt><trkpt lat="38.9601662" lon="-2.8855112"><ele>792.4000000000001</ele><time>2026-04-19T09:22:47.94Z</time></trkpt><trkpt lat="38.9602572" lon="-2.8855961"><ele>793.2</ele><time>2026-04-19T09:22:49.94Z</time></trkpt><trkpt lat="38.9603442" lon="-2.8856384"><ele>794.0</ele><time>2026-04-19T09:22:51.94Z</time></trkpt><trkpt lat="38.960455" lon="-2.8856873"><ele>794.0</ele><time>2026-04-19T09:22:53.94Z</time></trkpt><trkpt lat="38.9605702" lon="-2.8857443"><ele>794.0</ele><time>2026-04-19T09:22:55.939Z</time></trkpt><trkpt lat="38.960629" lon="-2.8857738"><ele>794.0</ele><time>2026-04-19T09:22:56.94Z</time></trkpt><trkpt lat="38.9606901" lon="-2.8858029"><ele>794.0</ele><time>2026-04-19T09:22:57.939Z</time></trkpt><trkpt lat="38.9608073" lon="-2.8858624"><ele>794.0</ele><time>2026-04-19T09:22:59.94Z</time></trkpt><trkpt lat="38.9609228" lon="-2.885901"><ele>795.8000000000001</ele><time>2026-04-19T09:23:01.94Z</time></trkpt><trkpt lat="38.9610383" lon="-2.8859469"><ele>797.6</ele><time>2026-04-19T09:23:03.94Z</time></trkpt><trkpt lat="38.9611477" lon="-2.8859731"><ele>799.4</ele><time>2026-04-19T09:23:05.94Z</time></trkpt><trkpt lat="38.9612744" lon="-2.8859752"><ele>801.2</ele><time>2026-04-19T09:23:07.94Z</time></trkpt><trkpt lat="38.9613418" lon="-2.8859687"><ele>803.0</ele><time>2026-04-19T09:23:08.939Z</time></trkpt><trkpt lat="38.9614658" lon="-2.8859509"><ele>803.0000000000001</ele><time>2026-04-19T09:23:10.94Z</time></trkpt><trkpt lat="38.9615277" lon="-2.8859334"><ele>803.0</ele><time>2026-04-19T09:23:11.94Z</time></trkpt><trkpt lat="38.9616453" lon="-2.8859165"><ele>803.0</ele><time>2026-04-19T09:23:13.939Z</time></trkpt><trkpt lat="38.9617713" lon="-2.8858935"><ele>803.0</ele><time>2026-04-19T09:23:15.941Z</time></trkpt><trkpt lat="38.9618353" lon="-2.8859023"><ele>803.0000000000001</ele><time>2026-04-19T09:23:16.94Z</time></trkpt><trkpt lat="38.9619003" lon="-2.8859089"><ele>803.0</ele><time>2026-04-19T09:23:17.94Z</time></trkpt><trkpt lat="38.961966" lon="-2.8859143"><ele>802.2857142857142</ele><time>2026-04-19T09:23:18.94Z</time></trkpt><trkpt lat="38.9620282" lon="-2.8859291"><ele>801.5714285714286</ele><time>2026-04-19T09:23:19.94Z</time></trkpt><trkpt lat="38.9620916" lon="-2.8859356"><ele>800.8571428571429</ele><time>2026-04-19T09:23:20.94Z</time></trkpt><trkpt lat="38.9621546" lon="-2.8859363"><ele>800.1428571428571</ele><time>2026-04-19T09:23:21.94Z</time></trkpt><trkpt lat="38.9622189" lon="-2.8859396"><ele>799.4285714285714</ele><time>2026-04-19T09:23:22.94Z</time></trkpt><trkpt lat="38.9622836" lon="-2.8859453"><ele>798.7142857142857</ele><time>2026-04-19T09:23:23.94Z</time></trkpt><trkpt lat="38.9623964" lon="-2.8859891"><ele>798.0</ele><time>2026-04-19T09:23:25.94Z</time></trkpt><trkpt lat="38.962506" lon="-2.8860722"><ele>797.0</ele><time>2026-04-19T09:23:27.94Z</time></trkpt><trkpt lat="38.9625561" lon="-2.8861221"><ele>796.0</ele><time>2026-04-19T09:23:28.94Z</time></trkpt><trkpt lat="38.9626062" lon="-2.8861755"><ele>795.0</ele><time>2026-04-19T09:23:29.94Z</time></trkpt><trkpt lat="38.9626536" lon="-2.8862296"><ele>794.0</ele><time>2026-04-19T09:23:30.94Z</time></trkpt><trkpt lat="38.9627421" lon="-2.8863323"><ele>793.0</ele><time>2026-04-19T09:23:32.94Z</time></trkpt><trkpt lat="38.9628226" lon="-2.8864455"><ele>792.0</ele><time>2026-04-19T09:23:34.94Z</time></trkpt><trkpt lat="38.9629092" lon="-2.8865635"><ele>792.0</ele><time>2026-04-19T09:23:36.94Z</time></trkpt><trkpt lat="38.9629459" lon="-2.8866312"><ele>792.0</ele><time>2026-04-19T09:23:37.94Z</time></trkpt><trkpt lat="38.9629753" lon="-2.8867046"><ele>792.0</ele><time>2026-04-19T09:23:38.939Z</time></trkpt><trkpt lat="38.9630036" lon="-2.8867778"><ele>792.0</ele><time>2026-04-19T09:23:39.939Z</time></trkpt><trkpt lat="38.9630268" lon="-2.886854"><ele>792.0</ele><time>2026-04-19T09:23:40.939Z</time></trkpt><trkpt lat="38.963042" lon="-2.8869338"><ele>792.0</ele><time>2026-04-19T09:23:41.939Z</time></trkpt><trkpt lat="38.9630746" lon="-2.8870879"><ele>792.0</ele><time>2026-04-19T09:23:43.939Z</time></trkpt><trkpt lat="38.9630901" lon="-2.8871678"><ele>792.2</ele><time>2026-04-19T09:23:44.939Z</time></trkpt><trkpt lat="38.9630977" lon="-2.8872497"><ele>792.4000000000001</ele><time>2026-04-19T09:23:45.939Z</time></trkpt><trkpt lat="38.9631031" lon="-2.8873922"><ele>792.5999999999999</ele><time>2026-04-19T09:23:47.938Z</time></trkpt><trkpt lat="38.9630952" lon="-2.8875255"><ele>792.8</ele><time>2026-04-19T09:23:49.939Z</time></trkpt><trkpt lat="38.9630893" lon="-2.88765"><ele>793.0</ele><time>2026-04-19T09:23:51.938Z</time></trkpt><trkpt lat="38.963077" lon="-2.8877919"><ele>792.2</ele><time>2026-04-19T09:23:53.939Z</time></trkpt><trkpt lat="38.9630932" lon="-2.8879661"><ele>791.4</ele><time>2026-04-19T09:23:55.939Z</time></trkpt><trkpt lat="38.9630965" lon="-2.8880547"><ele>790.6</ele><time>2026-04-19T09:23:56.939Z</time></trkpt><trkpt lat="38.9631041" lon="-2.8882198"><ele>789.8000000000001</ele><time>2026-04-19T09:23:58.939Z</time></trkpt><trkpt lat="38.9631225" lon="-2.8883545"><ele>789.0</ele><time>2026-04-19T09:24:00.938Z</time></trkpt><trkpt lat="38.9631297" lon="-2.888455"><ele>789.0</ele><time>2026-04-19T09:24:02.939Z</time></trkpt><trkpt lat="38.9631311" lon="-2.8885441"><ele>789.0</ele><time>2026-04-19T09:24:04.939Z</time></trkpt><trkpt lat="38.9631672" lon="-2.888645"><ele>789.0</ele><time>2026-04-19T09:24:06.939Z</time></trkpt><trkpt lat="38.9632019" lon="-2.8887317"><ele>789.0</ele><time>2026-04-19T09:24:08.938Z</time></trkpt><trkpt lat="38.9632569" lon="-2.8888286"><ele>789.0</ele><time>2026-04-19T09:24:11.939Z</time></trkpt><trkpt lat="38.9632909" lon="-2.888914"><ele>789.0</ele><time>2026-04-19T09:24:15.939Z</time></trkpt><trkpt lat="38.9633322" lon="-2.8890074"><ele>789.0</ele><time>2026-04-19T09:24:19.939Z</time></trkpt><trkpt lat="38.9633686" lon="-2.8891136"><ele>789.0</ele><time>2026-04-19T09:24:22.939Z</time></trkpt><trkpt lat="38.9634061" lon="-2.889206"><ele>789.0</ele><time>2026-04-19T09:24:24.939Z</time></trkpt><trkpt lat="38.9634588" lon="-2.8892974"><ele>789.0</ele><time>2026-04-19T09:24:26.939Z</time></trkpt><trkpt lat="38.9635287" lon="-2.8893707"><ele>789.0</ele><time>2026-04-19T09:24:28.938Z</time></trkpt><trkpt lat="38.9636112" lon="-2.8894237"><ele>789.0</ele><time>2026-04-19T09:24:30.939Z</time></trkpt><trkpt lat="38.9636975" lon="-2.8894742"><ele>791.0</ele><time>2026-04-19T09:24:32.939Z</time></trkpt><trkpt lat="38.9637863" lon="-2.8895254"><ele>793.0</ele><time>2026-04-19T09:24:34.939Z</time></trkpt><trkpt lat="38.9638764" lon="-2.8895772"><ele>795.0</ele><time>2026-04-19T09:24:36.939Z</time></trkpt><trkpt lat="38.9639786" lon="-2.889609"><ele>797.0</ele><time>2026-04-19T09:24:38.939Z</time></trkpt><trkpt lat="38.9640849" lon="-2.8896554"><ele>799.0</ele><time>2026-04-19T09:24:40.939Z</time></trkpt><trkpt lat="38.9641874" lon="-2.8897239"><ele>797.6</ele><time>2026-04-19T09:24:42.94Z</time></trkpt><trkpt lat="38.9642952" lon="-2.8897742"><ele>796.2</ele><time>2026-04-19T09:24:44.939Z</time></trkpt><trkpt lat="38.964391" lon="-2.8898144"><ele>794.8000000000001</ele><time>2026-04-19T09:24:46.939Z</time></trkpt><trkpt lat="38.9644699" lon="-2.8898317"><ele>793.4000000000001</ele><time>2026-04-19T09:24:48.939Z</time></trkpt><trkpt lat="38.9645461" lon="-2.8898526"><ele>792.0</ele><time>2026-04-19T09:24:50.939Z</time></trkpt><trkpt lat="38.9646212" lon="-2.8898793"><ele>792.0</ele><time>2026-04-19T09:24:52.939Z</time></trkpt><trkpt lat="38.9647091" lon="-2.8899155"><ele>792.0</ele><time>2026-04-19T09:24:54.939Z</time></trkpt><trkpt lat="38.9647969" lon="-2.8899677"><ele>792.0</ele><time>2026-04-19T09:24:56.938Z</time></trkpt><trkpt lat="38.9648823" lon="-2.8900513"><ele>792.0</ele><time>2026-04-19T09:24:58.939Z</time></trkpt><trkpt lat="38.9649744" lon="-2.8901253"><ele>792.0</ele><time>2026-04-19T09:25:00.939Z</time></trkpt><trkpt lat="38.9650692" lon="-2.8901683"><ele>795.8</ele><time>2026-04-19T09:25:02.939Z</time></trkpt><trkpt lat="38.9651594" lon="-2.890206"><ele>799.6</ele><time>2026-04-19T09:25:04.939Z</time></trkpt><trkpt lat="38.9652703" lon="-2.8902332"><ele>803.4</ele><time>2026-04-19T09:25:06.939Z</time></trkpt><trkpt lat="38.9653835" lon="-2.8902472"><ele>807.1999999999999</ele><time>2026-04-19T09:25:08.938Z</time></trkpt><trkpt lat="38.9654468" lon="-2.8902333"><ele>811.0</ele><time>2026-04-19T09:25:09.939Z</time></trkpt><trkpt lat="38.9655641" lon="-2.8901906"><ele>811.0</ele><time>2026-04-19T09:25:11.939Z</time></trkpt><trkpt lat="38.9656686" lon="-2.8901245"><ele>811.0</ele><time>2026-04-19T09:25:13.938Z</time></trkpt><trkpt lat="38.9657747" lon="-2.890067"><ele>811.0</ele><time>2026-04-19T09:25:15.939Z</time></trkpt><trkpt lat="38.9658834" lon="-2.8900338"><ele>811.0</ele><time>2026-04-19T09:25:17.939Z</time></trkpt><trkpt lat="38.9659942" lon="-2.8900265"><ele>807.5999999999999</ele><time>2026-04-19T09:25:19.939Z</time></trkpt><trkpt lat="38.9660974" lon="-2.8900219"><ele>804.2</ele><time>2026-04-19T09:25:21.939Z</time></trkpt><trkpt lat="38.9662006" lon="-2.8900101"><ele>800.8</ele><time>2026-04-19T09:25:23.939Z</time></trkpt><trkpt lat="38.9663081" lon="-2.8899926"><ele>797.4000000000001</ele><time>2026-04-19T09:25:25.939Z</time></trkpt><trkpt lat="38.9664114" lon="-2.8899754"><ele>794.0</ele><time>2026-04-19T09:25:27.939Z</time></trkpt><trkpt lat="38.966513" lon="-2.8899559"><ele>794.0</ele><time>2026-04-19T09:25:29.939Z</time></trkpt><trkpt lat="38.9666184" lon="-2.8899522"><ele>794.0</ele><time>2026-04-19T09:25:31.939Z</time></trkpt><trkpt lat="38.9667099" lon="-2.8899675"><ele>794.0</ele><time>2026-04-19T09:25:33.939Z</time></trkpt><trkpt lat="38.966796" lon="-2.8899865"><ele>794.0</ele><time>2026-04-19T09:25:35.939Z</time></trkpt><trkpt lat="38.9668756" lon="-2.8900156"><ele>794.0</ele><time>2026-04-19T09:25:37.939Z</time></trkpt><trkpt lat="38.9669656" lon="-2.8900567"><ele>794.75</ele><time>2026-04-19T09:25:39.938Z</time></trkpt><trkpt lat="38.9670744" lon="-2.8900476"><ele>795.5</ele><time>2026-04-19T09:25:41.939Z</time></trkpt><trkpt lat="38.9671894" lon="-2.8899835"><ele>796.25</ele><time>2026-04-19T09:25:43.939Z</time></trkpt><trkpt lat="38.9672934" lon="-2.8898999"><ele>797.0</ele><time>2026-04-19T09:25:45.939Z</time></trkpt><trkpt lat="38.9673978" lon="-2.8898285"><ele>797.0</ele><time>2026-04-19T09:25:47.939Z</time></trkpt><trkpt lat="38.9674923" lon="-2.8897461"><ele>797.0</ele><time>2026-04-19T09:25:49.939Z</time></trkpt><trkpt lat="38.9675839" lon="-2.8896397"><ele>797.0</ele><time>2026-04-19T09:25:51.939Z</time></trkpt><trkpt lat="38.9676261" lon="-2.8895793"><ele>797.0</ele><time>2026-04-19T09:25:52.939Z</time></trkpt><trkpt lat="38.9676983" lon="-2.8894454"><ele>797.0</ele><time>2026-04-19T09:25:54.939Z</time></trkpt><trkpt lat="38.9677369" lon="-2.8893786"><ele>798.8</ele><time>2026-04-19T09:25:55.939Z</time></trkpt><trkpt lat="38.967799" lon="-2.8892412"><ele>800.6</ele><time>2026-04-19T09:25:57.939Z</time></trkpt><trkpt lat="38.967833" lon="-2.8891721"><ele>802.4</ele><time>2026-04-19T09:25:58.939Z</time></trkpt><trkpt lat="38.9678866" lon="-2.8890383"><ele>804.1999999999999</ele><time>2026-04-19T09:26:00.939Z</time></trkpt><trkpt lat="38.9679327" lon="-2.8888957"><ele>806.0</ele><time>2026-04-19T09:26:02.939Z</time></trkpt><trkpt lat="38.9679915" lon="-2.8887623"><ele>806.0</ele><time>2026-04-19T09:26:04.939Z</time></trkpt><trkpt lat="38.968045" lon="-2.8886304"><ele>806.0</ele><time>2026-04-19T09:26:06.939Z</time></trkpt><trkpt lat="38.9680759" lon="-2.8885592"><ele>806.0</ele><time>2026-04-19T09:26:07.939Z</time></trkpt><trkpt lat="38.9681313" lon="-2.8884141"><ele>806.0</ele><time>2026-04-19T09:26:09.939Z</time></trkpt><trkpt lat="38.9681625" lon="-2.8883414"><ele>806.0</ele><time>2026-04-19T09:26:10.939Z</time></trkpt><trkpt lat="38.9682297" lon="-2.8882052"><ele>805.75</ele><time>2026-04-19T09:26:12.939Z</time></trkpt><trkpt lat="38.9682991" lon="-2.8880765"><ele>805.5</ele><time>2026-04-19T09:26:14.939Z</time></trkpt><trkpt lat="38.9683758" lon="-2.8879549"><ele>805.25</ele><time>2026-04-19T09:26:16.938Z</time></trkpt><trkpt lat="38.9684717" lon="-2.887862"><ele>805.0</ele><time>2026-04-19T09:26:18.939Z</time></trkpt><trkpt lat="38.9685831" lon="-2.8877876"><ele>805.0</ele><time>2026-04-19T09:26:20.939Z</time></trkpt><trkpt lat="38.96864" lon="-2.8877499"><ele>805.0</ele><time>2026-04-19T09:26:21.939Z</time></trkpt><trkpt lat="38.9686983" lon="-2.8877166"><ele>805.0</ele><time>2026-04-19T09:26:22.939Z</time></trkpt><trkpt lat="38.9687612" lon="-2.8876924"><ele>805.0</ele><time>2026-04-19T09:26:23.939Z</time></trkpt><trkpt lat="38.9688214" lon="-2.8876654"><ele>805.0</ele><time>2026-04-19T09:26:24.938Z</time></trkpt><trkpt lat="38.9689436" lon="-2.8876299"><ele>805.0</ele><time>2026-04-19T09:26:26.939Z</time></trkpt><trkpt lat="38.9690081" lon="-2.8876186"><ele>805.0</ele><time>2026-04-19T09:26:27.939Z</time></trkpt><trkpt lat="38.9690726" lon="-2.8876089"><ele>802.6666666666666</ele><time>2026-04-19T09:26:28.939Z</time></trkpt><trkpt lat="38.9691921" lon="-2.8875795"><ele>800.3333333333333</ele><time>2026-04-19T09:26:30.939Z</time></trkpt><trkpt lat="38.9693139" lon="-2.8875744"><ele>798.0</ele><time>2026-04-19T09:26:32.939Z</time></trkpt><trkpt lat="38.9693772" lon="-2.8875797"><ele>795.6666666666667</ele><time>2026-04-19T09:26:33.939Z</time></trkpt><trkpt lat="38.9694438" lon="-2.8875918"><ele>793.3333333333334</ele><time>2026-04-19T09:26:34.939Z</time></trkpt><trkpt lat="38.9695117" lon="-2.8875933"><ele>791.0</ele><time>2026-04-19T09:26:35.939Z</time></trkpt><trkpt lat="38.9695788" lon="-2.8875903"><ele>791.0000000000001</ele><time>2026-04-19T09:26:36.939Z</time></trkpt><trkpt lat="38.9696488" lon="-2.8875761"><ele>791.0</ele><time>2026-04-19T09:26:37.939Z</time></trkpt><trkpt lat="38.9697146" lon="-2.8875735"><ele>791.0</ele><time>2026-04-19T09:26:38.939Z</time></trkpt><trkpt lat="38.9697822" lon="-2.8875726"><ele>791.0</ele><time>2026-04-19T09:26:39.938Z</time></trkpt><trkpt lat="38.9698499" lon="-2.8875762"><ele>791.0000000000001</ele><time>2026-04-19T09:26:40.939Z</time></trkpt><trkpt lat="38.9699113" lon="-2.8875978"><ele>791.0</ele><time>2026-04-19T09:26:41.938Z</time></trkpt><trkpt lat="38.9700322" lon="-2.887643"><ele>792.0</ele><time>2026-04-19T09:26:43.939Z</time></trkpt><trkpt lat="38.9700928" lon="-2.8876651"><ele>793.0</ele><time>2026-04-19T09:26:44.939Z</time></trkpt><trkpt lat="38.9702034" lon="-2.8877248"><ele>794.0</ele><time>2026-04-19T09:26:46.938Z</time></trkpt><trkpt lat="38.9703214" lon="-2.887762"><ele>795.0</ele><time>2026-04-19T09:26:48.939Z</time></trkpt><trkpt lat="38.9704414" lon="-2.8877792"><ele>796.0</ele><time>2026-04-19T09:26:50.939Z</time></trkpt><trkpt lat="38.9705562" lon="-2.8877866"><ele>795.9999999999999</ele><time>2026-04-19T09:26:52.939Z</time></trkpt><trkpt lat="38.9706696" lon="-2.8878215"><ele>796.0</ele><time>2026-04-19T09:26:54.939Z</time></trkpt><trkpt lat="38.9707641" lon="-2.8878667"><ele>796.0</ele><time>2026-04-19T09:26:56.939Z</time></trkpt><trkpt lat="38.9708226" lon="-2.8879101"><ele>796.0</ele><time>2026-04-19T09:26:58.939Z</time></trkpt><trkpt lat="38.9708797" lon="-2.8879622"><ele>795.9999999999999</ele><time>2026-04-19T09:27:00.939Z</time></trkpt><trkpt lat="38.9709526" lon="-2.8880263"><ele>796.0</ele><time>2026-04-19T09:27:02.939Z</time></trkpt><trkpt lat="38.9710163" lon="-2.888111"><ele>794.6666666666666</ele><time>2026-04-19T09:27:04.939Z</time></trkpt><trkpt lat="38.9710733" lon="-2.8881759"><ele>793.3333333333333</ele><time>2026-04-19T09:27:06.938Z</time></trkpt><trkpt lat="38.9711131" lon="-2.888254"><ele>792.0</ele><time>2026-04-19T09:27:08.939Z</time></trkpt><trkpt lat="38.9711435" lon="-2.8883466"><ele>790.6666666666667</ele><time>2026-04-19T09:27:10.938Z</time></trkpt><trkpt lat="38.9711778" lon="-2.8884509"><ele>789.3333333333334</ele><time>2026-04-19T09:27:12.939Z</time></trkpt><trkpt lat="38.9711961" lon="-2.8885448"><ele>788.0</ele><time>2026-04-19T09:27:14.938Z</time></trkpt><trkpt lat="38.9712604" lon="-2.8886203"><ele>787.8333333333334</ele><time>2026-04-19T09:27:16.939Z</time></trkpt><trkpt lat="38.9713425" lon="-2.8886732"><ele>787.6666666666667</ele><time>2026-04-19T09:27:18.939Z</time></trkpt><trkpt lat="38.9714186" lon="-2.8887225"><ele>787.5</ele><time>2026-04-19T09:27:20.939Z</time></trkpt><trkpt lat="38.9714716" lon="-2.8887844"><ele>787.3333333333333</ele><time>2026-04-19T09:27:22.939Z</time></trkpt><trkpt lat="38.9715139" lon="-2.888865"><ele>787.1666666666666</ele><time>2026-04-19T09:27:25.939Z</time></trkpt><trkpt lat="38.9715432" lon="-2.8889479"><ele>787.0</ele><time>2026-04-19T09:27:28.938Z</time></trkpt><trkpt lat="38.9716173" lon="-2.8889517"><ele>786.9999999999999</ele><time>2026-04-19T09:27:32.939Z</time></trkpt><trkpt lat="38.971661" lon="-2.8888817"><ele>787.0</ele><time>2026-04-19T09:27:36.938Z</time></trkpt><trkpt lat="38.9716344" lon="-2.8889789"><ele>787.0</ele><time>2026-04-19T09:33:09.939Z</time></trkpt><trkpt lat="38.9717032" lon="-2.8890346"><ele>787.0</ele><time>2026-04-19T09:33:13.938Z</time></trkpt><trkpt lat="38.9717688" lon="-2.8890036"><ele>786.9999999999999</ele><time>2026-04-19T09:33:15.938Z</time></trkpt><trkpt lat="38.9718413" lon="-2.8889776"><ele>787.0</ele><time>2026-04-19T09:33:17.937Z</time></trkpt><trkpt lat="38.9719121" lon="-2.8889503"><ele>786.4999999999999</ele><time>2026-04-19T09:33:19.937Z</time></trkpt><trkpt lat="38.9720019" lon="-2.8889171"><ele>786.0</ele><time>2026-04-19T09:33:22.937Z</time></trkpt><trkpt lat="38.9720834" lon="-2.8888743"><ele>785.5</ele><time>2026-04-19T09:33:25.939Z</time></trkpt><trkpt lat="38.9721586" lon="-2.8888416"><ele>785.0</ele><time>2026-04-19T09:33:28.938Z</time></trkpt><trkpt lat="38.9722343" lon="-2.8888118"><ele>784.4999999999999</ele><time>2026-04-19T09:33:31.938Z</time></trkpt><trkpt lat="38.9723227" lon="-2.8887734"><ele>784.0</ele><time>2026-04-19T09:33:34.938Z</time></trkpt><trkpt lat="38.9723848" lon="-2.8887415"><ele>783.9999999999999</ele><time>2026-04-19T09:33:36.937Z</time></trkpt><trkpt lat="38.972451" lon="-2.8887157"><ele>784.0</ele><time>2026-04-19T09:33:38.938Z</time></trkpt><trkpt lat="38.97252" lon="-2.888685"><ele>784.0</ele><time>2026-04-19T09:33:40.938Z</time></trkpt><trkpt lat="38.9725922" lon="-2.8886498"><ele>784.0</ele><time>2026-04-19T09:33:42.938Z</time></trkpt><trkpt lat="38.972623" lon="-2.8885605"><ele>783.9999999999999</ele><time>2026-04-19T09:33:44.938Z</time></trkpt><trkpt lat="38.9726244" lon="-2.8884257"><ele>784.0</ele><time>2026-04-19T09:33:46.938Z</time></trkpt><trkpt lat="38.9726772" lon="-2.888307"><ele>784.1666666666666</ele><time>2026-04-19T09:33:48.938Z</time></trkpt><trkpt lat="38.9727444" lon="-2.8882274"><ele>784.3333333333333</ele><time>2026-04-19T09:33:50.938Z</time></trkpt><trkpt lat="38.9727876" lon="-2.8881576"><ele>784.5</ele><time>2026-04-19T09:33:52.938Z</time></trkpt><trkpt lat="38.972801" lon="-2.8880707"><ele>784.6666666666667</ele><time>2026-04-19T09:33:55.938Z</time></trkpt><trkpt lat="38.9728596" lon="-2.8880111"><ele>784.8333333333334</ele><time>2026-04-19T09:33:58.938Z</time></trkpt><trkpt lat="38.9729225" lon="-2.8879308"><ele>785.0</ele><time>2026-04-19T09:34:01.938Z</time></trkpt><trkpt lat="38.9729895" lon="-2.8878637"><ele>785.0</ele><time>2026-04-19T09:34:04.938Z</time></trkpt><trkpt lat="38.973041" lon="-2.8878016"><ele>785.0</ele><time>2026-04-19T09:34:07.938Z</time></trkpt><trkpt lat="38.9730739" lon="-2.8877267"><ele>785.0</ele><time>2026-04-19T09:34:12.938Z</time></trkpt><trkpt lat="38.9730647" lon="-2.88781"><ele>785.0</ele><time>2026-04-19T09:34:17.938Z</time></trkpt><trkpt lat="38.9730139" lon="-2.8878619"><ele>785.0</ele><time>2026-04-19T09:34:21.938Z</time></trkpt><trkpt lat="38.9730419" lon="-2.8877875"><ele>785.0</ele><time>2026-04-19T09:34:35.938Z</time></trkpt><trkpt lat="38.9730755" lon="-2.8877169"><ele>785.0</ele><time>2026-04-19T09:34:41.938Z</time></trkpt><trkpt lat="38.9731198" lon="-2.8876571"><ele>785.5000000000001</ele><time>2026-04-19T09:34:50.938Z</time></trkpt><trkpt lat="38.9731475" lon="-2.8875575"><ele>786.0</ele><time>2026-04-19T09:34:55.938Z</time></trkpt><trkpt lat="38.9732078" lon="-2.8874806"><ele>786.5</ele><time>2026-04-19T09:34:58.937Z</time></trkpt><trkpt lat="38.9732742" lon="-2.8874218"><ele>787.0</ele><time>2026-04-19T09:35:01.939Z</time></trkpt><trkpt lat="38.9733312" lon="-2.8873627"><ele>787.5000000000001</ele><time>2026-04-19T09:35:04.938Z</time></trkpt><trkpt lat="38.973395" lon="-2.8873045"><ele>788.0</ele><time>2026-04-19T09:35:07.938Z</time></trkpt><trkpt lat="38.9734507" lon="-2.8872535"><ele>788.0000000000001</ele><time>2026-04-19T09:35:09.938Z</time></trkpt><trkpt lat="38.9735142" lon="-2.8872232"><ele>788.0</ele><time>2026-04-19T09:35:11.937Z</time></trkpt><trkpt lat="38.9735978" lon="-2.8872031"><ele>788.0</ele><time>2026-04-19T09:35:14.938Z</time></trkpt><trkpt lat="38.9736649" lon="-2.8871554"><ele>788.0</ele><time>2026-04-19T09:35:17.938Z</time></trkpt><trkpt lat="38.9737303" lon="-2.8870939"><ele>788.0000000000001</ele><time>2026-04-19T09:35:20.938Z</time></trkpt><trkpt lat="38.9737994" lon="-2.887052"><ele>788.0</ele><time>2026-04-19T09:35:23.938Z</time></trkpt><trkpt lat="38.9738526" lon="-2.8870077"><ele>788.0</ele><time>2026-04-19T09:35:25.938Z</time></trkpt><trkpt lat="38.9739271" lon="-2.8869466"><ele>788.0</ele><time>2026-04-19T09:35:28.937Z</time></trkpt><trkpt lat="38.9739792" lon="-2.8868891"><ele>788.0</ele><time>2026-04-19T09:35:31.938Z</time></trkpt><trkpt lat="38.9740172" lon="-2.8868085"><ele>788.0</ele><time>2026-04-19T09:35:57.939Z</time></trkpt></trkseg></trk></gpx>